<?xml version="1.0" encoding="UTF-8" standalone="no" ?>
<gpx xmlns="http://www.topografix.com/GPX/1/1" creator="MapSource 6.15.6" version="1.1" xmlns:xsi="http://www.w3.org/2001/XMLSchema-instance" xsi:schemaLocation="http://www.topografix.com/GPX/1/1 http://www.topografix.com/GPX/1/1/gpx.xsd">

  <metadata>
    <link href="http://www.garmin.com">
      <text>Garmin International</text>
    </link>
    <time>2009-07-06T07:37:43Z</time>
    <bounds maxlat="45.9482220" maxlon="9.0717730" minlat="45.8593120" minlon="9.0011040"/>
  </metadata>

  <wpt lat="45.8618990" lon="9.0087620">
    <time>2009-07-06T07:30:14Z</time>
    <name>PARTENZA / ARRIVO</name>
    <cmt>Castel San Pietro</cmt>
    <desc>Castel San Pietro</desc>
    <sym>Bike Trail</sym>
    <extensions>
      <gpxx:WaypointExtension xmlns:gpxx="http://www.garmin.com/xmlschemas/GpxExtensions/v3">
        <gpxx:DisplayMode>SymbolAndName</gpxx:DisplayMode>
      </gpxx:WaypointExtension>
    </extensions>
  </wpt>

  <trk>
    <name>2009-07-05T07_1</name>
    <extensions>
      <gpxx:TrackExtension xmlns:gpxx="http://www.garmin.com/xmlschemas/GpxExtensions/v3">
        <gpxx:DisplayColor>White</gpxx:DisplayColor>
      </gpxx:TrackExtension>
    </extensions>
    <trkseg>
      <trkpt lat="45.8618990" lon="9.0087620">
        <ele>457.6300000</ele>
        <time>2009-07-05T07:15:00Z</time>
      </trkpt>
      <trkpt lat="45.8618990" lon="9.0087620">
        <ele>457.6300000</ele>
        <time>2009-07-05T07:15:01Z</time>
      </trkpt>
      <trkpt lat="45.8619070" lon="9.0087550">
        <ele>457.7500000</ele>
        <time>2009-07-05T07:15:28Z</time>
      </trkpt>
      <trkpt lat="45.8619340" lon="9.0086920">
        <ele>457.4700000</ele>
        <time>2009-07-05T07:15:32Z</time>
      </trkpt>
      <trkpt lat="45.8619650" lon="9.0086610">
        <ele>457.6700000</ele>
        <time>2009-07-05T07:15:39Z</time>
      </trkpt>
      <trkpt lat="45.8619970" lon="9.0086440">
        <ele>457.5700000</ele>
        <time>2009-07-05T07:15:44Z</time>
      </trkpt>
      <trkpt lat="45.8620090" lon="9.0086540">
        <ele>457.2900000</ele>
        <time>2009-07-05T07:15:52Z</time>
      </trkpt>
      <trkpt lat="45.8620310" lon="9.0086360">
        <ele>457.0300000</ele>
        <time>2009-07-05T07:22:17Z</time>
      </trkpt>
      <trkpt lat="45.8620420" lon="9.0086280">
        <ele>456.6600000</ele>
        <time>2009-07-05T07:25:04Z</time>
      </trkpt>
      <trkpt lat="45.8620770" lon="9.0085220">
        <ele>456.4500000</ele>
        <time>2009-07-05T07:25:11Z</time>
      </trkpt>
      <trkpt lat="45.8621490" lon="9.0084500">
        <ele>456.5300000</ele>
        <time>2009-07-05T07:25:17Z</time>
      </trkpt>
      <trkpt lat="45.8622250" lon="9.0084090">
        <ele>456.2500000</ele>
        <time>2009-07-05T07:25:21Z</time>
      </trkpt>
      <trkpt lat="45.8622120" lon="9.0083660">
        <ele>456.3800000</ele>
        <time>2009-07-05T07:25:24Z</time>
      </trkpt>
      <trkpt lat="45.8621970" lon="9.0083920">
        <ele>456.2400000</ele>
        <time>2009-07-05T07:25:25Z</time>
      </trkpt>
      <trkpt lat="45.8620750" lon="9.0086370">
        <ele>456.9300000</ele>
        <time>2009-07-05T07:25:32Z</time>
      </trkpt>
      <trkpt lat="45.8619430" lon="9.0088870">
        <ele>457.1100000</ele>
        <time>2009-07-05T07:25:38Z</time>
      </trkpt>
      <trkpt lat="45.8618240" lon="9.0091240">
        <ele>457.0100000</ele>
        <time>2009-07-05T07:25:44Z</time>
      </trkpt>
      <trkpt lat="45.8618010" lon="9.0093670">
        <ele>457.7100000</ele>
        <time>2009-07-05T07:25:49Z</time>
      </trkpt>
      <trkpt lat="45.8618740" lon="9.0095670">
        <ele>458.4600000</ele>
        <time>2009-07-05T07:25:55Z</time>
      </trkpt>
      <trkpt lat="45.8619650" lon="9.0097360">
        <ele>460.3000000</ele>
        <time>2009-07-05T07:26:03Z</time>
      </trkpt>
      <trkpt lat="45.8620440" lon="9.0099450">
        <ele>462.4300000</ele>
        <time>2009-07-05T07:26:12Z</time>
      </trkpt>
      <trkpt lat="45.8620790" lon="9.0101610">
        <ele>464.3800000</ele>
        <time>2009-07-05T07:26:21Z</time>
      </trkpt>
      <trkpt lat="45.8621060" lon="9.0103890">
        <ele>466.5600000</ele>
        <time>2009-07-05T07:26:30Z</time>
      </trkpt>
      <trkpt lat="45.8621560" lon="9.0105950">
        <ele>468.4000000</ele>
        <time>2009-07-05T07:26:39Z</time>
      </trkpt>
      <trkpt lat="45.8622080" lon="9.0107670">
        <ele>470.0800000</ele>
        <time>2009-07-05T07:26:47Z</time>
      </trkpt>
      <trkpt lat="45.8623250" lon="9.0110060">
        <ele>472.9100000</ele>
        <time>2009-07-05T07:26:59Z</time>
      </trkpt>
      <trkpt lat="45.8624370" lon="9.0111850">
        <ele>475.0300000</ele>
        <time>2009-07-05T07:27:09Z</time>
      </trkpt>
      <trkpt lat="45.8625410" lon="9.0113400">
        <ele>476.9100000</ele>
        <time>2009-07-05T07:27:17Z</time>
      </trkpt>
      <trkpt lat="45.8626240" lon="9.0114170">
        <ele>477.8300000</ele>
        <time>2009-07-05T07:27:23Z</time>
      </trkpt>
      <trkpt lat="45.8627510" lon="9.0115920">
        <ele>479.8200000</ele>
        <time>2009-07-05T07:27:33Z</time>
      </trkpt>
      <trkpt lat="45.8628610" lon="9.0117310">
        <ele>481.3300000</ele>
        <time>2009-07-05T07:27:42Z</time>
      </trkpt>
      <trkpt lat="45.8630020" lon="9.0119200">
        <ele>483.3000000</ele>
        <time>2009-07-05T07:27:53Z</time>
      </trkpt>
      <trkpt lat="45.8631050" lon="9.0120560">
        <ele>484.2000000</ele>
        <time>2009-07-05T07:28:01Z</time>
      </trkpt>
      <trkpt lat="45.8632220" lon="9.0122160">
        <ele>485.7000000</ele>
        <time>2009-07-05T07:28:10Z</time>
      </trkpt>
      <trkpt lat="45.8633130" lon="9.0123340">
        <ele>487.1700000</ele>
        <time>2009-07-05T07:28:17Z</time>
      </trkpt>
      <trkpt lat="45.8634270" lon="9.0124800">
        <ele>488.7300000</ele>
        <time>2009-07-05T07:28:26Z</time>
      </trkpt>
      <trkpt lat="45.8635640" lon="9.0126390">
        <ele>491.0300000</ele>
        <time>2009-07-05T07:28:36Z</time>
      </trkpt>
      <trkpt lat="45.8636930" lon="9.0127490">
        <ele>492.6500000</ele>
        <time>2009-07-05T07:28:45Z</time>
      </trkpt>
      <trkpt lat="45.8638040" lon="9.0127830">
        <ele>494.0500000</ele>
        <time>2009-07-05T07:28:52Z</time>
      </trkpt>
      <trkpt lat="45.8638990" lon="9.0128050">
        <ele>495.3100000</ele>
        <time>2009-07-05T07:28:58Z</time>
      </trkpt>
      <trkpt lat="45.8640270" lon="9.0128290">
        <ele>496.7800000</ele>
        <time>2009-07-05T07:29:05Z</time>
      </trkpt>
      <trkpt lat="45.8641530" lon="9.0128270">
        <ele>498.2100000</ele>
        <time>2009-07-05T07:29:12Z</time>
      </trkpt>
      <trkpt lat="45.8643520" lon="9.0128410">
        <ele>500.1000000</ele>
        <time>2009-07-05T07:29:23Z</time>
      </trkpt>
      <trkpt lat="45.8644850" lon="9.0129050">
        <ele>501.8200000</ele>
        <time>2009-07-05T07:29:31Z</time>
      </trkpt>
      <trkpt lat="45.8645920" lon="9.0129940">
        <ele>503.0100000</ele>
        <time>2009-07-05T07:29:38Z</time>
      </trkpt>
      <trkpt lat="45.8647080" lon="9.0131850">
        <ele>504.3700000</ele>
        <time>2009-07-05T07:29:48Z</time>
      </trkpt>
      <trkpt lat="45.8647280" lon="9.0133410">
        <ele>505.2000000</ele>
        <time>2009-07-05T07:29:54Z</time>
      </trkpt>
      <trkpt lat="45.8647020" lon="9.0136670">
        <ele>506.5400000</ele>
        <time>2009-07-05T07:30:05Z</time>
      </trkpt>
      <trkpt lat="45.8646680" lon="9.0139960">
        <ele>508.1200000</ele>
        <time>2009-07-05T07:30:16Z</time>
      </trkpt>
      <trkpt lat="45.8646060" lon="9.0142490">
        <ele>508.7900000</ele>
        <time>2009-07-05T07:30:24Z</time>
      </trkpt>
      <trkpt lat="45.8645320" lon="9.0143830">
        <ele>509.0500000</ele>
        <time>2009-07-05T07:30:29Z</time>
      </trkpt>
      <trkpt lat="45.8644160" lon="9.0145690">
        <ele>509.3800000</ele>
        <time>2009-07-05T07:30:36Z</time>
      </trkpt>
      <trkpt lat="45.8642830" lon="9.0148800">
        <ele>509.7300000</ele>
        <time>2009-07-05T07:30:46Z</time>
      </trkpt>
      <trkpt lat="45.8641600" lon="9.0151890">
        <ele>510.1300000</ele>
        <time>2009-07-05T07:30:55Z</time>
      </trkpt>
      <trkpt lat="45.8640510" lon="9.0156040">
        <ele>510.9400000</ele>
        <time>2009-07-05T07:31:06Z</time>
      </trkpt>
      <trkpt lat="45.8640680" lon="9.0158650">
        <ele>511.6300000</ele>
        <time>2009-07-05T07:31:13Z</time>
      </trkpt>
      <trkpt lat="45.8640940" lon="9.0161280">
        <ele>512.7200000</ele>
        <time>2009-07-05T07:31:21Z</time>
      </trkpt>
      <trkpt lat="45.8641480" lon="9.0165650">
        <ele>514.6800000</ele>
        <time>2009-07-05T07:31:35Z</time>
      </trkpt>
      <trkpt lat="45.8642510" lon="9.0168230">
        <ele>515.5300000</ele>
        <time>2009-07-05T07:31:44Z</time>
      </trkpt>
      <trkpt lat="45.8643860" lon="9.0170450">
        <ele>516.0200000</ele>
        <time>2009-07-05T07:31:52Z</time>
      </trkpt>
      <trkpt lat="45.8644700" lon="9.0173500">
        <ele>516.6200000</ele>
        <time>2009-07-05T07:32:01Z</time>
      </trkpt>
      <trkpt lat="45.8645440" lon="9.0176620">
        <ele>517.4500000</ele>
        <time>2009-07-05T07:32:10Z</time>
      </trkpt>
      <trkpt lat="45.8647130" lon="9.0179030">
        <ele>518.0900000</ele>
        <time>2009-07-05T07:32:19Z</time>
      </trkpt>
      <trkpt lat="45.8649200" lon="9.0180350">
        <ele>518.3400000</ele>
        <time>2009-07-05T07:32:27Z</time>
      </trkpt>
      <trkpt lat="45.8650920" lon="9.0182510">
        <ele>518.4600000</ele>
        <time>2009-07-05T07:32:34Z</time>
      </trkpt>
      <trkpt lat="45.8652570" lon="9.0185600">
        <ele>517.9100000</ele>
        <time>2009-07-05T07:32:41Z</time>
      </trkpt>
      <trkpt lat="45.8655040" lon="9.0189890">
        <ele>517.6100000</ele>
        <time>2009-07-05T07:32:51Z</time>
      </trkpt>
      <trkpt lat="45.8656680" lon="9.0190900">
        <ele>517.8500000</ele>
        <time>2009-07-05T07:32:56Z</time>
      </trkpt>
      <trkpt lat="45.8658940" lon="9.0193610">
        <ele>517.8900000</ele>
        <time>2009-07-05T07:33:04Z</time>
      </trkpt>
      <trkpt lat="45.8659290" lon="9.0195750">
        <ele>517.7700000</ele>
        <time>2009-07-05T07:33:08Z</time>
      </trkpt>
      <trkpt lat="45.8659320" lon="9.0196810">
        <ele>517.3900000</ele>
        <time>2009-07-05T07:33:10Z</time>
      </trkpt>
      <trkpt lat="45.8660210" lon="9.0199680">
        <ele>516.2900000</ele>
        <time>2009-07-05T07:33:15Z</time>
      </trkpt>
      <trkpt lat="45.8660590" lon="9.0200120">
        <ele>516.4700000</ele>
        <time>2009-07-05T07:33:16Z</time>
      </trkpt>
      <trkpt lat="45.8662310" lon="9.0201870">
        <ele>515.8100000</ele>
        <time>2009-07-05T07:33:20Z</time>
      </trkpt>
      <trkpt lat="45.8663820" lon="9.0204820">
        <ele>515.8400000</ele>
        <time>2009-07-05T07:33:25Z</time>
      </trkpt>
      <trkpt lat="45.8665290" lon="9.0208670">
        <ele>516.8600000</ele>
        <time>2009-07-05T07:33:33Z</time>
      </trkpt>
      <trkpt lat="45.8666540" lon="9.0210050">
        <ele>517.3600000</ele>
        <time>2009-07-05T07:33:38Z</time>
      </trkpt>
      <trkpt lat="45.8667970" lon="9.0212710">
        <ele>517.6600000</ele>
        <time>2009-07-05T07:33:45Z</time>
      </trkpt>
      <trkpt lat="45.8669020" lon="9.0217000">
        <ele>518.7000000</ele>
        <time>2009-07-05T07:33:54Z</time>
      </trkpt>
      <trkpt lat="45.8670160" lon="9.0219490">
        <ele>518.6400000</ele>
        <time>2009-07-05T07:34:00Z</time>
      </trkpt>
      <trkpt lat="45.8672170" lon="9.0221610">
        <ele>519.1500000</ele>
        <time>2009-07-05T07:34:07Z</time>
      </trkpt>
      <trkpt lat="45.8674310" lon="9.0222140">
        <ele>520.3600000</ele>
        <time>2009-07-05T07:34:14Z</time>
      </trkpt>
      <trkpt lat="45.8676600" lon="9.0222650">
        <ele>521.6200000</ele>
        <time>2009-07-05T07:34:22Z</time>
      </trkpt>
      <trkpt lat="45.8678580" lon="9.0223320">
        <ele>522.7200000</ele>
        <time>2009-07-05T07:34:29Z</time>
      </trkpt>
      <trkpt lat="45.8680550" lon="9.0223180">
        <ele>523.9700000</ele>
        <time>2009-07-05T07:34:36Z</time>
      </trkpt>
      <trkpt lat="45.8682650" lon="9.0223330">
        <ele>525.5600000</ele>
        <time>2009-07-05T07:34:44Z</time>
      </trkpt>
      <trkpt lat="45.8684860" lon="9.0224280">
        <ele>527.4400000</ele>
        <time>2009-07-05T07:34:54Z</time>
      </trkpt>
      <trkpt lat="45.8687230" lon="9.0225060">
        <ele>529.4700000</ele>
        <time>2009-07-05T07:35:05Z</time>
      </trkpt>
      <trkpt lat="45.8688860" lon="9.0226100">
        <ele>530.9100000</ele>
        <time>2009-07-05T07:35:13Z</time>
      </trkpt>
      <trkpt lat="45.8690580" lon="9.0227280">
        <ele>532.9500000</ele>
        <time>2009-07-05T07:35:22Z</time>
      </trkpt>
      <trkpt lat="45.8692210" lon="9.0227630">
        <ele>534.9200000</ele>
        <time>2009-07-05T07:35:30Z</time>
      </trkpt>
      <trkpt lat="45.8693310" lon="9.0227520">
        <ele>536.1900000</ele>
        <time>2009-07-05T07:35:36Z</time>
      </trkpt>
      <trkpt lat="45.8694580" lon="9.0227650">
        <ele>537.8600000</ele>
        <time>2009-07-05T07:35:43Z</time>
      </trkpt>
      <trkpt lat="45.8695930" lon="9.0228350">
        <ele>539.2900000</ele>
        <time>2009-07-05T07:35:51Z</time>
      </trkpt>
      <trkpt lat="45.8697470" lon="9.0229210">
        <ele>541.0700000</ele>
        <time>2009-07-05T07:36:00Z</time>
      </trkpt>
      <trkpt lat="45.8698990" lon="9.0229710">
        <ele>543.3400000</ele>
        <time>2009-07-05T07:36:09Z</time>
      </trkpt>
      <trkpt lat="45.8699920" lon="9.0230920">
        <ele>544.6500000</ele>
        <time>2009-07-05T07:36:16Z</time>
      </trkpt>
      <trkpt lat="45.8701100" lon="9.0232920">
        <ele>547.1300000</ele>
        <time>2009-07-05T07:36:26Z</time>
      </trkpt>
      <trkpt lat="45.8702100" lon="9.0234390">
        <ele>549.2600000</ele>
        <time>2009-07-05T07:36:34Z</time>
      </trkpt>
      <trkpt lat="45.8703170" lon="9.0235780">
        <ele>551.2200000</ele>
        <time>2009-07-05T07:36:42Z</time>
      </trkpt>
      <trkpt lat="45.8704340" lon="9.0236310">
        <ele>552.6400000</ele>
        <time>2009-07-05T07:36:49Z</time>
      </trkpt>
      <trkpt lat="45.8705780" lon="9.0235940">
        <ele>554.1300000</ele>
        <time>2009-07-05T07:36:58Z</time>
      </trkpt>
      <trkpt lat="45.8707230" lon="9.0234550">
        <ele>555.7200000</ele>
        <time>2009-07-05T07:37:07Z</time>
      </trkpt>
      <trkpt lat="45.8708310" lon="9.0233170">
        <ele>557.3900000</ele>
        <time>2009-07-05T07:37:15Z</time>
      </trkpt>
      <trkpt lat="45.8709240" lon="9.0232080">
        <ele>558.7800000</ele>
        <time>2009-07-05T07:37:23Z</time>
      </trkpt>
      <trkpt lat="45.8710740" lon="9.0232270">
        <ele>560.3200000</ele>
        <time>2009-07-05T07:37:31Z</time>
      </trkpt>
      <trkpt lat="45.8712040" lon="9.0232230">
        <ele>561.7800000</ele>
        <time>2009-07-05T07:37:38Z</time>
      </trkpt>
      <trkpt lat="45.8714150" lon="9.0231980">
        <ele>564.2300000</ele>
        <time>2009-07-05T07:37:49Z</time>
      </trkpt>
      <trkpt lat="45.8716160" lon="9.0231290">
        <ele>565.6800000</ele>
        <time>2009-07-05T07:37:59Z</time>
      </trkpt>
      <trkpt lat="45.8717830" lon="9.0230570">
        <ele>566.5800000</ele>
        <time>2009-07-05T07:38:07Z</time>
      </trkpt>
      <trkpt lat="45.8719650" lon="9.0229790">
        <ele>567.5500000</ele>
        <time>2009-07-05T07:38:16Z</time>
      </trkpt>
      <trkpt lat="45.8721320" lon="9.0228670">
        <ele>567.2200000</ele>
        <time>2009-07-05T07:38:23Z</time>
      </trkpt>
      <trkpt lat="45.8723540" lon="9.0226610">
        <ele>566.7800000</ele>
        <time>2009-07-05T07:38:31Z</time>
      </trkpt>
      <trkpt lat="45.8725340" lon="9.0225320">
        <ele>566.5600000</ele>
        <time>2009-07-05T07:38:37Z</time>
      </trkpt>
      <trkpt lat="45.8727660" lon="9.0223590">
        <ele>566.1200000</ele>
        <time>2009-07-05T07:38:44Z</time>
      </trkpt>
      <trkpt lat="45.8729500" lon="9.0222290">
        <ele>565.9700000</ele>
        <time>2009-07-05T07:38:49Z</time>
      </trkpt>
      <trkpt lat="45.8730970" lon="9.0221220">
        <ele>565.7900000</ele>
        <time>2009-07-05T07:38:53Z</time>
      </trkpt>
      <trkpt lat="45.8732350" lon="9.0219840">
        <ele>565.8500000</ele>
        <time>2009-07-05T07:38:57Z</time>
      </trkpt>
      <trkpt lat="45.8735090" lon="9.0217130">
        <ele>566.0700000</ele>
        <time>2009-07-05T07:39:06Z</time>
      </trkpt>
      <trkpt lat="45.8736600" lon="9.0215770">
        <ele>565.9500000</ele>
        <time>2009-07-05T07:39:12Z</time>
      </trkpt>
      <trkpt lat="45.8737720" lon="9.0212410">
        <ele>565.5000000</ele>
        <time>2009-07-05T07:39:19Z</time>
      </trkpt>
      <trkpt lat="45.8738940" lon="9.0209940">
        <ele>565.4600000</ele>
        <time>2009-07-05T07:39:25Z</time>
      </trkpt>
      <trkpt lat="45.8739910" lon="9.0207430">
        <ele>565.0400000</ele>
        <time>2009-07-05T07:39:30Z</time>
      </trkpt>
      <trkpt lat="45.8741080" lon="9.0207230">
        <ele>565.6000000</ele>
        <time>2009-07-05T07:39:34Z</time>
      </trkpt>
      <trkpt lat="45.8741570" lon="9.0208090">
        <ele>566.4500000</ele>
        <time>2009-07-05T07:39:37Z</time>
      </trkpt>
      <trkpt lat="45.8742050" lon="9.0211220">
        <ele>567.9500000</ele>
        <time>2009-07-05T07:39:45Z</time>
      </trkpt>
      <trkpt lat="45.8742310" lon="9.0213700">
        <ele>569.2900000</ele>
        <time>2009-07-05T07:39:52Z</time>
      </trkpt>
      <trkpt lat="45.8742660" lon="9.0215990">
        <ele>570.1400000</ele>
        <time>2009-07-05T07:39:59Z</time>
      </trkpt>
      <trkpt lat="45.8742920" lon="9.0218230">
        <ele>570.7500000</ele>
        <time>2009-07-05T07:40:05Z</time>
      </trkpt>
      <trkpt lat="45.8743380" lon="9.0222180">
        <ele>572.3000000</ele>
        <time>2009-07-05T07:40:16Z</time>
      </trkpt>
      <trkpt lat="45.8743520" lon="9.0224840">
        <ele>573.3700000</ele>
        <time>2009-07-05T07:40:24Z</time>
      </trkpt>
      <trkpt lat="45.8743960" lon="9.0226810">
        <ele>574.3400000</ele>
        <time>2009-07-05T07:40:30Z</time>
      </trkpt>
      <trkpt lat="45.8745450" lon="9.0229240">
        <ele>575.7600000</ele>
        <time>2009-07-05T07:40:39Z</time>
      </trkpt>
      <trkpt lat="45.8746960" lon="9.0231540">
        <ele>576.4200000</ele>
        <time>2009-07-05T07:40:47Z</time>
      </trkpt>
      <trkpt lat="45.8749000" lon="9.0234250">
        <ele>576.4500000</ele>
        <time>2009-07-05T07:40:56Z</time>
      </trkpt>
      <trkpt lat="45.8750460" lon="9.0234530">
        <ele>577.0800000</ele>
        <time>2009-07-05T07:41:01Z</time>
      </trkpt>
      <trkpt lat="45.8752390" lon="9.0234220">
        <ele>577.8600000</ele>
        <time>2009-07-05T07:41:08Z</time>
      </trkpt>
      <trkpt lat="45.8754390" lon="9.0233810">
        <ele>579.1100000</ele>
        <time>2009-07-05T07:41:16Z</time>
      </trkpt>
      <trkpt lat="45.8756320" lon="9.0233260">
        <ele>580.9100000</ele>
        <time>2009-07-05T07:41:24Z</time>
      </trkpt>
      <trkpt lat="45.8757650" lon="9.0232430">
        <ele>582.1400000</ele>
        <time>2009-07-05T07:41:30Z</time>
      </trkpt>
      <trkpt lat="45.8759230" lon="9.0231290">
        <ele>583.3700000</ele>
        <time>2009-07-05T07:41:38Z</time>
      </trkpt>
      <trkpt lat="45.8760230" lon="9.0230050">
        <ele>584.7900000</ele>
        <time>2009-07-05T07:41:44Z</time>
      </trkpt>
      <trkpt lat="45.8761140" lon="9.0228610">
        <ele>586.2300000</ele>
        <time>2009-07-05T07:41:51Z</time>
      </trkpt>
      <trkpt lat="45.8762030" lon="9.0227220">
        <ele>587.9400000</ele>
        <time>2009-07-05T07:41:58Z</time>
      </trkpt>
      <trkpt lat="45.8763040" lon="9.0226070">
        <ele>588.5500000</ele>
        <time>2009-07-05T07:42:04Z</time>
      </trkpt>
      <trkpt lat="45.8764300" lon="9.0226230">
        <ele>589.9700000</ele>
        <time>2009-07-05T07:42:10Z</time>
      </trkpt>
      <trkpt lat="45.8765520" lon="9.0227530">
        <ele>591.5100000</ele>
        <time>2009-07-05T07:42:18Z</time>
      </trkpt>
      <trkpt lat="45.8766820" lon="9.0228600">
        <ele>592.8000000</ele>
        <time>2009-07-05T07:42:26Z</time>
      </trkpt>
      <trkpt lat="45.8768440" lon="9.0229060">
        <ele>595.0600000</ele>
        <time>2009-07-05T07:42:35Z</time>
      </trkpt>
      <trkpt lat="45.8769920" lon="9.0228330">
        <ele>596.5000000</ele>
        <time>2009-07-05T07:42:43Z</time>
      </trkpt>
      <trkpt lat="45.8771350" lon="9.0227620">
        <ele>598.3900000</ele>
        <time>2009-07-05T07:42:51Z</time>
      </trkpt>
      <trkpt lat="45.8773080" lon="9.0226570">
        <ele>599.7800000</ele>
        <time>2009-07-05T07:43:00Z</time>
      </trkpt>
      <trkpt lat="45.8774660" lon="9.0225760">
        <ele>600.7900000</ele>
        <time>2009-07-05T07:43:08Z</time>
      </trkpt>
      <trkpt lat="45.8775850" lon="9.0225070">
        <ele>601.4700000</ele>
        <time>2009-07-05T07:43:14Z</time>
      </trkpt>
      <trkpt lat="45.8777490" lon="9.0224570">
        <ele>602.5000000</ele>
        <time>2009-07-05T07:43:22Z</time>
      </trkpt>
      <trkpt lat="45.8779000" lon="9.0224610">
        <ele>602.9000000</ele>
        <time>2009-07-05T07:43:29Z</time>
      </trkpt>
      <trkpt lat="45.8780880" lon="9.0223780">
        <ele>603.8000000</ele>
        <time>2009-07-05T07:43:38Z</time>
      </trkpt>
      <trkpt lat="45.8782550" lon="9.0222440">
        <ele>604.7000000</ele>
        <time>2009-07-05T07:43:46Z</time>
      </trkpt>
      <trkpt lat="45.8783770" lon="9.0221440">
        <ele>605.2800000</ele>
        <time>2009-07-05T07:43:52Z</time>
      </trkpt>
      <trkpt lat="45.8785560" lon="9.0220710">
        <ele>606.2900000</ele>
        <time>2009-07-05T07:44:00Z</time>
      </trkpt>
      <trkpt lat="45.8786550" lon="9.0220950">
        <ele>606.9900000</ele>
        <time>2009-07-05T07:44:04Z</time>
      </trkpt>
      <trkpt lat="45.8787490" lon="9.0222720">
        <ele>608.2500000</ele>
        <time>2009-07-05T07:44:11Z</time>
      </trkpt>
      <trkpt lat="45.8787420" lon="9.0224200">
        <ele>609.5400000</ele>
        <time>2009-07-05T07:44:17Z</time>
      </trkpt>
      <trkpt lat="45.8786970" lon="9.0226010">
        <ele>610.8600000</ele>
        <time>2009-07-05T07:44:24Z</time>
      </trkpt>
      <trkpt lat="45.8786400" lon="9.0228190">
        <ele>612.6700000</ele>
        <time>2009-07-05T07:44:33Z</time>
      </trkpt>
      <trkpt lat="45.8785960" lon="9.0230070">
        <ele>615.0900000</ele>
        <time>2009-07-05T07:44:41Z</time>
      </trkpt>
      <trkpt lat="45.8785600" lon="9.0231550">
        <ele>616.7000000</ele>
        <time>2009-07-05T07:44:47Z</time>
      </trkpt>
      <trkpt lat="45.8785300" lon="9.0232570">
        <ele>617.6200000</ele>
        <time>2009-07-05T07:44:52Z</time>
      </trkpt>
      <trkpt lat="45.8785220" lon="9.0232780">
        <ele>617.9700000</ele>
        <time>2009-07-05T07:44:53Z</time>
      </trkpt>
      <trkpt lat="45.8784520" lon="9.0234570">
        <ele>619.3600000</ele>
        <time>2009-07-05T07:45:01Z</time>
      </trkpt>
      <trkpt lat="45.8783810" lon="9.0236920">
        <ele>621.0900000</ele>
        <time>2009-07-05T07:45:11Z</time>
      </trkpt>
      <trkpt lat="45.8783580" lon="9.0239310">
        <ele>622.8600000</ele>
        <time>2009-07-05T07:45:19Z</time>
      </trkpt>
      <trkpt lat="45.8784170" lon="9.0241140">
        <ele>624.3300000</ele>
        <time>2009-07-05T07:45:26Z</time>
      </trkpt>
      <trkpt lat="45.8785270" lon="9.0243100">
        <ele>626.0500000</ele>
        <time>2009-07-05T07:45:35Z</time>
      </trkpt>
      <trkpt lat="45.8786670" lon="9.0245070">
        <ele>627.8400000</ele>
        <time>2009-07-05T07:45:45Z</time>
      </trkpt>
      <trkpt lat="45.8787640" lon="9.0246510">
        <ele>629.2500000</ele>
        <time>2009-07-05T07:45:52Z</time>
      </trkpt>
      <trkpt lat="45.8788840" lon="9.0248020">
        <ele>630.3400000</ele>
        <time>2009-07-05T07:46:00Z</time>
      </trkpt>
      <trkpt lat="45.8790470" lon="9.0249050">
        <ele>631.8900000</ele>
        <time>2009-07-05T07:46:09Z</time>
      </trkpt>
      <trkpt lat="45.8792050" lon="9.0249090">
        <ele>633.7400000</ele>
        <time>2009-07-05T07:46:17Z</time>
      </trkpt>
      <trkpt lat="45.8793200" lon="9.0248620">
        <ele>634.9600000</ele>
        <time>2009-07-05T07:46:23Z</time>
      </trkpt>
      <trkpt lat="45.8794730" lon="9.0247900">
        <ele>636.5900000</ele>
        <time>2009-07-05T07:46:31Z</time>
      </trkpt>
      <trkpt lat="45.8796240" lon="9.0247870">
        <ele>638.0300000</ele>
        <time>2009-07-05T07:46:39Z</time>
      </trkpt>
      <trkpt lat="45.8797670" lon="9.0248550">
        <ele>639.4300000</ele>
        <time>2009-07-05T07:46:46Z</time>
      </trkpt>
      <trkpt lat="45.8798960" lon="9.0249390">
        <ele>640.9000000</ele>
        <time>2009-07-05T07:46:54Z</time>
      </trkpt>
      <trkpt lat="45.8800350" lon="9.0250130">
        <ele>642.2800000</ele>
        <time>2009-07-05T07:47:02Z</time>
      </trkpt>
      <trkpt lat="45.8801350" lon="9.0250710">
        <ele>642.0700000</ele>
        <time>2009-07-05T07:47:08Z</time>
      </trkpt>
      <trkpt lat="45.8802720" lon="9.0250820">
        <ele>644.8600000</ele>
        <time>2009-07-05T07:47:15Z</time>
      </trkpt>
      <trkpt lat="45.8803760" lon="9.0250670">
        <ele>646.1700000</ele>
        <time>2009-07-05T07:47:21Z</time>
      </trkpt>
      <trkpt lat="45.8805350" lon="9.0249820">
        <ele>647.0400000</ele>
        <time>2009-07-05T07:47:29Z</time>
      </trkpt>
      <trkpt lat="45.8806620" lon="9.0248440">
        <ele>648.0900000</ele>
        <time>2009-07-05T07:47:36Z</time>
      </trkpt>
      <trkpt lat="45.8807710" lon="9.0246080">
        <ele>648.7200000</ele>
        <time>2009-07-05T07:47:43Z</time>
      </trkpt>
      <trkpt lat="45.8808470" lon="9.0244010">
        <ele>649.5100000</ele>
        <time>2009-07-05T07:47:50Z</time>
      </trkpt>
      <trkpt lat="45.8808950" lon="9.0242660">
        <ele>650.1300000</ele>
        <time>2009-07-05T07:47:55Z</time>
      </trkpt>
      <trkpt lat="45.8810070" lon="9.0240820">
        <ele>650.3900000</ele>
        <time>2009-07-05T07:48:00Z</time>
      </trkpt>
      <trkpt lat="45.8811060" lon="9.0240970">
        <ele>651.4600000</ele>
        <time>2009-07-05T07:48:04Z</time>
      </trkpt>
      <trkpt lat="45.8811720" lon="9.0242240">
        <ele>653.0200000</ele>
        <time>2009-07-05T07:48:10Z</time>
      </trkpt>
      <trkpt lat="45.8812200" lon="9.0243450">
        <ele>654.0700000</ele>
        <time>2009-07-05T07:48:16Z</time>
      </trkpt>
      <trkpt lat="45.8812950" lon="9.0244700">
        <ele>655.2000000</ele>
        <time>2009-07-05T07:48:22Z</time>
      </trkpt>
      <trkpt lat="45.8813040" lon="9.0244880">
        <ele>655.5900000</ele>
        <time>2009-07-05T07:48:23Z</time>
      </trkpt>
      <trkpt lat="45.8813270" lon="9.0246600">
        <ele>656.7500000</ele>
        <time>2009-07-05T07:48:30Z</time>
      </trkpt>
      <trkpt lat="45.8813050" lon="9.0249220">
        <ele>658.1600000</ele>
        <time>2009-07-05T07:48:38Z</time>
      </trkpt>
      <trkpt lat="45.8813460" lon="9.0251030">
        <ele>659.2300000</ele>
        <time>2009-07-05T07:48:45Z</time>
      </trkpt>
      <trkpt lat="45.8813770" lon="9.0253150">
        <ele>660.3200000</ele>
        <time>2009-07-05T07:48:52Z</time>
      </trkpt>
      <trkpt lat="45.8814290" lon="9.0255780">
        <ele>662.8400000</ele>
        <time>2009-07-05T07:49:01Z</time>
      </trkpt>
      <trkpt lat="45.8814530" lon="9.0257760">
        <ele>664.4000000</ele>
        <time>2009-07-05T07:49:08Z</time>
      </trkpt>
      <trkpt lat="45.8814610" lon="9.0258970">
        <ele>665.6000000</ele>
        <time>2009-07-05T07:49:13Z</time>
      </trkpt>
      <trkpt lat="45.8814700" lon="9.0261100">
        <ele>667.5500000</ele>
        <time>2009-07-05T07:49:21Z</time>
      </trkpt>
      <trkpt lat="45.8814540" lon="9.0263240">
        <ele>669.3800000</ele>
        <time>2009-07-05T07:49:29Z</time>
      </trkpt>
      <trkpt lat="45.8813850" lon="9.0265430">
        <ele>671.6100000</ele>
        <time>2009-07-05T07:49:38Z</time>
      </trkpt>
      <trkpt lat="45.8813320" lon="9.0267200">
        <ele>672.7100000</ele>
        <time>2009-07-05T07:49:45Z</time>
      </trkpt>
      <trkpt lat="45.8812870" lon="9.0268910">
        <ele>674.6600000</ele>
        <time>2009-07-05T07:49:52Z</time>
      </trkpt>
      <trkpt lat="45.8812710" lon="9.0271020">
        <ele>676.5000000</ele>
        <time>2009-07-05T07:50:00Z</time>
      </trkpt>
      <trkpt lat="45.8813390" lon="9.0272340">
        <ele>678.3600000</ele>
        <time>2009-07-05T07:50:06Z</time>
      </trkpt>
      <trkpt lat="45.8813980" lon="9.0273410">
        <ele>679.1300000</ele>
        <time>2009-07-05T07:50:11Z</time>
      </trkpt>
      <trkpt lat="45.8815130" lon="9.0274100">
        <ele>680.4100000</ele>
        <time>2009-07-05T07:50:18Z</time>
      </trkpt>
      <trkpt lat="45.8815810" lon="9.0274870">
        <ele>680.9000000</ele>
        <time>2009-07-05T07:50:23Z</time>
      </trkpt>
      <trkpt lat="45.8817110" lon="9.0275840">
        <ele>681.8100000</ele>
        <time>2009-07-05T07:50:31Z</time>
      </trkpt>
      <trkpt lat="45.8818120" lon="9.0276310">
        <ele>682.2400000</ele>
        <time>2009-07-05T07:50:36Z</time>
      </trkpt>
      <trkpt lat="45.8819270" lon="9.0277160">
        <ele>682.3500000</ele>
        <time>2009-07-05T07:50:41Z</time>
      </trkpt>
      <trkpt lat="45.8820910" lon="9.0278010">
        <ele>682.1800000</ele>
        <time>2009-07-05T07:50:47Z</time>
      </trkpt>
      <trkpt lat="45.8822800" lon="9.0278670">
        <ele>681.6700000</ele>
        <time>2009-07-05T07:50:53Z</time>
      </trkpt>
      <trkpt lat="45.8824200" lon="9.0278990">
        <ele>680.9500000</ele>
        <time>2009-07-05T07:50:59Z</time>
      </trkpt>
      <trkpt lat="45.8825030" lon="9.0279200">
        <ele>680.2300000</ele>
        <time>2009-07-05T07:51:05Z</time>
      </trkpt>
      <trkpt lat="45.8825910" lon="9.0279530">
        <ele>678.9300000</ele>
        <time>2009-07-05T07:51:08Z</time>
      </trkpt>
      <trkpt lat="45.8826150" lon="9.0279690">
        <ele>678.6000000</ele>
        <time>2009-07-05T07:51:09Z</time>
      </trkpt>
      <trkpt lat="45.8826350" lon="9.0279560">
        <ele>678.3200000</ele>
        <time>2009-07-05T07:51:14Z</time>
      </trkpt>
      <trkpt lat="45.8826670" lon="9.0279340">
        <ele>681.9000000</ele>
        <time>2009-07-05T07:58:45Z</time>
      </trkpt>
      <trkpt lat="45.8827640" lon="9.0278950">
        <ele>680.5800000</ele>
        <time>2009-07-05T07:58:49Z</time>
      </trkpt>
      <trkpt lat="45.8828110" lon="9.0279010">
        <ele>680.5800000</ele>
        <time>2009-07-05T07:58:50Z</time>
      </trkpt>
      <trkpt lat="45.8830390" lon="9.0279300">
        <ele>677.6100000</ele>
        <time>2009-07-05T07:58:54Z</time>
      </trkpt>
      <trkpt lat="45.8830970" lon="9.0279370">
        <ele>676.7000000</ele>
        <time>2009-07-05T07:58:55Z</time>
      </trkpt>
      <trkpt lat="45.8833960" lon="9.0279540">
        <ele>673.1500000</ele>
        <time>2009-07-05T07:59:01Z</time>
      </trkpt>
      <trkpt lat="45.8836590" lon="9.0278260">
        <ele>669.9400000</ele>
        <time>2009-07-05T07:59:06Z</time>
      </trkpt>
      <trkpt lat="45.8839600" lon="9.0276440">
        <ele>667.2700000</ele>
        <time>2009-07-05T07:59:11Z</time>
      </trkpt>
      <trkpt lat="45.8842180" lon="9.0275820">
        <ele>664.3400000</ele>
        <time>2009-07-05T07:59:14Z</time>
      </trkpt>
      <trkpt lat="45.8845290" lon="9.0273950">
        <ele>662.1800000</ele>
        <time>2009-07-05T07:59:17Z</time>
      </trkpt>
      <trkpt lat="45.8847360" lon="9.0273510">
        <ele>659.0000000</ele>
        <time>2009-07-05T07:59:19Z</time>
      </trkpt>
      <trkpt lat="45.8849060" lon="9.0274330">
        <ele>656.4800000</ele>
        <time>2009-07-05T07:59:21Z</time>
      </trkpt>
      <trkpt lat="45.8849710" lon="9.0275090">
        <ele>655.1300000</ele>
        <time>2009-07-05T07:59:23Z</time>
      </trkpt>
      <trkpt lat="45.8849070" lon="9.0276490">
        <ele>655.3100000</ele>
        <time>2009-07-05T07:59:25Z</time>
      </trkpt>
      <trkpt lat="45.8847340" lon="9.0279920">
        <ele>655.5100000</ele>
        <time>2009-07-05T07:59:30Z</time>
      </trkpt>
      <trkpt lat="45.8846860" lon="9.0282130">
        <ele>655.8800000</ele>
        <time>2009-07-05T07:59:34Z</time>
      </trkpt>
      <trkpt lat="45.8846700" lon="9.0286320">
        <ele>655.6800000</ele>
        <time>2009-07-05T07:59:41Z</time>
      </trkpt>
      <trkpt lat="45.8846600" lon="9.0291590">
        <ele>655.8400000</ele>
        <time>2009-07-05T07:59:50Z</time>
      </trkpt>
      <trkpt lat="45.8846120" lon="9.0296770">
        <ele>657.0100000</ele>
        <time>2009-07-05T08:00:00Z</time>
      </trkpt>
      <trkpt lat="45.8844820" lon="9.0300850">
        <ele>658.1200000</ele>
        <time>2009-07-05T08:00:10Z</time>
      </trkpt>
      <trkpt lat="45.8843900" lon="9.0303480">
        <ele>657.3100000</ele>
        <time>2009-07-05T08:00:16Z</time>
      </trkpt>
      <trkpt lat="45.8844410" lon="9.0305810">
        <ele>657.0400000</ele>
        <time>2009-07-05T08:00:20Z</time>
      </trkpt>
      <trkpt lat="45.8845500" lon="9.0308100">
        <ele>656.0500000</ele>
        <time>2009-07-05T08:00:24Z</time>
      </trkpt>
      <trkpt lat="45.8847440" lon="9.0310790">
        <ele>655.3900000</ele>
        <time>2009-07-05T08:00:29Z</time>
      </trkpt>
      <trkpt lat="45.8848020" lon="9.0313930">
        <ele>654.2200000</ele>
        <time>2009-07-05T08:00:33Z</time>
      </trkpt>
      <trkpt lat="45.8848540" lon="9.0316970">
        <ele>654.4500000</ele>
        <time>2009-07-05T08:00:37Z</time>
      </trkpt>
      <trkpt lat="45.8849180" lon="9.0318890">
        <ele>654.8400000</ele>
        <time>2009-07-05T08:00:40Z</time>
      </trkpt>
      <trkpt lat="45.8849870" lon="9.0320490">
        <ele>655.2200000</ele>
        <time>2009-07-05T08:00:43Z</time>
      </trkpt>
      <trkpt lat="45.8851700" lon="9.0323200">
        <ele>654.7200000</ele>
        <time>2009-07-05T08:00:49Z</time>
      </trkpt>
      <trkpt lat="45.8852510" lon="9.0324080">
        <ele>654.1100000</ele>
        <time>2009-07-05T08:00:51Z</time>
      </trkpt>
      <trkpt lat="45.8854160" lon="9.0325480">
        <ele>652.7100000</ele>
        <time>2009-07-05T08:00:54Z</time>
      </trkpt>
      <trkpt lat="45.8858180" lon="9.0327780">
        <ele>648.6100000</ele>
        <time>2009-07-05T08:00:59Z</time>
      </trkpt>
      <trkpt lat="45.8862120" lon="9.0329700">
        <ele>644.5900000</ele>
        <time>2009-07-05T08:01:03Z</time>
      </trkpt>
      <trkpt lat="45.8867120" lon="9.0328800">
        <ele>642.6100000</ele>
        <time>2009-07-05T08:01:08Z</time>
      </trkpt>
      <trkpt lat="45.8872350" lon="9.0326630">
        <ele>638.9800000</ele>
        <time>2009-07-05T08:01:13Z</time>
      </trkpt>
      <trkpt lat="45.8875060" lon="9.0327700">
        <ele>636.5700000</ele>
        <time>2009-07-05T08:01:16Z</time>
      </trkpt>
      <trkpt lat="45.8875420" lon="9.0329140">
        <ele>635.4700000</ele>
        <time>2009-07-05T08:01:18Z</time>
      </trkpt>
      <trkpt lat="45.8876130" lon="9.0332790">
        <ele>634.9500000</ele>
        <time>2009-07-05T08:01:21Z</time>
      </trkpt>
      <trkpt lat="45.8877920" lon="9.0337550">
        <ele>634.5700000</ele>
        <time>2009-07-05T08:01:26Z</time>
      </trkpt>
      <trkpt lat="45.8880200" lon="9.0338080">
        <ele>633.4500000</ele>
        <time>2009-07-05T08:01:29Z</time>
      </trkpt>
      <trkpt lat="45.8881000" lon="9.0337680">
        <ele>633.0700000</ele>
        <time>2009-07-05T08:01:30Z</time>
      </trkpt>
      <trkpt lat="45.8885660" lon="9.0335730">
        <ele>630.4300000</ele>
        <time>2009-07-05T08:01:36Z</time>
      </trkpt>
      <trkpt lat="45.8888730" lon="9.0334290">
        <ele>629.4000000</ele>
        <time>2009-07-05T08:01:40Z</time>
      </trkpt>
      <trkpt lat="45.8891150" lon="9.0334880">
        <ele>628.1900000</ele>
        <time>2009-07-05T08:01:44Z</time>
      </trkpt>
      <trkpt lat="45.8890550" lon="9.0337760">
        <ele>628.6100000</ele>
        <time>2009-07-05T08:01:48Z</time>
      </trkpt>
      <trkpt lat="45.8890180" lon="9.0342100">
        <ele>629.1200000</ele>
        <time>2009-07-05T08:01:55Z</time>
      </trkpt>
      <trkpt lat="45.8890310" lon="9.0348030">
        <ele>630.0000000</ele>
        <time>2009-07-05T08:02:06Z</time>
      </trkpt>
      <trkpt lat="45.8891550" lon="9.0349950">
        <ele>630.4400000</ele>
        <time>2009-07-05T08:02:11Z</time>
      </trkpt>
      <trkpt lat="45.8893240" lon="9.0352000">
        <ele>631.4400000</ele>
        <time>2009-07-05T08:02:17Z</time>
      </trkpt>
      <trkpt lat="45.8895110" lon="9.0353970">
        <ele>632.4300000</ele>
        <time>2009-07-05T08:02:24Z</time>
      </trkpt>
      <trkpt lat="45.8896870" lon="9.0354330">
        <ele>632.3200000</ele>
        <time>2009-07-05T08:02:29Z</time>
      </trkpt>
      <trkpt lat="45.8897260" lon="9.0354170">
        <ele>632.1400000</ele>
        <time>2009-07-05T08:02:30Z</time>
      </trkpt>
      <trkpt lat="45.8898560" lon="9.0352870">
        <ele>631.7900000</ele>
        <time>2009-07-05T08:02:34Z</time>
      </trkpt>
      <trkpt lat="45.8900350" lon="9.0349730">
        <ele>630.5700000</ele>
        <time>2009-07-05T08:02:41Z</time>
      </trkpt>
      <trkpt lat="45.8901660" lon="9.0349420">
        <ele>629.6000000</ele>
        <time>2009-07-05T08:02:45Z</time>
      </trkpt>
      <trkpt lat="45.8903230" lon="9.0349750">
        <ele>629.3700000</ele>
        <time>2009-07-05T08:02:49Z</time>
      </trkpt>
      <trkpt lat="45.8903090" lon="9.0352060">
        <ele>626.5400000</ele>
        <time>2009-07-05T08:02:53Z</time>
      </trkpt>
      <trkpt lat="45.8902760" lon="9.0353160">
        <ele>625.3400000</ele>
        <time>2009-07-05T08:02:55Z</time>
      </trkpt>
      <trkpt lat="45.8902230" lon="9.0355530">
        <ele>624.0000000</ele>
        <time>2009-07-05T08:03:01Z</time>
      </trkpt>
      <trkpt lat="45.8902580" lon="9.0357370">
        <ele>623.6400000</ele>
        <time>2009-07-05T08:03:06Z</time>
      </trkpt>
      <trkpt lat="45.8902660" lon="9.0357740">
        <ele>623.9900000</ele>
        <time>2009-07-05T08:03:07Z</time>
      </trkpt>
      <trkpt lat="45.8903530" lon="9.0361230">
        <ele>625.2500000</ele>
        <time>2009-07-05T08:03:16Z</time>
      </trkpt>
      <trkpt lat="45.8904110" lon="9.0363420">
        <ele>625.6900000</ele>
        <time>2009-07-05T08:03:22Z</time>
      </trkpt>
      <trkpt lat="45.8904610" lon="9.0364910">
        <ele>626.9400000</ele>
        <time>2009-07-05T08:03:27Z</time>
      </trkpt>
      <trkpt lat="45.8905270" lon="9.0366010">
        <ele>629.0400000</ele>
        <time>2009-07-05T08:03:32Z</time>
      </trkpt>
      <trkpt lat="45.8905520" lon="9.0367520">
        <ele>630.7700000</ele>
        <time>2009-07-05T08:03:36Z</time>
      </trkpt>
      <trkpt lat="45.8905520" lon="9.0367790">
        <ele>631.3000000</ele>
        <time>2009-07-05T08:03:37Z</time>
      </trkpt>
      <trkpt lat="45.8906950" lon="9.0368490">
        <ele>631.3800000</ele>
        <time>2009-07-05T08:03:43Z</time>
      </trkpt>
      <trkpt lat="45.8908270" lon="9.0368960">
        <ele>629.5900000</ele>
        <time>2009-07-05T08:03:47Z</time>
      </trkpt>
      <trkpt lat="45.8909740" lon="9.0368770">
        <ele>629.9100000</ele>
        <time>2009-07-05T08:03:51Z</time>
      </trkpt>
      <trkpt lat="45.8911260" lon="9.0368620">
        <ele>630.7200000</ele>
        <time>2009-07-05T08:03:57Z</time>
      </trkpt>
      <trkpt lat="45.8912870" lon="9.0368260">
        <ele>631.4600000</ele>
        <time>2009-07-05T08:04:04Z</time>
      </trkpt>
      <trkpt lat="45.8914150" lon="9.0367870">
        <ele>630.3900000</ele>
        <time>2009-07-05T08:04:09Z</time>
      </trkpt>
      <trkpt lat="45.8915180" lon="9.0367310">
        <ele>631.6000000</ele>
        <time>2009-07-05T08:04:13Z</time>
      </trkpt>
      <trkpt lat="45.8915550" lon="9.0367030">
        <ele>632.6900000</ele>
        <time>2009-07-05T08:04:16Z</time>
      </trkpt>
      <trkpt lat="45.8916580" lon="9.0366790">
        <ele>633.5500000</ele>
        <time>2009-07-05T08:04:21Z</time>
      </trkpt>
      <trkpt lat="45.8917130" lon="9.0367490">
        <ele>634.9300000</ele>
        <time>2009-07-05T08:04:27Z</time>
      </trkpt>
      <trkpt lat="45.8917080" lon="9.0368250">
        <ele>635.8500000</ele>
        <time>2009-07-05T08:04:31Z</time>
      </trkpt>
      <trkpt lat="45.8917200" lon="9.0369190">
        <ele>637.2700000</ele>
        <time>2009-07-05T08:04:38Z</time>
      </trkpt>
      <trkpt lat="45.8917300" lon="9.0369660">
        <ele>638.2900000</ele>
        <time>2009-07-05T08:04:41Z</time>
      </trkpt>
      <trkpt lat="45.8917490" lon="9.0370520">
        <ele>638.9500000</ele>
        <time>2009-07-05T08:04:45Z</time>
      </trkpt>
      <trkpt lat="45.8918200" lon="9.0371990">
        <ele>640.5900000</ele>
        <time>2009-07-05T08:04:53Z</time>
      </trkpt>
      <trkpt lat="45.8918990" lon="9.0371910">
        <ele>642.2500000</ele>
        <time>2009-07-05T08:04:59Z</time>
      </trkpt>
      <trkpt lat="45.8919600" lon="9.0372070">
        <ele>643.5300000</ele>
        <time>2009-07-05T08:05:06Z</time>
      </trkpt>
      <trkpt lat="45.8920070" lon="9.0372230">
        <ele>644.5100000</ele>
        <time>2009-07-05T08:05:22Z</time>
      </trkpt>
      <trkpt lat="45.8920470" lon="9.0372180">
        <ele>645.9900000</ele>
        <time>2009-07-05T08:05:28Z</time>
      </trkpt>
      <trkpt lat="45.8921050" lon="9.0372320">
        <ele>647.5500000</ele>
        <time>2009-07-05T08:05:35Z</time>
      </trkpt>
      <trkpt lat="45.8921350" lon="9.0372240">
        <ele>647.9200000</ele>
        <time>2009-07-05T08:05:43Z</time>
      </trkpt>
      <trkpt lat="45.8922380" lon="9.0372190">
        <ele>649.3100000</ele>
        <time>2009-07-05T08:05:51Z</time>
      </trkpt>
      <trkpt lat="45.8923180" lon="9.0372480">
        <ele>650.8500000</ele>
        <time>2009-07-05T08:05:58Z</time>
      </trkpt>
      <trkpt lat="45.8923920" lon="9.0372500">
        <ele>652.3800000</ele>
        <time>2009-07-05T08:06:04Z</time>
      </trkpt>
      <trkpt lat="45.8924800" lon="9.0372490">
        <ele>653.6500000</ele>
        <time>2009-07-05T08:06:12Z</time>
      </trkpt>
      <trkpt lat="45.8925600" lon="9.0372090">
        <ele>654.4900000</ele>
        <time>2009-07-05T08:06:19Z</time>
      </trkpt>
      <trkpt lat="45.8926280" lon="9.0371690">
        <ele>656.5600000</ele>
        <time>2009-07-05T08:06:27Z</time>
      </trkpt>
      <trkpt lat="45.8926930" lon="9.0371030">
        <ele>657.8500000</ele>
        <time>2009-07-05T08:06:34Z</time>
      </trkpt>
      <trkpt lat="45.8927530" lon="9.0370340">
        <ele>659.3800000</ele>
        <time>2009-07-05T08:06:40Z</time>
      </trkpt>
      <trkpt lat="45.8928470" lon="9.0369460">
        <ele>662.1600000</ele>
        <time>2009-07-05T08:06:48Z</time>
      </trkpt>
      <trkpt lat="45.8928800" lon="9.0369380">
        <ele>662.4600000</ele>
        <time>2009-07-05T08:06:50Z</time>
      </trkpt>
      <trkpt lat="45.8929110" lon="9.0370250">
        <ele>663.3200000</ele>
        <time>2009-07-05T08:06:55Z</time>
      </trkpt>
      <trkpt lat="45.8929250" lon="9.0371450">
        <ele>664.5000000</ele>
        <time>2009-07-05T08:07:01Z</time>
      </trkpt>
      <trkpt lat="45.8929560" lon="9.0371860">
        <ele>665.1400000</ele>
        <time>2009-07-05T08:07:07Z</time>
      </trkpt>
      <trkpt lat="45.8929460" lon="9.0371350">
        <ele>665.9500000</ele>
        <time>2009-07-05T08:07:12Z</time>
      </trkpt>
      <trkpt lat="45.8929220" lon="9.0370610">
        <ele>667.6200000</ele>
        <time>2009-07-05T08:07:18Z</time>
      </trkpt>
      <trkpt lat="45.8929180" lon="9.0370440">
        <ele>667.8200000</ele>
        <time>2009-07-05T08:07:19Z</time>
      </trkpt>
      <trkpt lat="45.8929110" lon="9.0369340">
        <ele>669.1000000</ele>
        <time>2009-07-05T08:07:25Z</time>
      </trkpt>
      <trkpt lat="45.8928610" lon="9.0368890">
        <ele>669.1700000</ele>
        <time>2009-07-05T08:07:30Z</time>
      </trkpt>
      <trkpt lat="45.8928140" lon="9.0369000">
        <ele>669.9200000</ele>
        <time>2009-07-05T08:07:34Z</time>
      </trkpt>
      <trkpt lat="45.8927280" lon="9.0369480">
        <ele>670.8200000</ele>
        <time>2009-07-05T08:07:42Z</time>
      </trkpt>
      <trkpt lat="45.8926860" lon="9.0369460">
        <ele>671.3900000</ele>
        <time>2009-07-05T08:07:46Z</time>
      </trkpt>
      <trkpt lat="45.8926130" lon="9.0369090">
        <ele>672.8200000</ele>
        <time>2009-07-05T08:07:52Z</time>
      </trkpt>
      <trkpt lat="45.8925750" lon="9.0368980">
        <ele>674.1000000</ele>
        <time>2009-07-05T08:07:55Z</time>
      </trkpt>
      <trkpt lat="45.8924930" lon="9.0368670">
        <ele>675.9800000</ele>
        <time>2009-07-05T08:08:02Z</time>
      </trkpt>
      <trkpt lat="45.8924060" lon="9.0368410">
        <ele>678.5600000</ele>
        <time>2009-07-05T08:08:09Z</time>
      </trkpt>
      <trkpt lat="45.8923980" lon="9.0368280">
        <ele>678.9300000</ele>
        <time>2009-07-05T08:08:11Z</time>
      </trkpt>
      <trkpt lat="45.8924960" lon="9.0367830">
        <ele>679.5400000</ele>
        <time>2009-07-05T08:08:20Z</time>
      </trkpt>
      <trkpt lat="45.8925400" lon="9.0367470">
        <ele>679.4900000</ele>
        <time>2009-07-05T08:08:28Z</time>
      </trkpt>
      <trkpt lat="45.8925980" lon="9.0367180">
        <ele>680.1100000</ele>
        <time>2009-07-05T08:08:45Z</time>
      </trkpt>
      <trkpt lat="45.8926350" lon="9.0367120">
        <ele>681.3000000</ele>
        <time>2009-07-05T08:08:52Z</time>
      </trkpt>
      <trkpt lat="45.8926200" lon="9.0367350">
        <ele>681.3400000</ele>
        <time>2009-07-05T08:09:09Z</time>
      </trkpt>
      <trkpt lat="45.8925470" lon="9.0368150">
        <ele>681.1700000</ele>
        <time>2009-07-05T08:09:31Z</time>
      </trkpt>
      <trkpt lat="45.8925130" lon="9.0368510">
        <ele>681.8600000</ele>
        <time>2009-07-05T08:10:50Z</time>
      </trkpt>
      <trkpt lat="45.8924860" lon="9.0368520">
        <ele>681.0700000</ele>
        <time>2009-07-05T08:10:56Z</time>
      </trkpt>
      <trkpt lat="45.8924660" lon="9.0367590">
        <ele>681.2700000</ele>
        <time>2009-07-05T08:12:04Z</time>
      </trkpt>
      <trkpt lat="45.8924380" lon="9.0367530">
        <ele>681.4400000</ele>
        <time>2009-07-05T08:12:09Z</time>
      </trkpt>
      <trkpt lat="45.8923610" lon="9.0368240">
        <ele>681.0800000</ele>
        <time>2009-07-05T08:12:14Z</time>
      </trkpt>
      <trkpt lat="45.8923690" lon="9.0368390">
        <ele>680.7700000</ele>
        <time>2009-07-05T08:12:16Z</time>
      </trkpt>
      <trkpt lat="45.8924000" lon="9.0368520">
        <ele>680.6200000</ele>
        <time>2009-07-05T08:12:20Z</time>
      </trkpt>
      <trkpt lat="45.8925180" lon="9.0368770">
        <ele>677.1600000</ele>
        <time>2009-07-05T08:12:25Z</time>
      </trkpt>
      <trkpt lat="45.8926950" lon="9.0368850">
        <ele>673.9200000</ele>
        <time>2009-07-05T08:12:29Z</time>
      </trkpt>
      <trkpt lat="45.8928810" lon="9.0369110">
        <ele>672.3700000</ele>
        <time>2009-07-05T08:12:34Z</time>
      </trkpt>
      <trkpt lat="45.8929150" lon="9.0370000">
        <ele>671.4700000</ele>
        <time>2009-07-05T08:12:36Z</time>
      </trkpt>
      <trkpt lat="45.8929610" lon="9.0371880">
        <ele>668.2500000</ele>
        <time>2009-07-05T08:12:41Z</time>
      </trkpt>
      <trkpt lat="45.8929230" lon="9.0372450">
        <ele>667.8400000</ele>
        <time>2009-07-05T08:12:48Z</time>
      </trkpt>
      <trkpt lat="45.8929050" lon="9.0372390">
        <ele>668.0600000</ele>
        <time>2009-07-05T08:12:58Z</time>
      </trkpt>
      <trkpt lat="45.8929010" lon="9.0372290">
        <ele>667.9100000</ele>
        <time>2009-07-05T08:13:00Z</time>
      </trkpt>
      <trkpt lat="45.8928300" lon="9.0371050">
        <ele>665.8300000</ele>
        <time>2009-07-05T08:13:05Z</time>
      </trkpt>
      <trkpt lat="45.8928120" lon="9.0370820">
        <ele>665.6200000</ele>
        <time>2009-07-05T08:13:06Z</time>
      </trkpt>
      <trkpt lat="45.8927200" lon="9.0370770">
        <ele>663.8000000</ele>
        <time>2009-07-05T08:13:10Z</time>
      </trkpt>
      <trkpt lat="45.8926320" lon="9.0371400">
        <ele>660.7200000</ele>
        <time>2009-07-05T08:13:13Z</time>
      </trkpt>
      <trkpt lat="45.8925550" lon="9.0372000">
        <ele>659.4500000</ele>
        <time>2009-07-05T08:13:15Z</time>
      </trkpt>
      <trkpt lat="45.8924690" lon="9.0372400">
        <ele>657.6600000</ele>
        <time>2009-07-05T08:13:17Z</time>
      </trkpt>
      <trkpt lat="45.8922700" lon="9.0372420">
        <ele>654.6700000</ele>
        <time>2009-07-05T08:13:21Z</time>
      </trkpt>
      <trkpt lat="45.8920650" lon="9.0372330">
        <ele>650.0900000</ele>
        <time>2009-07-05T08:13:26Z</time>
      </trkpt>
      <trkpt lat="45.8918940" lon="9.0372290">
        <ele>645.4000000</ele>
        <time>2009-07-05T08:13:32Z</time>
      </trkpt>
      <trkpt lat="45.8918460" lon="9.0372360">
        <ele>643.8100000</ele>
        <time>2009-07-05T08:13:36Z</time>
      </trkpt>
      <trkpt lat="45.8918250" lon="9.0372950">
        <ele>643.4100000</ele>
        <time>2009-07-05T08:13:42Z</time>
      </trkpt>
      <trkpt lat="45.8918060" lon="9.0373330">
        <ele>643.7800000</ele>
        <time>2009-07-05T08:14:34Z</time>
      </trkpt>
      <trkpt lat="45.8918450" lon="9.0373360">
        <ele>644.4900000</ele>
        <time>2009-07-05T08:14:41Z</time>
      </trkpt>
      <trkpt lat="45.8918880" lon="9.0373540">
        <ele>644.6600000</ele>
        <time>2009-07-05T08:14:45Z</time>
      </trkpt>
      <trkpt lat="45.8919810" lon="9.0373960">
        <ele>645.6000000</ele>
        <time>2009-07-05T08:14:54Z</time>
      </trkpt>
      <trkpt lat="45.8920010" lon="9.0373990">
        <ele>646.0100000</ele>
        <time>2009-07-05T08:14:56Z</time>
      </trkpt>
      <trkpt lat="45.8920500" lon="9.0374090">
        <ele>646.2100000</ele>
        <time>2009-07-05T08:15:02Z</time>
      </trkpt>
      <trkpt lat="45.8920680" lon="9.0374530">
        <ele>646.3900000</ele>
        <time>2009-07-05T08:15:08Z</time>
      </trkpt>
      <trkpt lat="45.8921270" lon="9.0374730">
        <ele>647.0200000</ele>
        <time>2009-07-05T08:15:31Z</time>
      </trkpt>
      <trkpt lat="45.8921250" lon="9.0374790">
        <ele>646.8500000</ele>
        <time>2009-07-05T08:15:39Z</time>
      </trkpt>
      <trkpt lat="45.8921840" lon="9.0374250">
        <ele>646.5200000</ele>
        <time>2009-07-05T08:16:02Z</time>
      </trkpt>
      <trkpt lat="45.8922530" lon="9.0374300">
        <ele>646.2700000</ele>
        <time>2009-07-05T08:16:08Z</time>
      </trkpt>
      <trkpt lat="45.8923710" lon="9.0374760">
        <ele>646.7000000</ele>
        <time>2009-07-05T08:16:15Z</time>
      </trkpt>
      <trkpt lat="45.8924930" lon="9.0374870">
        <ele>645.7600000</ele>
        <time>2009-07-05T08:16:21Z</time>
      </trkpt>
      <trkpt lat="45.8926360" lon="9.0374500">
        <ele>645.0600000</ele>
        <time>2009-07-05T08:16:26Z</time>
      </trkpt>
      <trkpt lat="45.8928020" lon="9.0374560">
        <ele>644.7500000</ele>
        <time>2009-07-05T08:16:31Z</time>
      </trkpt>
      <trkpt lat="45.8928240" lon="9.0374580">
        <ele>644.9500000</ele>
        <time>2009-07-05T08:16:32Z</time>
      </trkpt>
      <trkpt lat="45.8929480" lon="9.0376730">
        <ele>643.6000000</ele>
        <time>2009-07-05T08:16:37Z</time>
      </trkpt>
      <trkpt lat="45.8930450" lon="9.0379010">
        <ele>642.9700000</ele>
        <time>2009-07-05T08:16:41Z</time>
      </trkpt>
      <trkpt lat="45.8931130" lon="9.0380990">
        <ele>644.4300000</ele>
        <time>2009-07-05T08:16:47Z</time>
      </trkpt>
      <trkpt lat="45.8932220" lon="9.0382540">
        <ele>645.3000000</ele>
        <time>2009-07-05T08:16:54Z</time>
      </trkpt>
      <trkpt lat="45.8933690" lon="9.0383460">
        <ele>646.4400000</ele>
        <time>2009-07-05T08:17:01Z</time>
      </trkpt>
      <trkpt lat="45.8935480" lon="9.0383760">
        <ele>646.7400000</ele>
        <time>2009-07-05T08:17:09Z</time>
      </trkpt>
      <trkpt lat="45.8936750" lon="9.0383570">
        <ele>647.8800000</ele>
        <time>2009-07-05T08:17:15Z</time>
      </trkpt>
      <trkpt lat="45.8938110" lon="9.0382890">
        <ele>648.8800000</ele>
        <time>2009-07-05T08:17:22Z</time>
      </trkpt>
      <trkpt lat="45.8938290" lon="9.0382890">
        <ele>649.0100000</ele>
        <time>2009-07-05T08:17:23Z</time>
      </trkpt>
      <trkpt lat="45.8938900" lon="9.0384110">
        <ele>649.7000000</ele>
        <time>2009-07-05T08:17:29Z</time>
      </trkpt>
      <trkpt lat="45.8939020" lon="9.0384380">
        <ele>649.8500000</ele>
        <time>2009-07-05T08:17:30Z</time>
      </trkpt>
      <trkpt lat="45.8939830" lon="9.0386470">
        <ele>650.6800000</ele>
        <time>2009-07-05T08:17:37Z</time>
      </trkpt>
      <trkpt lat="45.8940940" lon="9.0387400">
        <ele>651.4200000</ele>
        <time>2009-07-05T08:17:41Z</time>
      </trkpt>
      <trkpt lat="45.8941190" lon="9.0387430">
        <ele>651.7100000</ele>
        <time>2009-07-05T08:17:42Z</time>
      </trkpt>
      <trkpt lat="45.8942660" lon="9.0387850">
        <ele>652.8800000</ele>
        <time>2009-07-05T08:17:49Z</time>
      </trkpt>
      <trkpt lat="45.8943700" lon="9.0388590">
        <ele>654.7700000</ele>
        <time>2009-07-05T08:17:55Z</time>
      </trkpt>
      <trkpt lat="45.8944320" lon="9.0389020">
        <ele>656.0500000</ele>
        <time>2009-07-05T08:18:00Z</time>
      </trkpt>
      <trkpt lat="45.8944940" lon="9.0389070">
        <ele>656.7600000</ele>
        <time>2009-07-05T08:18:03Z</time>
      </trkpt>
      <trkpt lat="45.8945720" lon="9.0389350">
        <ele>658.2500000</ele>
        <time>2009-07-05T08:18:09Z</time>
      </trkpt>
      <trkpt lat="45.8946780" lon="9.0389690">
        <ele>658.6600000</ele>
        <time>2009-07-05T08:18:15Z</time>
      </trkpt>
      <trkpt lat="45.8947100" lon="9.0389740">
        <ele>658.7400000</ele>
        <time>2009-07-05T08:18:16Z</time>
      </trkpt>
      <trkpt lat="45.8949060" lon="9.0390760">
        <ele>658.6000000</ele>
        <time>2009-07-05T08:18:22Z</time>
      </trkpt>
      <trkpt lat="45.8950320" lon="9.0391450">
        <ele>658.7800000</ele>
        <time>2009-07-05T08:18:26Z</time>
      </trkpt>
      <trkpt lat="45.8952020" lon="9.0392210">
        <ele>659.3600000</ele>
        <time>2009-07-05T08:18:31Z</time>
      </trkpt>
      <trkpt lat="45.8953580" lon="9.0392460">
        <ele>659.7600000</ele>
        <time>2009-07-05T08:18:36Z</time>
      </trkpt>
      <trkpt lat="45.8955370" lon="9.0392750">
        <ele>659.6900000</ele>
        <time>2009-07-05T08:18:41Z</time>
      </trkpt>
      <trkpt lat="45.8956290" lon="9.0392980">
        <ele>659.7900000</ele>
        <time>2009-07-05T08:18:45Z</time>
      </trkpt>
      <trkpt lat="45.8956860" lon="9.0393280">
        <ele>658.3200000</ele>
        <time>2009-07-05T08:18:48Z</time>
      </trkpt>
      <trkpt lat="45.8957080" lon="9.0393480">
        <ele>657.6600000</ele>
        <time>2009-07-05T08:18:53Z</time>
      </trkpt>
      <trkpt lat="45.8957420" lon="9.0392630">
        <ele>655.2600000</ele>
        <time>2009-07-05T08:18:58Z</time>
      </trkpt>
      <trkpt lat="45.8957830" lon="9.0390730">
        <ele>654.0900000</ele>
        <time>2009-07-05T08:19:04Z</time>
      </trkpt>
      <trkpt lat="45.8959060" lon="9.0390250">
        <ele>653.9800000</ele>
        <time>2009-07-05T08:19:08Z</time>
      </trkpt>
      <trkpt lat="45.8960350" lon="9.0390950">
        <ele>655.1900000</ele>
        <time>2009-07-05T08:19:13Z</time>
      </trkpt>
      <trkpt lat="45.8961410" lon="9.0391210">
        <ele>655.0300000</ele>
        <time>2009-07-05T08:19:18Z</time>
      </trkpt>
      <trkpt lat="45.8961600" lon="9.0391620">
        <ele>653.7100000</ele>
        <time>2009-07-05T08:19:22Z</time>
      </trkpt>
      <trkpt lat="45.8961900" lon="9.0391990">
        <ele>653.6200000</ele>
        <time>2009-07-05T08:19:24Z</time>
      </trkpt>
      <trkpt lat="45.8962710" lon="9.0393110">
        <ele>652.4200000</ele>
        <time>2009-07-05T08:19:28Z</time>
      </trkpt>
      <trkpt lat="45.8964210" lon="9.0393570">
        <ele>653.8900000</ele>
        <time>2009-07-05T08:19:34Z</time>
      </trkpt>
      <trkpt lat="45.8965350" lon="9.0394180">
        <ele>654.4900000</ele>
        <time>2009-07-05T08:19:41Z</time>
      </trkpt>
      <trkpt lat="45.8965900" lon="9.0394680">
        <ele>656.2400000</ele>
        <time>2009-07-05T08:19:45Z</time>
      </trkpt>
      <trkpt lat="45.8966120" lon="9.0395090">
        <ele>656.8200000</ele>
        <time>2009-07-05T08:20:02Z</time>
      </trkpt>
      <trkpt lat="45.8965550" lon="9.0394380">
        <ele>657.3400000</ele>
        <time>2009-07-05T08:21:19Z</time>
      </trkpt>
      <trkpt lat="45.8965240" lon="9.0395710">
        <ele>657.2100000</ele>
        <time>2009-07-05T08:22:00Z</time>
      </trkpt>
      <trkpt lat="45.8965060" lon="9.0395100">
        <ele>657.9400000</ele>
        <time>2009-07-05T08:22:04Z</time>
      </trkpt>
      <trkpt lat="45.8964180" lon="9.0394090">
        <ele>659.3900000</ele>
        <time>2009-07-05T08:22:12Z</time>
      </trkpt>
      <trkpt lat="45.8963590" lon="9.0393450">
        <ele>660.7600000</ele>
        <time>2009-07-05T08:22:18Z</time>
      </trkpt>
      <trkpt lat="45.8963490" lon="9.0392800">
        <ele>661.9200000</ele>
        <time>2009-07-05T08:22:22Z</time>
      </trkpt>
      <trkpt lat="45.8963410" lon="9.0392730">
        <ele>662.2200000</ele>
        <time>2009-07-05T08:22:23Z</time>
      </trkpt>
      <trkpt lat="45.8963070" lon="9.0392640">
        <ele>662.7900000</ele>
        <time>2009-07-05T08:22:26Z</time>
      </trkpt>
      <trkpt lat="45.8962180" lon="9.0392630">
        <ele>663.8500000</ele>
        <time>2009-07-05T08:22:32Z</time>
      </trkpt>
      <trkpt lat="45.8961750" lon="9.0392460">
        <ele>664.7400000</ele>
        <time>2009-07-05T08:22:36Z</time>
      </trkpt>
      <trkpt lat="45.8960700" lon="9.0392930">
        <ele>665.9300000</ele>
        <time>2009-07-05T08:22:43Z</time>
      </trkpt>
      <trkpt lat="45.8960480" lon="9.0392980">
        <ele>666.6200000</ele>
        <time>2009-07-05T08:22:48Z</time>
      </trkpt>
      <trkpt lat="45.8960420" lon="9.0391250">
        <ele>668.1100000</ele>
        <time>2009-07-05T08:22:54Z</time>
      </trkpt>
      <trkpt lat="45.8960150" lon="9.0389290">
        <ele>669.3100000</ele>
        <time>2009-07-05T08:23:01Z</time>
      </trkpt>
      <trkpt lat="45.8959410" lon="9.0388780">
        <ele>670.4800000</ele>
        <time>2009-07-05T08:23:06Z</time>
      </trkpt>
      <trkpt lat="45.8958910" lon="9.0388340">
        <ele>671.4300000</ele>
        <time>2009-07-05T08:23:10Z</time>
      </trkpt>
      <trkpt lat="45.8958660" lon="9.0387840">
        <ele>672.2500000</ele>
        <time>2009-07-05T08:23:15Z</time>
      </trkpt>
      <trkpt lat="45.8958620" lon="9.0387260">
        <ele>672.7000000</ele>
        <time>2009-07-05T08:23:19Z</time>
      </trkpt>
      <trkpt lat="45.8958600" lon="9.0387210">
        <ele>673.8900000</ele>
        <time>2009-07-05T08:23:25Z</time>
      </trkpt>
      <trkpt lat="45.8958490" lon="9.0388340">
        <ele>674.6500000</ele>
        <time>2009-07-05T08:23:30Z</time>
      </trkpt>
      <trkpt lat="45.8958130" lon="9.0389580">
        <ele>675.5800000</ele>
        <time>2009-07-05T08:23:35Z</time>
      </trkpt>
      <trkpt lat="45.8957660" lon="9.0390390">
        <ele>676.7700000</ele>
        <time>2009-07-05T08:23:42Z</time>
      </trkpt>
      <trkpt lat="45.8956640" lon="9.0391790">
        <ele>678.0400000</ele>
        <time>2009-07-05T08:23:49Z</time>
      </trkpt>
      <trkpt lat="45.8955800" lon="9.0392170">
        <ele>679.5200000</ele>
        <time>2009-07-05T08:23:56Z</time>
      </trkpt>
      <trkpt lat="45.8954910" lon="9.0392460">
        <ele>680.3600000</ele>
        <time>2009-07-05T08:24:02Z</time>
      </trkpt>
      <trkpt lat="45.8953900" lon="9.0392470">
        <ele>681.2200000</ele>
        <time>2009-07-05T08:24:07Z</time>
      </trkpt>
      <trkpt lat="45.8952970" lon="9.0392180">
        <ele>682.2100000</ele>
        <time>2009-07-05T08:24:12Z</time>
      </trkpt>
      <trkpt lat="45.8951780" lon="9.0391650">
        <ele>683.2100000</ele>
        <time>2009-07-05T08:24:19Z</time>
      </trkpt>
      <trkpt lat="45.8950720" lon="9.0390990">
        <ele>684.8200000</ele>
        <time>2009-07-05T08:24:27Z</time>
      </trkpt>
      <trkpt lat="45.8949650" lon="9.0390250">
        <ele>686.3400000</ele>
        <time>2009-07-05T08:24:35Z</time>
      </trkpt>
      <trkpt lat="45.8948600" lon="9.0389830">
        <ele>687.5500000</ele>
        <time>2009-07-05T08:24:42Z</time>
      </trkpt>
      <trkpt lat="45.8948050" lon="9.0389230">
        <ele>688.3900000</ele>
        <time>2009-07-05T08:24:47Z</time>
      </trkpt>
      <trkpt lat="45.8947610" lon="9.0388730">
        <ele>689.1000000</ele>
        <time>2009-07-05T08:24:51Z</time>
      </trkpt>
      <trkpt lat="45.8947100" lon="9.0387320">
        <ele>690.6200000</ele>
        <time>2009-07-05T08:24:59Z</time>
      </trkpt>
      <trkpt lat="45.8946270" lon="9.0386700">
        <ele>692.1100000</ele>
        <time>2009-07-05T08:25:06Z</time>
      </trkpt>
      <trkpt lat="45.8945430" lon="9.0385950">
        <ele>693.0200000</ele>
        <time>2009-07-05T08:25:13Z</time>
      </trkpt>
      <trkpt lat="45.8944980" lon="9.0385550">
        <ele>693.6800000</ele>
        <time>2009-07-05T08:25:17Z</time>
      </trkpt>
      <trkpt lat="45.8944280" lon="9.0383950">
        <ele>695.1400000</ele>
        <time>2009-07-05T08:25:26Z</time>
      </trkpt>
      <trkpt lat="45.8943680" lon="9.0383370">
        <ele>696.0700000</ele>
        <time>2009-07-05T08:25:31Z</time>
      </trkpt>
      <trkpt lat="45.8943030" lon="9.0381990">
        <ele>697.1200000</ele>
        <time>2009-07-05T08:25:39Z</time>
      </trkpt>
      <trkpt lat="45.8942780" lon="9.0380540">
        <ele>697.9800000</ele>
        <time>2009-07-05T08:25:45Z</time>
      </trkpt>
      <trkpt lat="45.8942570" lon="9.0379320">
        <ele>698.8100000</ele>
        <time>2009-07-05T08:25:51Z</time>
      </trkpt>
      <trkpt lat="45.8942300" lon="9.0378980">
        <ele>699.5700000</ele>
        <time>2009-07-05T08:25:54Z</time>
      </trkpt>
      <trkpt lat="45.8941370" lon="9.0378800">
        <ele>700.8100000</ele>
        <time>2009-07-05T08:26:01Z</time>
      </trkpt>
      <trkpt lat="45.8941180" lon="9.0378710">
        <ele>700.8400000</ele>
        <time>2009-07-05T08:26:03Z</time>
      </trkpt>
      <trkpt lat="45.8940920" lon="9.0378090">
        <ele>701.4600000</ele>
        <time>2009-07-05T08:26:08Z</time>
      </trkpt>
      <trkpt lat="45.8940410" lon="9.0377110">
        <ele>702.5800000</ele>
        <time>2009-07-05T08:26:14Z</time>
      </trkpt>
      <trkpt lat="45.8939540" lon="9.0376760">
        <ele>703.4200000</ele>
        <time>2009-07-05T08:26:19Z</time>
      </trkpt>
      <trkpt lat="45.8939240" lon="9.0376680">
        <ele>703.5900000</ele>
        <time>2009-07-05T08:26:21Z</time>
      </trkpt>
      <trkpt lat="45.8938690" lon="9.0376370">
        <ele>704.4700000</ele>
        <time>2009-07-05T08:26:26Z</time>
      </trkpt>
      <trkpt lat="45.8938590" lon="9.0374900">
        <ele>705.4400000</ele>
        <time>2009-07-05T08:26:33Z</time>
      </trkpt>
      <trkpt lat="45.8937480" lon="9.0374600">
        <ele>706.6800000</ele>
        <time>2009-07-05T08:26:41Z</time>
      </trkpt>
      <trkpt lat="45.8937170" lon="9.0374120">
        <ele>706.8600000</ele>
        <time>2009-07-05T08:26:44Z</time>
      </trkpt>
      <trkpt lat="45.8937000" lon="9.0373050">
        <ele>707.1100000</ele>
        <time>2009-07-05T08:26:48Z</time>
      </trkpt>
      <trkpt lat="45.8936640" lon="9.0371610">
        <ele>708.4800000</ele>
        <time>2009-07-05T08:26:55Z</time>
      </trkpt>
      <trkpt lat="45.8936610" lon="9.0370070">
        <ele>710.0100000</ele>
        <time>2009-07-05T08:27:02Z</time>
      </trkpt>
      <trkpt lat="45.8936170" lon="9.0369160">
        <ele>710.7200000</ele>
        <time>2009-07-05T08:27:08Z</time>
      </trkpt>
      <trkpt lat="45.8936130" lon="9.0368970">
        <ele>710.5600000</ele>
        <time>2009-07-05T08:27:09Z</time>
      </trkpt>
      <trkpt lat="45.8935820" lon="9.0367610">
        <ele>712.1900000</ele>
        <time>2009-07-05T08:27:17Z</time>
      </trkpt>
      <trkpt lat="45.8935720" lon="9.0366660">
        <ele>712.6100000</ele>
        <time>2009-07-05T08:27:22Z</time>
      </trkpt>
      <trkpt lat="45.8934890" lon="9.0366400">
        <ele>713.1500000</ele>
        <time>2009-07-05T08:27:27Z</time>
      </trkpt>
      <trkpt lat="45.8934010" lon="9.0366220">
        <ele>714.0200000</ele>
        <time>2009-07-05T08:27:32Z</time>
      </trkpt>
      <trkpt lat="45.8933370" lon="9.0364560">
        <ele>715.2900000</ele>
        <time>2009-07-05T08:27:40Z</time>
      </trkpt>
      <trkpt lat="45.8933310" lon="9.0364320">
        <ele>715.3600000</ele>
        <time>2009-07-05T08:27:41Z</time>
      </trkpt>
      <trkpt lat="45.8932860" lon="9.0363220">
        <ele>716.2100000</ele>
        <time>2009-07-05T08:27:47Z</time>
      </trkpt>
      <trkpt lat="45.8932870" lon="9.0362940">
        <ele>716.2700000</ele>
        <time>2009-07-05T08:27:48Z</time>
      </trkpt>
      <trkpt lat="45.8932880" lon="9.0362450">
        <ele>716.6400000</ele>
        <time>2009-07-05T08:27:50Z</time>
      </trkpt>
      <trkpt lat="45.8932500" lon="9.0361800">
        <ele>717.1100000</ele>
        <time>2009-07-05T08:27:54Z</time>
      </trkpt>
      <trkpt lat="45.8931980" lon="9.0361370">
        <ele>717.9600000</ele>
        <time>2009-07-05T08:27:58Z</time>
      </trkpt>
      <trkpt lat="45.8931480" lon="9.0360540">
        <ele>718.6000000</ele>
        <time>2009-07-05T08:28:03Z</time>
      </trkpt>
      <trkpt lat="45.8931030" lon="9.0359570">
        <ele>719.6900000</ele>
        <time>2009-07-05T08:28:09Z</time>
      </trkpt>
      <trkpt lat="45.8930350" lon="9.0359570">
        <ele>720.1700000</ele>
        <time>2009-07-05T08:28:13Z</time>
      </trkpt>
      <trkpt lat="45.8930220" lon="9.0359500">
        <ele>720.3300000</ele>
        <time>2009-07-05T08:28:14Z</time>
      </trkpt>
      <trkpt lat="45.8929140" lon="9.0359560">
        <ele>721.0300000</ele>
        <time>2009-07-05T08:28:20Z</time>
      </trkpt>
      <trkpt lat="45.8928340" lon="9.0358990">
        <ele>721.5600000</ele>
        <time>2009-07-05T08:28:26Z</time>
      </trkpt>
      <trkpt lat="45.8927680" lon="9.0357730">
        <ele>722.8000000</ele>
        <time>2009-07-05T08:28:33Z</time>
      </trkpt>
      <trkpt lat="45.8927660" lon="9.0356110">
        <ele>724.3300000</ele>
        <time>2009-07-05T08:28:40Z</time>
      </trkpt>
      <trkpt lat="45.8927570" lon="9.0354620">
        <ele>724.8800000</ele>
        <time>2009-07-05T08:28:47Z</time>
      </trkpt>
      <trkpt lat="45.8927610" lon="9.0353520">
        <ele>726.1500000</ele>
        <time>2009-07-05T08:28:54Z</time>
      </trkpt>
      <trkpt lat="45.8927880" lon="9.0352570">
        <ele>727.2000000</ele>
        <time>2009-07-05T08:29:00Z</time>
      </trkpt>
      <trkpt lat="45.8928500" lon="9.0351090">
        <ele>728.8000000</ele>
        <time>2009-07-05T08:29:08Z</time>
      </trkpt>
      <trkpt lat="45.8929200" lon="9.0349920">
        <ele>729.9800000</ele>
        <time>2009-07-05T08:29:16Z</time>
      </trkpt>
      <trkpt lat="45.8929560" lon="9.0349450">
        <ele>731.0600000</ele>
        <time>2009-07-05T08:29:22Z</time>
      </trkpt>
      <trkpt lat="45.8929890" lon="9.0349180">
        <ele>732.0700000</ele>
        <time>2009-07-05T08:29:28Z</time>
      </trkpt>
      <trkpt lat="45.8929860" lon="9.0349040">
        <ele>733.0000000</ele>
        <time>2009-07-05T08:29:34Z</time>
      </trkpt>
      <trkpt lat="45.8929800" lon="9.0349020">
        <ele>733.0100000</ele>
        <time>2009-07-05T08:29:35Z</time>
      </trkpt>
      <trkpt lat="45.8929110" lon="9.0348910">
        <ele>733.8000000</ele>
        <time>2009-07-05T08:29:40Z</time>
      </trkpt>
      <trkpt lat="45.8928310" lon="9.0348750">
        <ele>735.1400000</ele>
        <time>2009-07-05T08:29:48Z</time>
      </trkpt>
      <trkpt lat="45.8927130" lon="9.0348800">
        <ele>735.9700000</ele>
        <time>2009-07-05T08:29:54Z</time>
      </trkpt>
      <trkpt lat="45.8927070" lon="9.0348680">
        <ele>736.0600000</ele>
        <time>2009-07-05T08:29:55Z</time>
      </trkpt>
      <trkpt lat="45.8926440" lon="9.0348060">
        <ele>736.8600000</ele>
        <time>2009-07-05T08:30:00Z</time>
      </trkpt>
      <trkpt lat="45.8925920" lon="9.0347300">
        <ele>737.3100000</ele>
        <time>2009-07-05T08:30:06Z</time>
      </trkpt>
      <trkpt lat="45.8925990" lon="9.0345690">
        <ele>738.2800000</ele>
        <time>2009-07-05T08:30:11Z</time>
      </trkpt>
      <trkpt lat="45.8925490" lon="9.0344480">
        <ele>739.6400000</ele>
        <time>2009-07-05T08:30:18Z</time>
      </trkpt>
      <trkpt lat="45.8925040" lon="9.0343700">
        <ele>740.7800000</ele>
        <time>2009-07-05T08:30:25Z</time>
      </trkpt>
      <trkpt lat="45.8924990" lon="9.0343760">
        <ele>740.8400000</ele>
        <time>2009-07-05T08:30:26Z</time>
      </trkpt>
      <trkpt lat="45.8923760" lon="9.0345060">
        <ele>741.8300000</ele>
        <time>2009-07-05T08:30:33Z</time>
      </trkpt>
      <trkpt lat="45.8922720" lon="9.0345460">
        <ele>743.1300000</ele>
        <time>2009-07-05T08:30:39Z</time>
      </trkpt>
      <trkpt lat="45.8922290" lon="9.0345280">
        <ele>743.7900000</ele>
        <time>2009-07-05T08:30:44Z</time>
      </trkpt>
      <trkpt lat="45.8920810" lon="9.0345560">
        <ele>745.1900000</ele>
        <time>2009-07-05T08:30:52Z</time>
      </trkpt>
      <trkpt lat="45.8919840" lon="9.0345020">
        <ele>746.3600000</ele>
        <time>2009-07-05T08:31:00Z</time>
      </trkpt>
      <trkpt lat="45.8918830" lon="9.0344330">
        <ele>747.6100000</ele>
        <time>2009-07-05T08:31:09Z</time>
      </trkpt>
      <trkpt lat="45.8918050" lon="9.0343930">
        <ele>748.4200000</ele>
        <time>2009-07-05T08:31:14Z</time>
      </trkpt>
      <trkpt lat="45.8917830" lon="9.0343700">
        <ele>748.7800000</ele>
        <time>2009-07-05T08:31:16Z</time>
      </trkpt>
      <trkpt lat="45.8917100" lon="9.0342450">
        <ele>749.7000000</ele>
        <time>2009-07-05T08:31:24Z</time>
      </trkpt>
      <trkpt lat="45.8917140" lon="9.0341230">
        <ele>750.8300000</ele>
        <time>2009-07-05T08:31:30Z</time>
      </trkpt>
      <trkpt lat="45.8917020" lon="9.0340330">
        <ele>751.4100000</ele>
        <time>2009-07-05T08:31:36Z</time>
      </trkpt>
      <trkpt lat="45.8917250" lon="9.0338650">
        <ele>752.4500000</ele>
        <time>2009-07-05T08:31:44Z</time>
      </trkpt>
      <trkpt lat="45.8917300" lon="9.0337400">
        <ele>753.5600000</ele>
        <time>2009-07-05T08:31:50Z</time>
      </trkpt>
      <trkpt lat="45.8917440" lon="9.0336680">
        <ele>754.0000000</ele>
        <time>2009-07-05T08:31:53Z</time>
      </trkpt>
      <trkpt lat="45.8917890" lon="9.0334690">
        <ele>755.1900000</ele>
        <time>2009-07-05T08:32:01Z</time>
      </trkpt>
      <trkpt lat="45.8918110" lon="9.0332670">
        <ele>756.5900000</ele>
        <time>2009-07-05T08:32:09Z</time>
      </trkpt>
      <trkpt lat="45.8917920" lon="9.0330850">
        <ele>757.9100000</ele>
        <time>2009-07-05T08:32:18Z</time>
      </trkpt>
      <trkpt lat="45.8917620" lon="9.0330200">
        <ele>758.5000000</ele>
        <time>2009-07-05T08:32:23Z</time>
      </trkpt>
      <trkpt lat="45.8917430" lon="9.0330100">
        <ele>758.8800000</ele>
        <time>2009-07-05T08:32:25Z</time>
      </trkpt>
      <trkpt lat="45.8917200" lon="9.0329140">
        <ele>759.8700000</ele>
        <time>2009-07-05T08:32:31Z</time>
      </trkpt>
      <trkpt lat="45.8917360" lon="9.0327800">
        <ele>760.5400000</ele>
        <time>2009-07-05T08:32:37Z</time>
      </trkpt>
      <trkpt lat="45.8917320" lon="9.0327460">
        <ele>760.7300000</ele>
        <time>2009-07-05T08:32:39Z</time>
      </trkpt>
      <trkpt lat="45.8917070" lon="9.0326840">
        <ele>761.1000000</ele>
        <time>2009-07-05T08:32:46Z</time>
      </trkpt>
      <trkpt lat="45.8917300" lon="9.0326760">
        <ele>761.9900000</ele>
        <time>2009-07-05T08:32:50Z</time>
      </trkpt>
      <trkpt lat="45.8917800" lon="9.0327330">
        <ele>762.7500000</ele>
        <time>2009-07-05T08:32:57Z</time>
      </trkpt>
      <trkpt lat="45.8918050" lon="9.0328330">
        <ele>763.3300000</ele>
        <time>2009-07-05T08:33:02Z</time>
      </trkpt>
      <trkpt lat="45.8918580" lon="9.0329340">
        <ele>764.5300000</ele>
        <time>2009-07-05T08:33:09Z</time>
      </trkpt>
      <trkpt lat="45.8918800" lon="9.0330200">
        <ele>765.3400000</ele>
        <time>2009-07-05T08:33:14Z</time>
      </trkpt>
      <trkpt lat="45.8918970" lon="9.0330720">
        <ele>765.8600000</ele>
        <time>2009-07-05T08:33:17Z</time>
      </trkpt>
      <trkpt lat="45.8919230" lon="9.0331830">
        <ele>766.9900000</ele>
        <time>2009-07-05T08:33:24Z</time>
      </trkpt>
      <trkpt lat="45.8919520" lon="9.0333150">
        <ele>768.1800000</ele>
        <time>2009-07-05T08:33:30Z</time>
      </trkpt>
      <trkpt lat="45.8919720" lon="9.0334910">
        <ele>769.0300000</ele>
        <time>2009-07-05T08:33:37Z</time>
      </trkpt>
      <trkpt lat="45.8919970" lon="9.0336230">
        <ele>769.9600000</ele>
        <time>2009-07-05T08:33:43Z</time>
      </trkpt>
      <trkpt lat="45.8920630" lon="9.0337400">
        <ele>771.0600000</ele>
        <time>2009-07-05T08:33:51Z</time>
      </trkpt>
      <trkpt lat="45.8920880" lon="9.0337450">
        <ele>771.5600000</ele>
        <time>2009-07-05T08:33:53Z</time>
      </trkpt>
      <trkpt lat="45.8921690" lon="9.0337400">
        <ele>772.6400000</ele>
        <time>2009-07-05T08:34:00Z</time>
      </trkpt>
      <trkpt lat="45.8922200" lon="9.0337130">
        <ele>773.4200000</ele>
        <time>2009-07-05T08:34:05Z</time>
      </trkpt>
      <trkpt lat="45.8923270" lon="9.0336890">
        <ele>775.2300000</ele>
        <time>2009-07-05T08:34:15Z</time>
      </trkpt>
      <trkpt lat="45.8923760" lon="9.0336920">
        <ele>776.0700000</ele>
        <time>2009-07-05T08:34:21Z</time>
      </trkpt>
      <trkpt lat="45.8924430" lon="9.0336870">
        <ele>777.2200000</ele>
        <time>2009-07-05T08:34:26Z</time>
      </trkpt>
      <trkpt lat="45.8924960" lon="9.0336940">
        <ele>777.5100000</ele>
        <time>2009-07-05T08:34:32Z</time>
      </trkpt>
      <trkpt lat="45.8925640" lon="9.0337020">
        <ele>778.5500000</ele>
        <time>2009-07-05T08:34:38Z</time>
      </trkpt>
      <trkpt lat="45.8926270" lon="9.0336840">
        <ele>779.1700000</ele>
        <time>2009-07-05T08:34:42Z</time>
      </trkpt>
      <trkpt lat="45.8927000" lon="9.0336640">
        <ele>780.2400000</ele>
        <time>2009-07-05T08:34:47Z</time>
      </trkpt>
      <trkpt lat="45.8927430" lon="9.0336710">
        <ele>781.2900000</ele>
        <time>2009-07-05T08:34:52Z</time>
      </trkpt>
      <trkpt lat="45.8928670" lon="9.0336890">
        <ele>782.5000000</ele>
        <time>2009-07-05T08:35:00Z</time>
      </trkpt>
      <trkpt lat="45.8929980" lon="9.0336940">
        <ele>783.5100000</ele>
        <time>2009-07-05T08:35:07Z</time>
      </trkpt>
      <trkpt lat="45.8930410" lon="9.0337100">
        <ele>784.0100000</ele>
        <time>2009-07-05T08:35:10Z</time>
      </trkpt>
      <trkpt lat="45.8931370" lon="9.0337180">
        <ele>784.6400000</ele>
        <time>2009-07-05T08:35:16Z</time>
      </trkpt>
      <trkpt lat="45.8932520" lon="9.0337110">
        <ele>786.0400000</ele>
        <time>2009-07-05T08:35:23Z</time>
      </trkpt>
      <trkpt lat="45.8932620" lon="9.0337140">
        <ele>786.0700000</ele>
        <time>2009-07-05T08:35:24Z</time>
      </trkpt>
      <trkpt lat="45.8933610" lon="9.0337220">
        <ele>787.0200000</ele>
        <time>2009-07-05T08:35:32Z</time>
      </trkpt>
      <trkpt lat="45.8934380" lon="9.0337470">
        <ele>788.2000000</ele>
        <time>2009-07-05T08:35:38Z</time>
      </trkpt>
      <trkpt lat="45.8935170" lon="9.0337860">
        <ele>788.7300000</ele>
        <time>2009-07-05T08:35:44Z</time>
      </trkpt>
      <trkpt lat="45.8935430" lon="9.0338000">
        <ele>789.2700000</ele>
        <time>2009-07-05T08:35:46Z</time>
      </trkpt>
      <trkpt lat="45.8936450" lon="9.0337920">
        <ele>790.1300000</ele>
        <time>2009-07-05T08:35:52Z</time>
      </trkpt>
      <trkpt lat="45.8937000" lon="9.0337780">
        <ele>790.9200000</ele>
        <time>2009-07-05T08:35:58Z</time>
      </trkpt>
      <trkpt lat="45.8937330" lon="9.0337870">
        <ele>791.4400000</ele>
        <time>2009-07-05T08:36:02Z</time>
      </trkpt>
      <trkpt lat="45.8938120" lon="9.0338200">
        <ele>792.2200000</ele>
        <time>2009-07-05T08:36:07Z</time>
      </trkpt>
      <trkpt lat="45.8939240" lon="9.0338480">
        <ele>792.8500000</ele>
        <time>2009-07-05T08:36:14Z</time>
      </trkpt>
      <trkpt lat="45.8939300" lon="9.0338570">
        <ele>793.0500000</ele>
        <time>2009-07-05T08:36:15Z</time>
      </trkpt>
      <trkpt lat="45.8939520" lon="9.0338860">
        <ele>793.6400000</ele>
        <time>2009-07-05T08:36:19Z</time>
      </trkpt>
      <trkpt lat="45.8939550" lon="9.0339900">
        <ele>795.0200000</ele>
        <time>2009-07-05T08:36:28Z</time>
      </trkpt>
      <trkpt lat="45.8939500" lon="9.0340720">
        <ele>795.6700000</ele>
        <time>2009-07-05T08:36:34Z</time>
      </trkpt>
      <trkpt lat="45.8939520" lon="9.0340880">
        <ele>796.2200000</ele>
        <time>2009-07-05T08:36:35Z</time>
      </trkpt>
      <trkpt lat="45.8939480" lon="9.0341310">
        <ele>796.5200000</ele>
        <time>2009-07-05T08:36:37Z</time>
      </trkpt>
      <trkpt lat="45.8939590" lon="9.0342250">
        <ele>797.0300000</ele>
        <time>2009-07-05T08:36:41Z</time>
      </trkpt>
      <trkpt lat="45.8939590" lon="9.0342960">
        <ele>797.5800000</ele>
        <time>2009-07-05T08:36:44Z</time>
      </trkpt>
      <trkpt lat="45.8939640" lon="9.0343700">
        <ele>798.3000000</ele>
        <time>2009-07-05T08:36:48Z</time>
      </trkpt>
      <trkpt lat="45.8939630" lon="9.0345170">
        <ele>799.5000000</ele>
        <time>2009-07-05T08:36:55Z</time>
      </trkpt>
      <trkpt lat="45.8939590" lon="9.0346050">
        <ele>799.7800000</ele>
        <time>2009-07-05T08:36:59Z</time>
      </trkpt>
      <trkpt lat="45.8939680" lon="9.0346730">
        <ele>800.4600000</ele>
        <time>2009-07-05T08:37:03Z</time>
      </trkpt>
      <trkpt lat="45.8939530" lon="9.0347470">
        <ele>801.0400000</ele>
        <time>2009-07-05T08:37:06Z</time>
      </trkpt>
      <trkpt lat="45.8939890" lon="9.0348610">
        <ele>801.7300000</ele>
        <time>2009-07-05T08:37:12Z</time>
      </trkpt>
      <trkpt lat="45.8940020" lon="9.0348760">
        <ele>801.7300000</ele>
        <time>2009-07-05T08:37:13Z</time>
      </trkpt>
      <trkpt lat="45.8940560" lon="9.0349260">
        <ele>802.6200000</ele>
        <time>2009-07-05T08:37:17Z</time>
      </trkpt>
      <trkpt lat="45.8941380" lon="9.0350330">
        <ele>803.9700000</ele>
        <time>2009-07-05T08:37:24Z</time>
      </trkpt>
      <trkpt lat="45.8941490" lon="9.0350480">
        <ele>804.0900000</ele>
        <time>2009-07-05T08:37:25Z</time>
      </trkpt>
      <trkpt lat="45.8942540" lon="9.0351120">
        <ele>804.9400000</ele>
        <time>2009-07-05T08:37:32Z</time>
      </trkpt>
      <trkpt lat="45.8942850" lon="9.0351590">
        <ele>805.6000000</ele>
        <time>2009-07-05T08:37:35Z</time>
      </trkpt>
      <trkpt lat="45.8943590" lon="9.0352430">
        <ele>806.6000000</ele>
        <time>2009-07-05T08:37:42Z</time>
      </trkpt>
      <trkpt lat="45.8943980" lon="9.0352940">
        <ele>807.1300000</ele>
        <time>2009-07-05T08:37:46Z</time>
      </trkpt>
      <trkpt lat="45.8944790" lon="9.0353880">
        <ele>808.2200000</ele>
        <time>2009-07-05T08:37:53Z</time>
      </trkpt>
      <trkpt lat="45.8945720" lon="9.0354700">
        <ele>809.3900000</ele>
        <time>2009-07-05T08:38:01Z</time>
      </trkpt>
      <trkpt lat="45.8946810" lon="9.0355420">
        <ele>810.7700000</ele>
        <time>2009-07-05T08:38:09Z</time>
      </trkpt>
      <trkpt lat="45.8947400" lon="9.0356010">
        <ele>811.6200000</ele>
        <time>2009-07-05T08:38:14Z</time>
      </trkpt>
      <trkpt lat="45.8948120" lon="9.0356550">
        <ele>812.9600000</ele>
        <time>2009-07-05T08:38:20Z</time>
      </trkpt>
      <trkpt lat="45.8949040" lon="9.0357050">
        <ele>814.0900000</ele>
        <time>2009-07-05T08:38:28Z</time>
      </trkpt>
      <trkpt lat="45.8949760" lon="9.0357800">
        <ele>815.0000000</ele>
        <time>2009-07-05T08:38:34Z</time>
      </trkpt>
      <trkpt lat="45.8949960" lon="9.0358080">
        <ele>815.2600000</ele>
        <time>2009-07-05T08:38:36Z</time>
      </trkpt>
      <trkpt lat="45.8950780" lon="9.0358950">
        <ele>816.3200000</ele>
        <time>2009-07-05T08:38:43Z</time>
      </trkpt>
      <trkpt lat="45.8951170" lon="9.0359290">
        <ele>816.6600000</ele>
        <time>2009-07-05T08:38:46Z</time>
      </trkpt>
      <trkpt lat="45.8952350" lon="9.0359690">
        <ele>818.0700000</ele>
        <time>2009-07-05T08:38:54Z</time>
      </trkpt>
      <trkpt lat="45.8953290" lon="9.0359740">
        <ele>819.1000000</ele>
        <time>2009-07-05T08:39:01Z</time>
      </trkpt>
      <trkpt lat="45.8953750" lon="9.0359840">
        <ele>820.4000000</ele>
        <time>2009-07-05T08:39:08Z</time>
      </trkpt>
      <trkpt lat="45.8954020" lon="9.0359670">
        <ele>821.0100000</ele>
        <time>2009-07-05T08:39:13Z</time>
      </trkpt>
      <trkpt lat="45.8954560" lon="9.0359400">
        <ele>821.8700000</ele>
        <time>2009-07-05T08:39:18Z</time>
      </trkpt>
      <trkpt lat="45.8955010" lon="9.0359120">
        <ele>822.9600000</ele>
        <time>2009-07-05T08:39:24Z</time>
      </trkpt>
      <trkpt lat="45.8955840" lon="9.0358580">
        <ele>824.0100000</ele>
        <time>2009-07-05T08:39:31Z</time>
      </trkpt>
      <trkpt lat="45.8956640" lon="9.0357720">
        <ele>824.7400000</ele>
        <time>2009-07-05T08:39:36Z</time>
      </trkpt>
      <trkpt lat="45.8957490" lon="9.0356950">
        <ele>825.8300000</ele>
        <time>2009-07-05T08:39:42Z</time>
      </trkpt>
      <trkpt lat="45.8958500" lon="9.0356230">
        <ele>826.7600000</ele>
        <time>2009-07-05T08:39:48Z</time>
      </trkpt>
      <trkpt lat="45.8959260" lon="9.0355840">
        <ele>828.0400000</ele>
        <time>2009-07-05T08:39:55Z</time>
      </trkpt>
      <trkpt lat="45.8960100" lon="9.0355400">
        <ele>829.3700000</ele>
        <time>2009-07-05T08:40:01Z</time>
      </trkpt>
      <trkpt lat="45.8960380" lon="9.0355320">
        <ele>829.5000000</ele>
        <time>2009-07-05T08:40:03Z</time>
      </trkpt>
      <trkpt lat="45.8960890" lon="9.0355250">
        <ele>830.1900000</ele>
        <time>2009-07-05T08:40:07Z</time>
      </trkpt>
      <trkpt lat="45.8961370" lon="9.0355640">
        <ele>830.8100000</ele>
        <time>2009-07-05T08:40:11Z</time>
      </trkpt>
      <trkpt lat="45.8962040" lon="9.0356130">
        <ele>831.5400000</ele>
        <time>2009-07-05T08:40:15Z</time>
      </trkpt>
      <trkpt lat="45.8962280" lon="9.0356590">
        <ele>831.6200000</ele>
        <time>2009-07-05T08:40:17Z</time>
      </trkpt>
      <trkpt lat="45.8963320" lon="9.0356860">
        <ele>832.6400000</ele>
        <time>2009-07-05T08:40:23Z</time>
      </trkpt>
      <trkpt lat="45.8964010" lon="9.0357100">
        <ele>833.5400000</ele>
        <time>2009-07-05T08:40:28Z</time>
      </trkpt>
      <trkpt lat="45.8964120" lon="9.0357130">
        <ele>833.8100000</ele>
        <time>2009-07-05T08:40:29Z</time>
      </trkpt>
      <trkpt lat="45.8964760" lon="9.0357820">
        <ele>834.4100000</ele>
        <time>2009-07-05T08:40:35Z</time>
      </trkpt>
      <trkpt lat="45.8964780" lon="9.0357910">
        <ele>834.6200000</ele>
        <time>2009-07-05T08:40:36Z</time>
      </trkpt>
      <trkpt lat="45.8965260" lon="9.0358250">
        <ele>835.4300000</ele>
        <time>2009-07-05T08:40:41Z</time>
      </trkpt>
      <trkpt lat="45.8965730" lon="9.0358180">
        <ele>835.7500000</ele>
        <time>2009-07-05T08:40:44Z</time>
      </trkpt>
      <trkpt lat="45.8966250" lon="9.0358530">
        <ele>836.2400000</ele>
        <time>2009-07-05T08:40:49Z</time>
      </trkpt>
      <trkpt lat="45.8966840" lon="9.0359150">
        <ele>837.2700000</ele>
        <time>2009-07-05T08:40:56Z</time>
      </trkpt>
      <trkpt lat="45.8967940" lon="9.0359080">
        <ele>838.6300000</ele>
        <time>2009-07-05T08:41:04Z</time>
      </trkpt>
      <trkpt lat="45.8968890" lon="9.0359000">
        <ele>840.2400000</ele>
        <time>2009-07-05T08:41:11Z</time>
      </trkpt>
      <trkpt lat="45.8969190" lon="9.0359310">
        <ele>840.3300000</ele>
        <time>2009-07-05T08:41:16Z</time>
      </trkpt>
      <trkpt lat="45.8969120" lon="9.0359770">
        <ele>840.5300000</ele>
        <time>2009-07-05T08:41:21Z</time>
      </trkpt>
      <trkpt lat="45.8968940" lon="9.0359940">
        <ele>840.9800000</ele>
        <time>2009-07-05T08:41:26Z</time>
      </trkpt>
      <trkpt lat="45.8968770" lon="9.0359990">
        <ele>841.1500000</ele>
        <time>2009-07-05T08:41:33Z</time>
      </trkpt>
      <trkpt lat="45.8968410" lon="9.0359870">
        <ele>842.1300000</ele>
        <time>2009-07-05T08:41:37Z</time>
      </trkpt>
      <trkpt lat="45.8967470" lon="9.0359570">
        <ele>843.2600000</ele>
        <time>2009-07-05T08:41:45Z</time>
      </trkpt>
      <trkpt lat="45.8966500" lon="9.0358660">
        <ele>844.4300000</ele>
        <time>2009-07-05T08:41:54Z</time>
      </trkpt>
      <trkpt lat="45.8965740" lon="9.0358010">
        <ele>845.6000000</ele>
        <time>2009-07-05T08:42:00Z</time>
      </trkpt>
      <trkpt lat="45.8964940" lon="9.0357390">
        <ele>846.8000000</ele>
        <time>2009-07-05T08:42:07Z</time>
      </trkpt>
      <trkpt lat="45.8964490" lon="9.0357000">
        <ele>847.4300000</ele>
        <time>2009-07-05T08:42:11Z</time>
      </trkpt>
      <trkpt lat="45.8964230" lon="9.0355110">
        <ele>849.0100000</ele>
        <time>2009-07-05T08:42:19Z</time>
      </trkpt>
      <trkpt lat="45.8964260" lon="9.0353840">
        <ele>849.5900000</ele>
        <time>2009-07-05T08:42:24Z</time>
      </trkpt>
      <trkpt lat="45.8964250" lon="9.0353620">
        <ele>849.5900000</ele>
        <time>2009-07-05T08:42:25Z</time>
      </trkpt>
      <trkpt lat="45.8963880" lon="9.0352770">
        <ele>850.5500000</ele>
        <time>2009-07-05T08:42:30Z</time>
      </trkpt>
      <trkpt lat="45.8963510" lon="9.0352330">
        <ele>851.0600000</ele>
        <time>2009-07-05T08:42:34Z</time>
      </trkpt>
      <trkpt lat="45.8963170" lon="9.0352070">
        <ele>852.0000000</ele>
        <time>2009-07-05T08:42:37Z</time>
      </trkpt>
      <trkpt lat="45.8962730" lon="9.0351190">
        <ele>852.5800000</ele>
        <time>2009-07-05T08:42:43Z</time>
      </trkpt>
      <trkpt lat="45.8961740" lon="9.0350720">
        <ele>853.9900000</ele>
        <time>2009-07-05T08:42:50Z</time>
      </trkpt>
      <trkpt lat="45.8961010" lon="9.0350540">
        <ele>854.4800000</ele>
        <time>2009-07-05T08:42:56Z</time>
      </trkpt>
      <trkpt lat="45.8960350" lon="9.0350660">
        <ele>854.9500000</ele>
        <time>2009-07-05T08:43:00Z</time>
      </trkpt>
      <trkpt lat="45.8959880" lon="9.0350500">
        <ele>855.8400000</ele>
        <time>2009-07-05T08:43:04Z</time>
      </trkpt>
      <trkpt lat="45.8959530" lon="9.0350240">
        <ele>856.8300000</ele>
        <time>2009-07-05T08:43:08Z</time>
      </trkpt>
      <trkpt lat="45.8959320" lon="9.0350260">
        <ele>856.8800000</ele>
        <time>2009-07-05T08:43:10Z</time>
      </trkpt>
      <trkpt lat="45.8958330" lon="9.0350200">
        <ele>857.7800000</ele>
        <time>2009-07-05T08:43:17Z</time>
      </trkpt>
      <trkpt lat="45.8957050" lon="9.0350960">
        <ele>858.7600000</ele>
        <time>2009-07-05T08:43:23Z</time>
      </trkpt>
      <trkpt lat="45.8956460" lon="9.0351130">
        <ele>859.5900000</ele>
        <time>2009-07-05T08:43:27Z</time>
      </trkpt>
      <trkpt lat="45.8955300" lon="9.0351540">
        <ele>860.6300000</ele>
        <time>2009-07-05T08:43:34Z</time>
      </trkpt>
      <trkpt lat="45.8954210" lon="9.0352000">
        <ele>861.9200000</ele>
        <time>2009-07-05T08:43:40Z</time>
      </trkpt>
      <trkpt lat="45.8953560" lon="9.0351820">
        <ele>862.7200000</ele>
        <time>2009-07-05T08:43:45Z</time>
      </trkpt>
      <trkpt lat="45.8952470" lon="9.0351400">
        <ele>863.5200000</ele>
        <time>2009-07-05T08:43:52Z</time>
      </trkpt>
      <trkpt lat="45.8951920" lon="9.0351120">
        <ele>863.9800000</ele>
        <time>2009-07-05T08:43:55Z</time>
      </trkpt>
      <trkpt lat="45.8951070" lon="9.0349830">
        <ele>865.0100000</ele>
        <time>2009-07-05T08:44:02Z</time>
      </trkpt>
      <trkpt lat="45.8950430" lon="9.0349050">
        <ele>866.1300000</ele>
        <time>2009-07-05T08:44:07Z</time>
      </trkpt>
      <trkpt lat="45.8949830" lon="9.0347730">
        <ele>866.5800000</ele>
        <time>2009-07-05T08:44:13Z</time>
      </trkpt>
      <trkpt lat="45.8949230" lon="9.0346740">
        <ele>867.5900000</ele>
        <time>2009-07-05T08:44:19Z</time>
      </trkpt>
      <trkpt lat="45.8949010" lon="9.0346350">
        <ele>868.0300000</ele>
        <time>2009-07-05T08:44:21Z</time>
      </trkpt>
      <trkpt lat="45.8948720" lon="9.0345240">
        <ele>869.1600000</ele>
        <time>2009-07-05T08:44:26Z</time>
      </trkpt>
      <trkpt lat="45.8948610" lon="9.0344220">
        <ele>869.8200000</ele>
        <time>2009-07-05T08:44:31Z</time>
      </trkpt>
      <trkpt lat="45.8948510" lon="9.0343110">
        <ele>870.4900000</ele>
        <time>2009-07-05T08:44:37Z</time>
      </trkpt>
      <trkpt lat="45.8948390" lon="9.0342070">
        <ele>871.4400000</ele>
        <time>2009-07-05T08:44:43Z</time>
      </trkpt>
      <trkpt lat="45.8948400" lon="9.0340640">
        <ele>872.3700000</ele>
        <time>2009-07-05T08:44:49Z</time>
      </trkpt>
      <trkpt lat="45.8948420" lon="9.0340350">
        <ele>872.5100000</ele>
        <time>2009-07-05T08:44:50Z</time>
      </trkpt>
      <trkpt lat="45.8948320" lon="9.0339980">
        <ele>872.7400000</ele>
        <time>2009-07-05T08:44:52Z</time>
      </trkpt>
      <trkpt lat="45.8948460" lon="9.0338610">
        <ele>874.0400000</ele>
        <time>2009-07-05T08:45:00Z</time>
      </trkpt>
      <trkpt lat="45.8948560" lon="9.0337690">
        <ele>874.4400000</ele>
        <time>2009-07-05T08:45:04Z</time>
      </trkpt>
      <trkpt lat="45.8948570" lon="9.0336820">
        <ele>875.5500000</ele>
        <time>2009-07-05T08:45:10Z</time>
      </trkpt>
      <trkpt lat="45.8948580" lon="9.0335820">
        <ele>876.3600000</ele>
        <time>2009-07-05T08:45:15Z</time>
      </trkpt>
      <trkpt lat="45.8948600" lon="9.0335180">
        <ele>876.9500000</ele>
        <time>2009-07-05T08:45:18Z</time>
      </trkpt>
      <trkpt lat="45.8948730" lon="9.0334140">
        <ele>877.4700000</ele>
        <time>2009-07-05T08:45:22Z</time>
      </trkpt>
      <trkpt lat="45.8948270" lon="9.0332860">
        <ele>878.5200000</ele>
        <time>2009-07-05T08:45:29Z</time>
      </trkpt>
      <trkpt lat="45.8948150" lon="9.0332810">
        <ele>878.5400000</ele>
        <time>2009-07-05T08:45:30Z</time>
      </trkpt>
      <trkpt lat="45.8947740" lon="9.0332300">
        <ele>879.1100000</ele>
        <time>2009-07-05T08:45:34Z</time>
      </trkpt>
      <trkpt lat="45.8947370" lon="9.0331010">
        <ele>880.5700000</ele>
        <time>2009-07-05T08:45:41Z</time>
      </trkpt>
      <trkpt lat="45.8946740" lon="9.0329610">
        <ele>881.4900000</ele>
        <time>2009-07-05T08:45:49Z</time>
      </trkpt>
      <trkpt lat="45.8946210" lon="9.0328840">
        <ele>882.2800000</ele>
        <time>2009-07-05T08:45:55Z</time>
      </trkpt>
      <trkpt lat="45.8946000" lon="9.0328700">
        <ele>883.1400000</ele>
        <time>2009-07-05T08:45:57Z</time>
      </trkpt>
      <trkpt lat="45.8945800" lon="9.0328460">
        <ele>883.0900000</ele>
        <time>2009-07-05T08:45:59Z</time>
      </trkpt>
      <trkpt lat="45.8945250" lon="9.0328050">
        <ele>884.2700000</ele>
        <time>2009-07-05T08:46:04Z</time>
      </trkpt>
      <trkpt lat="45.8944280" lon="9.0327690">
        <ele>885.2100000</ele>
        <time>2009-07-05T08:46:10Z</time>
      </trkpt>
      <trkpt lat="45.8944150" lon="9.0326440">
        <ele>886.4700000</ele>
        <time>2009-07-05T08:46:17Z</time>
      </trkpt>
      <trkpt lat="45.8943640" lon="9.0325840">
        <ele>887.1800000</ele>
        <time>2009-07-05T08:46:22Z</time>
      </trkpt>
      <trkpt lat="45.8943250" lon="9.0325680">
        <ele>887.7600000</ele>
        <time>2009-07-05T08:46:25Z</time>
      </trkpt>
      <trkpt lat="45.8942700" lon="9.0325370">
        <ele>888.3400000</ele>
        <time>2009-07-05T08:46:29Z</time>
      </trkpt>
      <trkpt lat="45.8942230" lon="9.0324770">
        <ele>889.4000000</ele>
        <time>2009-07-05T08:46:33Z</time>
      </trkpt>
      <trkpt lat="45.8941700" lon="9.0323340">
        <ele>890.4600000</ele>
        <time>2009-07-05T08:46:40Z</time>
      </trkpt>
      <trkpt lat="45.8941350" lon="9.0322620">
        <ele>890.9500000</ele>
        <time>2009-07-05T08:46:44Z</time>
      </trkpt>
      <trkpt lat="45.8940780" lon="9.0321600">
        <ele>892.1500000</ele>
        <time>2009-07-05T08:46:50Z</time>
      </trkpt>
      <trkpt lat="45.8940470" lon="9.0321320">
        <ele>892.5000000</ele>
        <time>2009-07-05T08:46:52Z</time>
      </trkpt>
      <trkpt lat="45.8940300" lon="9.0320200">
        <ele>893.2600000</ele>
        <time>2009-07-05T08:46:57Z</time>
      </trkpt>
      <trkpt lat="45.8939560" lon="9.0318830">
        <ele>894.7600000</ele>
        <time>2009-07-05T08:47:06Z</time>
      </trkpt>
      <trkpt lat="45.8938830" lon="9.0318050">
        <ele>895.9000000</ele>
        <time>2009-07-05T08:47:14Z</time>
      </trkpt>
      <trkpt lat="45.8938410" lon="9.0317420">
        <ele>896.8300000</ele>
        <time>2009-07-05T08:47:18Z</time>
      </trkpt>
      <trkpt lat="45.8937510" lon="9.0317100">
        <ele>897.3400000</ele>
        <time>2009-07-05T08:47:23Z</time>
      </trkpt>
      <trkpt lat="45.8936360" lon="9.0316060">
        <ele>898.7700000</ele>
        <time>2009-07-05T08:47:31Z</time>
      </trkpt>
      <trkpt lat="45.8936170" lon="9.0315920">
        <ele>899.0600000</ele>
        <time>2009-07-05T08:47:32Z</time>
      </trkpt>
      <trkpt lat="45.8935280" lon="9.0314300">
        <ele>900.2300000</ele>
        <time>2009-07-05T08:47:40Z</time>
      </trkpt>
      <trkpt lat="45.8935010" lon="9.0313660">
        <ele>900.8300000</ele>
        <time>2009-07-05T08:47:43Z</time>
      </trkpt>
      <trkpt lat="45.8934380" lon="9.0312490">
        <ele>902.0400000</ele>
        <time>2009-07-05T08:47:50Z</time>
      </trkpt>
      <trkpt lat="45.8933650" lon="9.0311670">
        <ele>903.1100000</ele>
        <time>2009-07-05T08:47:56Z</time>
      </trkpt>
      <trkpt lat="45.8932810" lon="9.0310450">
        <ele>904.4200000</ele>
        <time>2009-07-05T08:48:03Z</time>
      </trkpt>
      <trkpt lat="45.8932650" lon="9.0310260">
        <ele>904.6100000</ele>
        <time>2009-07-05T08:48:04Z</time>
      </trkpt>
      <trkpt lat="45.8932280" lon="9.0309390">
        <ele>905.3900000</ele>
        <time>2009-07-05T08:48:09Z</time>
      </trkpt>
      <trkpt lat="45.8932020" lon="9.0308670">
        <ele>906.0300000</ele>
        <time>2009-07-05T08:48:13Z</time>
      </trkpt>
      <trkpt lat="45.8931880" lon="9.0307870">
        <ele>906.5400000</ele>
        <time>2009-07-05T08:48:17Z</time>
      </trkpt>
      <trkpt lat="45.8931460" lon="9.0306680">
        <ele>907.5600000</ele>
        <time>2009-07-05T08:48:24Z</time>
      </trkpt>
      <trkpt lat="45.8931500" lon="9.0305410">
        <ele>908.6400000</ele>
        <time>2009-07-05T08:48:30Z</time>
      </trkpt>
      <trkpt lat="45.8931690" lon="9.0304080">
        <ele>909.4600000</ele>
        <time>2009-07-05T08:48:37Z</time>
      </trkpt>
      <trkpt lat="45.8931670" lon="9.0303240">
        <ele>910.3200000</ele>
        <time>2009-07-05T08:48:42Z</time>
      </trkpt>
      <trkpt lat="45.8931620" lon="9.0302430">
        <ele>910.6500000</ele>
        <time>2009-07-05T08:48:46Z</time>
      </trkpt>
      <trkpt lat="45.8931590" lon="9.0301600">
        <ele>911.1700000</ele>
        <time>2009-07-05T08:48:49Z</time>
      </trkpt>
      <trkpt lat="45.8931500" lon="9.0300910">
        <ele>911.2600000</ele>
        <time>2009-07-05T08:48:52Z</time>
      </trkpt>
      <trkpt lat="45.8931350" lon="9.0299960">
        <ele>912.4900000</ele>
        <time>2009-07-05T08:48:58Z</time>
      </trkpt>
      <trkpt lat="45.8931290" lon="9.0299370">
        <ele>913.1100000</ele>
        <time>2009-07-05T08:49:02Z</time>
      </trkpt>
      <trkpt lat="45.8931160" lon="9.0298270">
        <ele>913.6600000</ele>
        <time>2009-07-05T08:49:07Z</time>
      </trkpt>
      <trkpt lat="45.8931100" lon="9.0296530">
        <ele>915.0800000</ele>
        <time>2009-07-05T08:49:14Z</time>
      </trkpt>
      <trkpt lat="45.8930730" lon="9.0294910">
        <ele>916.2200000</ele>
        <time>2009-07-05T08:49:22Z</time>
      </trkpt>
      <trkpt lat="45.8930660" lon="9.0294380">
        <ele>916.5000000</ele>
        <time>2009-07-05T08:49:24Z</time>
      </trkpt>
      <trkpt lat="45.8930380" lon="9.0292960">
        <ele>917.5900000</ele>
        <time>2009-07-05T08:49:30Z</time>
      </trkpt>
      <trkpt lat="45.8930350" lon="9.0292600">
        <ele>917.8200000</ele>
        <time>2009-07-05T08:49:32Z</time>
      </trkpt>
      <trkpt lat="45.8930230" lon="9.0292050">
        <ele>918.3800000</ele>
        <time>2009-07-05T08:49:35Z</time>
      </trkpt>
      <trkpt lat="45.8930190" lon="9.0291080">
        <ele>919.1900000</ele>
        <time>2009-07-05T08:49:39Z</time>
      </trkpt>
      <trkpt lat="45.8929750" lon="9.0289150">
        <ele>920.7500000</ele>
        <time>2009-07-05T08:49:48Z</time>
      </trkpt>
      <trkpt lat="45.8929200" lon="9.0288590">
        <ele>921.5900000</ele>
        <time>2009-07-05T08:49:53Z</time>
      </trkpt>
      <trkpt lat="45.8928720" lon="9.0288070">
        <ele>922.4200000</ele>
        <time>2009-07-05T08:49:58Z</time>
      </trkpt>
      <trkpt lat="45.8928100" lon="9.0287590">
        <ele>923.3500000</ele>
        <time>2009-07-05T08:50:03Z</time>
      </trkpt>
      <trkpt lat="45.8927180" lon="9.0286820">
        <ele>924.4900000</ele>
        <time>2009-07-05T08:50:10Z</time>
      </trkpt>
      <trkpt lat="45.8926920" lon="9.0286260">
        <ele>924.9900000</ele>
        <time>2009-07-05T08:50:15Z</time>
      </trkpt>
      <trkpt lat="45.8926790" lon="9.0286100">
        <ele>925.2700000</ele>
        <time>2009-07-05T08:50:16Z</time>
      </trkpt>
      <trkpt lat="45.8926160" lon="9.0285740">
        <ele>926.2300000</ele>
        <time>2009-07-05T08:50:22Z</time>
      </trkpt>
      <trkpt lat="45.8925230" lon="9.0285070">
        <ele>927.6100000</ele>
        <time>2009-07-05T08:50:29Z</time>
      </trkpt>
      <trkpt lat="45.8924290" lon="9.0284430">
        <ele>928.1900000</ele>
        <time>2009-07-05T08:50:35Z</time>
      </trkpt>
      <trkpt lat="45.8923300" lon="9.0283760">
        <ele>929.4800000</ele>
        <time>2009-07-05T08:50:41Z</time>
      </trkpt>
      <trkpt lat="45.8922870" lon="9.0283340">
        <ele>929.7900000</ele>
        <time>2009-07-05T08:50:44Z</time>
      </trkpt>
      <trkpt lat="45.8921700" lon="9.0282780">
        <ele>931.4900000</ele>
        <time>2009-07-05T08:50:52Z</time>
      </trkpt>
      <trkpt lat="45.8921350" lon="9.0281900">
        <ele>931.9700000</ele>
        <time>2009-07-05T08:50:56Z</time>
      </trkpt>
      <trkpt lat="45.8921080" lon="9.0281160">
        <ele>932.3900000</ele>
        <time>2009-07-05T08:51:00Z</time>
      </trkpt>
      <trkpt lat="45.8920280" lon="9.0280570">
        <ele>933.4900000</ele>
        <time>2009-07-05T08:51:07Z</time>
      </trkpt>
      <trkpt lat="45.8919510" lon="9.0280270">
        <ele>934.7800000</ele>
        <time>2009-07-05T08:51:15Z</time>
      </trkpt>
      <trkpt lat="45.8919460" lon="9.0279600">
        <ele>935.2200000</ele>
        <time>2009-07-05T08:51:20Z</time>
      </trkpt>
      <trkpt lat="45.8920220" lon="9.0279290">
        <ele>936.3100000</ele>
        <time>2009-07-05T08:51:25Z</time>
      </trkpt>
      <trkpt lat="45.8920720" lon="9.0279120">
        <ele>936.8100000</ele>
        <time>2009-07-05T08:51:29Z</time>
      </trkpt>
      <trkpt lat="45.8921000" lon="9.0279460">
        <ele>937.5100000</ele>
        <time>2009-07-05T08:51:33Z</time>
      </trkpt>
      <trkpt lat="45.8921990" lon="9.0279850">
        <ele>938.4900000</ele>
        <time>2009-07-05T08:51:40Z</time>
      </trkpt>
      <trkpt lat="45.8922160" lon="9.0279880">
        <ele>938.7400000</ele>
        <time>2009-07-05T08:51:41Z</time>
      </trkpt>
      <trkpt lat="45.8922830" lon="9.0280030">
        <ele>939.7900000</ele>
        <time>2009-07-05T08:51:47Z</time>
      </trkpt>
      <trkpt lat="45.8923010" lon="9.0280000">
        <ele>939.8100000</ele>
        <time>2009-07-05T08:51:48Z</time>
      </trkpt>
      <trkpt lat="45.8924340" lon="9.0280070">
        <ele>941.1100000</ele>
        <time>2009-07-05T08:51:56Z</time>
      </trkpt>
      <trkpt lat="45.8925560" lon="9.0280110">
        <ele>942.5700000</ele>
        <time>2009-07-05T08:52:03Z</time>
      </trkpt>
      <trkpt lat="45.8926300" lon="9.0280250">
        <ele>943.3100000</ele>
        <time>2009-07-05T08:52:09Z</time>
      </trkpt>
      <trkpt lat="45.8927170" lon="9.0280450">
        <ele>944.7600000</ele>
        <time>2009-07-05T08:52:16Z</time>
      </trkpt>
      <trkpt lat="45.8927690" lon="9.0280510">
        <ele>945.9800000</ele>
        <time>2009-07-05T08:52:22Z</time>
      </trkpt>
      <trkpt lat="45.8927880" lon="9.0280550">
        <ele>946.1700000</ele>
        <time>2009-07-05T08:52:24Z</time>
      </trkpt>
      <trkpt lat="45.8928660" lon="9.0280550">
        <ele>946.9600000</ele>
        <time>2009-07-05T08:52:29Z</time>
      </trkpt>
      <trkpt lat="45.8929460" lon="9.0281460">
        <ele>947.3600000</ele>
        <time>2009-07-05T08:52:36Z</time>
      </trkpt>
      <trkpt lat="45.8930060" lon="9.0282200">
        <ele>948.4700000</ele>
        <time>2009-07-05T08:52:42Z</time>
      </trkpt>
      <trkpt lat="45.8930630" lon="9.0283070">
        <ele>949.5200000</ele>
        <time>2009-07-05T08:52:48Z</time>
      </trkpt>
      <trkpt lat="45.8930860" lon="9.0283490">
        <ele>949.6400000</ele>
        <time>2009-07-05T08:52:50Z</time>
      </trkpt>
      <trkpt lat="45.8931540" lon="9.0284330">
        <ele>950.4400000</ele>
        <time>2009-07-05T08:52:56Z</time>
      </trkpt>
      <trkpt lat="45.8932110" lon="9.0284970">
        <ele>950.9100000</ele>
        <time>2009-07-05T08:53:00Z</time>
      </trkpt>
      <trkpt lat="45.8932710" lon="9.0286470">
        <ele>952.2600000</ele>
        <time>2009-07-05T08:53:08Z</time>
      </trkpt>
      <trkpt lat="45.8933150" lon="9.0287560">
        <ele>953.2200000</ele>
        <time>2009-07-05T08:53:14Z</time>
      </trkpt>
      <trkpt lat="45.8934170" lon="9.0288390">
        <ele>954.1100000</ele>
        <time>2009-07-05T08:53:21Z</time>
      </trkpt>
      <trkpt lat="45.8935440" lon="9.0288920">
        <ele>955.4000000</ele>
        <time>2009-07-05T08:53:28Z</time>
      </trkpt>
      <trkpt lat="45.8936160" lon="9.0289540">
        <ele>956.2600000</ele>
        <time>2009-07-05T08:53:33Z</time>
      </trkpt>
      <trkpt lat="45.8936470" lon="9.0289760">
        <ele>956.8700000</ele>
        <time>2009-07-05T08:53:36Z</time>
      </trkpt>
      <trkpt lat="45.8936360" lon="9.0291040">
        <ele>957.6600000</ele>
        <time>2009-07-05T08:53:40Z</time>
      </trkpt>
      <trkpt lat="45.8936960" lon="9.0292020">
        <ele>958.3400000</ele>
        <time>2009-07-05T08:53:45Z</time>
      </trkpt>
      <trkpt lat="45.8937370" lon="9.0293450">
        <ele>959.7500000</ele>
        <time>2009-07-05T08:53:51Z</time>
      </trkpt>
      <trkpt lat="45.8937950" lon="9.0295050">
        <ele>960.6200000</ele>
        <time>2009-07-05T08:53:58Z</time>
      </trkpt>
      <trkpt lat="45.8938020" lon="9.0296290">
        <ele>961.5100000</ele>
        <time>2009-07-05T08:54:03Z</time>
      </trkpt>
      <trkpt lat="45.8938610" lon="9.0297940">
        <ele>962.5700000</ele>
        <time>2009-07-05T08:54:11Z</time>
      </trkpt>
      <trkpt lat="45.8938990" lon="9.0298700">
        <ele>963.3600000</ele>
        <time>2009-07-05T08:54:15Z</time>
      </trkpt>
      <trkpt lat="45.8939480" lon="9.0299400">
        <ele>964.6100000</ele>
        <time>2009-07-05T08:54:20Z</time>
      </trkpt>
      <trkpt lat="45.8939800" lon="9.0299770">
        <ele>964.4500000</ele>
        <time>2009-07-05T08:54:23Z</time>
      </trkpt>
      <trkpt lat="45.8940520" lon="9.0300180">
        <ele>965.8700000</ele>
        <time>2009-07-05T08:54:28Z</time>
      </trkpt>
      <trkpt lat="45.8940980" lon="9.0300830">
        <ele>966.6100000</ele>
        <time>2009-07-05T08:54:33Z</time>
      </trkpt>
      <trkpt lat="45.8942080" lon="9.0301580">
        <ele>968.0600000</ele>
        <time>2009-07-05T08:54:42Z</time>
      </trkpt>
      <trkpt lat="45.8942770" lon="9.0302190">
        <ele>968.6000000</ele>
        <time>2009-07-05T08:54:48Z</time>
      </trkpt>
      <trkpt lat="45.8943590" lon="9.0302810">
        <ele>970.0200000</ele>
        <time>2009-07-05T08:54:54Z</time>
      </trkpt>
      <trkpt lat="45.8944150" lon="9.0304150">
        <ele>971.0900000</ele>
        <time>2009-07-05T08:55:02Z</time>
      </trkpt>
      <trkpt lat="45.8945050" lon="9.0304960">
        <ele>972.5100000</ele>
        <time>2009-07-05T08:55:09Z</time>
      </trkpt>
      <trkpt lat="45.8946050" lon="9.0305100">
        <ele>973.7100000</ele>
        <time>2009-07-05T08:55:16Z</time>
      </trkpt>
      <trkpt lat="45.8946940" lon="9.0305400">
        <ele>974.6700000</ele>
        <time>2009-07-05T08:55:23Z</time>
      </trkpt>
      <trkpt lat="45.8947860" lon="9.0305740">
        <ele>975.8300000</ele>
        <time>2009-07-05T08:55:30Z</time>
      </trkpt>
      <trkpt lat="45.8948840" lon="9.0306420">
        <ele>977.3200000</ele>
        <time>2009-07-05T08:55:38Z</time>
      </trkpt>
      <trkpt lat="45.8949440" lon="9.0306800">
        <ele>977.3900000</ele>
        <time>2009-07-05T08:55:44Z</time>
      </trkpt>
      <trkpt lat="45.8949730" lon="9.0306860">
        <ele>977.4300000</ele>
        <time>2009-07-05T08:55:51Z</time>
      </trkpt>
      <trkpt lat="45.8950580" lon="9.0306920">
        <ele>978.1100000</ele>
        <time>2009-07-05T08:56:12Z</time>
      </trkpt>
      <trkpt lat="45.8950270" lon="9.0306920">
        <ele>978.8500000</ele>
        <time>2009-07-05T08:56:18Z</time>
      </trkpt>
      <trkpt lat="45.8950240" lon="9.0306350">
        <ele>979.3100000</ele>
        <time>2009-07-05T08:56:56Z</time>
      </trkpt>
      <trkpt lat="45.8949550" lon="9.0305570">
        <ele>980.4900000</ele>
        <time>2009-07-05T08:57:03Z</time>
      </trkpt>
      <trkpt lat="45.8948860" lon="9.0304860">
        <ele>981.5200000</ele>
        <time>2009-07-05T08:57:10Z</time>
      </trkpt>
      <trkpt lat="45.8948370" lon="9.0304320">
        <ele>982.7100000</ele>
        <time>2009-07-05T08:57:15Z</time>
      </trkpt>
      <trkpt lat="45.8947650" lon="9.0303460">
        <ele>983.9500000</ele>
        <time>2009-07-05T08:57:23Z</time>
      </trkpt>
      <trkpt lat="45.8947290" lon="9.0303040">
        <ele>984.4500000</ele>
        <time>2009-07-05T08:57:27Z</time>
      </trkpt>
      <trkpt lat="45.8946760" lon="9.0302220">
        <ele>985.7700000</ele>
        <time>2009-07-05T08:57:33Z</time>
      </trkpt>
      <trkpt lat="45.8946250" lon="9.0301610">
        <ele>986.8400000</ele>
        <time>2009-07-05T08:57:38Z</time>
      </trkpt>
      <trkpt lat="45.8945080" lon="9.0300980">
        <ele>988.1600000</ele>
        <time>2009-07-05T08:57:45Z</time>
      </trkpt>
      <trkpt lat="45.8944480" lon="9.0300240">
        <ele>989.2200000</ele>
        <time>2009-07-05T08:57:52Z</time>
      </trkpt>
      <trkpt lat="45.8943910" lon="9.0299820">
        <ele>990.2600000</ele>
        <time>2009-07-05T08:57:56Z</time>
      </trkpt>
      <trkpt lat="45.8943120" lon="9.0298300">
        <ele>991.1700000</ele>
        <time>2009-07-05T08:58:03Z</time>
      </trkpt>
      <trkpt lat="45.8942800" lon="9.0297830">
        <ele>991.5600000</ele>
        <time>2009-07-05T08:58:06Z</time>
      </trkpt>
      <trkpt lat="45.8942200" lon="9.0296700">
        <ele>992.7900000</ele>
        <time>2009-07-05T08:58:12Z</time>
      </trkpt>
      <trkpt lat="45.8941890" lon="9.0295760">
        <ele>993.1500000</ele>
        <time>2009-07-05T08:58:16Z</time>
      </trkpt>
      <trkpt lat="45.8941530" lon="9.0294570">
        <ele>994.3500000</ele>
        <time>2009-07-05T08:58:23Z</time>
      </trkpt>
      <trkpt lat="45.8941220" lon="9.0293430">
        <ele>996.1100000</ele>
        <time>2009-07-05T08:58:30Z</time>
      </trkpt>
      <trkpt lat="45.8941160" lon="9.0293310">
        <ele>996.2000000</ele>
        <time>2009-07-05T08:58:31Z</time>
      </trkpt>
      <trkpt lat="45.8941120" lon="9.0292720">
        <ele>996.8100000</ele>
        <time>2009-07-05T08:58:34Z</time>
      </trkpt>
      <trkpt lat="45.8941080" lon="9.0291490">
        <ele>997.5500000</ele>
        <time>2009-07-05T08:58:40Z</time>
      </trkpt>
      <trkpt lat="45.8940940" lon="9.0290720">
        <ele>998.8000000</ele>
        <time>2009-07-05T08:58:44Z</time>
      </trkpt>
      <trkpt lat="45.8940760" lon="9.0290450">
        <ele>999.0400000</ele>
        <time>2009-07-05T08:58:46Z</time>
      </trkpt>
      <trkpt lat="45.8940430" lon="9.0288910">
        <ele>999.8700000</ele>
        <time>2009-07-05T08:58:53Z</time>
      </trkpt>
      <trkpt lat="45.8940330" lon="9.0288790">
        <ele>1000.1400000</ele>
        <time>2009-07-05T08:58:54Z</time>
      </trkpt>
      <trkpt lat="45.8939910" lon="9.0287520">
        <ele>1000.9700000</ele>
        <time>2009-07-05T08:59:01Z</time>
      </trkpt>
      <trkpt lat="45.8939510" lon="9.0285750">
        <ele>1002.0500000</ele>
        <time>2009-07-05T08:59:09Z</time>
      </trkpt>
      <trkpt lat="45.8939240" lon="9.0284400">
        <ele>1003.0500000</ele>
        <time>2009-07-05T08:59:15Z</time>
      </trkpt>
      <trkpt lat="45.8939210" lon="9.0282780">
        <ele>1004.0700000</ele>
        <time>2009-07-05T08:59:22Z</time>
      </trkpt>
      <trkpt lat="45.8939070" lon="9.0282070">
        <ele>1004.6700000</ele>
        <time>2009-07-05T08:59:25Z</time>
      </trkpt>
      <trkpt lat="45.8938580" lon="9.0280990">
        <ele>1005.7700000</ele>
        <time>2009-07-05T08:59:32Z</time>
      </trkpt>
      <trkpt lat="45.8938350" lon="9.0280390">
        <ele>1006.0900000</ele>
        <time>2009-07-05T08:59:35Z</time>
      </trkpt>
      <trkpt lat="45.8938050" lon="9.0279250">
        <ele>1006.9900000</ele>
        <time>2009-07-05T08:59:41Z</time>
      </trkpt>
      <trkpt lat="45.8937480" lon="9.0278030">
        <ele>1008.2600000</ele>
        <time>2009-07-05T08:59:49Z</time>
      </trkpt>
      <trkpt lat="45.8937050" lon="9.0277240">
        <ele>1009.1800000</ele>
        <time>2009-07-05T08:59:55Z</time>
      </trkpt>
      <trkpt lat="45.8936840" lon="9.0276990">
        <ele>1009.2500000</ele>
        <time>2009-07-05T08:59:57Z</time>
      </trkpt>
      <trkpt lat="45.8936520" lon="9.0276440">
        <ele>1010.2500000</ele>
        <time>2009-07-05T09:00:01Z</time>
      </trkpt>
      <trkpt lat="45.8935890" lon="9.0275350">
        <ele>1011.2200000</ele>
        <time>2009-07-05T09:00:08Z</time>
      </trkpt>
      <trkpt lat="45.8935580" lon="9.0274390">
        <ele>1011.9100000</ele>
        <time>2009-07-05T09:00:13Z</time>
      </trkpt>
      <trkpt lat="45.8935230" lon="9.0273850">
        <ele>1012.8500000</ele>
        <time>2009-07-05T09:00:17Z</time>
      </trkpt>
      <trkpt lat="45.8935010" lon="9.0273410">
        <ele>1013.4500000</ele>
        <time>2009-07-05T09:00:19Z</time>
      </trkpt>
      <trkpt lat="45.8934270" lon="9.0272260">
        <ele>1014.4000000</ele>
        <time>2009-07-05T09:00:26Z</time>
      </trkpt>
      <trkpt lat="45.8934190" lon="9.0272100">
        <ele>1014.8000000</ele>
        <time>2009-07-05T09:00:27Z</time>
      </trkpt>
      <trkpt lat="45.8933470" lon="9.0270570">
        <ele>1016.4500000</ele>
        <time>2009-07-05T09:00:36Z</time>
      </trkpt>
      <trkpt lat="45.8932500" lon="9.0269710">
        <ele>1018.2300000</ele>
        <time>2009-07-05T09:00:43Z</time>
      </trkpt>
      <trkpt lat="45.8932080" lon="9.0269030">
        <ele>1019.8100000</ele>
        <time>2009-07-05T09:00:49Z</time>
      </trkpt>
      <trkpt lat="45.8932010" lon="9.0268940">
        <ele>1020.0700000</ele>
        <time>2009-07-05T09:00:50Z</time>
      </trkpt>
      <trkpt lat="45.8931600" lon="9.0268650">
        <ele>1021.1300000</ele>
        <time>2009-07-05T09:00:54Z</time>
      </trkpt>
      <trkpt lat="45.8930760" lon="9.0268550">
        <ele>1022.4000000</ele>
        <time>2009-07-05T09:01:00Z</time>
      </trkpt>
      <trkpt lat="45.8930070" lon="9.0268620">
        <ele>1023.1200000</ele>
        <time>2009-07-05T09:01:04Z</time>
      </trkpt>
      <trkpt lat="45.8928900" lon="9.0268350">
        <ele>1024.4200000</ele>
        <time>2009-07-05T09:01:12Z</time>
      </trkpt>
      <trkpt lat="45.8928150" lon="9.0267830">
        <ele>1025.6800000</ele>
        <time>2009-07-05T09:01:18Z</time>
      </trkpt>
      <trkpt lat="45.8927900" lon="9.0267600">
        <ele>1025.9900000</ele>
        <time>2009-07-05T09:01:20Z</time>
      </trkpt>
      <trkpt lat="45.8927200" lon="9.0266400">
        <ele>1027.6900000</ele>
        <time>2009-07-05T09:01:28Z</time>
      </trkpt>
      <trkpt lat="45.8926930" lon="9.0265790">
        <ele>1028.3100000</ele>
        <time>2009-07-05T09:01:32Z</time>
      </trkpt>
      <trkpt lat="45.8926280" lon="9.0265270">
        <ele>1029.3000000</ele>
        <time>2009-07-05T09:01:37Z</time>
      </trkpt>
      <trkpt lat="45.8925920" lon="9.0264640">
        <ele>1030.1800000</ele>
        <time>2009-07-05T09:01:41Z</time>
      </trkpt>
      <trkpt lat="45.8925400" lon="9.0264190">
        <ele>1030.9100000</ele>
        <time>2009-07-05T09:01:45Z</time>
      </trkpt>
      <trkpt lat="45.8924480" lon="9.0263320">
        <ele>1033.1400000</ele>
        <time>2009-07-05T09:01:54Z</time>
      </trkpt>
      <trkpt lat="45.8924060" lon="9.0262900">
        <ele>1033.8300000</ele>
        <time>2009-07-05T09:01:58Z</time>
      </trkpt>
      <trkpt lat="45.8923470" lon="9.0262510">
        <ele>1034.8700000</ele>
        <time>2009-07-05T09:02:03Z</time>
      </trkpt>
      <trkpt lat="45.8923060" lon="9.0261660">
        <ele>1036.0000000</ele>
        <time>2009-07-05T09:02:09Z</time>
      </trkpt>
      <trkpt lat="45.8922450" lon="9.0260770">
        <ele>1037.4900000</ele>
        <time>2009-07-05T09:02:16Z</time>
      </trkpt>
      <trkpt lat="45.8922190" lon="9.0260520">
        <ele>1037.9900000</ele>
        <time>2009-07-05T09:02:18Z</time>
      </trkpt>
      <trkpt lat="45.8921680" lon="9.0259950">
        <ele>1038.7600000</ele>
        <time>2009-07-05T09:02:23Z</time>
      </trkpt>
      <trkpt lat="45.8920990" lon="9.0259490">
        <ele>1040.2000000</ele>
        <time>2009-07-05T09:02:30Z</time>
      </trkpt>
      <trkpt lat="45.8920430" lon="9.0259220">
        <ele>1041.3600000</ele>
        <time>2009-07-05T09:02:36Z</time>
      </trkpt>
      <trkpt lat="45.8920490" lon="9.0259180">
        <ele>1041.4000000</ele>
        <time>2009-07-05T09:02:37Z</time>
      </trkpt>
      <trkpt lat="45.8920760" lon="9.0259060">
        <ele>1041.6700000</ele>
        <time>2009-07-05T09:02:39Z</time>
      </trkpt>
      <trkpt lat="45.8921490" lon="9.0259130">
        <ele>1043.0000000</ele>
        <time>2009-07-05T09:02:46Z</time>
      </trkpt>
      <trkpt lat="45.8921780" lon="9.0259120">
        <ele>1043.1700000</ele>
        <time>2009-07-05T09:02:48Z</time>
      </trkpt>
      <trkpt lat="45.8922250" lon="9.0259440">
        <ele>1043.9500000</ele>
        <time>2009-07-05T09:02:53Z</time>
      </trkpt>
      <trkpt lat="45.8923070" lon="9.0259830">
        <ele>1045.5800000</ele>
        <time>2009-07-05T09:03:00Z</time>
      </trkpt>
      <trkpt lat="45.8923620" lon="9.0260130">
        <ele>1046.1300000</ele>
        <time>2009-07-05T09:03:04Z</time>
      </trkpt>
      <trkpt lat="45.8923990" lon="9.0260470">
        <ele>1046.4900000</ele>
        <time>2009-07-05T09:03:08Z</time>
      </trkpt>
      <trkpt lat="45.8924900" lon="9.0260620">
        <ele>1047.6500000</ele>
        <time>2009-07-05T09:03:15Z</time>
      </trkpt>
      <trkpt lat="45.8925720" lon="9.0260900">
        <ele>1049.0000000</ele>
        <time>2009-07-05T09:03:22Z</time>
      </trkpt>
      <trkpt lat="45.8926190" lon="9.0261190">
        <ele>1049.7900000</ele>
        <time>2009-07-05T09:03:26Z</time>
      </trkpt>
      <trkpt lat="45.8926480" lon="9.0261220">
        <ele>1049.8700000</ele>
        <time>2009-07-05T09:03:28Z</time>
      </trkpt>
      <trkpt lat="45.8927300" lon="9.0261520">
        <ele>1051.0400000</ele>
        <time>2009-07-05T09:03:34Z</time>
      </trkpt>
      <trkpt lat="45.8927740" lon="9.0261750">
        <ele>1051.6300000</ele>
        <time>2009-07-05T09:03:38Z</time>
      </trkpt>
      <trkpt lat="45.8927930" lon="9.0261860">
        <ele>1052.1100000</ele>
        <time>2009-07-05T09:03:40Z</time>
      </trkpt>
      <trkpt lat="45.8928250" lon="9.0261930">
        <ele>1052.6400000</ele>
        <time>2009-07-05T09:03:43Z</time>
      </trkpt>
      <trkpt lat="45.8928420" lon="9.0261850">
        <ele>1052.9400000</ele>
        <time>2009-07-05T09:03:45Z</time>
      </trkpt>
      <trkpt lat="45.8928310" lon="9.0261260">
        <ele>1054.1300000</ele>
        <time>2009-07-05T09:03:52Z</time>
      </trkpt>
      <trkpt lat="45.8928400" lon="9.0261230">
        <ele>1054.2400000</ele>
        <time>2009-07-05T09:04:10Z</time>
      </trkpt>
      <trkpt lat="45.8927950" lon="9.0260830">
        <ele>1054.7800000</ele>
        <time>2009-07-05T09:04:15Z</time>
      </trkpt>
      <trkpt lat="45.8927540" lon="9.0260420">
        <ele>1056.0000000</ele>
        <time>2009-07-05T09:04:19Z</time>
      </trkpt>
      <trkpt lat="45.8926930" lon="9.0259840">
        <ele>1057.0000000</ele>
        <time>2009-07-05T09:04:25Z</time>
      </trkpt>
      <trkpt lat="45.8926520" lon="9.0259440">
        <ele>1057.5000000</ele>
        <time>2009-07-05T09:04:29Z</time>
      </trkpt>
      <trkpt lat="45.8925710" lon="9.0258840">
        <ele>1058.4000000</ele>
        <time>2009-07-05T09:04:36Z</time>
      </trkpt>
      <trkpt lat="45.8924970" lon="9.0258460">
        <ele>1059.4000000</ele>
        <time>2009-07-05T09:04:42Z</time>
      </trkpt>
      <trkpt lat="45.8924050" lon="9.0257970">
        <ele>1061.0100000</ele>
        <time>2009-07-05T09:04:49Z</time>
      </trkpt>
      <trkpt lat="45.8923160" lon="9.0256790">
        <ele>1062.8300000</ele>
        <time>2009-07-05T09:04:57Z</time>
      </trkpt>
      <trkpt lat="45.8922360" lon="9.0255660">
        <ele>1064.7800000</ele>
        <time>2009-07-05T09:05:05Z</time>
      </trkpt>
      <trkpt lat="45.8921650" lon="9.0254650">
        <ele>1066.4900000</ele>
        <time>2009-07-05T09:05:12Z</time>
      </trkpt>
      <trkpt lat="45.8921480" lon="9.0254260">
        <ele>1066.5200000</ele>
        <time>2009-07-05T09:05:14Z</time>
      </trkpt>
      <trkpt lat="45.8920500" lon="9.0253430">
        <ele>1066.7500000</ele>
        <time>2009-07-05T09:05:20Z</time>
      </trkpt>
      <trkpt lat="45.8919990" lon="9.0251710">
        <ele>1068.0700000</ele>
        <time>2009-07-05T09:05:27Z</time>
      </trkpt>
      <trkpt lat="45.8919910" lon="9.0251200">
        <ele>1068.6100000</ele>
        <time>2009-07-05T09:05:29Z</time>
      </trkpt>
      <trkpt lat="45.8919350" lon="9.0249660">
        <ele>1070.2400000</ele>
        <time>2009-07-05T09:05:38Z</time>
      </trkpt>
      <trkpt lat="45.8918850" lon="9.0249560">
        <ele>1070.8000000</ele>
        <time>2009-07-05T09:05:45Z</time>
      </trkpt>
      <trkpt lat="45.8918020" lon="9.0248820">
        <ele>1071.3300000</ele>
        <time>2009-07-05T09:06:19Z</time>
      </trkpt>
      <trkpt lat="45.8917750" lon="9.0248060">
        <ele>1072.6700000</ele>
        <time>2009-07-05T09:06:22Z</time>
      </trkpt>
      <trkpt lat="45.8917560" lon="9.0247760">
        <ele>1073.4100000</ele>
        <time>2009-07-05T09:06:24Z</time>
      </trkpt>
      <trkpt lat="45.8917450" lon="9.0247540">
        <ele>1073.8500000</ele>
        <time>2009-07-05T09:06:26Z</time>
      </trkpt>
      <trkpt lat="45.8917290" lon="9.0247060">
        <ele>1074.8100000</ele>
        <time>2009-07-05T09:06:31Z</time>
      </trkpt>
      <trkpt lat="45.8918310" lon="9.0247510">
        <ele>1077.7800000</ele>
        <time>2009-07-05T09:06:40Z</time>
      </trkpt>
      <trkpt lat="45.8918780" lon="9.0248010">
        <ele>1078.6000000</ele>
        <time>2009-07-05T09:06:46Z</time>
      </trkpt>
      <trkpt lat="45.8919010" lon="9.0248270">
        <ele>1079.4800000</ele>
        <time>2009-07-05T09:06:53Z</time>
      </trkpt>
      <trkpt lat="45.8919160" lon="9.0248370">
        <ele>1079.4700000</ele>
        <time>2009-07-05T09:07:05Z</time>
      </trkpt>
      <trkpt lat="45.8919590" lon="9.0249400">
        <ele>1080.9200000</ele>
        <time>2009-07-05T09:07:11Z</time>
      </trkpt>
      <trkpt lat="45.8920100" lon="9.0250010">
        <ele>1082.0100000</ele>
        <time>2009-07-05T09:07:17Z</time>
      </trkpt>
      <trkpt lat="45.8920530" lon="9.0250170">
        <ele>1082.8200000</ele>
        <time>2009-07-05T09:07:21Z</time>
      </trkpt>
      <trkpt lat="45.8920470" lon="9.0249730">
        <ele>1083.9500000</ele>
        <time>2009-07-05T09:07:28Z</time>
      </trkpt>
      <trkpt lat="45.8920330" lon="9.0248890">
        <ele>1085.6600000</ele>
        <time>2009-07-05T09:09:57Z</time>
      </trkpt>
      <trkpt lat="45.8920130" lon="9.0248020">
        <ele>1086.8000000</ele>
        <time>2009-07-05T09:10:02Z</time>
      </trkpt>
      <trkpt lat="45.8919850" lon="9.0247600">
        <ele>1087.5200000</ele>
        <time>2009-07-05T09:10:06Z</time>
      </trkpt>
      <trkpt lat="45.8919140" lon="9.0246730">
        <ele>1089.2500000</ele>
        <time>2009-07-05T09:10:14Z</time>
      </trkpt>
      <trkpt lat="45.8918680" lon="9.0245740">
        <ele>1091.0500000</ele>
        <time>2009-07-05T09:10:21Z</time>
      </trkpt>
      <trkpt lat="45.8917770" lon="9.0244380">
        <ele>1092.3000000</ele>
        <time>2009-07-05T09:10:29Z</time>
      </trkpt>
      <trkpt lat="45.8917160" lon="9.0242870">
        <ele>1093.4400000</ele>
        <time>2009-07-05T09:10:37Z</time>
      </trkpt>
      <trkpt lat="45.8916830" lon="9.0242010">
        <ele>1094.1300000</ele>
        <time>2009-07-05T09:10:42Z</time>
      </trkpt>
      <trkpt lat="45.8916420" lon="9.0241140">
        <ele>1094.5700000</ele>
        <time>2009-07-05T09:10:48Z</time>
      </trkpt>
      <trkpt lat="45.8916460" lon="9.0239660">
        <ele>1095.1400000</ele>
        <time>2009-07-05T09:10:54Z</time>
      </trkpt>
      <trkpt lat="45.8916670" lon="9.0238060">
        <ele>1095.7000000</ele>
        <time>2009-07-05T09:11:00Z</time>
      </trkpt>
      <trkpt lat="45.8916770" lon="9.0236410">
        <ele>1095.9300000</ele>
        <time>2009-07-05T09:11:06Z</time>
      </trkpt>
      <trkpt lat="45.8916770" lon="9.0234970">
        <ele>1096.6000000</ele>
        <time>2009-07-05T09:11:11Z</time>
      </trkpt>
      <trkpt lat="45.8916600" lon="9.0233030">
        <ele>1096.6800000</ele>
        <time>2009-07-05T09:11:16Z</time>
      </trkpt>
      <trkpt lat="45.8916620" lon="9.0231320">
        <ele>1097.2100000</ele>
        <time>2009-07-05T09:11:22Z</time>
      </trkpt>
      <trkpt lat="45.8916610" lon="9.0229970">
        <ele>1097.9000000</ele>
        <time>2009-07-05T09:11:27Z</time>
      </trkpt>
      <trkpt lat="45.8916670" lon="9.0227950">
        <ele>1098.1400000</ele>
        <time>2009-07-05T09:11:33Z</time>
      </trkpt>
      <trkpt lat="45.8917140" lon="9.0224820">
        <ele>1098.7000000</ele>
        <time>2009-07-05T09:11:41Z</time>
      </trkpt>
      <trkpt lat="45.8918140" lon="9.0223160">
        <ele>1098.1200000</ele>
        <time>2009-07-05T09:11:46Z</time>
      </trkpt>
      <trkpt lat="45.8918820" lon="9.0220890">
        <ele>1098.3200000</ele>
        <time>2009-07-05T09:11:51Z</time>
      </trkpt>
      <trkpt lat="45.8918860" lon="9.0218200">
        <ele>1098.7000000</ele>
        <time>2009-07-05T09:11:56Z</time>
      </trkpt>
      <trkpt lat="45.8918840" lon="9.0215710">
        <ele>1097.8400000</ele>
        <time>2009-07-05T09:12:00Z</time>
      </trkpt>
      <trkpt lat="45.8918840" lon="9.0215030">
        <ele>1097.8000000</ele>
        <time>2009-07-05T09:12:01Z</time>
      </trkpt>
      <trkpt lat="45.8918230" lon="9.0209570">
        <ele>1096.4400000</ele>
        <time>2009-07-05T09:12:08Z</time>
      </trkpt>
      <trkpt lat="45.8917450" lon="9.0205800">
        <ele>1095.3400000</ele>
        <time>2009-07-05T09:12:13Z</time>
      </trkpt>
      <trkpt lat="45.8917330" lon="9.0202810">
        <ele>1094.3100000</ele>
        <time>2009-07-05T09:12:18Z</time>
      </trkpt>
      <trkpt lat="45.8917420" lon="9.0201730">
        <ele>1093.6000000</ele>
        <time>2009-07-05T09:12:20Z</time>
      </trkpt>
      <trkpt lat="45.8917730" lon="9.0199520">
        <ele>1092.1700000</ele>
        <time>2009-07-05T09:12:23Z</time>
      </trkpt>
      <trkpt lat="45.8917710" lon="9.0197620">
        <ele>1091.5100000</ele>
        <time>2009-07-05T09:12:25Z</time>
      </trkpt>
      <trkpt lat="45.8917600" lon="9.0195900">
        <ele>1091.1600000</ele>
        <time>2009-07-05T09:12:27Z</time>
      </trkpt>
      <trkpt lat="45.8918020" lon="9.0192840">
        <ele>1090.6000000</ele>
        <time>2009-07-05T09:12:32Z</time>
      </trkpt>
      <trkpt lat="45.8917880" lon="9.0192060">
        <ele>1089.9300000</ele>
        <time>2009-07-05T09:12:35Z</time>
      </trkpt>
      <trkpt lat="45.8917650" lon="9.0191390">
        <ele>1089.0200000</ele>
        <time>2009-07-05T09:12:44Z</time>
      </trkpt>
      <trkpt lat="45.8917860" lon="9.0191730">
        <ele>1088.4900000</ele>
        <time>2009-07-05T09:20:38Z</time>
      </trkpt>
      <trkpt lat="45.8917810" lon="9.0191180">
        <ele>1088.9100000</ele>
        <time>2009-07-05T09:29:28Z</time>
      </trkpt>
      <trkpt lat="45.8917960" lon="9.0190580">
        <ele>1088.5100000</ele>
        <time>2009-07-05T09:29:33Z</time>
      </trkpt>
      <trkpt lat="45.8918060" lon="9.0190600">
        <ele>1088.6800000</ele>
        <time>2009-07-05T09:29:35Z</time>
      </trkpt>
      <trkpt lat="45.8919060" lon="9.0190720">
        <ele>1088.5400000</ele>
        <time>2009-07-05T09:29:42Z</time>
      </trkpt>
      <trkpt lat="45.8920330" lon="9.0190680">
        <ele>1088.9300000</ele>
        <time>2009-07-05T09:29:49Z</time>
      </trkpt>
      <trkpt lat="45.8921730" lon="9.0190790">
        <ele>1089.3300000</ele>
        <time>2009-07-05T09:29:56Z</time>
      </trkpt>
      <trkpt lat="45.8922780" lon="9.0191120">
        <ele>1089.8400000</ele>
        <time>2009-07-05T09:30:00Z</time>
      </trkpt>
      <trkpt lat="45.8924390" lon="9.0191480">
        <ele>1089.2100000</ele>
        <time>2009-07-05T09:30:06Z</time>
      </trkpt>
      <trkpt lat="45.8926110" lon="9.0191530">
        <ele>1089.0600000</ele>
        <time>2009-07-05T09:30:12Z</time>
      </trkpt>
      <trkpt lat="45.8927250" lon="9.0190680">
        <ele>1089.3100000</ele>
        <time>2009-07-05T09:30:17Z</time>
      </trkpt>
      <trkpt lat="45.8928430" lon="9.0188300">
        <ele>1090.1200000</ele>
        <time>2009-07-05T09:30:24Z</time>
      </trkpt>
      <trkpt lat="45.8929120" lon="9.0185950">
        <ele>1090.9000000</ele>
        <time>2009-07-05T09:30:31Z</time>
      </trkpt>
      <trkpt lat="45.8929810" lon="9.0183900">
        <ele>1092.5000000</ele>
        <time>2009-07-05T09:30:38Z</time>
      </trkpt>
      <trkpt lat="45.8930640" lon="9.0182510">
        <ele>1093.9000000</ele>
        <time>2009-07-05T09:30:44Z</time>
      </trkpt>
      <trkpt lat="45.8931550" lon="9.0180980">
        <ele>1094.5000000</ele>
        <time>2009-07-05T09:30:50Z</time>
      </trkpt>
      <trkpt lat="45.8933020" lon="9.0178530">
        <ele>1096.2300000</ele>
        <time>2009-07-05T09:31:00Z</time>
      </trkpt>
      <trkpt lat="45.8933970" lon="9.0176390">
        <ele>1098.0200000</ele>
        <time>2009-07-05T09:31:08Z</time>
      </trkpt>
      <trkpt lat="45.8935340" lon="9.0173980">
        <ele>1099.1200000</ele>
        <time>2009-07-05T09:31:18Z</time>
      </trkpt>
      <trkpt lat="45.8936820" lon="9.0173690">
        <ele>1099.0800000</ele>
        <time>2009-07-05T09:31:24Z</time>
      </trkpt>
      <trkpt lat="45.8938500" lon="9.0174570">
        <ele>1099.0100000</ele>
        <time>2009-07-05T09:31:30Z</time>
      </trkpt>
      <trkpt lat="45.8939910" lon="9.0176590">
        <ele>1098.9100000</ele>
        <time>2009-07-05T09:31:36Z</time>
      </trkpt>
      <trkpt lat="45.8941820" lon="9.0180350">
        <ele>1098.1700000</ele>
        <time>2009-07-05T09:31:45Z</time>
      </trkpt>
      <trkpt lat="45.8943410" lon="9.0183260">
        <ele>1097.7300000</ele>
        <time>2009-07-05T09:31:52Z</time>
      </trkpt>
      <trkpt lat="45.8944750" lon="9.0184990">
        <ele>1097.7900000</ele>
        <time>2009-07-05T09:31:57Z</time>
      </trkpt>
      <trkpt lat="45.8946850" lon="9.0186120">
        <ele>1097.2300000</ele>
        <time>2009-07-05T09:32:03Z</time>
      </trkpt>
      <trkpt lat="45.8948540" lon="9.0186560">
        <ele>1097.0700000</ele>
        <time>2009-07-05T09:32:09Z</time>
      </trkpt>
      <trkpt lat="45.8949850" lon="9.0186750">
        <ele>1096.6400000</ele>
        <time>2009-07-05T09:32:15Z</time>
      </trkpt>
      <trkpt lat="45.8951010" lon="9.0186480">
        <ele>1096.9000000</ele>
        <time>2009-07-05T09:32:21Z</time>
      </trkpt>
      <trkpt lat="45.8952980" lon="9.0186380">
        <ele>1097.1100000</ele>
        <time>2009-07-05T09:32:29Z</time>
      </trkpt>
      <trkpt lat="45.8954510" lon="9.0186410">
        <ele>1097.0400000</ele>
        <time>2009-07-05T09:32:35Z</time>
      </trkpt>
      <trkpt lat="45.8956510" lon="9.0186330">
        <ele>1097.2700000</ele>
        <time>2009-07-05T09:32:43Z</time>
      </trkpt>
      <trkpt lat="45.8957940" lon="9.0185990">
        <ele>1097.2600000</ele>
        <time>2009-07-05T09:32:49Z</time>
      </trkpt>
      <trkpt lat="45.8960260" lon="9.0185660">
        <ele>1097.6800000</ele>
        <time>2009-07-05T09:32:58Z</time>
      </trkpt>
      <trkpt lat="45.8961530" lon="9.0185800">
        <ele>1098.2300000</ele>
        <time>2009-07-05T09:33:03Z</time>
      </trkpt>
      <trkpt lat="45.8963150" lon="9.0186010">
        <ele>1098.6000000</ele>
        <time>2009-07-05T09:33:10Z</time>
      </trkpt>
      <trkpt lat="45.8964610" lon="9.0184940">
        <ele>1098.6300000</ele>
        <time>2009-07-05T09:33:16Z</time>
      </trkpt>
      <trkpt lat="45.8965770" lon="9.0182630">
        <ele>1098.8800000</ele>
        <time>2009-07-05T09:33:22Z</time>
      </trkpt>
      <trkpt lat="45.8966940" lon="9.0179570">
        <ele>1099.7000000</ele>
        <time>2009-07-05T09:33:30Z</time>
      </trkpt>
      <trkpt lat="45.8968130" lon="9.0178160">
        <ele>1100.7000000</ele>
        <time>2009-07-05T09:33:36Z</time>
      </trkpt>
      <trkpt lat="45.8969720" lon="9.0177460">
        <ele>1101.7700000</ele>
        <time>2009-07-05T09:33:43Z</time>
      </trkpt>
      <trkpt lat="45.8971170" lon="9.0176890">
        <ele>1102.2100000</ele>
        <time>2009-07-05T09:33:50Z</time>
      </trkpt>
      <trkpt lat="45.8972920" lon="9.0176410">
        <ele>1103.3500000</ele>
        <time>2009-07-05T09:33:57Z</time>
      </trkpt>
      <trkpt lat="45.8974840" lon="9.0176210">
        <ele>1104.1500000</ele>
        <time>2009-07-05T09:34:05Z</time>
      </trkpt>
      <trkpt lat="45.8976410" lon="9.0176380">
        <ele>1104.8800000</ele>
        <time>2009-07-05T09:34:12Z</time>
      </trkpt>
      <trkpt lat="45.8978120" lon="9.0176690">
        <ele>1105.4300000</ele>
        <time>2009-07-05T09:34:19Z</time>
      </trkpt>
      <trkpt lat="45.8979870" lon="9.0176940">
        <ele>1105.8400000</ele>
        <time>2009-07-05T09:34:26Z</time>
      </trkpt>
      <trkpt lat="45.8981640" lon="9.0177250">
        <ele>1106.5400000</ele>
        <time>2009-07-05T09:34:33Z</time>
      </trkpt>
      <trkpt lat="45.8983900" lon="9.0178210">
        <ele>1105.9800000</ele>
        <time>2009-07-05T09:34:41Z</time>
      </trkpt>
      <trkpt lat="45.8985770" lon="9.0179040">
        <ele>1105.3600000</ele>
        <time>2009-07-05T09:34:46Z</time>
      </trkpt>
      <trkpt lat="45.8987650" lon="9.0179120">
        <ele>1104.8400000</ele>
        <time>2009-07-05T09:34:51Z</time>
      </trkpt>
      <trkpt lat="45.8990350" lon="9.0178700">
        <ele>1104.0600000</ele>
        <time>2009-07-05T09:34:58Z</time>
      </trkpt>
      <trkpt lat="45.8991840" lon="9.0178310">
        <ele>1103.9500000</ele>
        <time>2009-07-05T09:35:02Z</time>
      </trkpt>
      <trkpt lat="45.8994770" lon="9.0177450">
        <ele>1103.7700000</ele>
        <time>2009-07-05T09:35:09Z</time>
      </trkpt>
      <trkpt lat="45.8997650" lon="9.0176730">
        <ele>1103.3700000</ele>
        <time>2009-07-05T09:35:16Z</time>
      </trkpt>
      <trkpt lat="45.9000150" lon="9.0175980">
        <ele>1103.9500000</ele>
        <time>2009-07-05T09:35:23Z</time>
      </trkpt>
      <trkpt lat="45.9002240" lon="9.0175380">
        <ele>1104.2700000</ele>
        <time>2009-07-05T09:35:29Z</time>
      </trkpt>
      <trkpt lat="45.9004410" lon="9.0174970">
        <ele>1104.8600000</ele>
        <time>2009-07-05T09:35:36Z</time>
      </trkpt>
      <trkpt lat="45.9005880" lon="9.0174810">
        <ele>1105.2700000</ele>
        <time>2009-07-05T09:35:43Z</time>
      </trkpt>
      <trkpt lat="45.9007030" lon="9.0174870">
        <ele>1105.5600000</ele>
        <time>2009-07-05T09:35:49Z</time>
      </trkpt>
      <trkpt lat="45.9008590" lon="9.0175370">
        <ele>1105.9800000</ele>
        <time>2009-07-05T09:35:56Z</time>
      </trkpt>
      <trkpt lat="45.9010450" lon="9.0175440">
        <ele>1106.6400000</ele>
        <time>2009-07-05T09:36:02Z</time>
      </trkpt>
      <trkpt lat="45.9012160" lon="9.0175000">
        <ele>1107.2300000</ele>
        <time>2009-07-05T09:36:08Z</time>
      </trkpt>
      <trkpt lat="45.9014200" lon="9.0174750">
        <ele>1107.9000000</ele>
        <time>2009-07-05T09:36:15Z</time>
      </trkpt>
      <trkpt lat="45.9016130" lon="9.0174570">
        <ele>1108.7200000</ele>
        <time>2009-07-05T09:36:22Z</time>
      </trkpt>
      <trkpt lat="45.9017570" lon="9.0174420">
        <ele>1109.5400000</ele>
        <time>2009-07-05T09:36:28Z</time>
      </trkpt>
      <trkpt lat="45.9019170" lon="9.0173990">
        <ele>1110.6400000</ele>
        <time>2009-07-05T09:36:35Z</time>
      </trkpt>
      <trkpt lat="45.9020470" lon="9.0173390">
        <ele>1111.4800000</ele>
        <time>2009-07-05T09:36:41Z</time>
      </trkpt>
      <trkpt lat="45.9022180" lon="9.0172720">
        <ele>1112.6900000</ele>
        <time>2009-07-05T09:36:49Z</time>
      </trkpt>
      <trkpt lat="45.9023480" lon="9.0172220">
        <ele>1113.9200000</ele>
        <time>2009-07-05T09:36:55Z</time>
      </trkpt>
      <trkpt lat="45.9025100" lon="9.0171430">
        <ele>1115.2700000</ele>
        <time>2009-07-05T09:37:02Z</time>
      </trkpt>
      <trkpt lat="45.9026750" lon="9.0170540">
        <ele>1115.9600000</ele>
        <time>2009-07-05T09:37:09Z</time>
      </trkpt>
      <trkpt lat="45.9027780" lon="9.0169640">
        <ele>1116.7300000</ele>
        <time>2009-07-05T09:37:14Z</time>
      </trkpt>
      <trkpt lat="45.9029340" lon="9.0167390">
        <ele>1118.4100000</ele>
        <time>2009-07-05T09:37:22Z</time>
      </trkpt>
      <trkpt lat="45.9030610" lon="9.0164110">
        <ele>1119.3800000</ele>
        <time>2009-07-05T09:37:32Z</time>
      </trkpt>
      <trkpt lat="45.9031400" lon="9.0161310">
        <ele>1120.8000000</ele>
        <time>2009-07-05T09:37:40Z</time>
      </trkpt>
      <trkpt lat="45.9032190" lon="9.0158630">
        <ele>1122.0000000</ele>
        <time>2009-07-05T09:37:48Z</time>
      </trkpt>
      <trkpt lat="45.9033340" lon="9.0156090">
        <ele>1123.4200000</ele>
        <time>2009-07-05T09:37:56Z</time>
      </trkpt>
      <trkpt lat="45.9034200" lon="9.0154760">
        <ele>1124.4000000</ele>
        <time>2009-07-05T09:38:01Z</time>
      </trkpt>
      <trkpt lat="45.9035320" lon="9.0152730">
        <ele>1125.5100000</ele>
        <time>2009-07-05T09:38:08Z</time>
      </trkpt>
      <trkpt lat="45.9036060" lon="9.0151160">
        <ele>1126.3200000</ele>
        <time>2009-07-05T09:38:13Z</time>
      </trkpt>
      <trkpt lat="45.9036490" lon="9.0149350">
        <ele>1127.1600000</ele>
        <time>2009-07-05T09:38:18Z</time>
      </trkpt>
      <trkpt lat="45.9036850" lon="9.0147620">
        <ele>1127.9500000</ele>
        <time>2009-07-05T09:38:23Z</time>
      </trkpt>
      <trkpt lat="45.9036840" lon="9.0145020">
        <ele>1129.0000000</ele>
        <time>2009-07-05T09:38:31Z</time>
      </trkpt>
      <trkpt lat="45.9036900" lon="9.0144050">
        <ele>1129.4900000</ele>
        <time>2009-07-05T09:38:34Z</time>
      </trkpt>
      <trkpt lat="45.9036750" lon="9.0141420">
        <ele>1130.7200000</ele>
        <time>2009-07-05T09:38:41Z</time>
      </trkpt>
      <trkpt lat="45.9037080" lon="9.0139580">
        <ele>1131.4400000</ele>
        <time>2009-07-05T09:38:46Z</time>
      </trkpt>
      <trkpt lat="45.9037440" lon="9.0138090">
        <ele>1132.1100000</ele>
        <time>2009-07-05T09:38:50Z</time>
      </trkpt>
      <trkpt lat="45.9038200" lon="9.0136320">
        <ele>1132.9100000</ele>
        <time>2009-07-05T09:38:55Z</time>
      </trkpt>
      <trkpt lat="45.9038960" lon="9.0134490">
        <ele>1133.5600000</ele>
        <time>2009-07-05T09:39:01Z</time>
      </trkpt>
      <trkpt lat="45.9039190" lon="9.0132770">
        <ele>1134.8900000</ele>
        <time>2009-07-05T09:39:07Z</time>
      </trkpt>
      <trkpt lat="45.9039950" lon="9.0131260">
        <ele>1136.0400000</ele>
        <time>2009-07-05T09:39:13Z</time>
      </trkpt>
      <trkpt lat="45.9041150" lon="9.0130050">
        <ele>1136.9300000</ele>
        <time>2009-07-05T09:39:20Z</time>
      </trkpt>
      <trkpt lat="45.9042240" lon="9.0129420">
        <ele>1137.7100000</ele>
        <time>2009-07-05T09:39:25Z</time>
      </trkpt>
      <trkpt lat="45.9043400" lon="9.0128970">
        <ele>1138.5400000</ele>
        <time>2009-07-05T09:39:30Z</time>
      </trkpt>
      <trkpt lat="45.9044710" lon="9.0128540">
        <ele>1139.3400000</ele>
        <time>2009-07-05T09:39:36Z</time>
      </trkpt>
      <trkpt lat="45.9046880" lon="9.0127980">
        <ele>1140.4700000</ele>
        <time>2009-07-05T09:39:44Z</time>
      </trkpt>
      <trkpt lat="45.9049100" lon="9.0127020">
        <ele>1141.3800000</ele>
        <time>2009-07-05T09:39:52Z</time>
      </trkpt>
      <trkpt lat="45.9050640" lon="9.0125930">
        <ele>1142.2200000</ele>
        <time>2009-07-05T09:39:58Z</time>
      </trkpt>
      <trkpt lat="45.9051650" lon="9.0125260">
        <ele>1142.3300000</ele>
        <time>2009-07-05T09:40:02Z</time>
      </trkpt>
      <trkpt lat="45.9053050" lon="9.0124270">
        <ele>1142.8900000</ele>
        <time>2009-07-05T09:40:08Z</time>
      </trkpt>
      <trkpt lat="45.9054970" lon="9.0123110">
        <ele>1143.3900000</ele>
        <time>2009-07-05T09:40:16Z</time>
      </trkpt>
      <trkpt lat="45.9056990" lon="9.0121810">
        <ele>1143.7800000</ele>
        <time>2009-07-05T09:40:24Z</time>
      </trkpt>
      <trkpt lat="45.9059850" lon="9.0120450">
        <ele>1144.1200000</ele>
        <time>2009-07-05T09:40:34Z</time>
      </trkpt>
      <trkpt lat="45.9062070" lon="9.0119880">
        <ele>1144.5600000</ele>
        <time>2009-07-05T09:40:42Z</time>
      </trkpt>
      <trkpt lat="45.9063700" lon="9.0119850">
        <ele>1144.9900000</ele>
        <time>2009-07-05T09:40:48Z</time>
      </trkpt>
      <trkpt lat="45.9065580" lon="9.0119750">
        <ele>1145.4400000</ele>
        <time>2009-07-05T09:40:55Z</time>
      </trkpt>
      <trkpt lat="45.9067610" lon="9.0118970">
        <ele>1145.7800000</ele>
        <time>2009-07-05T09:41:02Z</time>
      </trkpt>
      <trkpt lat="45.9070080" lon="9.0117360">
        <ele>1145.4600000</ele>
        <time>2009-07-05T09:41:09Z</time>
      </trkpt>
      <trkpt lat="45.9072090" lon="9.0115060">
        <ele>1146.0700000</ele>
        <time>2009-07-05T09:41:17Z</time>
      </trkpt>
      <trkpt lat="45.9073830" lon="9.0112800">
        <ele>1146.3600000</ele>
        <time>2009-07-05T09:41:25Z</time>
      </trkpt>
      <trkpt lat="45.9075250" lon="9.0110310">
        <ele>1146.8600000</ele>
        <time>2009-07-05T09:41:33Z</time>
      </trkpt>
      <trkpt lat="45.9076830" lon="9.0106900">
        <ele>1147.3000000</ele>
        <time>2009-07-05T09:41:43Z</time>
      </trkpt>
      <trkpt lat="45.9078450" lon="9.0104010">
        <ele>1147.8000000</ele>
        <time>2009-07-05T09:41:52Z</time>
      </trkpt>
      <trkpt lat="45.9080420" lon="9.0101730">
        <ele>1148.2600000</ele>
        <time>2009-07-05T09:42:01Z</time>
      </trkpt>
      <trkpt lat="45.9082850" lon="9.0099800">
        <ele>1148.9400000</ele>
        <time>2009-07-05T09:42:11Z</time>
      </trkpt>
      <trkpt lat="45.9084010" lon="9.0099170">
        <ele>1150.0100000</ele>
        <time>2009-07-05T09:42:16Z</time>
      </trkpt>
      <trkpt lat="45.9084890" lon="9.0097510">
        <ele>1151.1900000</ele>
        <time>2009-07-05T09:42:22Z</time>
      </trkpt>
      <trkpt lat="45.9085660" lon="9.0095520">
        <ele>1152.3900000</ele>
        <time>2009-07-05T09:42:28Z</time>
      </trkpt>
      <trkpt lat="45.9086960" lon="9.0091790">
        <ele>1153.2500000</ele>
        <time>2009-07-05T09:42:39Z</time>
      </trkpt>
      <trkpt lat="45.9088490" lon="9.0087500">
        <ele>1153.8300000</ele>
        <time>2009-07-05T09:42:50Z</time>
      </trkpt>
      <trkpt lat="45.9090100" lon="9.0083650">
        <ele>1153.5900000</ele>
        <time>2009-07-05T09:42:59Z</time>
      </trkpt>
      <trkpt lat="45.9091840" lon="9.0079190">
        <ele>1153.0800000</ele>
        <time>2009-07-05T09:43:09Z</time>
      </trkpt>
      <trkpt lat="45.9091420" lon="9.0076100">
        <ele>1153.7500000</ele>
        <time>2009-07-05T09:43:15Z</time>
      </trkpt>
      <trkpt lat="45.9090540" lon="9.0072880">
        <ele>1153.4200000</ele>
        <time>2009-07-05T09:43:22Z</time>
      </trkpt>
      <trkpt lat="45.9089320" lon="9.0070690">
        <ele>1153.9300000</ele>
        <time>2009-07-05T09:43:28Z</time>
      </trkpt>
      <trkpt lat="45.9088830" lon="9.0067840">
        <ele>1153.9700000</ele>
        <time>2009-07-05T09:43:34Z</time>
      </trkpt>
      <trkpt lat="45.9088140" lon="9.0064910">
        <ele>1153.8900000</ele>
        <time>2009-07-05T09:43:40Z</time>
      </trkpt>
      <trkpt lat="45.9086660" lon="9.0062480">
        <ele>1153.9300000</ele>
        <time>2009-07-05T09:43:46Z</time>
      </trkpt>
      <trkpt lat="45.9085220" lon="9.0060040">
        <ele>1154.3300000</ele>
        <time>2009-07-05T09:43:52Z</time>
      </trkpt>
      <trkpt lat="45.9083600" lon="9.0058990">
        <ele>1154.7800000</ele>
        <time>2009-07-05T09:43:57Z</time>
      </trkpt>
      <trkpt lat="45.9081680" lon="9.0057640">
        <ele>1154.6500000</ele>
        <time>2009-07-05T09:44:03Z</time>
      </trkpt>
      <trkpt lat="45.9080020" lon="9.0055520">
        <ele>1154.8200000</ele>
        <time>2009-07-05T09:44:09Z</time>
      </trkpt>
      <trkpt lat="45.9077950" lon="9.0053450">
        <ele>1155.2000000</ele>
        <time>2009-07-05T09:44:16Z</time>
      </trkpt>
      <trkpt lat="45.9076660" lon="9.0051880">
        <ele>1155.1700000</ele>
        <time>2009-07-05T09:44:21Z</time>
      </trkpt>
      <trkpt lat="45.9075560" lon="9.0050330">
        <ele>1155.8100000</ele>
        <time>2009-07-05T09:44:26Z</time>
      </trkpt>
      <trkpt lat="45.9073970" lon="9.0048050">
        <ele>1155.5300000</ele>
        <time>2009-07-05T09:44:32Z</time>
      </trkpt>
      <trkpt lat="45.9072550" lon="9.0046200">
        <ele>1155.6000000</ele>
        <time>2009-07-05T09:44:37Z</time>
      </trkpt>
      <trkpt lat="45.9071360" lon="9.0043600">
        <ele>1155.3100000</ele>
        <time>2009-07-05T09:44:43Z</time>
      </trkpt>
      <trkpt lat="45.9072010" lon="9.0041680">
        <ele>1155.6700000</ele>
        <time>2009-07-05T09:44:47Z</time>
      </trkpt>
      <trkpt lat="45.9073840" lon="9.0038380">
        <ele>1155.8100000</ele>
        <time>2009-07-05T09:44:55Z</time>
      </trkpt>
      <trkpt lat="45.9074790" lon="9.0036510">
        <ele>1156.2100000</ele>
        <time>2009-07-05T09:45:00Z</time>
      </trkpt>
      <trkpt lat="45.9075970" lon="9.0034350">
        <ele>1156.2200000</ele>
        <time>2009-07-05T09:45:06Z</time>
      </trkpt>
      <trkpt lat="45.9076660" lon="9.0031790">
        <ele>1156.3000000</ele>
        <time>2009-07-05T09:45:12Z</time>
      </trkpt>
      <trkpt lat="45.9076200" lon="9.0030020">
        <ele>1156.6000000</ele>
        <time>2009-07-05T09:45:16Z</time>
      </trkpt>
      <trkpt lat="45.9075260" lon="9.0027550">
        <ele>1156.8300000</ele>
        <time>2009-07-05T09:45:21Z</time>
      </trkpt>
      <trkpt lat="45.9074880" lon="9.0025700">
        <ele>1157.0800000</ele>
        <time>2009-07-05T09:45:25Z</time>
      </trkpt>
      <trkpt lat="45.9075560" lon="9.0025730">
        <ele>1157.4200000</ele>
        <time>2009-07-05T09:45:29Z</time>
      </trkpt>
      <trkpt lat="45.9075760" lon="9.0026220">
        <ele>1157.8000000</ele>
        <time>2009-07-05T09:45:35Z</time>
      </trkpt>
      <trkpt lat="45.9075780" lon="9.0026490">
        <ele>1158.1200000</ele>
        <time>2009-07-05T09:45:38Z</time>
      </trkpt>
      <trkpt lat="45.9076060" lon="9.0026810">
        <ele>1158.1000000</ele>
        <time>2009-07-05T09:45:44Z</time>
      </trkpt>
      <trkpt lat="45.9076160" lon="9.0026800">
        <ele>1158.4200000</ele>
        <time>2009-07-05T09:45:45Z</time>
      </trkpt>
      <trkpt lat="45.9076830" lon="9.0026780">
        <ele>1158.9100000</ele>
        <time>2009-07-05T09:45:51Z</time>
      </trkpt>
      <trkpt lat="45.9077630" lon="9.0027380">
        <ele>1159.9300000</ele>
        <time>2009-07-05T09:45:57Z</time>
      </trkpt>
      <trkpt lat="45.9079030" lon="9.0027830">
        <ele>1161.7100000</ele>
        <time>2009-07-05T09:46:05Z</time>
      </trkpt>
      <trkpt lat="45.9080040" lon="9.0027860">
        <ele>1163.2700000</ele>
        <time>2009-07-05T09:46:12Z</time>
      </trkpt>
      <trkpt lat="45.9081460" lon="9.0028140">
        <ele>1164.9400000</ele>
        <time>2009-07-05T09:46:20Z</time>
      </trkpt>
      <trkpt lat="45.9082070" lon="9.0028240">
        <ele>1165.7600000</ele>
        <time>2009-07-05T09:46:24Z</time>
      </trkpt>
      <trkpt lat="45.9083400" lon="9.0028530">
        <ele>1167.7300000</ele>
        <time>2009-07-05T09:46:32Z</time>
      </trkpt>
      <trkpt lat="45.9084510" lon="9.0028770">
        <ele>1169.2600000</ele>
        <time>2009-07-05T09:46:39Z</time>
      </trkpt>
      <trkpt lat="45.9085250" lon="9.0029010">
        <ele>1170.8100000</ele>
        <time>2009-07-05T09:46:46Z</time>
      </trkpt>
      <trkpt lat="45.9086330" lon="9.0029710">
        <ele>1172.1400000</ele>
        <time>2009-07-05T09:46:53Z</time>
      </trkpt>
      <trkpt lat="45.9087590" lon="9.0031050">
        <ele>1173.3900000</ele>
        <time>2009-07-05T09:47:02Z</time>
      </trkpt>
      <trkpt lat="45.9088580" lon="9.0031970">
        <ele>1174.6400000</ele>
        <time>2009-07-05T09:47:09Z</time>
      </trkpt>
      <trkpt lat="45.9089090" lon="9.0032280">
        <ele>1175.5600000</ele>
        <time>2009-07-05T09:47:14Z</time>
      </trkpt>
      <trkpt lat="45.9090080" lon="9.0032810">
        <ele>1177.4300000</ele>
        <time>2009-07-05T09:47:21Z</time>
      </trkpt>
      <trkpt lat="45.9090240" lon="9.0032940">
        <ele>1177.4600000</ele>
        <time>2009-07-05T09:47:22Z</time>
      </trkpt>
      <trkpt lat="45.9090810" lon="9.0033270">
        <ele>1178.7200000</ele>
        <time>2009-07-05T09:47:26Z</time>
      </trkpt>
      <trkpt lat="45.9091980" lon="9.0033910">
        <ele>1180.2200000</ele>
        <time>2009-07-05T09:47:34Z</time>
      </trkpt>
      <trkpt lat="45.9092290" lon="9.0034140">
        <ele>1180.7100000</ele>
        <time>2009-07-05T09:47:37Z</time>
      </trkpt>
      <trkpt lat="45.9092570" lon="9.0034360">
        <ele>1181.6400000</ele>
        <time>2009-07-05T09:47:40Z</time>
      </trkpt>
      <trkpt lat="45.9093260" lon="9.0035120">
        <ele>1182.9300000</ele>
        <time>2009-07-05T09:47:46Z</time>
      </trkpt>
      <trkpt lat="45.9093710" lon="9.0035630">
        <ele>1183.7200000</ele>
        <time>2009-07-05T09:47:50Z</time>
      </trkpt>
      <trkpt lat="45.9094760" lon="9.0036280">
        <ele>1185.2800000</ele>
        <time>2009-07-05T09:47:57Z</time>
      </trkpt>
      <trkpt lat="45.9095970" lon="9.0037220">
        <ele>1186.8100000</ele>
        <time>2009-07-05T09:48:05Z</time>
      </trkpt>
      <trkpt lat="45.9096560" lon="9.0037830">
        <ele>1187.9000000</ele>
        <time>2009-07-05T09:48:10Z</time>
      </trkpt>
      <trkpt lat="45.9097620" lon="9.0039030">
        <ele>1189.4400000</ele>
        <time>2009-07-05T09:48:18Z</time>
      </trkpt>
      <trkpt lat="45.9098100" lon="9.0040200">
        <ele>1190.8400000</ele>
        <time>2009-07-05T09:48:25Z</time>
      </trkpt>
      <trkpt lat="45.9098210" lon="9.0041770">
        <ele>1192.1700000</ele>
        <time>2009-07-05T09:48:32Z</time>
      </trkpt>
      <trkpt lat="45.9097720" lon="9.0043380">
        <ele>1193.9500000</ele>
        <time>2009-07-05T09:48:40Z</time>
      </trkpt>
      <trkpt lat="45.9097240" lon="9.0044580">
        <ele>1195.7400000</ele>
        <time>2009-07-05T09:48:47Z</time>
      </trkpt>
      <trkpt lat="45.9096480" lon="9.0045430">
        <ele>1197.5600000</ele>
        <time>2009-07-05T09:48:54Z</time>
      </trkpt>
      <trkpt lat="45.9095920" lon="9.0045480">
        <ele>1198.2200000</ele>
        <time>2009-07-05T09:49:00Z</time>
      </trkpt>
      <trkpt lat="45.9094850" lon="9.0045600">
        <ele>1198.5900000</ele>
        <time>2009-07-05T09:49:06Z</time>
      </trkpt>
      <trkpt lat="45.9094850" lon="9.0046990">
        <ele>1198.9500000</ele>
        <time>2009-07-05T09:49:12Z</time>
      </trkpt>
      <trkpt lat="45.9094990" lon="9.0047180">
        <ele>1199.1000000</ele>
        <time>2009-07-05T09:49:13Z</time>
      </trkpt>
      <trkpt lat="45.9096360" lon="9.0048460">
        <ele>1199.9500000</ele>
        <time>2009-07-05T09:49:22Z</time>
      </trkpt>
      <trkpt lat="45.9097770" lon="9.0049270">
        <ele>1200.4700000</ele>
        <time>2009-07-05T09:49:30Z</time>
      </trkpt>
      <trkpt lat="45.9099230" lon="9.0049580">
        <ele>1201.1700000</ele>
        <time>2009-07-05T09:49:37Z</time>
      </trkpt>
      <trkpt lat="45.9100470" lon="9.0049590">
        <ele>1201.3300000</ele>
        <time>2009-07-05T09:49:44Z</time>
      </trkpt>
      <trkpt lat="45.9101850" lon="9.0049310">
        <ele>1202.4100000</ele>
        <time>2009-07-05T09:49:50Z</time>
      </trkpt>
      <trkpt lat="45.9103320" lon="9.0049110">
        <ele>1203.1200000</ele>
        <time>2009-07-05T09:49:56Z</time>
      </trkpt>
      <trkpt lat="45.9104520" lon="9.0048710">
        <ele>1203.4800000</ele>
        <time>2009-07-05T09:50:01Z</time>
      </trkpt>
      <trkpt lat="45.9105990" lon="9.0048150">
        <ele>1204.4500000</ele>
        <time>2009-07-05T09:50:08Z</time>
      </trkpt>
      <trkpt lat="45.9107150" lon="9.0046850">
        <ele>1205.2200000</ele>
        <time>2009-07-05T09:50:14Z</time>
      </trkpt>
      <trkpt lat="45.9108320" lon="9.0045540">
        <ele>1205.8800000</ele>
        <time>2009-07-05T09:50:19Z</time>
      </trkpt>
      <trkpt lat="45.9109580" lon="9.0044700">
        <ele>1206.4800000</ele>
        <time>2009-07-05T09:50:24Z</time>
      </trkpt>
      <trkpt lat="45.9110850" lon="9.0044030">
        <ele>1206.8700000</ele>
        <time>2009-07-05T09:50:29Z</time>
      </trkpt>
      <trkpt lat="45.9111920" lon="9.0043770">
        <ele>1207.2000000</ele>
        <time>2009-07-05T09:50:34Z</time>
      </trkpt>
      <trkpt lat="45.9112780" lon="9.0043630">
        <ele>1207.7800000</ele>
        <time>2009-07-05T09:50:38Z</time>
      </trkpt>
      <trkpt lat="45.9113860" lon="9.0043090">
        <ele>1208.3500000</ele>
        <time>2009-07-05T09:50:44Z</time>
      </trkpt>
      <trkpt lat="45.9114830" lon="9.0042350">
        <ele>1209.2200000</ele>
        <time>2009-07-05T09:50:49Z</time>
      </trkpt>
      <trkpt lat="45.9116090" lon="9.0040910">
        <ele>1210.1500000</ele>
        <time>2009-07-05T09:50:55Z</time>
      </trkpt>
      <trkpt lat="45.9116540" lon="9.0039490">
        <ele>1210.2200000</ele>
        <time>2009-07-05T09:50:58Z</time>
      </trkpt>
      <trkpt lat="45.9115650" lon="9.0038140">
        <ele>1211.2200000</ele>
        <time>2009-07-05T09:51:03Z</time>
      </trkpt>
      <trkpt lat="45.9114560" lon="9.0036890">
        <ele>1212.1200000</ele>
        <time>2009-07-05T09:51:09Z</time>
      </trkpt>
      <trkpt lat="45.9113710" lon="9.0034590">
        <ele>1212.5800000</ele>
        <time>2009-07-05T09:51:16Z</time>
      </trkpt>
      <trkpt lat="45.9113500" lon="9.0032000">
        <ele>1213.3300000</ele>
        <time>2009-07-05T09:51:23Z</time>
      </trkpt>
      <trkpt lat="45.9113390" lon="9.0029850">
        <ele>1213.8700000</ele>
        <time>2009-07-05T09:51:28Z</time>
      </trkpt>
      <trkpt lat="45.9113750" lon="9.0028450">
        <ele>1214.1000000</ele>
        <time>2009-07-05T09:51:32Z</time>
      </trkpt>
      <trkpt lat="45.9114130" lon="9.0026530">
        <ele>1214.8000000</ele>
        <time>2009-07-05T09:51:38Z</time>
      </trkpt>
      <trkpt lat="45.9113910" lon="9.0024550">
        <ele>1215.7700000</ele>
        <time>2009-07-05T09:51:44Z</time>
      </trkpt>
      <trkpt lat="45.9113680" lon="9.0022590">
        <ele>1216.0100000</ele>
        <time>2009-07-05T09:51:49Z</time>
      </trkpt>
      <trkpt lat="45.9113430" lon="9.0020670">
        <ele>1216.6800000</ele>
        <time>2009-07-05T09:51:54Z</time>
      </trkpt>
      <trkpt lat="45.9113380" lon="9.0018970">
        <ele>1217.3300000</ele>
        <time>2009-07-05T09:51:59Z</time>
      </trkpt>
      <trkpt lat="45.9113130" lon="9.0017310">
        <ele>1217.9800000</ele>
        <time>2009-07-05T09:52:04Z</time>
      </trkpt>
      <trkpt lat="45.9112880" lon="9.0015500">
        <ele>1217.7400000</ele>
        <time>2009-07-05T09:52:11Z</time>
      </trkpt>
      <trkpt lat="45.9112800" lon="9.0015290">
        <ele>1217.7100000</ele>
        <time>2009-07-05T09:52:12Z</time>
      </trkpt>
      <trkpt lat="45.9112520" lon="9.0014620">
        <ele>1217.6800000</ele>
        <time>2009-07-05T09:52:16Z</time>
      </trkpt>
      <trkpt lat="45.9112840" lon="9.0013640">
        <ele>1217.7000000</ele>
        <time>2009-07-05T09:52:22Z</time>
      </trkpt>
      <trkpt lat="45.9113420" lon="9.0013200">
        <ele>1217.6900000</ele>
        <time>2009-07-05T09:52:27Z</time>
      </trkpt>
      <trkpt lat="45.9113590" lon="9.0012400">
        <ele>1217.4800000</ele>
        <time>2009-07-05T09:52:33Z</time>
      </trkpt>
      <trkpt lat="45.9113700" lon="9.0012020">
        <ele>1217.7300000</ele>
        <time>2009-07-05T09:52:39Z</time>
      </trkpt>
      <trkpt lat="45.9113330" lon="9.0011680">
        <ele>1217.5400000</ele>
        <time>2009-07-05T09:52:57Z</time>
      </trkpt>
      <trkpt lat="45.9112990" lon="9.0011270">
        <ele>1217.3100000</ele>
        <time>2009-07-05T09:53:09Z</time>
      </trkpt>
      <trkpt lat="45.9113070" lon="9.0011420">
        <ele>1217.1200000</ele>
        <time>2009-07-05T10:07:08Z</time>
      </trkpt>
      <trkpt lat="45.9112910" lon="9.0011040">
        <ele>1217.2500000</ele>
        <time>2009-07-05T10:07:36Z</time>
      </trkpt>
      <trkpt lat="45.9112810" lon="9.0011390">
        <ele>1217.1200000</ele>
        <time>2009-07-05T10:07:39Z</time>
      </trkpt>
      <trkpt lat="45.9112650" lon="9.0012000">
        <ele>1217.0200000</ele>
        <time>2009-07-05T10:07:43Z</time>
      </trkpt>
      <trkpt lat="45.9112670" lon="9.0012400">
        <ele>1216.8300000</ele>
        <time>2009-07-05T10:07:45Z</time>
      </trkpt>
      <trkpt lat="45.9113030" lon="9.0013400">
        <ele>1217.0900000</ele>
        <time>2009-07-05T10:07:51Z</time>
      </trkpt>
      <trkpt lat="45.9113110" lon="9.0013730">
        <ele>1217.1300000</ele>
        <time>2009-07-05T10:07:53Z</time>
      </trkpt>
      <trkpt lat="45.9113720" lon="9.0014460">
        <ele>1217.6000000</ele>
        <time>2009-07-05T10:08:01Z</time>
      </trkpt>
      <trkpt lat="45.9114510" lon="9.0014780">
        <ele>1219.1900000</ele>
        <time>2009-07-05T10:08:10Z</time>
      </trkpt>
      <trkpt lat="45.9114760" lon="9.0015040">
        <ele>1220.5500000</ele>
        <time>2009-07-05T10:08:17Z</time>
      </trkpt>
      <trkpt lat="45.9114860" lon="9.0015230">
        <ele>1221.1900000</ele>
        <time>2009-07-05T10:08:20Z</time>
      </trkpt>
      <trkpt lat="45.9115170" lon="9.0015710">
        <ele>1222.2000000</ele>
        <time>2009-07-05T10:08:27Z</time>
      </trkpt>
      <trkpt lat="45.9115740" lon="9.0016720">
        <ele>1223.0200000</ele>
        <time>2009-07-05T10:08:36Z</time>
      </trkpt>
      <trkpt lat="45.9115920" lon="9.0016920">
        <ele>1223.2700000</ele>
        <time>2009-07-05T10:08:39Z</time>
      </trkpt>
      <trkpt lat="45.9116230" lon="9.0017210">
        <ele>1224.5100000</ele>
        <time>2009-07-05T10:08:43Z</time>
      </trkpt>
      <trkpt lat="45.9116540" lon="9.0017800">
        <ele>1224.4300000</ele>
        <time>2009-07-05T10:08:48Z</time>
      </trkpt>
      <trkpt lat="45.9116860" lon="9.0018630">
        <ele>1225.0100000</ele>
        <time>2009-07-05T10:08:55Z</time>
      </trkpt>
      <trkpt lat="45.9117160" lon="9.0019290">
        <ele>1225.2800000</ele>
        <time>2009-07-05T10:09:02Z</time>
      </trkpt>
      <trkpt lat="45.9117490" lon="9.0019650">
        <ele>1226.3100000</ele>
        <time>2009-07-05T10:09:07Z</time>
      </trkpt>
      <trkpt lat="45.9117890" lon="9.0020310">
        <ele>1226.7100000</ele>
        <time>2009-07-05T10:09:13Z</time>
      </trkpt>
      <trkpt lat="45.9118380" lon="9.0021050">
        <ele>1227.6600000</ele>
        <time>2009-07-05T10:09:21Z</time>
      </trkpt>
      <trkpt lat="45.9118500" lon="9.0021350">
        <ele>1227.9300000</ele>
        <time>2009-07-05T10:09:25Z</time>
      </trkpt>
      <trkpt lat="45.9118850" lon="9.0022270">
        <ele>1228.0600000</ele>
        <time>2009-07-05T10:09:33Z</time>
      </trkpt>
      <trkpt lat="45.9119230" lon="9.0022810">
        <ele>1229.3400000</ele>
        <time>2009-07-05T10:09:41Z</time>
      </trkpt>
      <trkpt lat="45.9119530" lon="9.0023570">
        <ele>1230.4100000</ele>
        <time>2009-07-05T10:09:49Z</time>
      </trkpt>
      <trkpt lat="45.9119520" lon="9.0024240">
        <ele>1231.2100000</ele>
        <time>2009-07-05T10:09:55Z</time>
      </trkpt>
      <trkpt lat="45.9119740" lon="9.0024440">
        <ele>1232.1600000</ele>
        <time>2009-07-05T10:10:00Z</time>
      </trkpt>
      <trkpt lat="45.9119840" lon="9.0025040">
        <ele>1232.9400000</ele>
        <time>2009-07-05T10:10:06Z</time>
      </trkpt>
      <trkpt lat="45.9119960" lon="9.0026030">
        <ele>1233.5000000</ele>
        <time>2009-07-05T10:10:13Z</time>
      </trkpt>
      <trkpt lat="45.9120220" lon="9.0026970">
        <ele>1233.8900000</ele>
        <time>2009-07-05T10:10:21Z</time>
      </trkpt>
      <trkpt lat="45.9120320" lon="9.0027630">
        <ele>1235.0500000</ele>
        <time>2009-07-05T10:10:27Z</time>
      </trkpt>
      <trkpt lat="45.9120610" lon="9.0027990">
        <ele>1235.9200000</ele>
        <time>2009-07-05T10:10:33Z</time>
      </trkpt>
      <trkpt lat="45.9121030" lon="9.0028230">
        <ele>1236.9800000</ele>
        <time>2009-07-05T10:10:40Z</time>
      </trkpt>
      <trkpt lat="45.9121350" lon="9.0028290">
        <ele>1237.6300000</ele>
        <time>2009-07-05T10:10:46Z</time>
      </trkpt>
      <trkpt lat="45.9121680" lon="9.0028970">
        <ele>1238.9900000</ele>
        <time>2009-07-05T10:10:54Z</time>
      </trkpt>
      <trkpt lat="45.9121720" lon="9.0029000">
        <ele>1239.1000000</ele>
        <time>2009-07-05T10:10:56Z</time>
      </trkpt>
      <trkpt lat="45.9121910" lon="9.0029190">
        <ele>1240.1100000</ele>
        <time>2009-07-05T10:11:01Z</time>
      </trkpt>
      <trkpt lat="45.9122210" lon="9.0029820">
        <ele>1241.5100000</ele>
        <time>2009-07-05T10:11:09Z</time>
      </trkpt>
      <trkpt lat="45.9122470" lon="9.0030200">
        <ele>1242.3600000</ele>
        <time>2009-07-05T10:11:14Z</time>
      </trkpt>
      <trkpt lat="45.9123040" lon="9.0030870">
        <ele>1243.7100000</ele>
        <time>2009-07-05T10:11:22Z</time>
      </trkpt>
      <trkpt lat="45.9123490" lon="9.0031260">
        <ele>1245.1900000</ele>
        <time>2009-07-05T10:11:30Z</time>
      </trkpt>
      <trkpt lat="45.9123750" lon="9.0031510">
        <ele>1246.7700000</ele>
        <time>2009-07-05T10:11:36Z</time>
      </trkpt>
      <trkpt lat="45.9124020" lon="9.0031980">
        <ele>1247.3900000</ele>
        <time>2009-07-05T10:11:42Z</time>
      </trkpt>
      <trkpt lat="45.9124160" lon="9.0031810">
        <ele>1248.5000000</ele>
        <time>2009-07-05T10:11:46Z</time>
      </trkpt>
      <trkpt lat="45.9124400" lon="9.0031740">
        <ele>1249.3700000</ele>
        <time>2009-07-05T10:11:52Z</time>
      </trkpt>
      <trkpt lat="45.9124920" lon="9.0032210">
        <ele>1250.6900000</ele>
        <time>2009-07-05T10:12:00Z</time>
      </trkpt>
      <trkpt lat="45.9125280" lon="9.0033050">
        <ele>1251.8200000</ele>
        <time>2009-07-05T10:12:09Z</time>
      </trkpt>
      <trkpt lat="45.9125730" lon="9.0033720">
        <ele>1252.6600000</ele>
        <time>2009-07-05T10:12:16Z</time>
      </trkpt>
      <trkpt lat="45.9126190" lon="9.0033990">
        <ele>1254.4900000</ele>
        <time>2009-07-05T10:12:24Z</time>
      </trkpt>
      <trkpt lat="45.9126670" lon="9.0034350">
        <ele>1255.5200000</ele>
        <time>2009-07-05T10:12:30Z</time>
      </trkpt>
      <trkpt lat="45.9127000" lon="9.0034760">
        <ele>1256.2500000</ele>
        <time>2009-07-05T10:12:35Z</time>
      </trkpt>
      <trkpt lat="45.9127090" lon="9.0034810">
        <ele>1257.1200000</ele>
        <time>2009-07-05T10:12:41Z</time>
      </trkpt>
      <trkpt lat="45.9127510" lon="9.0035010">
        <ele>1258.4900000</ele>
        <time>2009-07-05T10:12:48Z</time>
      </trkpt>
      <trkpt lat="45.9128010" lon="9.0035140">
        <ele>1259.9500000</ele>
        <time>2009-07-05T10:12:56Z</time>
      </trkpt>
      <trkpt lat="45.9128280" lon="9.0035120">
        <ele>1261.4900000</ele>
        <time>2009-07-05T10:13:01Z</time>
      </trkpt>
      <trkpt lat="45.9128900" lon="9.0035340">
        <ele>1262.8500000</ele>
        <time>2009-07-05T10:13:09Z</time>
      </trkpt>
      <trkpt lat="45.9129430" lon="9.0035380">
        <ele>1264.8700000</ele>
        <time>2009-07-05T10:13:18Z</time>
      </trkpt>
      <trkpt lat="45.9129620" lon="9.0035340">
        <ele>1265.7600000</ele>
        <time>2009-07-05T10:13:24Z</time>
      </trkpt>
      <trkpt lat="45.9129850" lon="9.0035440">
        <ele>1266.7200000</ele>
        <time>2009-07-05T10:13:30Z</time>
      </trkpt>
      <trkpt lat="45.9129770" lon="9.0036210">
        <ele>1267.9100000</ele>
        <time>2009-07-05T10:13:37Z</time>
      </trkpt>
      <trkpt lat="45.9129890" lon="9.0036870">
        <ele>1268.2600000</ele>
        <time>2009-07-05T10:13:43Z</time>
      </trkpt>
      <trkpt lat="45.9130180" lon="9.0037640">
        <ele>1269.3000000</ele>
        <time>2009-07-05T10:13:48Z</time>
      </trkpt>
      <trkpt lat="45.9130340" lon="9.0038390">
        <ele>1270.3600000</ele>
        <time>2009-07-05T10:13:56Z</time>
      </trkpt>
      <trkpt lat="45.9130500" lon="9.0038790">
        <ele>1271.4500000</ele>
        <time>2009-07-05T10:14:02Z</time>
      </trkpt>
      <trkpt lat="45.9130590" lon="9.0039240">
        <ele>1272.5300000</ele>
        <time>2009-07-05T10:14:08Z</time>
      </trkpt>
      <trkpt lat="45.9130690" lon="9.0039770">
        <ele>1274.1200000</ele>
        <time>2009-07-05T10:14:15Z</time>
      </trkpt>
      <trkpt lat="45.9130720" lon="9.0039900">
        <ele>1274.1800000</ele>
        <time>2009-07-05T10:14:16Z</time>
      </trkpt>
      <trkpt lat="45.9130660" lon="9.0040450">
        <ele>1275.9300000</ele>
        <time>2009-07-05T10:14:25Z</time>
      </trkpt>
      <trkpt lat="45.9130710" lon="9.0041220">
        <ele>1276.7700000</ele>
        <time>2009-07-05T10:14:31Z</time>
      </trkpt>
      <trkpt lat="45.9130850" lon="9.0042410">
        <ele>1277.9800000</ele>
        <time>2009-07-05T10:14:40Z</time>
      </trkpt>
      <trkpt lat="45.9130720" lon="9.0042630">
        <ele>1278.2000000</ele>
        <time>2009-07-05T10:14:44Z</time>
      </trkpt>
      <trkpt lat="45.9130570" lon="9.0043190">
        <ele>1278.2500000</ele>
        <time>2009-07-05T10:14:47Z</time>
      </trkpt>
      <trkpt lat="45.9130510" lon="9.0044660">
        <ele>1279.4100000</ele>
        <time>2009-07-05T10:14:55Z</time>
      </trkpt>
      <trkpt lat="45.9130260" lon="9.0045340">
        <ele>1279.5900000</ele>
        <time>2009-07-05T10:14:59Z</time>
      </trkpt>
      <trkpt lat="45.9130060" lon="9.0046640">
        <ele>1280.1100000</ele>
        <time>2009-07-05T10:15:04Z</time>
      </trkpt>
      <trkpt lat="45.9129720" lon="9.0047260">
        <ele>1281.2400000</ele>
        <time>2009-07-05T10:15:08Z</time>
      </trkpt>
      <trkpt lat="45.9129770" lon="9.0048390">
        <ele>1283.1000000</ele>
        <time>2009-07-05T10:15:12Z</time>
      </trkpt>
      <trkpt lat="45.9129740" lon="9.0048780">
        <ele>1283.3800000</ele>
        <time>2009-07-05T10:15:15Z</time>
      </trkpt>
      <trkpt lat="45.9129590" lon="9.0049670">
        <ele>1283.4800000</ele>
        <time>2009-07-05T10:15:19Z</time>
      </trkpt>
      <trkpt lat="45.9129710" lon="9.0050330">
        <ele>1284.6000000</ele>
        <time>2009-07-05T10:15:22Z</time>
      </trkpt>
      <trkpt lat="45.9129780" lon="9.0051060">
        <ele>1285.9800000</ele>
        <time>2009-07-05T10:15:28Z</time>
      </trkpt>
      <trkpt lat="45.9129510" lon="9.0051750">
        <ele>1285.9900000</ele>
        <time>2009-07-05T10:15:34Z</time>
      </trkpt>
      <trkpt lat="45.9129470" lon="9.0052390">
        <ele>1286.5800000</ele>
        <time>2009-07-05T10:15:39Z</time>
      </trkpt>
      <trkpt lat="45.9129320" lon="9.0052580">
        <ele>1286.7200000</ele>
        <time>2009-07-05T10:15:41Z</time>
      </trkpt>
      <trkpt lat="45.9128760" lon="9.0053340">
        <ele>1287.5200000</ele>
        <time>2009-07-05T10:15:46Z</time>
      </trkpt>
      <trkpt lat="45.9128540" lon="9.0054100">
        <ele>1288.0200000</ele>
        <time>2009-07-05T10:15:52Z</time>
      </trkpt>
      <trkpt lat="45.9128580" lon="9.0054350">
        <ele>1288.3600000</ele>
        <time>2009-07-05T10:15:55Z</time>
      </trkpt>
      <trkpt lat="45.9128560" lon="9.0054970">
        <ele>1290.3300000</ele>
        <time>2009-07-05T10:15:59Z</time>
      </trkpt>
      <trkpt lat="45.9128470" lon="9.0055940">
        <ele>1292.2800000</ele>
        <time>2009-07-05T10:16:05Z</time>
      </trkpt>
      <trkpt lat="45.9128400" lon="9.0056160">
        <ele>1292.3800000</ele>
        <time>2009-07-05T10:16:07Z</time>
      </trkpt>
      <trkpt lat="45.9128350" lon="9.0056460">
        <ele>1292.6000000</ele>
        <time>2009-07-05T10:16:09Z</time>
      </trkpt>
      <trkpt lat="45.9128130" lon="9.0057450">
        <ele>1293.5800000</ele>
        <time>2009-07-05T10:16:17Z</time>
      </trkpt>
      <trkpt lat="45.9128120" lon="9.0057630">
        <ele>1293.9700000</ele>
        <time>2009-07-05T10:16:19Z</time>
      </trkpt>
      <trkpt lat="45.9128310" lon="9.0057870">
        <ele>1294.2400000</ele>
        <time>2009-07-05T10:16:23Z</time>
      </trkpt>
      <trkpt lat="45.9128610" lon="9.0057920">
        <ele>1295.1100000</ele>
        <time>2009-07-05T10:16:30Z</time>
      </trkpt>
      <trkpt lat="45.9128480" lon="9.0058030">
        <ele>1295.1700000</ele>
        <time>2009-07-05T10:16:38Z</time>
      </trkpt>
      <trkpt lat="45.9128950" lon="9.0058090">
        <ele>1296.3000000</ele>
        <time>2009-07-05T10:17:13Z</time>
      </trkpt>
      <trkpt lat="45.9129450" lon="9.0057970">
        <ele>1296.4500000</ele>
        <time>2009-07-05T10:17:16Z</time>
      </trkpt>
      <trkpt lat="45.9130050" lon="9.0057860">
        <ele>1297.0900000</ele>
        <time>2009-07-05T10:17:20Z</time>
      </trkpt>
      <trkpt lat="45.9131200" lon="9.0057300">
        <ele>1298.1800000</ele>
        <time>2009-07-05T10:17:26Z</time>
      </trkpt>
      <trkpt lat="45.9132040" lon="9.0056750">
        <ele>1299.0000000</ele>
        <time>2009-07-05T10:17:31Z</time>
      </trkpt>
      <trkpt lat="45.9133050" lon="9.0056300">
        <ele>1299.7000000</ele>
        <time>2009-07-05T10:17:37Z</time>
      </trkpt>
      <trkpt lat="45.9133550" lon="9.0056050">
        <ele>1300.0900000</ele>
        <time>2009-07-05T10:17:40Z</time>
      </trkpt>
      <trkpt lat="45.9134760" lon="9.0055900">
        <ele>1300.8400000</ele>
        <time>2009-07-05T10:17:47Z</time>
      </trkpt>
      <trkpt lat="45.9135920" lon="9.0055980">
        <ele>1301.8700000</ele>
        <time>2009-07-05T10:17:54Z</time>
      </trkpt>
      <trkpt lat="45.9137450" lon="9.0055980">
        <ele>1302.2000000</ele>
        <time>2009-07-05T10:18:02Z</time>
      </trkpt>
      <trkpt lat="45.9139270" lon="9.0056200">
        <ele>1303.5600000</ele>
        <time>2009-07-05T10:18:12Z</time>
      </trkpt>
      <trkpt lat="45.9140590" lon="9.0056560">
        <ele>1305.3700000</ele>
        <time>2009-07-05T10:18:20Z</time>
      </trkpt>
      <trkpt lat="45.9141560" lon="9.0056550">
        <ele>1307.9400000</ele>
        <time>2009-07-05T10:18:26Z</time>
      </trkpt>
      <trkpt lat="45.9142400" lon="9.0056550">
        <ele>1309.4200000</ele>
        <time>2009-07-05T10:18:32Z</time>
      </trkpt>
      <trkpt lat="45.9143250" lon="9.0056600">
        <ele>1310.6700000</ele>
        <time>2009-07-05T10:18:39Z</time>
      </trkpt>
      <trkpt lat="45.9143550" lon="9.0056720">
        <ele>1311.1200000</ele>
        <time>2009-07-05T10:18:44Z</time>
      </trkpt>
      <trkpt lat="45.9144550" lon="9.0056730">
        <ele>1311.4300000</ele>
        <time>2009-07-05T10:18:52Z</time>
      </trkpt>
      <trkpt lat="45.9145420" lon="9.0057050">
        <ele>1312.6000000</ele>
        <time>2009-07-05T10:18:59Z</time>
      </trkpt>
      <trkpt lat="45.9146520" lon="9.0057340">
        <ele>1314.3400000</ele>
        <time>2009-07-05T10:19:07Z</time>
      </trkpt>
      <trkpt lat="45.9147100" lon="9.0057490">
        <ele>1315.7900000</ele>
        <time>2009-07-05T10:19:12Z</time>
      </trkpt>
      <trkpt lat="45.9147220" lon="9.0057560">
        <ele>1315.7800000</ele>
        <time>2009-07-05T10:19:13Z</time>
      </trkpt>
      <trkpt lat="45.9147910" lon="9.0057940">
        <ele>1317.5300000</ele>
        <time>2009-07-05T10:19:20Z</time>
      </trkpt>
      <trkpt lat="45.9148170" lon="9.0057910">
        <ele>1318.3800000</ele>
        <time>2009-07-05T10:19:28Z</time>
      </trkpt>
      <trkpt lat="45.9148490" lon="9.0058200">
        <ele>1318.7500000</ele>
        <time>2009-07-05T10:19:33Z</time>
      </trkpt>
      <trkpt lat="45.9148860" lon="9.0058710">
        <ele>1318.7600000</ele>
        <time>2009-07-05T10:19:39Z</time>
      </trkpt>
      <trkpt lat="45.9149170" lon="9.0059340">
        <ele>1318.9600000</ele>
        <time>2009-07-05T10:19:45Z</time>
      </trkpt>
      <trkpt lat="45.9150270" lon="9.0060300">
        <ele>1318.6400000</ele>
        <time>2009-07-05T10:19:51Z</time>
      </trkpt>
      <trkpt lat="45.9152170" lon="9.0061570">
        <ele>1318.8500000</ele>
        <time>2009-07-05T10:19:58Z</time>
      </trkpt>
      <trkpt lat="45.9153410" lon="9.0062850">
        <ele>1319.4100000</ele>
        <time>2009-07-05T10:20:05Z</time>
      </trkpt>
      <trkpt lat="45.9154720" lon="9.0065080">
        <ele>1320.0200000</ele>
        <time>2009-07-05T10:20:15Z</time>
      </trkpt>
      <trkpt lat="45.9155410" lon="9.0066400">
        <ele>1320.6800000</ele>
        <time>2009-07-05T10:20:24Z</time>
      </trkpt>
      <trkpt lat="45.9156170" lon="9.0068290">
        <ele>1320.9400000</ele>
        <time>2009-07-05T10:20:31Z</time>
      </trkpt>
      <trkpt lat="45.9157080" lon="9.0071260">
        <ele>1321.7900000</ele>
        <time>2009-07-05T10:20:39Z</time>
      </trkpt>
      <trkpt lat="45.9157490" lon="9.0074090">
        <ele>1322.5600000</ele>
        <time>2009-07-05T10:20:48Z</time>
      </trkpt>
      <trkpt lat="45.9157250" lon="9.0077240">
        <ele>1323.3600000</ele>
        <time>2009-07-05T10:20:58Z</time>
      </trkpt>
      <trkpt lat="45.9156600" lon="9.0080470">
        <ele>1324.8200000</ele>
        <time>2009-07-05T10:21:09Z</time>
      </trkpt>
      <trkpt lat="45.9156450" lon="9.0081030">
        <ele>1325.0000000</ele>
        <time>2009-07-05T10:21:11Z</time>
      </trkpt>
      <trkpt lat="45.9155910" lon="9.0083770">
        <ele>1325.8700000</ele>
        <time>2009-07-05T10:21:20Z</time>
      </trkpt>
      <trkpt lat="45.9156100" lon="9.0085280">
        <ele>1326.3800000</ele>
        <time>2009-07-05T10:21:25Z</time>
      </trkpt>
      <trkpt lat="45.9157130" lon="9.0087200">
        <ele>1326.7700000</ele>
        <time>2009-07-05T10:21:32Z</time>
      </trkpt>
      <trkpt lat="45.9158300" lon="9.0088490">
        <ele>1327.8400000</ele>
        <time>2009-07-05T10:21:39Z</time>
      </trkpt>
      <trkpt lat="45.9159610" lon="9.0089870">
        <ele>1329.4200000</ele>
        <time>2009-07-05T10:21:47Z</time>
      </trkpt>
      <trkpt lat="45.9161230" lon="9.0091760">
        <ele>1331.0600000</ele>
        <time>2009-07-05T10:21:57Z</time>
      </trkpt>
      <trkpt lat="45.9162230" lon="9.0093640">
        <ele>1332.7200000</ele>
        <time>2009-07-05T10:22:05Z</time>
      </trkpt>
      <trkpt lat="45.9162850" lon="9.0095700">
        <ele>1334.2700000</ele>
        <time>2009-07-05T10:22:13Z</time>
      </trkpt>
      <trkpt lat="45.9162960" lon="9.0098450">
        <ele>1335.9600000</ele>
        <time>2009-07-05T10:22:23Z</time>
      </trkpt>
      <trkpt lat="45.9162750" lon="9.0100190">
        <ele>1336.5200000</ele>
        <time>2009-07-05T10:22:31Z</time>
      </trkpt>
      <trkpt lat="45.9162670" lon="9.0100930">
        <ele>1336.9300000</ele>
        <time>2009-07-05T10:22:38Z</time>
      </trkpt>
      <trkpt lat="45.9162700" lon="9.0100940">
        <ele>1337.0200000</ele>
        <time>2009-07-05T10:22:57Z</time>
      </trkpt>
      <trkpt lat="45.9162700" lon="9.0102110">
        <ele>1338.2400000</ele>
        <time>2009-07-05T10:23:03Z</time>
      </trkpt>
      <trkpt lat="45.9162900" lon="9.0104130">
        <ele>1339.0800000</ele>
        <time>2009-07-05T10:23:11Z</time>
      </trkpt>
      <trkpt lat="45.9163670" lon="9.0105840">
        <ele>1340.4400000</ele>
        <time>2009-07-05T10:23:19Z</time>
      </trkpt>
      <trkpt lat="45.9164840" lon="9.0107860">
        <ele>1341.5600000</ele>
        <time>2009-07-05T10:23:28Z</time>
      </trkpt>
      <trkpt lat="45.9165970" lon="9.0110470">
        <ele>1343.8000000</ele>
        <time>2009-07-05T10:23:39Z</time>
      </trkpt>
      <trkpt lat="45.9166530" lon="9.0112800">
        <ele>1345.0900000</ele>
        <time>2009-07-05T10:23:48Z</time>
      </trkpt>
      <trkpt lat="45.9166760" lon="9.0115430">
        <ele>1346.6700000</ele>
        <time>2009-07-05T10:23:58Z</time>
      </trkpt>
      <trkpt lat="45.9166890" lon="9.0117760">
        <ele>1348.4600000</ele>
        <time>2009-07-05T10:24:07Z</time>
      </trkpt>
      <trkpt lat="45.9167030" lon="9.0120000">
        <ele>1350.3400000</ele>
        <time>2009-07-05T10:24:16Z</time>
      </trkpt>
      <trkpt lat="45.9167090" lon="9.0122540">
        <ele>1351.9900000</ele>
        <time>2009-07-05T10:24:26Z</time>
      </trkpt>
      <trkpt lat="45.9167140" lon="9.0124120">
        <ele>1353.1800000</ele>
        <time>2009-07-05T10:24:32Z</time>
      </trkpt>
      <trkpt lat="45.9167040" lon="9.0126550">
        <ele>1355.2100000</ele>
        <time>2009-07-05T10:24:42Z</time>
      </trkpt>
      <trkpt lat="45.9167270" lon="9.0128170">
        <ele>1357.4600000</ele>
        <time>2009-07-05T10:24:50Z</time>
      </trkpt>
      <trkpt lat="45.9167250" lon="9.0128740">
        <ele>1358.2000000</ele>
        <time>2009-07-05T10:24:53Z</time>
      </trkpt>
      <trkpt lat="45.9167820" lon="9.0129810">
        <ele>1358.9500000</ele>
        <time>2009-07-05T10:25:00Z</time>
      </trkpt>
      <trkpt lat="45.9168000" lon="9.0129760">
        <ele>1358.6300000</ele>
        <time>2009-07-05T10:25:01Z</time>
      </trkpt>
      <trkpt lat="45.9169290" lon="9.0129060">
        <ele>1358.4600000</ele>
        <time>2009-07-05T10:25:07Z</time>
      </trkpt>
      <trkpt lat="45.9169950" lon="9.0128370">
        <ele>1359.5800000</ele>
        <time>2009-07-05T10:25:11Z</time>
      </trkpt>
      <trkpt lat="45.9170690" lon="9.0127480">
        <ele>1361.2300000</ele>
        <time>2009-07-05T10:25:16Z</time>
      </trkpt>
      <trkpt lat="45.9171640" lon="9.0126640">
        <ele>1361.7400000</ele>
        <time>2009-07-05T10:25:22Z</time>
      </trkpt>
      <trkpt lat="45.9172830" lon="9.0126110">
        <ele>1363.2000000</ele>
        <time>2009-07-05T10:25:29Z</time>
      </trkpt>
      <trkpt lat="45.9173840" lon="9.0125630">
        <ele>1363.6500000</ele>
        <time>2009-07-05T10:25:34Z</time>
      </trkpt>
      <trkpt lat="45.9174780" lon="9.0125380">
        <ele>1364.4400000</ele>
        <time>2009-07-05T10:25:40Z</time>
      </trkpt>
      <trkpt lat="45.9176290" lon="9.0124970">
        <ele>1365.4200000</ele>
        <time>2009-07-05T10:25:46Z</time>
      </trkpt>
      <trkpt lat="45.9177540" lon="9.0124450">
        <ele>1365.8000000</ele>
        <time>2009-07-05T10:25:51Z</time>
      </trkpt>
      <trkpt lat="45.9178560" lon="9.0123580">
        <ele>1367.6300000</ele>
        <time>2009-07-05T10:25:56Z</time>
      </trkpt>
      <trkpt lat="45.9179700" lon="9.0122610">
        <ele>1369.3100000</ele>
        <time>2009-07-05T10:26:02Z</time>
      </trkpt>
      <trkpt lat="45.9179880" lon="9.0122440">
        <ele>1369.3900000</ele>
        <time>2009-07-05T10:26:03Z</time>
      </trkpt>
      <trkpt lat="45.9180680" lon="9.0122100">
        <ele>1369.8400000</ele>
        <time>2009-07-05T10:26:07Z</time>
      </trkpt>
      <trkpt lat="45.9182190" lon="9.0121620">
        <ele>1371.4200000</ele>
        <time>2009-07-05T10:26:15Z</time>
      </trkpt>
      <trkpt lat="45.9183320" lon="9.0122380">
        <ele>1372.0700000</ele>
        <time>2009-07-05T10:26:20Z</time>
      </trkpt>
      <trkpt lat="45.9184990" lon="9.0123030">
        <ele>1372.3300000</ele>
        <time>2009-07-05T10:26:26Z</time>
      </trkpt>
      <trkpt lat="45.9186260" lon="9.0123710">
        <ele>1374.1500000</ele>
        <time>2009-07-05T10:26:32Z</time>
      </trkpt>
      <trkpt lat="45.9187860" lon="9.0125310">
        <ele>1375.8900000</ele>
        <time>2009-07-05T10:26:42Z</time>
      </trkpt>
      <trkpt lat="45.9188870" lon="9.0126390">
        <ele>1378.4500000</ele>
        <time>2009-07-05T10:26:50Z</time>
      </trkpt>
      <trkpt lat="45.9190080" lon="9.0127620">
        <ele>1379.9700000</ele>
        <time>2009-07-05T10:27:01Z</time>
      </trkpt>
      <trkpt lat="45.9191280" lon="9.0128690">
        <ele>1382.0600000</ele>
        <time>2009-07-05T10:27:11Z</time>
      </trkpt>
      <trkpt lat="45.9192070" lon="9.0129620">
        <ele>1382.9800000</ele>
        <time>2009-07-05T10:27:18Z</time>
      </trkpt>
      <trkpt lat="45.9192840" lon="9.0130540">
        <ele>1384.5700000</ele>
        <time>2009-07-05T10:27:25Z</time>
      </trkpt>
      <trkpt lat="45.9193550" lon="9.0131540">
        <ele>1386.2700000</ele>
        <time>2009-07-05T10:27:33Z</time>
      </trkpt>
      <trkpt lat="45.9194210" lon="9.0132680">
        <ele>1387.0900000</ele>
        <time>2009-07-05T10:27:41Z</time>
      </trkpt>
      <trkpt lat="45.9194520" lon="9.0133660">
        <ele>1387.4900000</ele>
        <time>2009-07-05T10:27:47Z</time>
      </trkpt>
      <trkpt lat="45.9194920" lon="9.0135430">
        <ele>1388.8600000</ele>
        <time>2009-07-05T10:27:55Z</time>
      </trkpt>
      <trkpt lat="45.9195280" lon="9.0137210">
        <ele>1389.9800000</ele>
        <time>2009-07-05T10:28:03Z</time>
      </trkpt>
      <trkpt lat="45.9195610" lon="9.0137880">
        <ele>1391.1500000</ele>
        <time>2009-07-05T10:28:07Z</time>
      </trkpt>
      <trkpt lat="45.9195700" lon="9.0138250">
        <ele>1391.6900000</ele>
        <time>2009-07-05T10:28:13Z</time>
      </trkpt>
      <trkpt lat="45.9195690" lon="9.0138250">
        <ele>1391.5600000</ele>
        <time>2009-07-05T10:28:14Z</time>
      </trkpt>
      <trkpt lat="45.9195880" lon="9.0138680">
        <ele>1391.8300000</ele>
        <time>2009-07-05T10:28:20Z</time>
      </trkpt>
      <trkpt lat="45.9196040" lon="9.0139300">
        <ele>1392.7900000</ele>
        <time>2009-07-05T10:28:24Z</time>
      </trkpt>
      <trkpt lat="45.9196640" lon="9.0140890">
        <ele>1394.2100000</ele>
        <time>2009-07-05T10:28:32Z</time>
      </trkpt>
      <trkpt lat="45.9196860" lon="9.0141830">
        <ele>1394.8900000</ele>
        <time>2009-07-05T10:28:37Z</time>
      </trkpt>
      <trkpt lat="45.9197390" lon="9.0143190">
        <ele>1396.3100000</ele>
        <time>2009-07-05T10:28:46Z</time>
      </trkpt>
      <trkpt lat="45.9197990" lon="9.0144260">
        <ele>1397.8000000</ele>
        <time>2009-07-05T10:28:53Z</time>
      </trkpt>
      <trkpt lat="45.9198090" lon="9.0144380">
        <ele>1398.1500000</ele>
        <time>2009-07-05T10:28:54Z</time>
      </trkpt>
      <trkpt lat="45.9198430" lon="9.0144410">
        <ele>1398.9200000</ele>
        <time>2009-07-05T10:29:00Z</time>
      </trkpt>
      <trkpt lat="45.9198460" lon="9.0144350">
        <ele>1398.8500000</ele>
        <time>2009-07-05T10:29:03Z</time>
      </trkpt>
      <trkpt lat="45.9199190" lon="9.0143720">
        <ele>1399.8500000</ele>
        <time>2009-07-05T10:29:11Z</time>
      </trkpt>
      <trkpt lat="45.9199790" lon="9.0143200">
        <ele>1400.0500000</ele>
        <time>2009-07-05T10:29:16Z</time>
      </trkpt>
      <trkpt lat="45.9200670" lon="9.0142050">
        <ele>1400.1600000</ele>
        <time>2009-07-05T10:29:23Z</time>
      </trkpt>
      <trkpt lat="45.9201140" lon="9.0141560">
        <ele>1400.5500000</ele>
        <time>2009-07-05T10:29:27Z</time>
      </trkpt>
      <trkpt lat="45.9201870" lon="9.0140780">
        <ele>1401.1600000</ele>
        <time>2009-07-05T10:29:31Z</time>
      </trkpt>
      <trkpt lat="45.9202510" lon="9.0139950">
        <ele>1401.7600000</ele>
        <time>2009-07-05T10:29:36Z</time>
      </trkpt>
      <trkpt lat="45.9202650" lon="9.0139620">
        <ele>1402.3400000</ele>
        <time>2009-07-05T10:29:38Z</time>
      </trkpt>
      <trkpt lat="45.9203570" lon="9.0138700">
        <ele>1402.6900000</ele>
        <time>2009-07-05T10:29:44Z</time>
      </trkpt>
      <trkpt lat="45.9204390" lon="9.0138020">
        <ele>1403.7600000</ele>
        <time>2009-07-05T10:29:49Z</time>
      </trkpt>
      <trkpt lat="45.9205260" lon="9.0137490">
        <ele>1405.6300000</ele>
        <time>2009-07-05T10:29:56Z</time>
      </trkpt>
      <trkpt lat="45.9205960" lon="9.0137510">
        <ele>1406.1900000</ele>
        <time>2009-07-05T10:30:02Z</time>
      </trkpt>
      <trkpt lat="45.9206450" lon="9.0137200">
        <ele>1407.5200000</ele>
        <time>2009-07-05T10:30:06Z</time>
      </trkpt>
      <trkpt lat="45.9206880" lon="9.0136710">
        <ele>1408.2400000</ele>
        <time>2009-07-05T10:30:11Z</time>
      </trkpt>
      <trkpt lat="45.9207230" lon="9.0136730">
        <ele>1408.9600000</ele>
        <time>2009-07-05T10:30:46Z</time>
      </trkpt>
      <trkpt lat="45.9208060" lon="9.0136890">
        <ele>1409.9100000</ele>
        <time>2009-07-05T10:30:55Z</time>
      </trkpt>
      <trkpt lat="45.9208990" lon="9.0136840">
        <ele>1412.7600000</ele>
        <time>2009-07-05T10:31:05Z</time>
      </trkpt>
      <trkpt lat="45.9209370" lon="9.0136580">
        <ele>1413.9700000</ele>
        <time>2009-07-05T10:31:12Z</time>
      </trkpt>
      <trkpt lat="45.9209640" lon="9.0136580">
        <ele>1414.1900000</ele>
        <time>2009-07-05T10:31:18Z</time>
      </trkpt>
      <trkpt lat="45.9209740" lon="9.0136560">
        <ele>1414.4900000</ele>
        <time>2009-07-05T10:31:19Z</time>
      </trkpt>
      <trkpt lat="45.9210770" lon="9.0136840">
        <ele>1416.5200000</ele>
        <time>2009-07-05T10:31:28Z</time>
      </trkpt>
      <trkpt lat="45.9211100" lon="9.0136860">
        <ele>1417.2500000</ele>
        <time>2009-07-05T10:31:31Z</time>
      </trkpt>
      <trkpt lat="45.9211900" lon="9.0137020">
        <ele>1418.6900000</ele>
        <time>2009-07-05T10:31:39Z</time>
      </trkpt>
      <trkpt lat="45.9212470" lon="9.0137020">
        <ele>1419.6400000</ele>
        <time>2009-07-05T10:31:45Z</time>
      </trkpt>
      <trkpt lat="45.9212690" lon="9.0137110">
        <ele>1420.1600000</ele>
        <time>2009-07-05T10:32:03Z</time>
      </trkpt>
      <trkpt lat="45.9212920" lon="9.0137160">
        <ele>1420.9700000</ele>
        <time>2009-07-05T10:32:10Z</time>
      </trkpt>
      <trkpt lat="45.9213200" lon="9.0137070">
        <ele>1421.4000000</ele>
        <time>2009-07-05T10:32:14Z</time>
      </trkpt>
      <trkpt lat="45.9214040" lon="9.0137140">
        <ele>1422.2500000</ele>
        <time>2009-07-05T10:32:21Z</time>
      </trkpt>
      <trkpt lat="45.9214710" lon="9.0137180">
        <ele>1423.3000000</ele>
        <time>2009-07-05T10:32:28Z</time>
      </trkpt>
      <trkpt lat="45.9215200" lon="9.0137080">
        <ele>1424.7600000</ele>
        <time>2009-07-05T10:32:35Z</time>
      </trkpt>
      <trkpt lat="45.9215580" lon="9.0136950">
        <ele>1425.7800000</ele>
        <time>2009-07-05T10:32:41Z</time>
      </trkpt>
      <trkpt lat="45.9216300" lon="9.0136840">
        <ele>1427.2200000</ele>
        <time>2009-07-05T10:32:51Z</time>
      </trkpt>
      <trkpt lat="45.9216850" lon="9.0136850">
        <ele>1428.4800000</ele>
        <time>2009-07-05T10:32:59Z</time>
      </trkpt>
      <trkpt lat="45.9217300" lon="9.0137120">
        <ele>1428.9700000</ele>
        <time>2009-07-05T10:33:23Z</time>
      </trkpt>
      <trkpt lat="45.9218260" lon="9.0137400">
        <ele>1431.1700000</ele>
        <time>2009-07-05T10:33:33Z</time>
      </trkpt>
      <trkpt lat="45.9218540" lon="9.0137510">
        <ele>1431.5900000</ele>
        <time>2009-07-05T10:33:36Z</time>
      </trkpt>
      <trkpt lat="45.9219120" lon="9.0137510">
        <ele>1433.4000000</ele>
        <time>2009-07-05T10:33:44Z</time>
      </trkpt>
      <trkpt lat="45.9219700" lon="9.0137440">
        <ele>1434.5000000</ele>
        <time>2009-07-05T10:33:50Z</time>
      </trkpt>
      <trkpt lat="45.9220210" lon="9.0137540">
        <ele>1436.1200000</ele>
        <time>2009-07-05T10:33:59Z</time>
      </trkpt>
      <trkpt lat="45.9220320" lon="9.0137580">
        <ele>1436.1600000</ele>
        <time>2009-07-05T10:34:01Z</time>
      </trkpt>
      <trkpt lat="45.9220820" lon="9.0137720">
        <ele>1437.3200000</ele>
        <time>2009-07-05T10:34:09Z</time>
      </trkpt>
      <trkpt lat="45.9221320" lon="9.0137830">
        <ele>1438.5700000</ele>
        <time>2009-07-05T10:34:17Z</time>
      </trkpt>
      <trkpt lat="45.9221460" lon="9.0137870">
        <ele>1438.6000000</ele>
        <time>2009-07-05T10:34:19Z</time>
      </trkpt>
      <trkpt lat="45.9221940" lon="9.0138020">
        <ele>1439.5300000</ele>
        <time>2009-07-05T10:34:25Z</time>
      </trkpt>
      <trkpt lat="45.9222470" lon="9.0138370">
        <ele>1440.4200000</ele>
        <time>2009-07-05T10:34:32Z</time>
      </trkpt>
      <trkpt lat="45.9222960" lon="9.0138780">
        <ele>1441.5800000</ele>
        <time>2009-07-05T10:34:39Z</time>
      </trkpt>
      <trkpt lat="45.9223720" lon="9.0139180">
        <ele>1442.3400000</ele>
        <time>2009-07-05T10:34:48Z</time>
      </trkpt>
      <trkpt lat="45.9224340" lon="9.0139480">
        <ele>1443.5900000</ele>
        <time>2009-07-05T10:34:55Z</time>
      </trkpt>
      <trkpt lat="45.9224740" lon="9.0139760">
        <ele>1444.4800000</ele>
        <time>2009-07-05T10:35:02Z</time>
      </trkpt>
      <trkpt lat="45.9225370" lon="9.0140050">
        <ele>1446.1200000</ele>
        <time>2009-07-05T10:35:10Z</time>
      </trkpt>
      <trkpt lat="45.9226000" lon="9.0140570">
        <ele>1447.1900000</ele>
        <time>2009-07-05T10:35:18Z</time>
      </trkpt>
      <trkpt lat="45.9226610" lon="9.0141350">
        <ele>1448.2500000</ele>
        <time>2009-07-05T10:35:26Z</time>
      </trkpt>
      <trkpt lat="45.9227300" lon="9.0141720">
        <ele>1450.2300000</ele>
        <time>2009-07-05T10:35:35Z</time>
      </trkpt>
      <trkpt lat="45.9227730" lon="9.0141940">
        <ele>1451.1100000</ele>
        <time>2009-07-05T10:35:42Z</time>
      </trkpt>
      <trkpt lat="45.9228050" lon="9.0142210">
        <ele>1452.3500000</ele>
        <time>2009-07-05T10:35:47Z</time>
      </trkpt>
      <trkpt lat="45.9228590" lon="9.0142670">
        <ele>1453.3800000</ele>
        <time>2009-07-05T10:35:55Z</time>
      </trkpt>
      <trkpt lat="45.9228750" lon="9.0142740">
        <ele>1453.5900000</ele>
        <time>2009-07-05T10:35:57Z</time>
      </trkpt>
      <trkpt lat="45.9229140" lon="9.0142810">
        <ele>1454.9300000</ele>
        <time>2009-07-05T10:36:02Z</time>
      </trkpt>
      <trkpt lat="45.9229650" lon="9.0143410">
        <ele>1455.8400000</ele>
        <time>2009-07-05T10:36:11Z</time>
      </trkpt>
      <trkpt lat="45.9229670" lon="9.0143440">
        <ele>1455.9300000</ele>
        <time>2009-07-05T10:36:12Z</time>
      </trkpt>
      <trkpt lat="45.9229860" lon="9.0143590">
        <ele>1456.9100000</ele>
        <time>2009-07-05T10:36:15Z</time>
      </trkpt>
      <trkpt lat="45.9230350" lon="9.0144100">
        <ele>1457.9600000</ele>
        <time>2009-07-05T10:36:23Z</time>
      </trkpt>
      <trkpt lat="45.9231000" lon="9.0144670">
        <ele>1458.7200000</ele>
        <time>2009-07-05T10:36:32Z</time>
      </trkpt>
      <trkpt lat="45.9231580" lon="9.0145050">
        <ele>1459.8400000</ele>
        <time>2009-07-05T10:36:40Z</time>
      </trkpt>
      <trkpt lat="45.9231890" lon="9.0145110">
        <ele>1460.4100000</ele>
        <time>2009-07-05T10:36:44Z</time>
      </trkpt>
      <trkpt lat="45.9232630" lon="9.0145470">
        <ele>1461.3300000</ele>
        <time>2009-07-05T10:36:53Z</time>
      </trkpt>
      <trkpt lat="45.9233000" lon="9.0145720">
        <ele>1462.2800000</ele>
        <time>2009-07-05T10:36:59Z</time>
      </trkpt>
      <trkpt lat="45.9233360" lon="9.0145730">
        <ele>1463.5600000</ele>
        <time>2009-07-05T10:37:05Z</time>
      </trkpt>
      <trkpt lat="45.9234140" lon="9.0146080">
        <ele>1465.6700000</ele>
        <time>2009-07-05T10:37:15Z</time>
      </trkpt>
      <trkpt lat="45.9234880" lon="9.0146290">
        <ele>1466.8700000</ele>
        <time>2009-07-05T10:37:24Z</time>
      </trkpt>
      <trkpt lat="45.9235550" lon="9.0146660">
        <ele>1468.3300000</ele>
        <time>2009-07-05T10:37:32Z</time>
      </trkpt>
      <trkpt lat="45.9236270" lon="9.0146910">
        <ele>1469.1100000</ele>
        <time>2009-07-05T10:37:40Z</time>
      </trkpt>
      <trkpt lat="45.9236890" lon="9.0147230">
        <ele>1469.6800000</ele>
        <time>2009-07-05T10:37:47Z</time>
      </trkpt>
      <trkpt lat="45.9237110" lon="9.0147440">
        <ele>1470.4300000</ele>
        <time>2009-07-05T10:37:50Z</time>
      </trkpt>
      <trkpt lat="45.9237730" lon="9.0148180">
        <ele>1470.9800000</ele>
        <time>2009-07-05T10:37:58Z</time>
      </trkpt>
      <trkpt lat="45.9238340" lon="9.0148650">
        <ele>1472.4800000</ele>
        <time>2009-07-05T10:38:06Z</time>
      </trkpt>
      <trkpt lat="45.9239100" lon="9.0149040">
        <ele>1473.9400000</ele>
        <time>2009-07-05T10:38:15Z</time>
      </trkpt>
      <trkpt lat="45.9239750" lon="9.0149380">
        <ele>1475.1600000</ele>
        <time>2009-07-05T10:38:23Z</time>
      </trkpt>
      <trkpt lat="45.9240350" lon="9.0149740">
        <ele>1476.4700000</ele>
        <time>2009-07-05T10:38:31Z</time>
      </trkpt>
      <trkpt lat="45.9241000" lon="9.0150280">
        <ele>1477.2300000</ele>
        <time>2009-07-05T10:38:40Z</time>
      </trkpt>
      <trkpt lat="45.9241480" lon="9.0150540">
        <ele>1478.4000000</ele>
        <time>2009-07-05T10:38:48Z</time>
      </trkpt>
      <trkpt lat="45.9241970" lon="9.0151010">
        <ele>1479.4900000</ele>
        <time>2009-07-05T10:38:55Z</time>
      </trkpt>
      <trkpt lat="45.9242500" lon="9.0151320">
        <ele>1480.5400000</ele>
        <time>2009-07-05T10:39:02Z</time>
      </trkpt>
      <trkpt lat="45.9242720" lon="9.0151460">
        <ele>1481.1700000</ele>
        <time>2009-07-05T10:39:05Z</time>
      </trkpt>
      <trkpt lat="45.9243020" lon="9.0151870">
        <ele>1481.8100000</ele>
        <time>2009-07-05T10:39:10Z</time>
      </trkpt>
      <trkpt lat="45.9243490" lon="9.0151970">
        <ele>1482.9600000</ele>
        <time>2009-07-05T10:39:16Z</time>
      </trkpt>
      <trkpt lat="45.9244040" lon="9.0152390">
        <ele>1484.6200000</ele>
        <time>2009-07-05T10:39:24Z</time>
      </trkpt>
      <trkpt lat="45.9244160" lon="9.0152760">
        <ele>1484.7200000</ele>
        <time>2009-07-05T10:39:32Z</time>
      </trkpt>
      <trkpt lat="45.9244240" lon="9.0153030">
        <ele>1485.1700000</ele>
        <time>2009-07-05T10:39:39Z</time>
      </trkpt>
      <trkpt lat="45.9244560" lon="9.0153160">
        <ele>1486.9300000</ele>
        <time>2009-07-05T10:42:08Z</time>
      </trkpt>
      <trkpt lat="45.9245290" lon="9.0153540">
        <ele>1488.6800000</ele>
        <time>2009-07-05T10:42:16Z</time>
      </trkpt>
      <trkpt lat="45.9245500" lon="9.0153820">
        <ele>1488.9500000</ele>
        <time>2009-07-05T10:42:20Z</time>
      </trkpt>
      <trkpt lat="45.9246150" lon="9.0154280">
        <ele>1490.0300000</ele>
        <time>2009-07-05T10:42:27Z</time>
      </trkpt>
      <trkpt lat="45.9246780" lon="9.0154630">
        <ele>1490.9500000</ele>
        <time>2009-07-05T10:42:34Z</time>
      </trkpt>
      <trkpt lat="45.9247390" lon="9.0155010">
        <ele>1492.1100000</ele>
        <time>2009-07-05T10:42:42Z</time>
      </trkpt>
      <trkpt lat="45.9247840" lon="9.0155330">
        <ele>1493.1200000</ele>
        <time>2009-07-05T10:42:48Z</time>
      </trkpt>
      <trkpt lat="45.9248660" lon="9.0155880">
        <ele>1494.5500000</ele>
        <time>2009-07-05T10:42:58Z</time>
      </trkpt>
      <trkpt lat="45.9248800" lon="9.0155990">
        <ele>1495.1300000</ele>
        <time>2009-07-05T10:43:00Z</time>
      </trkpt>
      <trkpt lat="45.9249210" lon="9.0156110">
        <ele>1496.3500000</ele>
        <time>2009-07-05T10:43:06Z</time>
      </trkpt>
      <trkpt lat="45.9249330" lon="9.0156170">
        <ele>1496.5700000</ele>
        <time>2009-07-05T10:43:08Z</time>
      </trkpt>
      <trkpt lat="45.9249950" lon="9.0156670">
        <ele>1497.6200000</ele>
        <time>2009-07-05T10:43:16Z</time>
      </trkpt>
      <trkpt lat="45.9250310" lon="9.0156950">
        <ele>1498.6100000</ele>
        <time>2009-07-05T10:43:21Z</time>
      </trkpt>
      <trkpt lat="45.9250910" lon="9.0157150">
        <ele>1499.5400000</ele>
        <time>2009-07-05T10:43:30Z</time>
      </trkpt>
      <trkpt lat="45.9251080" lon="9.0157290">
        <ele>1500.0900000</ele>
        <time>2009-07-05T10:43:38Z</time>
      </trkpt>
      <trkpt lat="45.9251140" lon="9.0157310">
        <ele>1500.0100000</ele>
        <time>2009-07-05T10:43:41Z</time>
      </trkpt>
      <trkpt lat="45.9251740" lon="9.0158100">
        <ele>1501.5600000</ele>
        <time>2009-07-05T10:43:50Z</time>
      </trkpt>
      <trkpt lat="45.9252310" lon="9.0158690">
        <ele>1503.2000000</ele>
        <time>2009-07-05T10:43:59Z</time>
      </trkpt>
      <trkpt lat="45.9252690" lon="9.0159070">
        <ele>1504.2000000</ele>
        <time>2009-07-05T10:44:05Z</time>
      </trkpt>
      <trkpt lat="45.9253140" lon="9.0159690">
        <ele>1505.3700000</ele>
        <time>2009-07-05T10:44:14Z</time>
      </trkpt>
      <trkpt lat="45.9253700" lon="9.0160310">
        <ele>1506.7000000</ele>
        <time>2009-07-05T10:44:23Z</time>
      </trkpt>
      <trkpt lat="45.9254180" lon="9.0160820">
        <ele>1507.8200000</ele>
        <time>2009-07-05T10:44:32Z</time>
      </trkpt>
      <trkpt lat="45.9254580" lon="9.0161210">
        <ele>1508.8700000</ele>
        <time>2009-07-05T10:44:39Z</time>
      </trkpt>
      <trkpt lat="45.9255070" lon="9.0161660">
        <ele>1510.3100000</ele>
        <time>2009-07-05T10:44:46Z</time>
      </trkpt>
      <trkpt lat="45.9255430" lon="9.0162120">
        <ele>1511.0300000</ele>
        <time>2009-07-05T10:44:53Z</time>
      </trkpt>
      <trkpt lat="45.9255920" lon="9.0162910">
        <ele>1512.3200000</ele>
        <time>2009-07-05T10:45:01Z</time>
      </trkpt>
      <trkpt lat="45.9256460" lon="9.0163520">
        <ele>1513.4300000</ele>
        <time>2009-07-05T10:45:09Z</time>
      </trkpt>
      <trkpt lat="45.9256860" lon="9.0164040">
        <ele>1514.9200000</ele>
        <time>2009-07-05T10:45:16Z</time>
      </trkpt>
      <trkpt lat="45.9257150" lon="9.0164330">
        <ele>1515.4300000</ele>
        <time>2009-07-05T10:45:22Z</time>
      </trkpt>
      <trkpt lat="45.9257780" lon="9.0165020">
        <ele>1516.5600000</ele>
        <time>2009-07-05T10:45:32Z</time>
      </trkpt>
      <trkpt lat="45.9257880" lon="9.0165130">
        <ele>1517.1200000</ele>
        <time>2009-07-05T10:45:34Z</time>
      </trkpt>
      <trkpt lat="45.9258500" lon="9.0165980">
        <ele>1518.6600000</ele>
        <time>2009-07-05T10:45:44Z</time>
      </trkpt>
      <trkpt lat="45.9259170" lon="9.0166800">
        <ele>1520.1600000</ele>
        <time>2009-07-05T10:45:54Z</time>
      </trkpt>
      <trkpt lat="45.9259720" lon="9.0167520">
        <ele>1522.0800000</ele>
        <time>2009-07-05T10:46:03Z</time>
      </trkpt>
      <trkpt lat="45.9260020" lon="9.0167970">
        <ele>1523.0000000</ele>
        <time>2009-07-05T10:46:10Z</time>
      </trkpt>
      <trkpt lat="45.9260500" lon="9.0168550">
        <ele>1524.1100000</ele>
        <time>2009-07-05T10:46:18Z</time>
      </trkpt>
      <trkpt lat="45.9260900" lon="9.0169180">
        <ele>1525.1000000</ele>
        <time>2009-07-05T10:46:26Z</time>
      </trkpt>
      <trkpt lat="45.9261240" lon="9.0169700">
        <ele>1525.8600000</ele>
        <time>2009-07-05T10:46:33Z</time>
      </trkpt>
      <trkpt lat="45.9261690" lon="9.0170250">
        <ele>1526.9200000</ele>
        <time>2009-07-05T10:46:41Z</time>
      </trkpt>
      <trkpt lat="45.9261940" lon="9.0170770">
        <ele>1527.8600000</ele>
        <time>2009-07-05T10:46:48Z</time>
      </trkpt>
      <trkpt lat="45.9262540" lon="9.0171720">
        <ele>1529.0500000</ele>
        <time>2009-07-05T10:46:58Z</time>
      </trkpt>
      <trkpt lat="45.9263030" lon="9.0172600">
        <ele>1530.0200000</ele>
        <time>2009-07-05T10:47:07Z</time>
      </trkpt>
      <trkpt lat="45.9263480" lon="9.0173250">
        <ele>1531.0400000</ele>
        <time>2009-07-05T10:47:16Z</time>
      </trkpt>
      <trkpt lat="45.9263970" lon="9.0174190">
        <ele>1532.2900000</ele>
        <time>2009-07-05T10:47:25Z</time>
      </trkpt>
      <trkpt lat="45.9264480" lon="9.0174920">
        <ele>1534.1900000</ele>
        <time>2009-07-05T10:47:35Z</time>
      </trkpt>
      <trkpt lat="45.9264980" lon="9.0175670">
        <ele>1535.4200000</ele>
        <time>2009-07-05T10:47:45Z</time>
      </trkpt>
      <trkpt lat="45.9265440" lon="9.0176300">
        <ele>1537.0400000</ele>
        <time>2009-07-05T10:47:54Z</time>
      </trkpt>
      <trkpt lat="45.9265820" lon="9.0177070">
        <ele>1538.2000000</ele>
        <time>2009-07-05T10:48:03Z</time>
      </trkpt>
      <trkpt lat="45.9266170" lon="9.0177640">
        <ele>1539.2100000</ele>
        <time>2009-07-05T10:48:10Z</time>
      </trkpt>
      <trkpt lat="45.9266540" lon="9.0178310">
        <ele>1540.8100000</ele>
        <time>2009-07-05T10:48:19Z</time>
      </trkpt>
      <trkpt lat="45.9267000" lon="9.0179150">
        <ele>1542.2600000</ele>
        <time>2009-07-05T10:48:29Z</time>
      </trkpt>
      <trkpt lat="45.9267420" lon="9.0179950">
        <ele>1543.4200000</ele>
        <time>2009-07-05T10:48:38Z</time>
      </trkpt>
      <trkpt lat="45.9267690" lon="9.0180590">
        <ele>1545.1400000</ele>
        <time>2009-07-05T10:48:47Z</time>
      </trkpt>
      <trkpt lat="45.9267890" lon="9.0181070">
        <ele>1545.3100000</ele>
        <time>2009-07-05T10:48:56Z</time>
      </trkpt>
      <trkpt lat="45.9268220" lon="9.0181570">
        <ele>1546.2100000</ele>
        <time>2009-07-05T10:49:02Z</time>
      </trkpt>
      <trkpt lat="45.9268660" lon="9.0182360">
        <ele>1548.2900000</ele>
        <time>2009-07-05T10:49:13Z</time>
      </trkpt>
      <trkpt lat="45.9269170" lon="9.0183130">
        <ele>1549.4800000</ele>
        <time>2009-07-05T10:49:24Z</time>
      </trkpt>
      <trkpt lat="45.9269650" lon="9.0183910">
        <ele>1550.8600000</ele>
        <time>2009-07-05T10:49:35Z</time>
      </trkpt>
      <trkpt lat="45.9270070" lon="9.0184420">
        <ele>1552.0300000</ele>
        <time>2009-07-05T10:49:43Z</time>
      </trkpt>
      <trkpt lat="45.9270700" lon="9.0185240">
        <ele>1553.4200000</ele>
        <time>2009-07-05T10:49:55Z</time>
      </trkpt>
      <trkpt lat="45.9271100" lon="9.0185740">
        <ele>1554.5900000</ele>
        <time>2009-07-05T10:50:02Z</time>
      </trkpt>
      <trkpt lat="45.9271660" lon="9.0186320">
        <ele>1555.5700000</ele>
        <time>2009-07-05T10:50:12Z</time>
      </trkpt>
      <trkpt lat="45.9272260" lon="9.0187000">
        <ele>1557.4900000</ele>
        <time>2009-07-05T10:50:23Z</time>
      </trkpt>
      <trkpt lat="45.9272920" lon="9.0187590">
        <ele>1558.8400000</ele>
        <time>2009-07-05T10:50:35Z</time>
      </trkpt>
      <trkpt lat="45.9273530" lon="9.0188280">
        <ele>1559.9700000</ele>
        <time>2009-07-05T10:50:45Z</time>
      </trkpt>
      <trkpt lat="45.9273830" lon="9.0188570">
        <ele>1561.1800000</ele>
        <time>2009-07-05T10:50:51Z</time>
      </trkpt>
      <trkpt lat="45.9274300" lon="9.0188990">
        <ele>1562.7800000</ele>
        <time>2009-07-05T10:50:59Z</time>
      </trkpt>
      <trkpt lat="45.9274890" lon="9.0189540">
        <ele>1564.4300000</ele>
        <time>2009-07-05T10:51:09Z</time>
      </trkpt>
      <trkpt lat="45.9275180" lon="9.0189820">
        <ele>1565.2300000</ele>
        <time>2009-07-05T10:51:14Z</time>
      </trkpt>
      <trkpt lat="45.9275950" lon="9.0190660">
        <ele>1567.1700000</ele>
        <time>2009-07-05T10:51:26Z</time>
      </trkpt>
      <trkpt lat="45.9276190" lon="9.0190740">
        <ele>1568.0500000</ele>
        <time>2009-07-05T10:51:32Z</time>
      </trkpt>
      <trkpt lat="45.9276700" lon="9.0191260">
        <ele>1569.2800000</ele>
        <time>2009-07-05T10:51:40Z</time>
      </trkpt>
      <trkpt lat="45.9277000" lon="9.0191580">
        <ele>1570.4200000</ele>
        <time>2009-07-05T10:51:46Z</time>
      </trkpt>
      <trkpt lat="45.9277580" lon="9.0192250">
        <ele>1571.5400000</ele>
        <time>2009-07-05T10:51:56Z</time>
      </trkpt>
      <trkpt lat="45.9278140" lon="9.0192930">
        <ele>1573.0500000</ele>
        <time>2009-07-05T10:52:05Z</time>
      </trkpt>
      <trkpt lat="45.9278860" lon="9.0193660">
        <ele>1574.7800000</ele>
        <time>2009-07-05T10:52:17Z</time>
      </trkpt>
      <trkpt lat="45.9279170" lon="9.0193940">
        <ele>1575.6800000</ele>
        <time>2009-07-05T10:52:23Z</time>
      </trkpt>
      <trkpt lat="45.9279610" lon="9.0194700">
        <ele>1577.3000000</ele>
        <time>2009-07-05T10:52:32Z</time>
      </trkpt>
      <trkpt lat="45.9280170" lon="9.0195630">
        <ele>1579.0800000</ele>
        <time>2009-07-05T10:52:43Z</time>
      </trkpt>
      <trkpt lat="45.9280590" lon="9.0196250">
        <ele>1580.3900000</ele>
        <time>2009-07-05T10:52:51Z</time>
      </trkpt>
      <trkpt lat="45.9281130" lon="9.0197130">
        <ele>1581.7900000</ele>
        <time>2009-07-05T10:53:01Z</time>
      </trkpt>
      <trkpt lat="45.9281410" lon="9.0197370">
        <ele>1582.6600000</ele>
        <time>2009-07-05T10:53:07Z</time>
      </trkpt>
      <trkpt lat="45.9281890" lon="9.0197800">
        <ele>1584.4900000</ele>
        <time>2009-07-05T10:53:15Z</time>
      </trkpt>
      <trkpt lat="45.9282100" lon="9.0198210">
        <ele>1585.9100000</ele>
        <time>2009-07-05T10:53:20Z</time>
      </trkpt>
      <trkpt lat="45.9282290" lon="9.0198610">
        <ele>1586.7700000</ele>
        <time>2009-07-05T10:53:25Z</time>
      </trkpt>
      <trkpt lat="45.9282480" lon="9.0199230">
        <ele>1586.6700000</ele>
        <time>2009-07-05T10:53:31Z</time>
      </trkpt>
      <trkpt lat="45.9282540" lon="9.0199000">
        <ele>1587.1800000</ele>
        <time>2009-07-05T10:53:37Z</time>
      </trkpt>
      <trkpt lat="45.9282630" lon="9.0198420">
        <ele>1588.4800000</ele>
        <time>2009-07-05T10:53:45Z</time>
      </trkpt>
      <trkpt lat="45.9282460" lon="9.0197270">
        <ele>1589.3800000</ele>
        <time>2009-07-05T10:53:54Z</time>
      </trkpt>
      <trkpt lat="45.9282170" lon="9.0196030">
        <ele>1590.2000000</ele>
        <time>2009-07-05T10:54:04Z</time>
      </trkpt>
      <trkpt lat="45.9282140" lon="9.0195920">
        <ele>1590.2400000</ele>
        <time>2009-07-05T10:54:05Z</time>
      </trkpt>
      <trkpt lat="45.9281930" lon="9.0194960">
        <ele>1589.9700000</ele>
        <time>2009-07-05T10:54:11Z</time>
      </trkpt>
      <trkpt lat="45.9281480" lon="9.0193260">
        <ele>1590.1000000</ele>
        <time>2009-07-05T10:54:18Z</time>
      </trkpt>
      <trkpt lat="45.9281120" lon="9.0191750">
        <ele>1590.0400000</ele>
        <time>2009-07-05T10:54:25Z</time>
      </trkpt>
      <trkpt lat="45.9280600" lon="9.0190610">
        <ele>1590.1900000</ele>
        <time>2009-07-05T10:54:31Z</time>
      </trkpt>
      <trkpt lat="45.9280580" lon="9.0190410">
        <ele>1590.0500000</ele>
        <time>2009-07-05T10:54:32Z</time>
      </trkpt>
      <trkpt lat="45.9280710" lon="9.0187240">
        <ele>1601.8800000</ele>
        <time>2009-07-05T11:31:05Z</time>
      </trkpt>
      <trkpt lat="45.9280470" lon="9.0186580">
        <ele>1601.6000000</ele>
        <time>2009-07-05T11:31:12Z</time>
      </trkpt>
      <trkpt lat="45.9280160" lon="9.0186320">
        <ele>1602.6700000</ele>
        <time>2009-07-05T11:32:49Z</time>
      </trkpt>
      <trkpt lat="45.9280190" lon="9.0186320">
        <ele>1602.2400000</ele>
        <time>2009-07-05T11:33:08Z</time>
      </trkpt>
      <trkpt lat="45.9280190" lon="9.0186490">
        <ele>1603.1400000</ele>
        <time>2009-07-05T11:33:14Z</time>
      </trkpt>
      <trkpt lat="45.9280080" lon="9.0186620">
        <ele>1605.4100000</ele>
        <time>2009-07-05T11:54:05Z</time>
      </trkpt>
      <trkpt lat="45.9280020" lon="9.0186600">
        <ele>1605.0700000</ele>
        <time>2009-07-05T11:54:12Z</time>
      </trkpt>
      <trkpt lat="45.9279680" lon="9.0186660">
        <ele>1605.5500000</ele>
        <time>2009-07-05T11:54:44Z</time>
      </trkpt>
      <trkpt lat="45.9279480" lon="9.0186900">
        <ele>1605.6400000</ele>
        <time>2009-07-05T11:54:46Z</time>
      </trkpt>
      <trkpt lat="45.9279410" lon="9.0187600">
        <ele>1605.0100000</ele>
        <time>2009-07-05T11:54:52Z</time>
      </trkpt>
      <trkpt lat="45.9279740" lon="9.0188590">
        <ele>1605.4800000</ele>
        <time>2009-07-05T11:55:01Z</time>
      </trkpt>
      <trkpt lat="45.9279870" lon="9.0189000">
        <ele>1605.3700000</ele>
        <time>2009-07-05T11:55:05Z</time>
      </trkpt>
      <trkpt lat="45.9280040" lon="9.0189310">
        <ele>1605.6100000</ele>
        <time>2009-07-05T11:55:09Z</time>
      </trkpt>
      <trkpt lat="45.9279800" lon="9.0190050">
        <ele>1605.9000000</ele>
        <time>2009-07-05T11:55:13Z</time>
      </trkpt>
      <trkpt lat="45.9280090" lon="9.0190950">
        <ele>1605.8300000</ele>
        <time>2009-07-05T11:55:18Z</time>
      </trkpt>
      <trkpt lat="45.9280210" lon="9.0191170">
        <ele>1605.7900000</ele>
        <time>2009-07-05T11:55:19Z</time>
      </trkpt>
      <trkpt lat="45.9280970" lon="9.0192820">
        <ele>1605.5800000</ele>
        <time>2009-07-05T11:55:27Z</time>
      </trkpt>
      <trkpt lat="45.9281730" lon="9.0193990">
        <ele>1605.8500000</ele>
        <time>2009-07-05T11:55:34Z</time>
      </trkpt>
      <trkpt lat="45.9281890" lon="9.0194250">
        <ele>1605.6300000</ele>
        <time>2009-07-05T11:55:41Z</time>
      </trkpt>
      <trkpt lat="45.9282010" lon="9.0194320">
        <ele>1606.3900000</ele>
        <time>2009-07-05T11:56:18Z</time>
      </trkpt>
      <trkpt lat="45.9282120" lon="9.0195040">
        <ele>1606.3200000</ele>
        <time>2009-07-05T11:56:25Z</time>
      </trkpt>
      <trkpt lat="45.9282320" lon="9.0196020">
        <ele>1606.5200000</ele>
        <time>2009-07-05T11:56:32Z</time>
      </trkpt>
      <trkpt lat="45.9282580" lon="9.0197340">
        <ele>1605.8700000</ele>
        <time>2009-07-05T11:56:37Z</time>
      </trkpt>
      <trkpt lat="45.9282850" lon="9.0198450">
        <ele>1605.4300000</ele>
        <time>2009-07-05T11:56:39Z</time>
      </trkpt>
      <trkpt lat="45.9283550" lon="9.0200240">
        <ele>1606.0800000</ele>
        <time>2009-07-05T11:56:43Z</time>
      </trkpt>
      <trkpt lat="45.9284570" lon="9.0201900">
        <ele>1608.6600000</ele>
        <time>2009-07-05T11:56:50Z</time>
      </trkpt>
      <trkpt lat="45.9285160" lon="9.0203230">
        <ele>1611.0800000</ele>
        <time>2009-07-05T11:56:55Z</time>
      </trkpt>
      <trkpt lat="45.9285240" lon="9.0203560">
        <ele>1611.3500000</ele>
        <time>2009-07-05T11:56:56Z</time>
      </trkpt>
      <trkpt lat="45.9285540" lon="9.0205000">
        <ele>1612.8600000</ele>
        <time>2009-07-05T11:57:01Z</time>
      </trkpt>
      <trkpt lat="45.9285920" lon="9.0206940">
        <ele>1611.9000000</ele>
        <time>2009-07-05T11:57:08Z</time>
      </trkpt>
      <trkpt lat="45.9286380" lon="9.0210080">
        <ele>1611.5100000</ele>
        <time>2009-07-05T11:57:14Z</time>
      </trkpt>
      <trkpt lat="45.9286810" lon="9.0214120">
        <ele>1610.9000000</ele>
        <time>2009-07-05T11:57:21Z</time>
      </trkpt>
      <trkpt lat="45.9287260" lon="9.0217600">
        <ele>1610.5500000</ele>
        <time>2009-07-05T11:57:28Z</time>
      </trkpt>
      <trkpt lat="45.9287850" lon="9.0220640">
        <ele>1611.1600000</ele>
        <time>2009-07-05T11:57:36Z</time>
      </trkpt>
      <trkpt lat="45.9288660" lon="9.0223910">
        <ele>1610.6200000</ele>
        <time>2009-07-05T11:57:45Z</time>
      </trkpt>
      <trkpt lat="45.9288430" lon="9.0227110">
        <ele>1608.1800000</ele>
        <time>2009-07-05T11:57:50Z</time>
      </trkpt>
      <trkpt lat="45.9288380" lon="9.0227830">
        <ele>1607.1600000</ele>
        <time>2009-07-05T11:57:51Z</time>
      </trkpt>
      <trkpt lat="45.9288420" lon="9.0232110">
        <ele>1603.7400000</ele>
        <time>2009-07-05T11:57:57Z</time>
      </trkpt>
      <trkpt lat="45.9288410" lon="9.0232510">
        <ele>1603.4500000</ele>
        <time>2009-07-05T11:57:58Z</time>
      </trkpt>
      <trkpt lat="45.9288630" lon="9.0235210">
        <ele>1602.4700000</ele>
        <time>2009-07-05T11:58:03Z</time>
      </trkpt>
      <trkpt lat="45.9288960" lon="9.0237750">
        <ele>1600.0000000</ele>
        <time>2009-07-05T11:58:08Z</time>
      </trkpt>
      <trkpt lat="45.9288970" lon="9.0238410">
        <ele>1599.2400000</ele>
        <time>2009-07-05T11:58:09Z</time>
      </trkpt>
      <trkpt lat="45.9288560" lon="9.0242640">
        <ele>1595.7600000</ele>
        <time>2009-07-05T11:58:14Z</time>
      </trkpt>
      <trkpt lat="45.9288770" lon="9.0244000">
        <ele>1594.5500000</ele>
        <time>2009-07-05T11:58:16Z</time>
      </trkpt>
      <trkpt lat="45.9289060" lon="9.0245620">
        <ele>1593.4500000</ele>
        <time>2009-07-05T11:58:23Z</time>
      </trkpt>
      <trkpt lat="45.9289050" lon="9.0245740">
        <ele>1593.0400000</ele>
        <time>2009-07-05T11:58:31Z</time>
      </trkpt>
      <trkpt lat="45.9289590" lon="9.0245130">
        <ele>1591.0100000</ele>
        <time>2009-07-05T11:58:35Z</time>
      </trkpt>
      <trkpt lat="45.9290810" lon="9.0242710">
        <ele>1583.9800000</ele>
        <time>2009-07-05T11:58:40Z</time>
      </trkpt>
      <trkpt lat="45.9291590" lon="9.0241010">
        <ele>1581.0800000</ele>
        <time>2009-07-05T11:58:43Z</time>
      </trkpt>
      <trkpt lat="45.9293010" lon="9.0238080">
        <ele>1577.2100000</ele>
        <time>2009-07-05T11:58:47Z</time>
      </trkpt>
      <trkpt lat="45.9294250" lon="9.0236270">
        <ele>1575.4400000</ele>
        <time>2009-07-05T11:58:50Z</time>
      </trkpt>
      <trkpt lat="45.9294620" lon="9.0235220">
        <ele>1574.3600000</ele>
        <time>2009-07-05T11:58:52Z</time>
      </trkpt>
      <trkpt lat="45.9295990" lon="9.0230490">
        <ele>1569.6100000</ele>
        <time>2009-07-05T11:58:57Z</time>
      </trkpt>
      <trkpt lat="45.9296660" lon="9.0228700">
        <ele>1567.9000000</ele>
        <time>2009-07-05T11:58:59Z</time>
      </trkpt>
      <trkpt lat="45.9297590" lon="9.0226920">
        <ele>1564.6400000</ele>
        <time>2009-07-05T11:59:02Z</time>
      </trkpt>
      <trkpt lat="45.9298870" lon="9.0225080">
        <ele>1560.8200000</ele>
        <time>2009-07-05T11:59:06Z</time>
      </trkpt>
      <trkpt lat="45.9299980" lon="9.0224040">
        <ele>1558.1700000</ele>
        <time>2009-07-05T11:59:10Z</time>
      </trkpt>
      <trkpt lat="45.9300760" lon="9.0223510">
        <ele>1556.9300000</ele>
        <time>2009-07-05T11:59:13Z</time>
      </trkpt>
      <trkpt lat="45.9301510" lon="9.0223880">
        <ele>1556.2900000</ele>
        <time>2009-07-05T11:59:15Z</time>
      </trkpt>
      <trkpt lat="45.9302840" lon="9.0224230">
        <ele>1556.0100000</ele>
        <time>2009-07-05T11:59:18Z</time>
      </trkpt>
      <trkpt lat="45.9303980" lon="9.0224620">
        <ele>1554.9400000</ele>
        <time>2009-07-05T11:59:20Z</time>
      </trkpt>
      <trkpt lat="45.9305340" lon="9.0225610">
        <ele>1554.3300000</ele>
        <time>2009-07-05T11:59:23Z</time>
      </trkpt>
      <trkpt lat="45.9306350" lon="9.0226320">
        <ele>1552.3400000</ele>
        <time>2009-07-05T11:59:25Z</time>
      </trkpt>
      <trkpt lat="45.9307300" lon="9.0227130">
        <ele>1549.7300000</ele>
        <time>2009-07-05T11:59:27Z</time>
      </trkpt>
      <trkpt lat="45.9308330" lon="9.0227680">
        <ele>1548.9800000</ele>
        <time>2009-07-05T11:59:29Z</time>
      </trkpt>
      <trkpt lat="45.9309480" lon="9.0227740">
        <ele>1546.8700000</ele>
        <time>2009-07-05T11:59:32Z</time>
      </trkpt>
      <trkpt lat="45.9310630" lon="9.0227350">
        <ele>1546.2000000</ele>
        <time>2009-07-05T11:59:35Z</time>
      </trkpt>
      <trkpt lat="45.9312080" lon="9.0226650">
        <ele>1544.6100000</ele>
        <time>2009-07-05T11:59:38Z</time>
      </trkpt>
      <trkpt lat="45.9313070" lon="9.0225950">
        <ele>1544.1900000</ele>
        <time>2009-07-05T11:59:41Z</time>
      </trkpt>
      <trkpt lat="45.9314790" lon="9.0224890">
        <ele>1544.4800000</ele>
        <time>2009-07-05T11:59:46Z</time>
      </trkpt>
      <trkpt lat="45.9316210" lon="9.0224390">
        <ele>1545.2300000</ele>
        <time>2009-07-05T11:59:51Z</time>
      </trkpt>
      <trkpt lat="45.9316830" lon="9.0223870">
        <ele>1545.4800000</ele>
        <time>2009-07-05T11:59:56Z</time>
      </trkpt>
      <trkpt lat="45.9317260" lon="9.0223320">
        <ele>1544.6300000</ele>
        <time>2009-07-05T12:00:03Z</time>
      </trkpt>
      <trkpt lat="45.9317280" lon="9.0223280">
        <ele>1544.6600000</ele>
        <time>2009-07-05T12:00:04Z</time>
      </trkpt>
      <trkpt lat="45.9317630" lon="9.0223590">
        <ele>1544.8000000</ele>
        <time>2009-07-05T12:00:08Z</time>
      </trkpt>
      <trkpt lat="45.9318710" lon="9.0225380">
        <ele>1542.0400000</ele>
        <time>2009-07-05T12:00:12Z</time>
      </trkpt>
      <trkpt lat="45.9318980" lon="9.0226600">
        <ele>1540.4200000</ele>
        <time>2009-07-05T12:00:14Z</time>
      </trkpt>
      <trkpt lat="45.9320620" lon="9.0231870">
        <ele>1534.0900000</ele>
        <time>2009-07-05T12:00:20Z</time>
      </trkpt>
      <trkpt lat="45.9320930" lon="9.0232810">
        <ele>1532.1400000</ele>
        <time>2009-07-05T12:00:21Z</time>
      </trkpt>
      <trkpt lat="45.9321890" lon="9.0235280">
        <ele>1530.0700000</ele>
        <time>2009-07-05T12:00:24Z</time>
      </trkpt>
      <trkpt lat="45.9322230" lon="9.0236030">
        <ele>1528.6500000</ele>
        <time>2009-07-05T12:00:25Z</time>
      </trkpt>
      <trkpt lat="45.9324280" lon="9.0238470">
        <ele>1526.7100000</ele>
        <time>2009-07-05T12:00:30Z</time>
      </trkpt>
      <trkpt lat="45.9324580" lon="9.0238770">
        <ele>1525.7900000</ele>
        <time>2009-07-05T12:00:31Z</time>
      </trkpt>
      <trkpt lat="45.9326150" lon="9.0240180">
        <ele>1522.8700000</ele>
        <time>2009-07-05T12:00:35Z</time>
      </trkpt>
      <trkpt lat="45.9328790" lon="9.0240880">
        <ele>1520.4000000</ele>
        <time>2009-07-05T12:00:40Z</time>
      </trkpt>
      <trkpt lat="45.9331340" lon="9.0240310">
        <ele>1518.1900000</ele>
        <time>2009-07-05T12:00:44Z</time>
      </trkpt>
      <trkpt lat="45.9332540" lon="9.0239980">
        <ele>1516.7000000</ele>
        <time>2009-07-05T12:00:46Z</time>
      </trkpt>
      <trkpt lat="45.9335080" lon="9.0238530">
        <ele>1514.2300000</ele>
        <time>2009-07-05T12:00:51Z</time>
      </trkpt>
      <trkpt lat="45.9336510" lon="9.0237500">
        <ele>1514.4000000</ele>
        <time>2009-07-05T12:00:56Z</time>
      </trkpt>
      <trkpt lat="45.9337730" lon="9.0236640">
        <ele>1514.9900000</ele>
        <time>2009-07-05T12:01:00Z</time>
      </trkpt>
      <trkpt lat="45.9339350" lon="9.0236010">
        <ele>1514.7400000</ele>
        <time>2009-07-05T12:01:05Z</time>
      </trkpt>
      <trkpt lat="45.9339750" lon="9.0236300">
        <ele>1514.9300000</ele>
        <time>2009-07-05T12:01:07Z</time>
      </trkpt>
      <trkpt lat="45.9340480" lon="9.0237640">
        <ele>1513.5000000</ele>
        <time>2009-07-05T12:01:10Z</time>
      </trkpt>
      <trkpt lat="45.9342640" lon="9.0240140">
        <ele>1509.9900000</ele>
        <time>2009-07-05T12:01:14Z</time>
      </trkpt>
      <trkpt lat="45.9343290" lon="9.0240370">
        <ele>1508.9500000</ele>
        <time>2009-07-05T12:01:15Z</time>
      </trkpt>
      <trkpt lat="45.9345220" lon="9.0240590">
        <ele>1506.0600000</ele>
        <time>2009-07-05T12:01:19Z</time>
      </trkpt>
      <trkpt lat="45.9346760" lon="9.0240210">
        <ele>1503.8000000</ele>
        <time>2009-07-05T12:01:23Z</time>
      </trkpt>
      <trkpt lat="45.9347460" lon="9.0241170">
        <ele>1503.2700000</ele>
        <time>2009-07-05T12:01:27Z</time>
      </trkpt>
      <trkpt lat="45.9347500" lon="9.0241450">
        <ele>1503.0600000</ele>
        <time>2009-07-05T12:01:31Z</time>
      </trkpt>
      <trkpt lat="45.9347690" lon="9.0242210">
        <ele>1502.5000000</ele>
        <time>2009-07-05T12:03:10Z</time>
      </trkpt>
      <trkpt lat="45.9347810" lon="9.0242750">
        <ele>1501.9500000</ele>
        <time>2009-07-05T12:03:11Z</time>
      </trkpt>
      <trkpt lat="45.9348440" lon="9.0246250">
        <ele>1499.6300000</ele>
        <time>2009-07-05T12:03:15Z</time>
      </trkpt>
      <trkpt lat="45.9349400" lon="9.0250410">
        <ele>1497.5600000</ele>
        <time>2009-07-05T12:03:19Z</time>
      </trkpt>
      <trkpt lat="45.9350260" lon="9.0255950">
        <ele>1493.8900000</ele>
        <time>2009-07-05T12:03:24Z</time>
      </trkpt>
      <trkpt lat="45.9351790" lon="9.0260590">
        <ele>1493.7400000</ele>
        <time>2009-07-05T12:03:29Z</time>
      </trkpt>
      <trkpt lat="45.9352540" lon="9.0263170">
        <ele>1492.1300000</ele>
        <time>2009-07-05T12:03:32Z</time>
      </trkpt>
      <trkpt lat="45.9353380" lon="9.0265450">
        <ele>1490.3800000</ele>
        <time>2009-07-05T12:03:37Z</time>
      </trkpt>
      <trkpt lat="45.9354460" lon="9.0267060">
        <ele>1488.0100000</ele>
        <time>2009-07-05T12:03:41Z</time>
      </trkpt>
      <trkpt lat="45.9355580" lon="9.0268200">
        <ele>1484.3500000</ele>
        <time>2009-07-05T12:03:44Z</time>
      </trkpt>
      <trkpt lat="45.9357860" lon="9.0270060">
        <ele>1479.8900000</ele>
        <time>2009-07-05T12:03:49Z</time>
      </trkpt>
      <trkpt lat="45.9360840" lon="9.0272070">
        <ele>1476.8700000</ele>
        <time>2009-07-05T12:03:53Z</time>
      </trkpt>
      <trkpt lat="45.9363060" lon="9.0273950">
        <ele>1475.1000000</ele>
        <time>2009-07-05T12:03:56Z</time>
      </trkpt>
      <trkpt lat="45.9364360" lon="9.0275550">
        <ele>1473.5600000</ele>
        <time>2009-07-05T12:03:58Z</time>
      </trkpt>
      <trkpt lat="45.9366180" lon="9.0277620">
        <ele>1472.2900000</ele>
        <time>2009-07-05T12:04:01Z</time>
      </trkpt>
      <trkpt lat="45.9366770" lon="9.0278260">
        <ele>1471.7200000</ele>
        <time>2009-07-05T12:04:02Z</time>
      </trkpt>
      <trkpt lat="45.9368740" lon="9.0282130">
        <ele>1470.1200000</ele>
        <time>2009-07-05T12:04:07Z</time>
      </trkpt>
      <trkpt lat="45.9369060" lon="9.0284150">
        <ele>1469.2700000</ele>
        <time>2009-07-05T12:04:09Z</time>
      </trkpt>
      <trkpt lat="45.9369360" lon="9.0290990">
        <ele>1462.8900000</ele>
        <time>2009-07-05T12:04:15Z</time>
      </trkpt>
      <trkpt lat="45.9369160" lon="9.0295570">
        <ele>1458.9600000</ele>
        <time>2009-07-05T12:04:19Z</time>
      </trkpt>
      <trkpt lat="45.9368950" lon="9.0297510">
        <ele>1456.8200000</ele>
        <time>2009-07-05T12:04:23Z</time>
      </trkpt>
      <trkpt lat="45.9368950" lon="9.0297510">
        <ele>1456.5100000</ele>
        <time>2009-07-05T12:04:29Z</time>
      </trkpt>
      <trkpt lat="45.9368950" lon="9.0297190">
        <ele>1456.2300000</ele>
        <time>2009-07-05T12:06:05Z</time>
      </trkpt>
      <trkpt lat="45.9368890" lon="9.0297250">
        <ele>1456.0900000</ele>
        <time>2009-07-05T12:06:19Z</time>
      </trkpt>
      <trkpt lat="45.9368690" lon="9.0297720">
        <ele>1455.3500000</ele>
        <time>2009-07-05T12:06:25Z</time>
      </trkpt>
      <trkpt lat="45.9368430" lon="9.0298360">
        <ele>1455.1300000</ele>
        <time>2009-07-05T12:06:50Z</time>
      </trkpt>
      <trkpt lat="45.9368360" lon="9.0300490">
        <ele>1454.1300000</ele>
        <time>2009-07-05T12:06:55Z</time>
      </trkpt>
      <trkpt lat="45.9368300" lon="9.0303570">
        <ele>1453.9900000</ele>
        <time>2009-07-05T12:07:01Z</time>
      </trkpt>
      <trkpt lat="45.9368030" lon="9.0304830">
        <ele>1453.0600000</ele>
        <time>2009-07-05T12:07:03Z</time>
      </trkpt>
      <trkpt lat="45.9367820" lon="9.0306290">
        <ele>1452.5300000</ele>
        <time>2009-07-05T12:07:05Z</time>
      </trkpt>
      <trkpt lat="45.9367610" lon="9.0308590">
        <ele>1451.5800000</ele>
        <time>2009-07-05T12:07:08Z</time>
      </trkpt>
      <trkpt lat="45.9367490" lon="9.0310160">
        <ele>1451.2700000</ele>
        <time>2009-07-05T12:07:10Z</time>
      </trkpt>
      <trkpt lat="45.9367240" lon="9.0312390">
        <ele>1449.7800000</ele>
        <time>2009-07-05T12:07:13Z</time>
      </trkpt>
      <trkpt lat="45.9366680" lon="9.0315440">
        <ele>1446.2400000</ele>
        <time>2009-07-05T12:07:18Z</time>
      </trkpt>
      <trkpt lat="45.9366480" lon="9.0318360">
        <ele>1442.3100000</ele>
        <time>2009-07-05T12:07:23Z</time>
      </trkpt>
      <trkpt lat="45.9366330" lon="9.0319890">
        <ele>1440.6200000</ele>
        <time>2009-07-05T12:07:26Z</time>
      </trkpt>
      <trkpt lat="45.9366560" lon="9.0323360">
        <ele>1437.2800000</ele>
        <time>2009-07-05T12:07:31Z</time>
      </trkpt>
      <trkpt lat="45.9367010" lon="9.0326170">
        <ele>1434.7500000</ele>
        <time>2009-07-05T12:07:35Z</time>
      </trkpt>
      <trkpt lat="45.9367070" lon="9.0326940">
        <ele>1433.5600000</ele>
        <time>2009-07-05T12:07:36Z</time>
      </trkpt>
      <trkpt lat="45.9367740" lon="9.0332480">
        <ele>1425.8700000</ele>
        <time>2009-07-05T12:07:43Z</time>
      </trkpt>
      <trkpt lat="45.9367910" lon="9.0334920">
        <ele>1422.3100000</ele>
        <time>2009-07-05T12:07:47Z</time>
      </trkpt>
      <trkpt lat="45.9368010" lon="9.0335160">
        <ele>1422.0900000</ele>
        <time>2009-07-05T12:07:48Z</time>
      </trkpt>
      <trkpt lat="45.9368370" lon="9.0335670">
        <ele>1421.3000000</ele>
        <time>2009-07-05T12:07:52Z</time>
      </trkpt>
      <trkpt lat="45.9369340" lon="9.0335430">
        <ele>1420.5200000</ele>
        <time>2009-07-05T12:07:58Z</time>
      </trkpt>
      <trkpt lat="45.9369550" lon="9.0335380">
        <ele>1420.2100000</ele>
        <time>2009-07-05T12:08:03Z</time>
      </trkpt>
      <trkpt lat="45.9370110" lon="9.0335020">
        <ele>1419.4000000</ele>
        <time>2009-07-05T12:08:06Z</time>
      </trkpt>
      <trkpt lat="45.9371290" lon="9.0333890">
        <ele>1418.0500000</ele>
        <time>2009-07-05T12:08:10Z</time>
      </trkpt>
      <trkpt lat="45.9372340" lon="9.0332650">
        <ele>1416.6600000</ele>
        <time>2009-07-05T12:08:13Z</time>
      </trkpt>
      <trkpt lat="45.9373230" lon="9.0331660">
        <ele>1415.4700000</ele>
        <time>2009-07-05T12:08:15Z</time>
      </trkpt>
      <trkpt lat="45.9374670" lon="9.0330170">
        <ele>1414.2200000</ele>
        <time>2009-07-05T12:08:18Z</time>
      </trkpt>
      <trkpt lat="45.9375480" lon="9.0329310">
        <ele>1413.3100000</ele>
        <time>2009-07-05T12:08:20Z</time>
      </trkpt>
      <trkpt lat="45.9376960" lon="9.0328310">
        <ele>1410.9100000</ele>
        <time>2009-07-05T12:08:23Z</time>
      </trkpt>
      <trkpt lat="45.9377780" lon="9.0327400">
        <ele>1409.8400000</ele>
        <time>2009-07-05T12:08:25Z</time>
      </trkpt>
      <trkpt lat="45.9378570" lon="9.0326500">
        <ele>1408.5700000</ele>
        <time>2009-07-05T12:08:27Z</time>
      </trkpt>
      <trkpt lat="45.9379820" lon="9.0324900">
        <ele>1407.3000000</ele>
        <time>2009-07-05T12:08:30Z</time>
      </trkpt>
      <trkpt lat="45.9380460" lon="9.0323800">
        <ele>1406.1200000</ele>
        <time>2009-07-05T12:08:32Z</time>
      </trkpt>
      <trkpt lat="45.9381630" lon="9.0321540">
        <ele>1405.2800000</ele>
        <time>2009-07-05T12:08:37Z</time>
      </trkpt>
      <trkpt lat="45.9382370" lon="9.0319460">
        <ele>1405.5400000</ele>
        <time>2009-07-05T12:08:44Z</time>
      </trkpt>
      <trkpt lat="45.9382940" lon="9.0317820">
        <ele>1404.6700000</ele>
        <time>2009-07-05T12:08:48Z</time>
      </trkpt>
      <trkpt lat="45.9383220" lon="9.0316030">
        <ele>1404.1900000</ele>
        <time>2009-07-05T12:08:51Z</time>
      </trkpt>
      <trkpt lat="45.9383590" lon="9.0314190">
        <ele>1402.8200000</ele>
        <time>2009-07-05T12:08:54Z</time>
      </trkpt>
      <trkpt lat="45.9384010" lon="9.0311910">
        <ele>1400.7400000</ele>
        <time>2009-07-05T12:08:57Z</time>
      </trkpt>
      <trkpt lat="45.9384140" lon="9.0309100">
        <ele>1399.1600000</ele>
        <time>2009-07-05T12:09:00Z</time>
      </trkpt>
      <trkpt lat="45.9383790" lon="9.0305450">
        <ele>1398.9100000</ele>
        <time>2009-07-05T12:09:04Z</time>
      </trkpt>
      <trkpt lat="45.9383690" lon="9.0300860">
        <ele>1398.8000000</ele>
        <time>2009-07-05T12:09:11Z</time>
      </trkpt>
      <trkpt lat="45.9383690" lon="9.0300270">
        <ele>1399.0600000</ele>
        <time>2009-07-05T12:09:12Z</time>
      </trkpt>
      <trkpt lat="45.9383260" lon="9.0297480">
        <ele>1398.9600000</ele>
        <time>2009-07-05T12:09:17Z</time>
      </trkpt>
      <trkpt lat="45.9383270" lon="9.0295860">
        <ele>1397.9900000</ele>
        <time>2009-07-05T12:09:21Z</time>
      </trkpt>
      <trkpt lat="45.9383320" lon="9.0295370">
        <ele>1397.6400000</ele>
        <time>2009-07-05T12:09:22Z</time>
      </trkpt>
      <trkpt lat="45.9384690" lon="9.0293470">
        <ele>1395.7000000</ele>
        <time>2009-07-05T12:09:26Z</time>
      </trkpt>
      <trkpt lat="45.9386290" lon="9.0292200">
        <ele>1391.3200000</ele>
        <time>2009-07-05T12:09:30Z</time>
      </trkpt>
      <trkpt lat="45.9388220" lon="9.0289940">
        <ele>1388.3800000</ele>
        <time>2009-07-05T12:09:35Z</time>
      </trkpt>
      <trkpt lat="45.9388710" lon="9.0290550">
        <ele>1387.7900000</ele>
        <time>2009-07-05T12:09:39Z</time>
      </trkpt>
      <trkpt lat="45.9388920" lon="9.0291540">
        <ele>1386.3700000</ele>
        <time>2009-07-05T12:09:42Z</time>
      </trkpt>
      <trkpt lat="45.9388900" lon="9.0292420">
        <ele>1384.9400000</ele>
        <time>2009-07-05T12:09:44Z</time>
      </trkpt>
      <trkpt lat="45.9389220" lon="9.0294260">
        <ele>1383.5400000</ele>
        <time>2009-07-05T12:09:47Z</time>
      </trkpt>
      <trkpt lat="45.9389420" lon="9.0294950">
        <ele>1383.4400000</ele>
        <time>2009-07-05T12:09:48Z</time>
      </trkpt>
      <trkpt lat="45.9390550" lon="9.0296620">
        <ele>1382.7300000</ele>
        <time>2009-07-05T12:09:52Z</time>
      </trkpt>
      <trkpt lat="45.9391220" lon="9.0297270">
        <ele>1382.7100000</ele>
        <time>2009-07-05T12:09:54Z</time>
      </trkpt>
      <trkpt lat="45.9392540" lon="9.0298300">
        <ele>1382.7600000</ele>
        <time>2009-07-05T12:09:59Z</time>
      </trkpt>
      <trkpt lat="45.9393250" lon="9.0298900">
        <ele>1381.7800000</ele>
        <time>2009-07-05T12:10:01Z</time>
      </trkpt>
      <trkpt lat="45.9393990" lon="9.0299830">
        <ele>1380.0800000</ele>
        <time>2009-07-05T12:10:03Z</time>
      </trkpt>
      <trkpt lat="45.9396640" lon="9.0302250">
        <ele>1374.7200000</ele>
        <time>2009-07-05T12:10:09Z</time>
      </trkpt>
      <trkpt lat="45.9399690" lon="9.0303060">
        <ele>1371.2300000</ele>
        <time>2009-07-05T12:10:14Z</time>
      </trkpt>
      <trkpt lat="45.9401900" lon="9.0303120">
        <ele>1369.1500000</ele>
        <time>2009-07-05T12:10:18Z</time>
      </trkpt>
      <trkpt lat="45.9404930" lon="9.0304060">
        <ele>1365.5200000</ele>
        <time>2009-07-05T12:10:23Z</time>
      </trkpt>
      <trkpt lat="45.9406970" lon="9.0305660">
        <ele>1363.5800000</ele>
        <time>2009-07-05T12:10:26Z</time>
      </trkpt>
      <trkpt lat="45.9406750" lon="9.0308050">
        <ele>1361.7300000</ele>
        <time>2009-07-05T12:10:29Z</time>
      </trkpt>
      <trkpt lat="45.9406820" lon="9.0308230">
        <ele>1361.6000000</ele>
        <time>2009-07-05T12:10:30Z</time>
      </trkpt>
      <trkpt lat="45.9406890" lon="9.0309500">
        <ele>1359.8200000</ele>
        <time>2009-07-05T12:10:37Z</time>
      </trkpt>
      <trkpt lat="45.9407000" lon="9.0309460">
        <ele>1359.4400000</ele>
        <time>2009-07-05T12:10:45Z</time>
      </trkpt>
      <trkpt lat="45.9407590" lon="9.0309930">
        <ele>1362.6500000</ele>
        <time>2009-07-05T12:16:51Z</time>
      </trkpt>
      <trkpt lat="45.9408510" lon="9.0311310">
        <ele>1360.9400000</ele>
        <time>2009-07-05T12:16:57Z</time>
      </trkpt>
      <trkpt lat="45.9408650" lon="9.0311620">
        <ele>1360.4900000</ele>
        <time>2009-07-05T12:16:58Z</time>
      </trkpt>
      <trkpt lat="45.9409770" lon="9.0314150">
        <ele>1358.0200000</ele>
        <time>2009-07-05T12:17:03Z</time>
      </trkpt>
      <trkpt lat="45.9410910" lon="9.0317820">
        <ele>1354.3600000</ele>
        <time>2009-07-05T12:17:08Z</time>
      </trkpt>
      <trkpt lat="45.9411160" lon="9.0318740">
        <ele>1354.0700000</ele>
        <time>2009-07-05T12:17:09Z</time>
      </trkpt>
      <trkpt lat="45.9412630" lon="9.0323680">
        <ele>1353.3000000</ele>
        <time>2009-07-05T12:17:14Z</time>
      </trkpt>
      <trkpt lat="45.9413000" lon="9.0324690">
        <ele>1352.7000000</ele>
        <time>2009-07-05T12:17:15Z</time>
      </trkpt>
      <trkpt lat="45.9413760" lon="9.0326340">
        <ele>1351.3600000</ele>
        <time>2009-07-05T12:17:17Z</time>
      </trkpt>
      <trkpt lat="45.9414450" lon="9.0328180">
        <ele>1349.3500000</ele>
        <time>2009-07-05T12:17:20Z</time>
      </trkpt>
      <trkpt lat="45.9415610" lon="9.0330920">
        <ele>1348.1600000</ele>
        <time>2009-07-05T12:17:24Z</time>
      </trkpt>
      <trkpt lat="45.9416150" lon="9.0332410">
        <ele>1347.6000000</ele>
        <time>2009-07-05T12:17:26Z</time>
      </trkpt>
      <trkpt lat="45.9416220" lon="9.0337060">
        <ele>1346.6700000</ele>
        <time>2009-07-05T12:17:30Z</time>
      </trkpt>
      <trkpt lat="45.9416080" lon="9.0342460">
        <ele>1344.8700000</ele>
        <time>2009-07-05T12:17:36Z</time>
      </trkpt>
      <trkpt lat="45.9416430" lon="9.0346960">
        <ele>1343.3800000</ele>
        <time>2009-07-05T12:17:41Z</time>
      </trkpt>
      <trkpt lat="45.9416920" lon="9.0352350">
        <ele>1342.5300000</ele>
        <time>2009-07-05T12:17:47Z</time>
      </trkpt>
      <trkpt lat="45.9417550" lon="9.0355620">
        <ele>1342.6400000</ele>
        <time>2009-07-05T12:17:51Z</time>
      </trkpt>
      <trkpt lat="45.9417740" lon="9.0357040">
        <ele>1342.2600000</ele>
        <time>2009-07-05T12:17:53Z</time>
      </trkpt>
      <trkpt lat="45.9418170" lon="9.0360570">
        <ele>1341.8600000</ele>
        <time>2009-07-05T12:17:59Z</time>
      </trkpt>
      <trkpt lat="45.9418250" lon="9.0361880">
        <ele>1341.8100000</ele>
        <time>2009-07-05T12:18:01Z</time>
      </trkpt>
      <trkpt lat="45.9418850" lon="9.0364600">
        <ele>1342.1400000</ele>
        <time>2009-07-05T12:18:06Z</time>
      </trkpt>
      <trkpt lat="45.9419270" lon="9.0366060">
        <ele>1342.2400000</ele>
        <time>2009-07-05T12:18:09Z</time>
      </trkpt>
      <trkpt lat="45.9419980" lon="9.0368100">
        <ele>1342.7400000</ele>
        <time>2009-07-05T12:18:14Z</time>
      </trkpt>
      <trkpt lat="45.9420640" lon="9.0369840">
        <ele>1343.5000000</ele>
        <time>2009-07-05T12:18:20Z</time>
      </trkpt>
      <trkpt lat="45.9421680" lon="9.0371150">
        <ele>1342.5400000</ele>
        <time>2009-07-05T12:18:25Z</time>
      </trkpt>
      <trkpt lat="45.9422880" lon="9.0372180">
        <ele>1342.1500000</ele>
        <time>2009-07-05T12:18:28Z</time>
      </trkpt>
      <trkpt lat="45.9424890" lon="9.0373100">
        <ele>1339.8900000</ele>
        <time>2009-07-05T12:18:33Z</time>
      </trkpt>
      <trkpt lat="45.9425700" lon="9.0373090">
        <ele>1339.4500000</ele>
        <time>2009-07-05T12:18:36Z</time>
      </trkpt>
      <trkpt lat="45.9427390" lon="9.0373130">
        <ele>1339.1000000</ele>
        <time>2009-07-05T12:18:40Z</time>
      </trkpt>
      <trkpt lat="45.9428780" lon="9.0372870">
        <ele>1338.0600000</ele>
        <time>2009-07-05T12:18:43Z</time>
      </trkpt>
      <trkpt lat="45.9431600" lon="9.0373200">
        <ele>1337.3200000</ele>
        <time>2009-07-05T12:18:48Z</time>
      </trkpt>
      <trkpt lat="45.9433210" lon="9.0373780">
        <ele>1336.7300000</ele>
        <time>2009-07-05T12:18:51Z</time>
      </trkpt>
      <trkpt lat="45.9435010" lon="9.0375250">
        <ele>1335.7400000</ele>
        <time>2009-07-05T12:18:55Z</time>
      </trkpt>
      <trkpt lat="45.9435620" lon="9.0376120">
        <ele>1336.0500000</ele>
        <time>2009-07-05T12:18:57Z</time>
      </trkpt>
      <trkpt lat="45.9436670" lon="9.0377230">
        <ele>1335.6900000</ele>
        <time>2009-07-05T12:19:00Z</time>
      </trkpt>
      <trkpt lat="45.9438350" lon="9.0378050">
        <ele>1335.5800000</ele>
        <time>2009-07-05T12:19:04Z</time>
      </trkpt>
      <trkpt lat="45.9441150" lon="9.0378040">
        <ele>1333.5600000</ele>
        <time>2009-07-05T12:19:10Z</time>
      </trkpt>
      <trkpt lat="45.9441770" lon="9.0377920">
        <ele>1332.6100000</ele>
        <time>2009-07-05T12:19:11Z</time>
      </trkpt>
      <trkpt lat="45.9443450" lon="9.0377160">
        <ele>1329.3000000</ele>
        <time>2009-07-05T12:19:14Z</time>
      </trkpt>
      <trkpt lat="45.9445040" lon="9.0375780">
        <ele>1327.4700000</ele>
        <time>2009-07-05T12:19:19Z</time>
      </trkpt>
      <trkpt lat="45.9446590" lon="9.0374420">
        <ele>1326.1100000</ele>
        <time>2009-07-05T12:19:23Z</time>
      </trkpt>
      <trkpt lat="45.9449340" lon="9.0371900">
        <ele>1322.7800000</ele>
        <time>2009-07-05T12:19:28Z</time>
      </trkpt>
      <trkpt lat="45.9450580" lon="9.0370770">
        <ele>1321.0400000</ele>
        <time>2009-07-05T12:19:30Z</time>
      </trkpt>
      <trkpt lat="45.9454240" lon="9.0366840">
        <ele>1316.0100000</ele>
        <time>2009-07-05T12:19:35Z</time>
      </trkpt>
      <trkpt lat="45.9457710" lon="9.0362950">
        <ele>1312.1300000</ele>
        <time>2009-07-05T12:19:39Z</time>
      </trkpt>
      <trkpt lat="45.9461170" lon="9.0358770">
        <ele>1308.2700000</ele>
        <time>2009-07-05T12:19:43Z</time>
      </trkpt>
      <trkpt lat="45.9464920" lon="9.0354560">
        <ele>1304.9200000</ele>
        <time>2009-07-05T12:19:47Z</time>
      </trkpt>
      <trkpt lat="45.9468360" lon="9.0350530">
        <ele>1300.9000000</ele>
        <time>2009-07-05T12:19:51Z</time>
      </trkpt>
      <trkpt lat="45.9472310" lon="9.0346260">
        <ele>1294.8700000</ele>
        <time>2009-07-05T12:19:56Z</time>
      </trkpt>
      <trkpt lat="45.9474840" lon="9.0344280">
        <ele>1292.5000000</ele>
        <time>2009-07-05T12:19:59Z</time>
      </trkpt>
      <trkpt lat="45.9476730" lon="9.0342030">
        <ele>1292.1900000</ele>
        <time>2009-07-05T12:20:02Z</time>
      </trkpt>
      <trkpt lat="45.9477630" lon="9.0340380">
        <ele>1291.3000000</ele>
        <time>2009-07-05T12:20:04Z</time>
      </trkpt>
      <trkpt lat="45.9477920" lon="9.0339440">
        <ele>1290.9200000</ele>
        <time>2009-07-05T12:20:05Z</time>
      </trkpt>
      <trkpt lat="45.9478680" lon="9.0337860">
        <ele>1290.1800000</ele>
        <time>2009-07-05T12:20:07Z</time>
      </trkpt>
      <trkpt lat="45.9481100" lon="9.0336690">
        <ele>1288.6500000</ele>
        <time>2009-07-05T12:20:11Z</time>
      </trkpt>
      <trkpt lat="45.9481800" lon="9.0337240">
        <ele>1287.7900000</ele>
        <time>2009-07-05T12:20:14Z</time>
      </trkpt>
      <trkpt lat="45.9482030" lon="9.0337400">
        <ele>1287.3400000</ele>
        <time>2009-07-05T12:20:24Z</time>
      </trkpt>
      <trkpt lat="45.9482220" lon="9.0337750">
        <ele>1287.0100000</ele>
        <time>2009-07-05T12:20:47Z</time>
      </trkpt>
      <trkpt lat="45.9481680" lon="9.0339450">
        <ele>1286.9000000</ele>
        <time>2009-07-05T12:20:53Z</time>
      </trkpt>
      <trkpt lat="45.9481210" lon="9.0342030">
        <ele>1286.1800000</ele>
        <time>2009-07-05T12:20:57Z</time>
      </trkpt>
      <trkpt lat="45.9481180" lon="9.0345640">
        <ele>1285.9600000</ele>
        <time>2009-07-05T12:21:03Z</time>
      </trkpt>
      <trkpt lat="45.9481010" lon="9.0348830">
        <ele>1285.6400000</ele>
        <time>2009-07-05T12:21:08Z</time>
      </trkpt>
      <trkpt lat="45.9481010" lon="9.0349700">
        <ele>1285.1800000</ele>
        <time>2009-07-05T12:21:09Z</time>
      </trkpt>
      <trkpt lat="45.9481330" lon="9.0357540">
        <ele>1285.5500000</ele>
        <time>2009-07-05T12:21:18Z</time>
      </trkpt>
      <trkpt lat="45.9481210" lon="9.0360940">
        <ele>1285.4800000</ele>
        <time>2009-07-05T12:21:23Z</time>
      </trkpt>
      <trkpt lat="45.9481050" lon="9.0363560">
        <ele>1286.0300000</ele>
        <time>2009-07-05T12:21:28Z</time>
      </trkpt>
      <trkpt lat="45.9480700" lon="9.0367290">
        <ele>1286.5200000</ele>
        <time>2009-07-05T12:21:36Z</time>
      </trkpt>
      <trkpt lat="45.9480460" lon="9.0369980">
        <ele>1286.1400000</ele>
        <time>2009-07-05T12:21:42Z</time>
      </trkpt>
      <trkpt lat="45.9480420" lon="9.0371940">
        <ele>1286.6200000</ele>
        <time>2009-07-05T12:21:47Z</time>
      </trkpt>
      <trkpt lat="45.9480090" lon="9.0373910">
        <ele>1287.5900000</ele>
        <time>2009-07-05T12:21:52Z</time>
      </trkpt>
      <trkpt lat="45.9479230" lon="9.0376300">
        <ele>1288.7300000</ele>
        <time>2009-07-05T12:21:59Z</time>
      </trkpt>
      <trkpt lat="45.9478420" lon="9.0378790">
        <ele>1289.4600000</ele>
        <time>2009-07-05T12:22:06Z</time>
      </trkpt>
      <trkpt lat="45.9477320" lon="9.0380810">
        <ele>1290.0700000</ele>
        <time>2009-07-05T12:22:13Z</time>
      </trkpt>
      <trkpt lat="45.9475800" lon="9.0382530">
        <ele>1290.4500000</ele>
        <time>2009-07-05T12:22:20Z</time>
      </trkpt>
      <trkpt lat="45.9474080" lon="9.0384960">
        <ele>1291.2300000</ele>
        <time>2009-07-05T12:22:29Z</time>
      </trkpt>
      <trkpt lat="45.9472770" lon="9.0387030">
        <ele>1291.8500000</ele>
        <time>2009-07-05T12:22:36Z</time>
      </trkpt>
      <trkpt lat="45.9471820" lon="9.0389010">
        <ele>1292.8100000</ele>
        <time>2009-07-05T12:22:42Z</time>
      </trkpt>
      <trkpt lat="45.9470670" lon="9.0391320">
        <ele>1293.2900000</ele>
        <time>2009-07-05T12:22:49Z</time>
      </trkpt>
      <trkpt lat="45.9469320" lon="9.0393440">
        <ele>1294.4900000</ele>
        <time>2009-07-05T12:22:56Z</time>
      </trkpt>
      <trkpt lat="45.9467560" lon="9.0396040">
        <ele>1294.7800000</ele>
        <time>2009-07-05T12:23:05Z</time>
      </trkpt>
      <trkpt lat="45.9466430" lon="9.0398600">
        <ele>1295.1200000</ele>
        <time>2009-07-05T12:23:12Z</time>
      </trkpt>
      <trkpt lat="45.9465160" lon="9.0401480">
        <ele>1295.8200000</ele>
        <time>2009-07-05T12:23:20Z</time>
      </trkpt>
      <trkpt lat="45.9463850" lon="9.0404750">
        <ele>1296.7000000</ele>
        <time>2009-07-05T12:23:28Z</time>
      </trkpt>
      <trkpt lat="45.9462990" lon="9.0408590">
        <ele>1296.6800000</ele>
        <time>2009-07-05T12:23:35Z</time>
      </trkpt>
      <trkpt lat="45.9462600" lon="9.0410580">
        <ele>1296.4500000</ele>
        <time>2009-07-05T12:23:38Z</time>
      </trkpt>
      <trkpt lat="45.9462390" lon="9.0413030">
        <ele>1296.4300000</ele>
        <time>2009-07-05T12:23:42Z</time>
      </trkpt>
      <trkpt lat="45.9462480" lon="9.0416540">
        <ele>1296.7400000</ele>
        <time>2009-07-05T12:23:48Z</time>
      </trkpt>
      <trkpt lat="45.9462870" lon="9.0419920">
        <ele>1296.8000000</ele>
        <time>2009-07-05T12:23:54Z</time>
      </trkpt>
      <trkpt lat="45.9463520" lon="9.0422190">
        <ele>1297.2800000</ele>
        <time>2009-07-05T12:24:00Z</time>
      </trkpt>
      <trkpt lat="45.9463690" lon="9.0422320">
        <ele>1297.6300000</ele>
        <time>2009-07-05T12:24:04Z</time>
      </trkpt>
      <trkpt lat="45.9464000" lon="9.0422470">
        <ele>1297.9500000</ele>
        <time>2009-07-05T12:24:11Z</time>
      </trkpt>
      <trkpt lat="45.9463930" lon="9.0422980">
        <ele>1298.2400000</ele>
        <time>2009-07-05T12:24:16Z</time>
      </trkpt>
      <trkpt lat="45.9463750" lon="9.0423830">
        <ele>1298.1900000</ele>
        <time>2009-07-05T12:24:27Z</time>
      </trkpt>
      <trkpt lat="45.9463840" lon="9.0425190">
        <ele>1298.0800000</ele>
        <time>2009-07-05T12:24:35Z</time>
      </trkpt>
      <trkpt lat="45.9463760" lon="9.0423730">
        <ele>1294.7300000</ele>
        <time>2009-07-05T12:33:00Z</time>
      </trkpt>
      <trkpt lat="45.9463810" lon="9.0425020">
        <ele>1294.8600000</ele>
        <time>2009-07-05T12:33:07Z</time>
      </trkpt>
      <trkpt lat="45.9463840" lon="9.0425200">
        <ele>1295.0100000</ele>
        <time>2009-07-05T12:33:11Z</time>
      </trkpt>
      <trkpt lat="45.9463830" lon="9.0425290">
        <ele>1294.7800000</ele>
        <time>2009-07-05T12:33:16Z</time>
      </trkpt>
      <trkpt lat="45.9463970" lon="9.0426100">
        <ele>1294.4600000</ele>
        <time>2009-07-05T12:33:38Z</time>
      </trkpt>
      <trkpt lat="45.9463340" lon="9.0426640">
        <ele>1294.7400000</ele>
        <time>2009-07-05T12:33:42Z</time>
      </trkpt>
      <trkpt lat="45.9462650" lon="9.0426850">
        <ele>1295.5800000</ele>
        <time>2009-07-05T12:33:45Z</time>
      </trkpt>
      <trkpt lat="45.9461980" lon="9.0426680">
        <ele>1295.6900000</ele>
        <time>2009-07-05T12:33:50Z</time>
      </trkpt>
      <trkpt lat="45.9461870" lon="9.0426590">
        <ele>1295.2500000</ele>
        <time>2009-07-05T12:34:02Z</time>
      </trkpt>
      <trkpt lat="45.9461220" lon="9.0426500">
        <ele>1294.5800000</ele>
        <time>2009-07-05T12:35:20Z</time>
      </trkpt>
      <trkpt lat="45.9460050" lon="9.0426600">
        <ele>1294.3400000</ele>
        <time>2009-07-05T12:35:25Z</time>
      </trkpt>
      <trkpt lat="45.9459710" lon="9.0426650">
        <ele>1294.0100000</ele>
        <time>2009-07-05T12:35:26Z</time>
      </trkpt>
      <trkpt lat="45.9457880" lon="9.0426920">
        <ele>1294.3800000</ele>
        <time>2009-07-05T12:35:31Z</time>
      </trkpt>
      <trkpt lat="45.9456040" lon="9.0427690">
        <ele>1295.3600000</ele>
        <time>2009-07-05T12:35:37Z</time>
      </trkpt>
      <trkpt lat="45.9454740" lon="9.0428850">
        <ele>1296.5700000</ele>
        <time>2009-07-05T12:35:44Z</time>
      </trkpt>
      <trkpt lat="45.9452860" lon="9.0430950">
        <ele>1296.6200000</ele>
        <time>2009-07-05T12:35:53Z</time>
      </trkpt>
      <trkpt lat="45.9451440" lon="9.0433420">
        <ele>1295.6400000</ele>
        <time>2009-07-05T12:35:59Z</time>
      </trkpt>
      <trkpt lat="45.9449700" lon="9.0437040">
        <ele>1295.2400000</ele>
        <time>2009-07-05T12:36:06Z</time>
      </trkpt>
      <trkpt lat="45.9447920" lon="9.0440310">
        <ele>1294.7900000</ele>
        <time>2009-07-05T12:36:13Z</time>
      </trkpt>
      <trkpt lat="45.9446570" lon="9.0442260">
        <ele>1294.9300000</ele>
        <time>2009-07-05T12:36:18Z</time>
      </trkpt>
      <trkpt lat="45.9444840" lon="9.0443560">
        <ele>1295.3200000</ele>
        <time>2009-07-05T12:36:24Z</time>
      </trkpt>
      <trkpt lat="45.9442690" lon="9.0444640">
        <ele>1295.9200000</ele>
        <time>2009-07-05T12:36:32Z</time>
      </trkpt>
      <trkpt lat="45.9441010" lon="9.0445470">
        <ele>1296.3900000</ele>
        <time>2009-07-05T12:36:39Z</time>
      </trkpt>
      <trkpt lat="45.9439380" lon="9.0445420">
        <ele>1297.4000000</ele>
        <time>2009-07-05T12:36:46Z</time>
      </trkpt>
      <trkpt lat="45.9437460" lon="9.0445710">
        <ele>1298.6000000</ele>
        <time>2009-07-05T12:36:55Z</time>
      </trkpt>
      <trkpt lat="45.9436310" lon="9.0445980">
        <ele>1298.9400000</ele>
        <time>2009-07-05T12:37:02Z</time>
      </trkpt>
      <trkpt lat="45.9435260" lon="9.0446320">
        <ele>1299.6000000</ele>
        <time>2009-07-05T12:37:07Z</time>
      </trkpt>
      <trkpt lat="45.9433320" lon="9.0447620">
        <ele>1300.4300000</ele>
        <time>2009-07-05T12:37:16Z</time>
      </trkpt>
      <trkpt lat="45.9431220" lon="9.0449560">
        <ele>1301.3600000</ele>
        <time>2009-07-05T12:37:26Z</time>
      </trkpt>
      <trkpt lat="45.9429230" lon="9.0452020">
        <ele>1301.8800000</ele>
        <time>2009-07-05T12:37:36Z</time>
      </trkpt>
      <trkpt lat="45.9427300" lon="9.0454190">
        <ele>1302.5200000</ele>
        <time>2009-07-05T12:37:45Z</time>
      </trkpt>
      <trkpt lat="45.9425540" lon="9.0456010">
        <ele>1303.6200000</ele>
        <time>2009-07-05T12:37:53Z</time>
      </trkpt>
      <trkpt lat="45.9423320" lon="9.0457970">
        <ele>1304.5400000</ele>
        <time>2009-07-05T12:38:03Z</time>
      </trkpt>
      <trkpt lat="45.9421910" lon="9.0458790">
        <ele>1304.9700000</ele>
        <time>2009-07-05T12:38:09Z</time>
      </trkpt>
      <trkpt lat="45.9420080" lon="9.0459650">
        <ele>1305.6700000</ele>
        <time>2009-07-05T12:38:17Z</time>
      </trkpt>
      <trkpt lat="45.9418610" lon="9.0460740">
        <ele>1306.6600000</ele>
        <time>2009-07-05T12:38:24Z</time>
      </trkpt>
      <trkpt lat="45.9417000" lon="9.0461910">
        <ele>1308.2300000</ele>
        <time>2009-07-05T12:38:33Z</time>
      </trkpt>
      <trkpt lat="45.9415850" lon="9.0462910">
        <ele>1309.2500000</ele>
        <time>2009-07-05T12:38:41Z</time>
      </trkpt>
      <trkpt lat="45.9414820" lon="9.0463830">
        <ele>1310.3600000</ele>
        <time>2009-07-05T12:38:49Z</time>
      </trkpt>
      <trkpt lat="45.9414040" lon="9.0464760">
        <ele>1311.2300000</ele>
        <time>2009-07-05T12:38:56Z</time>
      </trkpt>
      <trkpt lat="45.9413140" lon="9.0465910">
        <ele>1312.0700000</ele>
        <time>2009-07-05T12:39:02Z</time>
      </trkpt>
      <trkpt lat="45.9412030" lon="9.0466440">
        <ele>1311.9700000</ele>
        <time>2009-07-05T12:39:08Z</time>
      </trkpt>
      <trkpt lat="45.9411100" lon="9.0467900">
        <ele>1312.4800000</ele>
        <time>2009-07-05T12:39:14Z</time>
      </trkpt>
      <trkpt lat="45.9410150" lon="9.0469900">
        <ele>1315.7700000</ele>
        <time>2009-07-05T12:39:22Z</time>
      </trkpt>
      <trkpt lat="45.9409470" lon="9.0471600">
        <ele>1317.8400000</ele>
        <time>2009-07-05T12:39:29Z</time>
      </trkpt>
      <trkpt lat="45.9408880" lon="9.0472920">
        <ele>1318.8800000</ele>
        <time>2009-07-05T12:39:35Z</time>
      </trkpt>
      <trkpt lat="45.9408040" lon="9.0474210">
        <ele>1319.9200000</ele>
        <time>2009-07-05T12:39:43Z</time>
      </trkpt>
      <trkpt lat="45.9407340" lon="9.0475450">
        <ele>1322.1400000</ele>
        <time>2009-07-05T12:39:51Z</time>
      </trkpt>
      <trkpt lat="45.9406450" lon="9.0476780">
        <ele>1322.8500000</ele>
        <time>2009-07-05T12:40:00Z</time>
      </trkpt>
      <trkpt lat="45.9405360" lon="9.0478680">
        <ele>1323.0700000</ele>
        <time>2009-07-05T12:40:09Z</time>
      </trkpt>
      <trkpt lat="45.9404290" lon="9.0480420">
        <ele>1323.7400000</ele>
        <time>2009-07-05T12:40:16Z</time>
      </trkpt>
      <trkpt lat="45.9403640" lon="9.0481230">
        <ele>1325.0000000</ele>
        <time>2009-07-05T12:40:21Z</time>
      </trkpt>
      <trkpt lat="45.9402780" lon="9.0481820">
        <ele>1325.6400000</ele>
        <time>2009-07-05T12:40:27Z</time>
      </trkpt>
      <trkpt lat="45.9401370" lon="9.0482640">
        <ele>1326.5100000</ele>
        <time>2009-07-05T12:40:35Z</time>
      </trkpt>
      <trkpt lat="45.9400110" lon="9.0483200">
        <ele>1327.3600000</ele>
        <time>2009-07-05T12:40:42Z</time>
      </trkpt>
      <trkpt lat="45.9398600" lon="9.0484110">
        <ele>1328.2800000</ele>
        <time>2009-07-05T12:40:51Z</time>
      </trkpt>
      <trkpt lat="45.9397770" lon="9.0485070">
        <ele>1329.4800000</ele>
        <time>2009-07-05T12:40:57Z</time>
      </trkpt>
      <trkpt lat="45.9396730" lon="9.0486480">
        <ele>1330.6200000</ele>
        <time>2009-07-05T12:41:05Z</time>
      </trkpt>
      <trkpt lat="45.9395670" lon="9.0488000">
        <ele>1332.1100000</ele>
        <time>2009-07-05T12:41:14Z</time>
      </trkpt>
      <trkpt lat="45.9394590" lon="9.0489450">
        <ele>1332.8100000</ele>
        <time>2009-07-05T12:41:23Z</time>
      </trkpt>
      <trkpt lat="45.9393560" lon="9.0490550">
        <ele>1333.5800000</ele>
        <time>2009-07-05T12:41:30Z</time>
      </trkpt>
      <trkpt lat="45.9391290" lon="9.0492110">
        <ele>1334.2900000</ele>
        <time>2009-07-05T12:41:40Z</time>
      </trkpt>
      <trkpt lat="45.9389290" lon="9.0492540">
        <ele>1335.0000000</ele>
        <time>2009-07-05T12:41:48Z</time>
      </trkpt>
      <trkpt lat="45.9387030" lon="9.0491790">
        <ele>1335.1500000</ele>
        <time>2009-07-05T12:41:54Z</time>
      </trkpt>
      <trkpt lat="45.9382980" lon="9.0490800">
        <ele>1334.0500000</ele>
        <time>2009-07-05T12:42:05Z</time>
      </trkpt>
      <trkpt lat="45.9380430" lon="9.0490550">
        <ele>1333.1900000</ele>
        <time>2009-07-05T12:42:12Z</time>
      </trkpt>
      <trkpt lat="45.9379040" lon="9.0491140">
        <ele>1333.0500000</ele>
        <time>2009-07-05T12:42:17Z</time>
      </trkpt>
      <trkpt lat="45.9377270" lon="9.0492820">
        <ele>1332.4300000</ele>
        <time>2009-07-05T12:42:23Z</time>
      </trkpt>
      <trkpt lat="45.9376840" lon="9.0493610">
        <ele>1331.9900000</ele>
        <time>2009-07-05T12:42:26Z</time>
      </trkpt>
      <trkpt lat="45.9376850" lon="9.0493730">
        <ele>1331.3800000</ele>
        <time>2009-07-05T12:42:52Z</time>
      </trkpt>
      <trkpt lat="45.9376860" lon="9.0493710">
        <ele>1331.2000000</ele>
        <time>2009-07-05T12:44:12Z</time>
      </trkpt>
      <trkpt lat="45.9376580" lon="9.0494190">
        <ele>1331.1200000</ele>
        <time>2009-07-05T12:44:17Z</time>
      </trkpt>
      <trkpt lat="45.9376050" lon="9.0494870">
        <ele>1330.9600000</ele>
        <time>2009-07-05T12:44:43Z</time>
      </trkpt>
      <trkpt lat="45.9374960" lon="9.0497430">
        <ele>1330.7800000</ele>
        <time>2009-07-05T12:44:49Z</time>
      </trkpt>
      <trkpt lat="45.9374140" lon="9.0499620">
        <ele>1330.4600000</ele>
        <time>2009-07-05T12:44:53Z</time>
      </trkpt>
      <trkpt lat="45.9372920" lon="9.0501870">
        <ele>1329.3500000</ele>
        <time>2009-07-05T12:44:58Z</time>
      </trkpt>
      <trkpt lat="45.9372670" lon="9.0502790">
        <ele>1329.1700000</ele>
        <time>2009-07-05T12:45:02Z</time>
      </trkpt>
      <trkpt lat="45.9372540" lon="9.0502800">
        <ele>1328.8900000</ele>
        <time>2009-07-05T12:45:06Z</time>
      </trkpt>
      <trkpt lat="45.9372550" lon="9.0502960">
        <ele>1328.5200000</ele>
        <time>2009-07-05T12:45:11Z</time>
      </trkpt>
      <trkpt lat="45.9372470" lon="9.0503040">
        <ele>1328.9600000</ele>
        <time>2009-07-05T12:45:41Z</time>
      </trkpt>
      <trkpt lat="45.9371840" lon="9.0503890">
        <ele>1328.5100000</ele>
        <time>2009-07-05T12:45:46Z</time>
      </trkpt>
      <trkpt lat="45.9371620" lon="9.0504270">
        <ele>1328.6000000</ele>
        <time>2009-07-05T12:45:47Z</time>
      </trkpt>
      <trkpt lat="45.9370320" lon="9.0506130">
        <ele>1329.0500000</ele>
        <time>2009-07-05T12:45:53Z</time>
      </trkpt>
      <trkpt lat="45.9368790" lon="9.0507570">
        <ele>1329.1000000</ele>
        <time>2009-07-05T12:45:59Z</time>
      </trkpt>
      <trkpt lat="45.9367540" lon="9.0508880">
        <ele>1329.8200000</ele>
        <time>2009-07-05T12:46:04Z</time>
      </trkpt>
      <trkpt lat="45.9365510" lon="9.0510210">
        <ele>1329.1700000</ele>
        <time>2009-07-05T12:46:11Z</time>
      </trkpt>
      <trkpt lat="45.9364190" lon="9.0511010">
        <ele>1329.7900000</ele>
        <time>2009-07-05T12:46:16Z</time>
      </trkpt>
      <trkpt lat="45.9363010" lon="9.0511530">
        <ele>1331.0000000</ele>
        <time>2009-07-05T12:46:22Z</time>
      </trkpt>
      <trkpt lat="45.9361420" lon="9.0512310">
        <ele>1332.6000000</ele>
        <time>2009-07-05T12:46:30Z</time>
      </trkpt>
      <trkpt lat="45.9360020" lon="9.0513320">
        <ele>1332.4600000</ele>
        <time>2009-07-05T12:46:36Z</time>
      </trkpt>
      <trkpt lat="45.9358660" lon="9.0514290">
        <ele>1332.1600000</ele>
        <time>2009-07-05T12:46:40Z</time>
      </trkpt>
      <trkpt lat="45.9357110" lon="9.0515520">
        <ele>1331.3500000</ele>
        <time>2009-07-05T12:46:44Z</time>
      </trkpt>
      <trkpt lat="45.9356100" lon="9.0515950">
        <ele>1331.2300000</ele>
        <time>2009-07-05T12:46:46Z</time>
      </trkpt>
      <trkpt lat="45.9354260" lon="9.0516310">
        <ele>1330.3800000</ele>
        <time>2009-07-05T12:46:49Z</time>
      </trkpt>
      <trkpt lat="45.9351180" lon="9.0516400">
        <ele>1329.2900000</ele>
        <time>2009-07-05T12:46:54Z</time>
      </trkpt>
      <trkpt lat="45.9350320" lon="9.0516710">
        <ele>1330.5000000</ele>
        <time>2009-07-05T12:46:56Z</time>
      </trkpt>
      <trkpt lat="45.9347900" lon="9.0517130">
        <ele>1330.5300000</ele>
        <time>2009-07-05T12:47:01Z</time>
      </trkpt>
      <trkpt lat="45.9347260" lon="9.0517170">
        <ele>1330.4700000</ele>
        <time>2009-07-05T12:47:02Z</time>
      </trkpt>
      <trkpt lat="45.9344840" lon="9.0518190">
        <ele>1329.9000000</ele>
        <time>2009-07-05T12:47:06Z</time>
      </trkpt>
      <trkpt lat="45.9342970" lon="9.0518000">
        <ele>1329.3600000</ele>
        <time>2009-07-05T12:47:09Z</time>
      </trkpt>
      <trkpt lat="45.9338330" lon="9.0516770">
        <ele>1328.0200000</ele>
        <time>2009-07-05T12:47:16Z</time>
      </trkpt>
      <trkpt lat="45.9334950" lon="9.0517640">
        <ele>1325.6400000</ele>
        <time>2009-07-05T12:47:21Z</time>
      </trkpt>
      <trkpt lat="45.9332120" lon="9.0520500">
        <ele>1320.1700000</ele>
        <time>2009-07-05T12:47:25Z</time>
      </trkpt>
      <trkpt lat="45.9331510" lon="9.0521540">
        <ele>1320.0600000</ele>
        <time>2009-07-05T12:47:26Z</time>
      </trkpt>
      <trkpt lat="45.9330320" lon="9.0523690">
        <ele>1318.2900000</ele>
        <time>2009-07-05T12:47:28Z</time>
      </trkpt>
      <trkpt lat="45.9327560" lon="9.0527100">
        <ele>1315.7400000</ele>
        <time>2009-07-05T12:47:32Z</time>
      </trkpt>
      <trkpt lat="45.9323680" lon="9.0530810">
        <ele>1313.0800000</ele>
        <time>2009-07-05T12:47:37Z</time>
      </trkpt>
      <trkpt lat="45.9322880" lon="9.0531500">
        <ele>1313.0500000</ele>
        <time>2009-07-05T12:47:38Z</time>
      </trkpt>
      <trkpt lat="45.9318990" lon="9.0535020">
        <ele>1309.9500000</ele>
        <time>2009-07-05T12:47:43Z</time>
      </trkpt>
      <trkpt lat="45.9314290" lon="9.0537340">
        <ele>1306.9600000</ele>
        <time>2009-07-05T12:47:49Z</time>
      </trkpt>
      <trkpt lat="45.9311440" lon="9.0537080">
        <ele>1307.1000000</ele>
        <time>2009-07-05T12:47:53Z</time>
      </trkpt>
      <trkpt lat="45.9308380" lon="9.0535210">
        <ele>1307.8500000</ele>
        <time>2009-07-05T12:47:57Z</time>
      </trkpt>
      <trkpt lat="45.9305250" lon="9.0534330">
        <ele>1309.3200000</ele>
        <time>2009-07-05T12:48:01Z</time>
      </trkpt>
      <trkpt lat="45.9304570" lon="9.0534430">
        <ele>1309.3900000</ele>
        <time>2009-07-05T12:48:02Z</time>
      </trkpt>
      <trkpt lat="45.9302630" lon="9.0535180">
        <ele>1310.7800000</ele>
        <time>2009-07-05T12:48:06Z</time>
      </trkpt>
      <trkpt lat="45.9299780" lon="9.0537370">
        <ele>1311.3800000</ele>
        <time>2009-07-05T12:48:14Z</time>
      </trkpt>
      <trkpt lat="45.9298060" lon="9.0539500">
        <ele>1312.1600000</ele>
        <time>2009-07-05T12:48:21Z</time>
      </trkpt>
      <trkpt lat="45.9296770" lon="9.0541420">
        <ele>1312.8100000</ele>
        <time>2009-07-05T12:48:29Z</time>
      </trkpt>
      <trkpt lat="45.9295980" lon="9.0542770">
        <ele>1313.5700000</ele>
        <time>2009-07-05T12:48:37Z</time>
      </trkpt>
      <trkpt lat="45.9295330" lon="9.0544280">
        <ele>1315.0400000</ele>
        <time>2009-07-05T12:48:46Z</time>
      </trkpt>
      <trkpt lat="45.9295090" lon="9.0546230">
        <ele>1317.4000000</ele>
        <time>2009-07-05T12:48:51Z</time>
      </trkpt>
      <trkpt lat="45.9295040" lon="9.0546730">
        <ele>1317.6600000</ele>
        <time>2009-07-05T12:48:52Z</time>
      </trkpt>
      <trkpt lat="45.9294820" lon="9.0548790">
        <ele>1318.2000000</ele>
        <time>2009-07-05T12:48:57Z</time>
      </trkpt>
      <trkpt lat="45.9294460" lon="9.0550570">
        <ele>1318.7600000</ele>
        <time>2009-07-05T12:49:05Z</time>
      </trkpt>
      <trkpt lat="45.9294380" lon="9.0551250">
        <ele>1319.3500000</ele>
        <time>2009-07-05T12:49:31Z</time>
      </trkpt>
      <trkpt lat="45.9293720" lon="9.0554260">
        <ele>1319.9100000</ele>
        <time>2009-07-05T12:49:42Z</time>
      </trkpt>
      <trkpt lat="45.9292990" lon="9.0557290">
        <ele>1321.3800000</ele>
        <time>2009-07-05T12:49:53Z</time>
      </trkpt>
      <trkpt lat="45.9292180" lon="9.0559970">
        <ele>1322.8300000</ele>
        <time>2009-07-05T12:50:03Z</time>
      </trkpt>
      <trkpt lat="45.9291330" lon="9.0562540">
        <ele>1323.9200000</ele>
        <time>2009-07-05T12:50:13Z</time>
      </trkpt>
      <trkpt lat="45.9290590" lon="9.0564980">
        <ele>1325.9500000</ele>
        <time>2009-07-05T12:50:23Z</time>
      </trkpt>
      <trkpt lat="45.9289960" lon="9.0566960">
        <ele>1327.6000000</ele>
        <time>2009-07-05T12:50:33Z</time>
      </trkpt>
      <trkpt lat="45.9289450" lon="9.0568730">
        <ele>1329.2500000</ele>
        <time>2009-07-05T12:50:43Z</time>
      </trkpt>
      <trkpt lat="45.9289110" lon="9.0570420">
        <ele>1330.9300000</ele>
        <time>2009-07-05T12:50:52Z</time>
      </trkpt>
      <trkpt lat="45.9288830" lon="9.0572110">
        <ele>1333.1100000</ele>
        <time>2009-07-05T12:51:02Z</time>
      </trkpt>
      <trkpt lat="45.9288730" lon="9.0573790">
        <ele>1334.8100000</ele>
        <time>2009-07-05T12:51:11Z</time>
      </trkpt>
      <trkpt lat="45.9288750" lon="9.0575800">
        <ele>1335.8800000</ele>
        <time>2009-07-05T12:51:21Z</time>
      </trkpt>
      <trkpt lat="45.9288850" lon="9.0577220">
        <ele>1337.3100000</ele>
        <time>2009-07-05T12:51:29Z</time>
      </trkpt>
      <trkpt lat="45.9289110" lon="9.0578950">
        <ele>1338.8000000</ele>
        <time>2009-07-05T12:51:39Z</time>
      </trkpt>
      <trkpt lat="45.9289190" lon="9.0580390">
        <ele>1340.2900000</ele>
        <time>2009-07-05T12:51:47Z</time>
      </trkpt>
      <trkpt lat="45.9289220" lon="9.0582140">
        <ele>1342.6600000</ele>
        <time>2009-07-05T12:51:55Z</time>
      </trkpt>
      <trkpt lat="45.9289270" lon="9.0582880">
        <ele>1343.9400000</ele>
        <time>2009-07-05T12:51:58Z</time>
      </trkpt>
      <trkpt lat="45.9289340" lon="9.0584250">
        <ele>1346.1100000</ele>
        <time>2009-07-05T12:52:05Z</time>
      </trkpt>
      <trkpt lat="45.9289270" lon="9.0584290">
        <ele>1345.4800000</ele>
        <time>2009-07-05T12:52:11Z</time>
      </trkpt>
      <trkpt lat="45.9289250" lon="9.0584190">
        <ele>1346.1400000</ele>
        <time>2009-07-05T12:56:53Z</time>
      </trkpt>
      <trkpt lat="45.9289220" lon="9.0584420">
        <ele>1346.5900000</ele>
        <time>2009-07-05T12:57:00Z</time>
      </trkpt>
      <trkpt lat="45.9289240" lon="9.0584430">
        <ele>1346.8700000</ele>
        <time>2009-07-05T12:57:07Z</time>
      </trkpt>
      <trkpt lat="45.9289340" lon="9.0584530">
        <ele>1346.6600000</ele>
        <time>2009-07-05T12:57:09Z</time>
      </trkpt>
      <trkpt lat="45.9289880" lon="9.0585200">
        <ele>1346.9400000</ele>
        <time>2009-07-05T12:57:16Z</time>
      </trkpt>
      <trkpt lat="45.9290490" lon="9.0585300">
        <ele>1346.2500000</ele>
        <time>2009-07-05T12:57:20Z</time>
      </trkpt>
      <trkpt lat="45.9291060" lon="9.0585310">
        <ele>1346.6100000</ele>
        <time>2009-07-05T12:57:24Z</time>
      </trkpt>
      <trkpt lat="45.9291310" lon="9.0585610">
        <ele>1345.4300000</ele>
        <time>2009-07-05T12:57:30Z</time>
      </trkpt>
      <trkpt lat="45.9291540" lon="9.0585570">
        <ele>1344.9600000</ele>
        <time>2009-07-05T12:58:32Z</time>
      </trkpt>
      <trkpt lat="45.9291410" lon="9.0585380">
        <ele>1344.6000000</ele>
        <time>2009-07-05T12:59:53Z</time>
      </trkpt>
      <trkpt lat="45.9292140" lon="9.0585560">
        <ele>1343.6700000</ele>
        <time>2009-07-05T13:01:33Z</time>
      </trkpt>
      <trkpt lat="45.9293800" lon="9.0585500">
        <ele>1342.3500000</ele>
        <time>2009-07-05T13:01:38Z</time>
      </trkpt>
      <trkpt lat="45.9296060" lon="9.0585480">
        <ele>1340.6600000</ele>
        <time>2009-07-05T13:01:44Z</time>
      </trkpt>
      <trkpt lat="45.9296860" lon="9.0585570">
        <ele>1339.6600000</ele>
        <time>2009-07-05T13:01:46Z</time>
      </trkpt>
      <trkpt lat="45.9299490" lon="9.0585330">
        <ele>1336.8600000</ele>
        <time>2009-07-05T13:01:51Z</time>
      </trkpt>
      <trkpt lat="45.9300060" lon="9.0585250">
        <ele>1336.5900000</ele>
        <time>2009-07-05T13:01:52Z</time>
      </trkpt>
      <trkpt lat="45.9301970" lon="9.0584860">
        <ele>1335.1000000</ele>
        <time>2009-07-05T13:01:55Z</time>
      </trkpt>
      <trkpt lat="45.9303770" lon="9.0584510">
        <ele>1333.8400000</ele>
        <time>2009-07-05T13:01:58Z</time>
      </trkpt>
      <trkpt lat="45.9307360" lon="9.0583970">
        <ele>1328.7200000</ele>
        <time>2009-07-05T13:02:04Z</time>
      </trkpt>
      <trkpt lat="45.9309230" lon="9.0583620">
        <ele>1327.4000000</ele>
        <time>2009-07-05T13:02:07Z</time>
      </trkpt>
      <trkpt lat="45.9312930" lon="9.0583740">
        <ele>1322.6000000</ele>
        <time>2009-07-05T13:02:12Z</time>
      </trkpt>
      <trkpt lat="45.9316480" lon="9.0583490">
        <ele>1318.8200000</ele>
        <time>2009-07-05T13:02:16Z</time>
      </trkpt>
      <trkpt lat="45.9318240" lon="9.0583920">
        <ele>1318.1800000</ele>
        <time>2009-07-05T13:02:18Z</time>
      </trkpt>
      <trkpt lat="45.9320500" lon="9.0585010">
        <ele>1317.3100000</ele>
        <time>2009-07-05T13:02:21Z</time>
      </trkpt>
      <trkpt lat="45.9323470" lon="9.0585440">
        <ele>1315.6400000</ele>
        <time>2009-07-05T13:02:26Z</time>
      </trkpt>
      <trkpt lat="45.9324690" lon="9.0585370">
        <ele>1313.3300000</ele>
        <time>2009-07-05T13:02:29Z</time>
      </trkpt>
      <trkpt lat="45.9325980" lon="9.0584780">
        <ele>1311.8300000</ele>
        <time>2009-07-05T13:02:32Z</time>
      </trkpt>
      <trkpt lat="45.9327660" lon="9.0584090">
        <ele>1311.2700000</ele>
        <time>2009-07-05T13:02:35Z</time>
      </trkpt>
      <trkpt lat="45.9328940" lon="9.0583830">
        <ele>1310.8800000</ele>
        <time>2009-07-05T13:02:37Z</time>
      </trkpt>
      <trkpt lat="45.9330490" lon="9.0583630">
        <ele>1309.8300000</ele>
        <time>2009-07-05T13:02:40Z</time>
      </trkpt>
      <trkpt lat="45.9333380" lon="9.0583810">
        <ele>1308.0800000</ele>
        <time>2009-07-05T13:02:47Z</time>
      </trkpt>
      <trkpt lat="45.9335030" lon="9.0585450">
        <ele>1306.5900000</ele>
        <time>2009-07-05T13:02:52Z</time>
      </trkpt>
      <trkpt lat="45.9337860" lon="9.0587050">
        <ele>1303.9400000</ele>
        <time>2009-07-05T13:02:58Z</time>
      </trkpt>
      <trkpt lat="45.9338990" lon="9.0588470">
        <ele>1302.7000000</ele>
        <time>2009-07-05T13:03:01Z</time>
      </trkpt>
      <trkpt lat="45.9339350" lon="9.0589060">
        <ele>1302.2100000</ele>
        <time>2009-07-05T13:03:02Z</time>
      </trkpt>
      <trkpt lat="45.9340430" lon="9.0591270">
        <ele>1301.1200000</ele>
        <time>2009-07-05T13:03:05Z</time>
      </trkpt>
      <trkpt lat="45.9342200" lon="9.0593950">
        <ele>1295.2700000</ele>
        <time>2009-07-05T13:03:09Z</time>
      </trkpt>
      <trkpt lat="45.9343960" lon="9.0595340">
        <ele>1292.4400000</ele>
        <time>2009-07-05T13:03:13Z</time>
      </trkpt>
      <trkpt lat="45.9345550" lon="9.0595750">
        <ele>1291.1300000</ele>
        <time>2009-07-05T13:03:16Z</time>
      </trkpt>
      <trkpt lat="45.9346220" lon="9.0595760">
        <ele>1290.7700000</ele>
        <time>2009-07-05T13:03:17Z</time>
      </trkpt>
      <trkpt lat="45.9348110" lon="9.0596070">
        <ele>1288.8300000</ele>
        <time>2009-07-05T13:03:20Z</time>
      </trkpt>
      <trkpt lat="45.9349780" lon="9.0596660">
        <ele>1287.0800000</ele>
        <time>2009-07-05T13:03:23Z</time>
      </trkpt>
      <trkpt lat="45.9350520" lon="9.0599080">
        <ele>1284.6300000</ele>
        <time>2009-07-05T13:03:26Z</time>
      </trkpt>
      <trkpt lat="45.9351460" lon="9.0603970">
        <ele>1280.9000000</ele>
        <time>2009-07-05T13:03:31Z</time>
      </trkpt>
      <trkpt lat="45.9352040" lon="9.0607100">
        <ele>1278.4700000</ele>
        <time>2009-07-05T13:03:34Z</time>
      </trkpt>
      <trkpt lat="45.9352270" lon="9.0612060">
        <ele>1273.0400000</ele>
        <time>2009-07-05T13:03:40Z</time>
      </trkpt>
      <trkpt lat="45.9352340" lon="9.0614860">
        <ele>1271.4300000</ele>
        <time>2009-07-05T13:03:43Z</time>
      </trkpt>
      <trkpt lat="45.9353690" lon="9.0618370">
        <ele>1267.7300000</ele>
        <time>2009-07-05T13:03:48Z</time>
      </trkpt>
      <trkpt lat="45.9356250" lon="9.0620240">
        <ele>1262.8800000</ele>
        <time>2009-07-05T13:03:52Z</time>
      </trkpt>
      <trkpt lat="45.9357520" lon="9.0620760">
        <ele>1261.4500000</ele>
        <time>2009-07-05T13:03:54Z</time>
      </trkpt>
      <trkpt lat="45.9358780" lon="9.0621030">
        <ele>1260.1200000</ele>
        <time>2009-07-05T13:03:56Z</time>
      </trkpt>
      <trkpt lat="45.9361170" lon="9.0621170">
        <ele>1258.4600000</ele>
        <time>2009-07-05T13:04:00Z</time>
      </trkpt>
      <trkpt lat="45.9363130" lon="9.0621470">
        <ele>1257.2000000</ele>
        <time>2009-07-05T13:04:03Z</time>
      </trkpt>
      <trkpt lat="45.9364320" lon="9.0621940">
        <ele>1256.0900000</ele>
        <time>2009-07-05T13:04:05Z</time>
      </trkpt>
      <trkpt lat="45.9365770" lon="9.0623660">
        <ele>1256.1200000</ele>
        <time>2009-07-05T13:04:08Z</time>
      </trkpt>
      <trkpt lat="45.9367190" lon="9.0626550">
        <ele>1254.6800000</ele>
        <time>2009-07-05T13:04:12Z</time>
      </trkpt>
      <trkpt lat="45.9369040" lon="9.0630720">
        <ele>1254.0000000</ele>
        <time>2009-07-05T13:04:17Z</time>
      </trkpt>
      <trkpt lat="45.9371750" lon="9.0635030">
        <ele>1253.1700000</ele>
        <time>2009-07-05T13:04:22Z</time>
      </trkpt>
      <trkpt lat="45.9372930" lon="9.0636580">
        <ele>1254.0700000</ele>
        <time>2009-07-05T13:04:24Z</time>
      </trkpt>
      <trkpt lat="45.9375160" lon="9.0640130">
        <ele>1249.3800000</ele>
        <time>2009-07-05T13:04:29Z</time>
      </trkpt>
      <trkpt lat="45.9377320" lon="9.0639420">
        <ele>1247.2900000</ele>
        <time>2009-07-05T13:04:33Z</time>
      </trkpt>
      <trkpt lat="45.9378960" lon="9.0638600">
        <ele>1245.4100000</ele>
        <time>2009-07-05T13:04:35Z</time>
      </trkpt>
      <trkpt lat="45.9383430" lon="9.0637050">
        <ele>1240.6600000</ele>
        <time>2009-07-05T13:04:40Z</time>
      </trkpt>
      <trkpt lat="45.9384110" lon="9.0636850">
        <ele>1239.7000000</ele>
        <time>2009-07-05T13:04:41Z</time>
      </trkpt>
      <trkpt lat="45.9386990" lon="9.0634910">
        <ele>1237.4700000</ele>
        <time>2009-07-05T13:04:45Z</time>
      </trkpt>
      <trkpt lat="45.9388790" lon="9.0630040">
        <ele>1235.8300000</ele>
        <time>2009-07-05T13:04:49Z</time>
      </trkpt>
      <trkpt lat="45.9390470" lon="9.0628130">
        <ele>1235.8300000</ele>
        <time>2009-07-05T13:04:53Z</time>
      </trkpt>
      <trkpt lat="45.9392270" lon="9.0627910">
        <ele>1236.6600000</ele>
        <time>2009-07-05T13:04:57Z</time>
      </trkpt>
      <trkpt lat="45.9392820" lon="9.0628200">
        <ele>1236.6500000</ele>
        <time>2009-07-05T13:04:59Z</time>
      </trkpt>
      <trkpt lat="45.9393490" lon="9.0628540">
        <ele>1236.5500000</ele>
        <time>2009-07-05T13:05:01Z</time>
      </trkpt>
      <trkpt lat="45.9395520" lon="9.0628410">
        <ele>1233.9200000</ele>
        <time>2009-07-05T13:05:06Z</time>
      </trkpt>
      <trkpt lat="45.9397890" lon="9.0626770">
        <ele>1228.9700000</ele>
        <time>2009-07-05T13:05:10Z</time>
      </trkpt>
      <trkpt lat="45.9400030" lon="9.0623670">
        <ele>1225.6500000</ele>
        <time>2009-07-05T13:05:14Z</time>
      </trkpt>
      <trkpt lat="45.9400540" lon="9.0620420">
        <ele>1222.6800000</ele>
        <time>2009-07-05T13:05:17Z</time>
      </trkpt>
      <trkpt lat="45.9400590" lon="9.0618620">
        <ele>1221.6000000</ele>
        <time>2009-07-05T13:05:19Z</time>
      </trkpt>
      <trkpt lat="45.9400840" lon="9.0618230">
        <ele>1219.7200000</ele>
        <time>2009-07-05T13:05:22Z</time>
      </trkpt>
      <trkpt lat="45.9400670" lon="9.0618710">
        <ele>1219.2800000</ele>
        <time>2009-07-05T13:05:26Z</time>
      </trkpt>
      <trkpt lat="45.9400500" lon="9.0619580">
        <ele>1217.8600000</ele>
        <time>2009-07-05T13:06:40Z</time>
      </trkpt>
      <trkpt lat="45.9400880" lon="9.0620660">
        <ele>1217.4000000</ele>
        <time>2009-07-05T13:06:43Z</time>
      </trkpt>
      <trkpt lat="45.9402150" lon="9.0623120">
        <ele>1215.7700000</ele>
        <time>2009-07-05T13:06:47Z</time>
      </trkpt>
      <trkpt lat="45.9403070" lon="9.0624780">
        <ele>1213.8300000</ele>
        <time>2009-07-05T13:06:49Z</time>
      </trkpt>
      <trkpt lat="45.9403870" lon="9.0627630">
        <ele>1210.8300000</ele>
        <time>2009-07-05T13:06:53Z</time>
      </trkpt>
      <trkpt lat="45.9403740" lon="9.0628990">
        <ele>1208.4500000</ele>
        <time>2009-07-05T13:06:56Z</time>
      </trkpt>
      <trkpt lat="45.9404560" lon="9.0628250">
        <ele>1207.6000000</ele>
        <time>2009-07-05T13:06:59Z</time>
      </trkpt>
      <trkpt lat="45.9404870" lon="9.0627510">
        <ele>1207.1000000</ele>
        <time>2009-07-05T13:07:02Z</time>
      </trkpt>
      <trkpt lat="45.9404920" lon="9.0627340">
        <ele>1206.9500000</ele>
        <time>2009-07-05T13:07:07Z</time>
      </trkpt>
      <trkpt lat="45.9406130" lon="9.0627510">
        <ele>1203.9200000</ele>
        <time>2009-07-05T13:07:12Z</time>
      </trkpt>
      <trkpt lat="45.9406980" lon="9.0627870">
        <ele>1202.1800000</ele>
        <time>2009-07-05T13:07:14Z</time>
      </trkpt>
      <trkpt lat="45.9408490" lon="9.0629310">
        <ele>1196.5800000</ele>
        <time>2009-07-05T13:07:18Z</time>
      </trkpt>
      <trkpt lat="45.9408740" lon="9.0629540">
        <ele>1195.5500000</ele>
        <time>2009-07-05T13:07:21Z</time>
      </trkpt>
      <trkpt lat="45.9408690" lon="9.0629540">
        <ele>1194.9700000</ele>
        <time>2009-07-05T13:07:33Z</time>
      </trkpt>
      <trkpt lat="45.9409030" lon="9.0629430">
        <ele>1193.4700000</ele>
        <time>2009-07-05T13:08:44Z</time>
      </trkpt>
      <trkpt lat="45.9409090" lon="9.0629410">
        <ele>1193.3400000</ele>
        <time>2009-07-05T13:08:45Z</time>
      </trkpt>
      <trkpt lat="45.9410070" lon="9.0629590">
        <ele>1191.6400000</ele>
        <time>2009-07-05T13:08:49Z</time>
      </trkpt>
      <trkpt lat="45.9411620" lon="9.0629950">
        <ele>1188.8400000</ele>
        <time>2009-07-05T13:08:52Z</time>
      </trkpt>
      <trkpt lat="45.9413980" lon="9.0629010">
        <ele>1185.3600000</ele>
        <time>2009-07-05T13:08:56Z</time>
      </trkpt>
      <trkpt lat="45.9416260" lon="9.0628350">
        <ele>1183.2600000</ele>
        <time>2009-07-05T13:08:59Z</time>
      </trkpt>
      <trkpt lat="45.9418440" lon="9.0628800">
        <ele>1179.6400000</ele>
        <time>2009-07-05T13:09:02Z</time>
      </trkpt>
      <trkpt lat="45.9419420" lon="9.0629930">
        <ele>1177.4700000</ele>
        <time>2009-07-05T13:09:05Z</time>
      </trkpt>
      <trkpt lat="45.9419580" lon="9.0630770">
        <ele>1176.8300000</ele>
        <time>2009-07-05T13:09:07Z</time>
      </trkpt>
      <trkpt lat="45.9419280" lon="9.0631900">
        <ele>1174.8100000</ele>
        <time>2009-07-05T13:09:12Z</time>
      </trkpt>
      <trkpt lat="45.9419040" lon="9.0631910">
        <ele>1174.2200000</ele>
        <time>2009-07-05T13:09:13Z</time>
      </trkpt>
      <trkpt lat="45.9418630" lon="9.0631850">
        <ele>1173.6000000</ele>
        <time>2009-07-05T13:09:15Z</time>
      </trkpt>
      <trkpt lat="45.9418230" lon="9.0632030">
        <ele>1173.1600000</ele>
        <time>2009-07-05T13:09:20Z</time>
      </trkpt>
      <trkpt lat="45.9417960" lon="9.0632150">
        <ele>1173.0500000</ele>
        <time>2009-07-05T13:09:25Z</time>
      </trkpt>
      <trkpt lat="45.9417600" lon="9.0632330">
        <ele>1173.2200000</ele>
        <time>2009-07-05T13:09:27Z</time>
      </trkpt>
      <trkpt lat="45.9417570" lon="9.0633280">
        <ele>1172.9500000</ele>
        <time>2009-07-05T13:09:34Z</time>
      </trkpt>
      <trkpt lat="45.9418110" lon="9.0633990">
        <ele>1172.6200000</ele>
        <time>2009-07-05T13:09:39Z</time>
      </trkpt>
      <trkpt lat="45.9418180" lon="9.0634340">
        <ele>1172.5200000</ele>
        <time>2009-07-05T13:09:44Z</time>
      </trkpt>
      <trkpt lat="45.9418090" lon="9.0634620">
        <ele>1172.3600000</ele>
        <time>2009-07-05T13:09:51Z</time>
      </trkpt>
      <trkpt lat="45.9418400" lon="9.0634570">
        <ele>1166.8000000</ele>
        <time>2009-07-05T13:21:40Z</time>
      </trkpt>
      <trkpt lat="45.9419140" lon="9.0634580">
        <ele>1166.9200000</ele>
        <time>2009-07-05T13:21:45Z</time>
      </trkpt>
      <trkpt lat="45.9421160" lon="9.0635840">
        <ele>1165.3600000</ele>
        <time>2009-07-05T13:21:50Z</time>
      </trkpt>
      <trkpt lat="45.9424420" lon="9.0637120">
        <ele>1160.5100000</ele>
        <time>2009-07-05T13:21:56Z</time>
      </trkpt>
      <trkpt lat="45.9426850" lon="9.0637910">
        <ele>1157.8500000</ele>
        <time>2009-07-05T13:22:01Z</time>
      </trkpt>
      <trkpt lat="45.9430160" lon="9.0637110">
        <ele>1155.1700000</ele>
        <time>2009-07-05T13:22:05Z</time>
      </trkpt>
      <trkpt lat="45.9434160" lon="9.0635250">
        <ele>1150.1200000</ele>
        <time>2009-07-05T13:22:09Z</time>
      </trkpt>
      <trkpt lat="45.9436610" lon="9.0633300">
        <ele>1146.6800000</ele>
        <time>2009-07-05T13:22:12Z</time>
      </trkpt>
      <trkpt lat="45.9438040" lon="9.0631500">
        <ele>1145.7200000</ele>
        <time>2009-07-05T13:22:14Z</time>
      </trkpt>
      <trkpt lat="45.9439670" lon="9.0627840">
        <ele>1143.2000000</ele>
        <time>2009-07-05T13:22:17Z</time>
      </trkpt>
      <trkpt lat="45.9440520" lon="9.0626290">
        <ele>1140.4900000</ele>
        <time>2009-07-05T13:22:19Z</time>
      </trkpt>
      <trkpt lat="45.9440700" lon="9.0628120">
        <ele>1138.3500000</ele>
        <time>2009-07-05T13:22:21Z</time>
      </trkpt>
      <trkpt lat="45.9440550" lon="9.0629140">
        <ele>1138.0700000</ele>
        <time>2009-07-05T13:22:22Z</time>
      </trkpt>
      <trkpt lat="45.9438140" lon="9.0635680">
        <ele>1135.2800000</ele>
        <time>2009-07-05T13:22:28Z</time>
      </trkpt>
      <trkpt lat="45.9436060" lon="9.0640850">
        <ele>1132.4600000</ele>
        <time>2009-07-05T13:22:32Z</time>
      </trkpt>
      <trkpt lat="45.9435020" lon="9.0643710">
        <ele>1131.6600000</ele>
        <time>2009-07-05T13:22:34Z</time>
      </trkpt>
      <trkpt lat="45.9433890" lon="9.0646660">
        <ele>1130.2100000</ele>
        <time>2009-07-05T13:22:36Z</time>
      </trkpt>
      <trkpt lat="45.9433280" lon="9.0651070">
        <ele>1127.6300000</ele>
        <time>2009-07-05T13:22:39Z</time>
      </trkpt>
      <trkpt lat="45.9434370" lon="9.0654340">
        <ele>1123.6500000</ele>
        <time>2009-07-05T13:22:42Z</time>
      </trkpt>
      <trkpt lat="45.9436160" lon="9.0654550">
        <ele>1122.1400000</ele>
        <time>2009-07-05T13:22:44Z</time>
      </trkpt>
      <trkpt lat="45.9438970" lon="9.0654110">
        <ele>1120.1000000</ele>
        <time>2009-07-05T13:22:47Z</time>
      </trkpt>
      <trkpt lat="45.9441950" lon="9.0652160">
        <ele>1116.6800000</ele>
        <time>2009-07-05T13:22:50Z</time>
      </trkpt>
      <trkpt lat="45.9443630" lon="9.0649620">
        <ele>1114.2700000</ele>
        <time>2009-07-05T13:22:52Z</time>
      </trkpt>
      <trkpt lat="45.9446290" lon="9.0644250">
        <ele>1110.7800000</ele>
        <time>2009-07-05T13:22:56Z</time>
      </trkpt>
      <trkpt lat="45.9447030" lon="9.0642720">
        <ele>1109.3300000</ele>
        <time>2009-07-05T13:22:58Z</time>
      </trkpt>
      <trkpt lat="45.9449630" lon="9.0639300">
        <ele>1106.2300000</ele>
        <time>2009-07-05T13:23:04Z</time>
      </trkpt>
      <trkpt lat="45.9450800" lon="9.0637790">
        <ele>1105.1700000</ele>
        <time>2009-07-05T13:23:06Z</time>
      </trkpt>
      <trkpt lat="45.9453190" lon="9.0635710">
        <ele>1102.5300000</ele>
        <time>2009-07-05T13:23:09Z</time>
      </trkpt>
      <trkpt lat="45.9456170" lon="9.0632050">
        <ele>1097.1000000</ele>
        <time>2009-07-05T13:23:13Z</time>
      </trkpt>
      <trkpt lat="45.9457060" lon="9.0630710">
        <ele>1094.6600000</ele>
        <time>2009-07-05T13:23:16Z</time>
      </trkpt>
      <trkpt lat="45.9457460" lon="9.0630320">
        <ele>1094.3500000</ele>
        <time>2009-07-05T13:23:20Z</time>
      </trkpt>
      <trkpt lat="45.9457250" lon="9.0630710">
        <ele>1093.9200000</ele>
        <time>2009-07-05T13:23:54Z</time>
      </trkpt>
      <trkpt lat="45.9457340" lon="9.0632190">
        <ele>1092.8500000</ele>
        <time>2009-07-05T13:23:59Z</time>
      </trkpt>
      <trkpt lat="45.9457430" lon="9.0632930">
        <ele>1092.2900000</ele>
        <time>2009-07-05T13:24:00Z</time>
      </trkpt>
      <trkpt lat="45.9457440" lon="9.0638590">
        <ele>1086.4600000</ele>
        <time>2009-07-05T13:24:06Z</time>
      </trkpt>
      <trkpt lat="45.9456210" lon="9.0641650">
        <ele>1084.5300000</ele>
        <time>2009-07-05T13:24:09Z</time>
      </trkpt>
      <trkpt lat="45.9454250" lon="9.0646090">
        <ele>1081.5100000</ele>
        <time>2009-07-05T13:24:13Z</time>
      </trkpt>
      <trkpt lat="45.9452890" lon="9.0649920">
        <ele>1075.6700000</ele>
        <time>2009-07-05T13:24:16Z</time>
      </trkpt>
      <trkpt lat="45.9452750" lon="9.0654070">
        <ele>1072.0400000</ele>
        <time>2009-07-05T13:24:20Z</time>
      </trkpt>
      <trkpt lat="45.9453000" lon="9.0654900">
        <ele>1071.0800000</ele>
        <time>2009-07-05T13:24:21Z</time>
      </trkpt>
      <trkpt lat="45.9453360" lon="9.0657110">
        <ele>1068.1300000</ele>
        <time>2009-07-05T13:24:24Z</time>
      </trkpt>
      <trkpt lat="45.9452740" lon="9.0661080">
        <ele>1064.4300000</ele>
        <time>2009-07-05T13:24:28Z</time>
      </trkpt>
      <trkpt lat="45.9452500" lon="9.0663450">
        <ele>1063.1900000</ele>
        <time>2009-07-05T13:24:30Z</time>
      </trkpt>
      <trkpt lat="45.9451240" lon="9.0668270">
        <ele>1052.6900000</ele>
        <time>2009-07-05T13:24:35Z</time>
      </trkpt>
      <trkpt lat="45.9449230" lon="9.0672180">
        <ele>1047.0500000</ele>
        <time>2009-07-05T13:24:39Z</time>
      </trkpt>
      <trkpt lat="45.9448770" lon="9.0673240">
        <ele>1045.4000000</ele>
        <time>2009-07-05T13:24:40Z</time>
      </trkpt>
      <trkpt lat="45.9447920" lon="9.0675510">
        <ele>1044.3700000</ele>
        <time>2009-07-05T13:24:42Z</time>
      </trkpt>
      <trkpt lat="45.9447430" lon="9.0676670">
        <ele>1042.8300000</ele>
        <time>2009-07-05T13:24:43Z</time>
      </trkpt>
      <trkpt lat="45.9445390" lon="9.0681600">
        <ele>1035.4500000</ele>
        <time>2009-07-05T13:24:47Z</time>
      </trkpt>
      <trkpt lat="45.9444020" lon="9.0686110">
        <ele>1028.9800000</ele>
        <time>2009-07-05T13:24:51Z</time>
      </trkpt>
      <trkpt lat="45.9443580" lon="9.0689090">
        <ele>1024.2100000</ele>
        <time>2009-07-05T13:24:56Z</time>
      </trkpt>
      <trkpt lat="45.9443420" lon="9.0689190">
        <ele>1024.0600000</ele>
        <time>2009-07-05T13:24:57Z</time>
      </trkpt>
      <trkpt lat="45.9443300" lon="9.0689160">
        <ele>1024.1000000</ele>
        <time>2009-07-05T13:25:01Z</time>
      </trkpt>
      <trkpt lat="45.9442990" lon="9.0688920">
        <ele>1024.4500000</ele>
        <time>2009-07-05T13:25:31Z</time>
      </trkpt>
      <trkpt lat="45.9442330" lon="9.0688320">
        <ele>1024.2000000</ele>
        <time>2009-07-05T13:25:37Z</time>
      </trkpt>
      <trkpt lat="45.9441140" lon="9.0687480">
        <ele>1024.7600000</ele>
        <time>2009-07-05T13:25:45Z</time>
      </trkpt>
      <trkpt lat="45.9440220" lon="9.0686470">
        <ele>1025.7600000</ele>
        <time>2009-07-05T13:25:51Z</time>
      </trkpt>
      <trkpt lat="45.9439290" lon="9.0685990">
        <ele>1026.7900000</ele>
        <time>2009-07-05T13:25:56Z</time>
      </trkpt>
      <trkpt lat="45.9438550" lon="9.0685350">
        <ele>1027.2300000</ele>
        <time>2009-07-05T13:26:01Z</time>
      </trkpt>
      <trkpt lat="45.9438210" lon="9.0685020">
        <ele>1027.1500000</ele>
        <time>2009-07-05T13:26:06Z</time>
      </trkpt>
      <trkpt lat="45.9438190" lon="9.0684810">
        <ele>1027.2500000</ele>
        <time>2009-07-05T13:26:13Z</time>
      </trkpt>
      <trkpt lat="45.9437730" lon="9.0684280">
        <ele>1027.5400000</ele>
        <time>2009-07-05T13:26:47Z</time>
      </trkpt>
      <trkpt lat="45.9436730" lon="9.0683450">
        <ele>1028.4200000</ele>
        <time>2009-07-05T13:26:53Z</time>
      </trkpt>
      <trkpt lat="45.9435920" lon="9.0683050">
        <ele>1029.0000000</ele>
        <time>2009-07-05T13:26:59Z</time>
      </trkpt>
      <trkpt lat="45.9435790" lon="9.0682930">
        <ele>1029.2200000</ele>
        <time>2009-07-05T13:27:00Z</time>
      </trkpt>
      <trkpt lat="45.9435390" lon="9.0682790">
        <ele>1029.2900000</ele>
        <time>2009-07-05T13:27:03Z</time>
      </trkpt>
      <trkpt lat="45.9434820" lon="9.0682380">
        <ele>1029.7100000</ele>
        <time>2009-07-05T13:27:07Z</time>
      </trkpt>
      <trkpt lat="45.9433850" lon="9.0681740">
        <ele>1030.4700000</ele>
        <time>2009-07-05T13:27:14Z</time>
      </trkpt>
      <trkpt lat="45.9432770" lon="9.0681060">
        <ele>1030.8500000</ele>
        <time>2009-07-05T13:27:21Z</time>
      </trkpt>
      <trkpt lat="45.9431780" lon="9.0680510">
        <ele>1031.5400000</ele>
        <time>2009-07-05T13:27:28Z</time>
      </trkpt>
      <trkpt lat="45.9430400" lon="9.0680080">
        <ele>1032.7200000</ele>
        <time>2009-07-05T13:27:37Z</time>
      </trkpt>
      <trkpt lat="45.9429290" lon="9.0679600">
        <ele>1033.1800000</ele>
        <time>2009-07-05T13:27:45Z</time>
      </trkpt>
      <trkpt lat="45.9428430" lon="9.0678530">
        <ele>1033.1300000</ele>
        <time>2009-07-05T13:27:53Z</time>
      </trkpt>
      <trkpt lat="45.9428110" lon="9.0677680">
        <ele>1033.7700000</ele>
        <time>2009-07-05T13:27:58Z</time>
      </trkpt>
      <trkpt lat="45.9427780" lon="9.0676420">
        <ele>1034.6600000</ele>
        <time>2009-07-05T13:28:06Z</time>
      </trkpt>
      <trkpt lat="45.9427420" lon="9.0675400">
        <ele>1035.1700000</ele>
        <time>2009-07-05T13:28:12Z</time>
      </trkpt>
      <trkpt lat="45.9427080" lon="9.0674380">
        <ele>1038.0200000</ele>
        <time>2009-07-05T13:28:18Z</time>
      </trkpt>
      <trkpt lat="45.9426970" lon="9.0673660">
        <ele>1036.4000000</ele>
        <time>2009-07-05T13:28:22Z</time>
      </trkpt>
      <trkpt lat="45.9426830" lon="9.0672740">
        <ele>1036.7200000</ele>
        <time>2009-07-05T13:28:28Z</time>
      </trkpt>
      <trkpt lat="45.9426580" lon="9.0671810">
        <ele>1036.6900000</ele>
        <time>2009-07-05T13:28:33Z</time>
      </trkpt>
      <trkpt lat="45.9426120" lon="9.0670680">
        <ele>1037.9700000</ele>
        <time>2009-07-05T13:28:40Z</time>
      </trkpt>
      <trkpt lat="45.9425920" lon="9.0670030">
        <ele>1038.2800000</ele>
        <time>2009-07-05T13:28:45Z</time>
      </trkpt>
      <trkpt lat="45.9425730" lon="9.0668650">
        <ele>1038.7300000</ele>
        <time>2009-07-05T13:28:53Z</time>
      </trkpt>
      <trkpt lat="45.9425450" lon="9.0667890">
        <ele>1039.4000000</ele>
        <time>2009-07-05T13:28:59Z</time>
      </trkpt>
      <trkpt lat="45.9425420" lon="9.0667820">
        <ele>1039.4800000</ele>
        <time>2009-07-05T13:29:00Z</time>
      </trkpt>
      <trkpt lat="45.9425250" lon="9.0667180">
        <ele>1040.3300000</ele>
        <time>2009-07-05T13:29:05Z</time>
      </trkpt>
      <trkpt lat="45.9425200" lon="9.0666700">
        <ele>1040.4000000</ele>
        <time>2009-07-05T13:29:09Z</time>
      </trkpt>
      <trkpt lat="45.9425250" lon="9.0666080">
        <ele>1040.9200000</ele>
        <time>2009-07-05T13:29:13Z</time>
      </trkpt>
      <trkpt lat="45.9425210" lon="9.0665600">
        <ele>1041.1400000</ele>
        <time>2009-07-05T13:29:16Z</time>
      </trkpt>
      <trkpt lat="45.9424860" lon="9.0664550">
        <ele>1041.5600000</ele>
        <time>2009-07-05T13:29:23Z</time>
      </trkpt>
      <trkpt lat="45.9424900" lon="9.0664120">
        <ele>1046.2700000</ele>
        <time>2009-07-05T13:29:26Z</time>
      </trkpt>
      <trkpt lat="45.9424490" lon="9.0662980">
        <ele>1041.9900000</ele>
        <time>2009-07-05T13:29:31Z</time>
      </trkpt>
      <trkpt lat="45.9423900" lon="9.0662140">
        <ele>1042.2000000</ele>
        <time>2009-07-05T13:29:37Z</time>
      </trkpt>
      <trkpt lat="45.9422850" lon="9.0661070">
        <ele>1042.4600000</ele>
        <time>2009-07-05T13:29:45Z</time>
      </trkpt>
      <trkpt lat="45.9421860" lon="9.0661000">
        <ele>1042.9600000</ele>
        <time>2009-07-05T13:29:52Z</time>
      </trkpt>
      <trkpt lat="45.9420680" lon="9.0660840">
        <ele>1043.9200000</ele>
        <time>2009-07-05T13:30:00Z</time>
      </trkpt>
      <trkpt lat="45.9419690" lon="9.0660720">
        <ele>1044.7500000</ele>
        <time>2009-07-05T13:30:07Z</time>
      </trkpt>
      <trkpt lat="45.9419240" lon="9.0660620">
        <ele>1045.3000000</ele>
        <time>2009-07-05T13:30:10Z</time>
      </trkpt>
      <trkpt lat="45.9418180" lon="9.0660370">
        <ele>1046.1000000</ele>
        <time>2009-07-05T13:30:17Z</time>
      </trkpt>
      <trkpt lat="45.9417190" lon="9.0660010">
        <ele>1046.8900000</ele>
        <time>2009-07-05T13:30:25Z</time>
      </trkpt>
      <trkpt lat="45.9416330" lon="9.0659600">
        <ele>1047.6600000</ele>
        <time>2009-07-05T13:30:33Z</time>
      </trkpt>
      <trkpt lat="45.9415450" lon="9.0659010">
        <ele>1048.3800000</ele>
        <time>2009-07-05T13:30:42Z</time>
      </trkpt>
      <trkpt lat="45.9414710" lon="9.0658420">
        <ele>1049.4800000</ele>
        <time>2009-07-05T13:30:50Z</time>
      </trkpt>
      <trkpt lat="45.9414340" lon="9.0658130">
        <ele>1050.1100000</ele>
        <time>2009-07-05T13:30:56Z</time>
      </trkpt>
      <trkpt lat="45.9413750" lon="9.0657620">
        <ele>1050.5900000</ele>
        <time>2009-07-05T13:31:03Z</time>
      </trkpt>
      <trkpt lat="45.9413360" lon="9.0657020">
        <ele>1051.0800000</ele>
        <time>2009-07-05T13:31:08Z</time>
      </trkpt>
      <trkpt lat="45.9412560" lon="9.0656240">
        <ele>1051.5600000</ele>
        <time>2009-07-05T13:31:16Z</time>
      </trkpt>
      <trkpt lat="45.9411560" lon="9.0655630">
        <ele>1052.2400000</ele>
        <time>2009-07-05T13:31:24Z</time>
      </trkpt>
      <trkpt lat="45.9410690" lon="9.0655620">
        <ele>1052.4000000</ele>
        <time>2009-07-05T13:31:31Z</time>
      </trkpt>
      <trkpt lat="45.9409660" lon="9.0655820">
        <ele>1053.0600000</ele>
        <time>2009-07-05T13:31:40Z</time>
      </trkpt>
      <trkpt lat="45.9408780" lon="9.0656020">
        <ele>1053.6300000</ele>
        <time>2009-07-05T13:31:48Z</time>
      </trkpt>
      <trkpt lat="45.9408090" lon="9.0656060">
        <ele>1054.3400000</ele>
        <time>2009-07-05T13:31:54Z</time>
      </trkpt>
      <trkpt lat="45.9407480" lon="9.0655840">
        <ele>1054.5300000</ele>
        <time>2009-07-05T13:31:59Z</time>
      </trkpt>
      <trkpt lat="45.9406550" lon="9.0655430">
        <ele>1055.8700000</ele>
        <time>2009-07-05T13:32:07Z</time>
      </trkpt>
      <trkpt lat="45.9405810" lon="9.0655500">
        <ele>1056.9700000</ele>
        <time>2009-07-05T13:32:14Z</time>
      </trkpt>
      <trkpt lat="45.9404860" lon="9.0655580">
        <ele>1058.0100000</ele>
        <time>2009-07-05T13:32:23Z</time>
      </trkpt>
      <trkpt lat="45.9404490" lon="9.0655660">
        <ele>1058.6700000</ele>
        <time>2009-07-05T13:32:27Z</time>
      </trkpt>
      <trkpt lat="45.9404070" lon="9.0655740">
        <ele>1059.0700000</ele>
        <time>2009-07-05T13:32:31Z</time>
      </trkpt>
      <trkpt lat="45.9403080" lon="9.0656060">
        <ele>1059.9700000</ele>
        <time>2009-07-05T13:32:39Z</time>
      </trkpt>
      <trkpt lat="45.9402100" lon="9.0656450">
        <ele>1060.7400000</ele>
        <time>2009-07-05T13:32:48Z</time>
      </trkpt>
      <trkpt lat="45.9401180" lon="9.0656700">
        <ele>1062.3100000</ele>
        <time>2009-07-05T13:32:57Z</time>
      </trkpt>
      <trkpt lat="45.9400290" lon="9.0656770">
        <ele>1063.3000000</ele>
        <time>2009-07-05T13:33:05Z</time>
      </trkpt>
      <trkpt lat="45.9399550" lon="9.0656720">
        <ele>1064.2100000</ele>
        <time>2009-07-05T13:33:12Z</time>
      </trkpt>
      <trkpt lat="45.9399360" lon="9.0656680">
        <ele>1064.5700000</ele>
        <time>2009-07-05T13:33:14Z</time>
      </trkpt>
      <trkpt lat="45.9398780" lon="9.0656360">
        <ele>1064.7300000</ele>
        <time>2009-07-05T13:33:20Z</time>
      </trkpt>
      <trkpt lat="45.9398350" lon="9.0656070">
        <ele>1065.0200000</ele>
        <time>2009-07-05T13:33:25Z</time>
      </trkpt>
      <trkpt lat="45.9398310" lon="9.0656590">
        <ele>1065.1800000</ele>
        <time>2009-07-05T13:33:30Z</time>
      </trkpt>
      <trkpt lat="45.9397760" lon="9.0656440">
        <ele>1065.5200000</ele>
        <time>2009-07-05T13:34:43Z</time>
      </trkpt>
      <trkpt lat="45.9397600" lon="9.0656280">
        <ele>1065.5200000</ele>
        <time>2009-07-05T13:34:44Z</time>
      </trkpt>
      <trkpt lat="45.9396620" lon="9.0656600">
        <ele>1065.8700000</ele>
        <time>2009-07-05T13:34:50Z</time>
      </trkpt>
      <trkpt lat="45.9395730" lon="9.0657730">
        <ele>1066.2800000</ele>
        <time>2009-07-05T13:34:58Z</time>
      </trkpt>
      <trkpt lat="45.9394990" lon="9.0658940">
        <ele>1066.9400000</ele>
        <time>2009-07-05T13:35:06Z</time>
      </trkpt>
      <trkpt lat="45.9394490" lon="9.0659760">
        <ele>1067.2600000</ele>
        <time>2009-07-05T13:35:12Z</time>
      </trkpt>
      <trkpt lat="45.9394300" lon="9.0660040">
        <ele>1067.2500000</ele>
        <time>2009-07-05T13:35:14Z</time>
      </trkpt>
      <trkpt lat="45.9393640" lon="9.0660620">
        <ele>1068.2300000</ele>
        <time>2009-07-05T13:35:21Z</time>
      </trkpt>
      <trkpt lat="45.9392640" lon="9.0661090">
        <ele>1068.7200000</ele>
        <time>2009-07-05T13:35:29Z</time>
      </trkpt>
      <trkpt lat="45.9391620" lon="9.0661630">
        <ele>1069.3700000</ele>
        <time>2009-07-05T13:35:37Z</time>
      </trkpt>
      <trkpt lat="45.9390690" lon="9.0661920">
        <ele>1069.4300000</ele>
        <time>2009-07-05T13:35:44Z</time>
      </trkpt>
      <trkpt lat="45.9389460" lon="9.0662090">
        <ele>1069.7800000</ele>
        <time>2009-07-05T13:35:52Z</time>
      </trkpt>
      <trkpt lat="45.9387940" lon="9.0662250">
        <ele>1069.8000000</ele>
        <time>2009-07-05T13:36:00Z</time>
      </trkpt>
      <trkpt lat="45.9387000" lon="9.0662720">
        <ele>1070.0300000</ele>
        <time>2009-07-05T13:36:06Z</time>
      </trkpt>
      <trkpt lat="45.9385990" lon="9.0663610">
        <ele>1070.0500000</ele>
        <time>2009-07-05T13:36:12Z</time>
      </trkpt>
      <trkpt lat="45.9384440" lon="9.0665260">
        <ele>1070.8800000</ele>
        <time>2009-07-05T13:36:22Z</time>
      </trkpt>
      <trkpt lat="45.9383480" lon="9.0665940">
        <ele>1071.5300000</ele>
        <time>2009-07-05T13:36:29Z</time>
      </trkpt>
      <trkpt lat="45.9382120" lon="9.0666790">
        <ele>1072.5500000</ele>
        <time>2009-07-05T13:36:39Z</time>
      </trkpt>
      <trkpt lat="45.9380820" lon="9.0667250">
        <ele>1073.2000000</ele>
        <time>2009-07-05T13:36:48Z</time>
      </trkpt>
      <trkpt lat="45.9379570" lon="9.0667410">
        <ele>1074.4700000</ele>
        <time>2009-07-05T13:36:57Z</time>
      </trkpt>
      <trkpt lat="45.9378580" lon="9.0667740">
        <ele>1075.5200000</ele>
        <time>2009-07-05T13:37:05Z</time>
      </trkpt>
      <trkpt lat="45.9377560" lon="9.0668030">
        <ele>1076.7700000</ele>
        <time>2009-07-05T13:37:13Z</time>
      </trkpt>
      <trkpt lat="45.9376460" lon="9.0668440">
        <ele>1078.0400000</ele>
        <time>2009-07-05T13:37:22Z</time>
      </trkpt>
      <trkpt lat="45.9375590" lon="9.0668840">
        <ele>1078.7900000</ele>
        <time>2009-07-05T13:37:30Z</time>
      </trkpt>
      <trkpt lat="45.9374430" lon="9.0669390">
        <ele>1080.3100000</ele>
        <time>2009-07-05T13:37:41Z</time>
      </trkpt>
      <trkpt lat="45.9373520" lon="9.0669820">
        <ele>1081.2400000</ele>
        <time>2009-07-05T13:37:50Z</time>
      </trkpt>
      <trkpt lat="45.9372620" lon="9.0670260">
        <ele>1082.7000000</ele>
        <time>2009-07-05T13:37:59Z</time>
      </trkpt>
      <trkpt lat="45.9371710" lon="9.0670700">
        <ele>1083.3700000</ele>
        <time>2009-07-05T13:38:08Z</time>
      </trkpt>
      <trkpt lat="45.9370800" lon="9.0671310">
        <ele>1084.6900000</ele>
        <time>2009-07-05T13:38:18Z</time>
      </trkpt>
      <trkpt lat="45.9370100" lon="9.0671710">
        <ele>1085.5600000</ele>
        <time>2009-07-05T13:38:26Z</time>
      </trkpt>
      <trkpt lat="45.9369290" lon="9.0672330">
        <ele>1086.2100000</ele>
        <time>2009-07-05T13:38:35Z</time>
      </trkpt>
      <trkpt lat="45.9368430" lon="9.0672860">
        <ele>1087.3100000</ele>
        <time>2009-07-05T13:38:43Z</time>
      </trkpt>
      <trkpt lat="45.9367630" lon="9.0673560">
        <ele>1088.2900000</ele>
        <time>2009-07-05T13:38:51Z</time>
      </trkpt>
      <trkpt lat="45.9366470" lon="9.0674190">
        <ele>1088.8100000</ele>
        <time>2009-07-05T13:39:01Z</time>
      </trkpt>
      <trkpt lat="45.9365400" lon="9.0674630">
        <ele>1089.4600000</ele>
        <time>2009-07-05T13:39:09Z</time>
      </trkpt>
      <trkpt lat="45.9364210" lon="9.0675400">
        <ele>1089.4100000</ele>
        <time>2009-07-05T13:39:18Z</time>
      </trkpt>
      <trkpt lat="45.9362770" lon="9.0676490">
        <ele>1089.4300000</ele>
        <time>2009-07-05T13:39:28Z</time>
      </trkpt>
      <trkpt lat="45.9361710" lon="9.0677310">
        <ele>1089.9700000</ele>
        <time>2009-07-05T13:39:35Z</time>
      </trkpt>
      <trkpt lat="45.9360160" lon="9.0677820">
        <ele>1089.7500000</ele>
        <time>2009-07-05T13:39:43Z</time>
      </trkpt>
      <trkpt lat="45.9358050" lon="9.0677260">
        <ele>1088.9500000</ele>
        <time>2009-07-05T13:39:52Z</time>
      </trkpt>
      <trkpt lat="45.9356230" lon="9.0675700">
        <ele>1088.9600000</ele>
        <time>2009-07-05T13:40:01Z</time>
      </trkpt>
      <trkpt lat="45.9355620" lon="9.0674440">
        <ele>1088.6300000</ele>
        <time>2009-07-05T13:40:06Z</time>
      </trkpt>
      <trkpt lat="45.9354970" lon="9.0672750">
        <ele>1088.8100000</ele>
        <time>2009-07-05T13:40:12Z</time>
      </trkpt>
      <trkpt lat="45.9354610" lon="9.0670810">
        <ele>1089.0300000</ele>
        <time>2009-07-05T13:40:19Z</time>
      </trkpt>
      <trkpt lat="45.9354820" lon="9.0668930">
        <ele>1088.2400000</ele>
        <time>2009-07-05T13:40:25Z</time>
      </trkpt>
      <trkpt lat="45.9354600" lon="9.0666630">
        <ele>1088.7300000</ele>
        <time>2009-07-05T13:40:32Z</time>
      </trkpt>
      <trkpt lat="45.9354530" lon="9.0664390">
        <ele>1089.8100000</ele>
        <time>2009-07-05T13:40:41Z</time>
      </trkpt>
      <trkpt lat="45.9354170" lon="9.0662150">
        <ele>1091.1100000</ele>
        <time>2009-07-05T13:40:51Z</time>
      </trkpt>
      <trkpt lat="45.9354090" lon="9.0661980">
        <ele>1091.3300000</ele>
        <time>2009-07-05T13:40:52Z</time>
      </trkpt>
      <trkpt lat="45.9353760" lon="9.0660750">
        <ele>1091.6800000</ele>
        <time>2009-07-05T13:40:58Z</time>
      </trkpt>
      <trkpt lat="45.9352830" lon="9.0659410">
        <ele>1092.2100000</ele>
        <time>2009-07-05T13:41:06Z</time>
      </trkpt>
      <trkpt lat="45.9351560" lon="9.0658850">
        <ele>1092.7600000</ele>
        <time>2009-07-05T13:41:14Z</time>
      </trkpt>
      <trkpt lat="45.9350240" lon="9.0658150">
        <ele>1093.0200000</ele>
        <time>2009-07-05T13:41:22Z</time>
      </trkpt>
      <trkpt lat="45.9349200" lon="9.0657130">
        <ele>1092.9100000</ele>
        <time>2009-07-05T13:41:29Z</time>
      </trkpt>
      <trkpt lat="45.9348040" lon="9.0655760">
        <ele>1092.0300000</ele>
        <time>2009-07-05T13:41:34Z</time>
      </trkpt>
      <trkpt lat="45.9346300" lon="9.0654670">
        <ele>1091.4400000</ele>
        <time>2009-07-05T13:41:39Z</time>
      </trkpt>
      <trkpt lat="45.9344340" lon="9.0655450">
        <ele>1091.3400000</ele>
        <time>2009-07-05T13:41:45Z</time>
      </trkpt>
      <trkpt lat="45.9342710" lon="9.0656000">
        <ele>1091.2200000</ele>
        <time>2009-07-05T13:41:51Z</time>
      </trkpt>
      <trkpt lat="45.9340680" lon="9.0655650">
        <ele>1092.0700000</ele>
        <time>2009-07-05T13:41:59Z</time>
      </trkpt>
      <trkpt lat="45.9339470" lon="9.0655430">
        <ele>1092.4200000</ele>
        <time>2009-07-05T13:42:05Z</time>
      </trkpt>
      <trkpt lat="45.9337920" lon="9.0654750">
        <ele>1092.9100000</ele>
        <time>2009-07-05T13:42:14Z</time>
      </trkpt>
      <trkpt lat="45.9336970" lon="9.0654140">
        <ele>1093.0900000</ele>
        <time>2009-07-05T13:42:20Z</time>
      </trkpt>
      <trkpt lat="45.9335800" lon="9.0653430">
        <ele>1093.2800000</ele>
        <time>2009-07-05T13:42:27Z</time>
      </trkpt>
      <trkpt lat="45.9334660" lon="9.0652200">
        <ele>1093.4400000</ele>
        <time>2009-07-05T13:42:34Z</time>
      </trkpt>
      <trkpt lat="45.9333380" lon="9.0650110">
        <ele>1092.9300000</ele>
        <time>2009-07-05T13:42:41Z</time>
      </trkpt>
      <trkpt lat="45.9332190" lon="9.0646970">
        <ele>1092.4100000</ele>
        <time>2009-07-05T13:42:49Z</time>
      </trkpt>
      <trkpt lat="45.9331400" lon="9.0644400">
        <ele>1092.4700000</ele>
        <time>2009-07-05T13:42:56Z</time>
      </trkpt>
      <trkpt lat="45.9330810" lon="9.0642870">
        <ele>1092.3700000</ele>
        <time>2009-07-05T13:43:01Z</time>
      </trkpt>
      <trkpt lat="45.9329830" lon="9.0641310">
        <ele>1092.3300000</ele>
        <time>2009-07-05T13:43:06Z</time>
      </trkpt>
      <trkpt lat="45.9328360" lon="9.0639360">
        <ele>1092.0200000</ele>
        <time>2009-07-05T13:43:13Z</time>
      </trkpt>
      <trkpt lat="45.9326560" lon="9.0637880">
        <ele>1090.8300000</ele>
        <time>2009-07-05T13:43:19Z</time>
      </trkpt>
      <trkpt lat="45.9324550" lon="9.0637240">
        <ele>1089.9500000</ele>
        <time>2009-07-05T13:43:25Z</time>
      </trkpt>
      <trkpt lat="45.9323420" lon="9.0636900">
        <ele>1088.7000000</ele>
        <time>2009-07-05T13:43:28Z</time>
      </trkpt>
      <trkpt lat="45.9320780" lon="9.0637170">
        <ele>1087.4100000</ele>
        <time>2009-07-05T13:43:33Z</time>
      </trkpt>
      <trkpt lat="45.9319320" lon="9.0638880">
        <ele>1086.0500000</ele>
        <time>2009-07-05T13:43:36Z</time>
      </trkpt>
      <trkpt lat="45.9318370" lon="9.0641600">
        <ele>1084.0200000</ele>
        <time>2009-07-05T13:43:39Z</time>
      </trkpt>
      <trkpt lat="45.9317210" lon="9.0646330">
        <ele>1083.0900000</ele>
        <time>2009-07-05T13:43:44Z</time>
      </trkpt>
      <trkpt lat="45.9316560" lon="9.0648740">
        <ele>1084.2500000</ele>
        <time>2009-07-05T13:43:48Z</time>
      </trkpt>
      <trkpt lat="45.9315960" lon="9.0650020">
        <ele>1084.9400000</ele>
        <time>2009-07-05T13:43:54Z</time>
      </trkpt>
      <trkpt lat="45.9315870" lon="9.0650170">
        <ele>1085.2200000</ele>
        <time>2009-07-05T13:43:55Z</time>
      </trkpt>
      <trkpt lat="45.9315270" lon="9.0651740">
        <ele>1086.1500000</ele>
        <time>2009-07-05T13:44:03Z</time>
      </trkpt>
      <trkpt lat="45.9314690" lon="9.0652910">
        <ele>1087.0100000</ele>
        <time>2009-07-05T13:44:10Z</time>
      </trkpt>
      <trkpt lat="45.9314350" lon="9.0654020">
        <ele>1087.4400000</ele>
        <time>2009-07-05T13:44:15Z</time>
      </trkpt>
      <trkpt lat="45.9313640" lon="9.0655520">
        <ele>1087.9500000</ele>
        <time>2009-07-05T13:44:22Z</time>
      </trkpt>
      <trkpt lat="45.9313080" lon="9.0656310">
        <ele>1088.3300000</ele>
        <time>2009-07-05T13:44:28Z</time>
      </trkpt>
      <trkpt lat="45.9312370" lon="9.0657290">
        <ele>1088.8700000</ele>
        <time>2009-07-05T13:44:34Z</time>
      </trkpt>
      <trkpt lat="45.9311860" lon="9.0658010">
        <ele>1089.3400000</ele>
        <time>2009-07-05T13:44:40Z</time>
      </trkpt>
      <trkpt lat="45.9311320" lon="9.0658600">
        <ele>1090.2800000</ele>
        <time>2009-07-05T13:44:46Z</time>
      </trkpt>
      <trkpt lat="45.9310700" lon="9.0659560">
        <ele>1090.8600000</ele>
        <time>2009-07-05T13:44:53Z</time>
      </trkpt>
      <trkpt lat="45.9310210" lon="9.0660210">
        <ele>1091.3500000</ele>
        <time>2009-07-05T13:45:00Z</time>
      </trkpt>
      <trkpt lat="45.9309620" lon="9.0661210">
        <ele>1091.9300000</ele>
        <time>2009-07-05T13:45:08Z</time>
      </trkpt>
      <trkpt lat="45.9309490" lon="9.0661490">
        <ele>1092.1700000</ele>
        <time>2009-07-05T13:45:10Z</time>
      </trkpt>
      <trkpt lat="45.9308800" lon="9.0662520">
        <ele>1093.1300000</ele>
        <time>2009-07-05T13:45:19Z</time>
      </trkpt>
      <trkpt lat="45.9308560" lon="9.0662830">
        <ele>1093.6800000</ele>
        <time>2009-07-05T13:45:22Z</time>
      </trkpt>
      <trkpt lat="45.9307820" lon="9.0663330">
        <ele>1094.3500000</ele>
        <time>2009-07-05T13:45:30Z</time>
      </trkpt>
      <trkpt lat="45.9306890" lon="9.0663800">
        <ele>1095.4600000</ele>
        <time>2009-07-05T13:45:39Z</time>
      </trkpt>
      <trkpt lat="45.9306440" lon="9.0663880">
        <ele>1095.6100000</ele>
        <time>2009-07-05T13:45:43Z</time>
      </trkpt>
      <trkpt lat="45.9305270" lon="9.0663940">
        <ele>1096.3200000</ele>
        <time>2009-07-05T13:45:53Z</time>
      </trkpt>
      <trkpt lat="45.9305050" lon="9.0663940">
        <ele>1096.4200000</ele>
        <time>2009-07-05T13:45:55Z</time>
      </trkpt>
      <trkpt lat="45.9303670" lon="9.0663940">
        <ele>1097.2900000</ele>
        <time>2009-07-05T13:46:06Z</time>
      </trkpt>
      <trkpt lat="45.9302630" lon="9.0663950">
        <ele>1097.8900000</ele>
        <time>2009-07-05T13:46:14Z</time>
      </trkpt>
      <trkpt lat="45.9301610" lon="9.0663930">
        <ele>1097.9400000</ele>
        <time>2009-07-05T13:46:21Z</time>
      </trkpt>
      <trkpt lat="45.9300650" lon="9.0663850">
        <ele>1098.9500000</ele>
        <time>2009-07-05T13:46:28Z</time>
      </trkpt>
      <trkpt lat="45.9299470" lon="9.0663690">
        <ele>1099.3100000</ele>
        <time>2009-07-05T13:46:36Z</time>
      </trkpt>
      <trkpt lat="45.9298200" lon="9.0663630">
        <ele>1099.9400000</ele>
        <time>2009-07-05T13:46:45Z</time>
      </trkpt>
      <trkpt lat="45.9297280" lon="9.0663100">
        <ele>1100.6800000</ele>
        <time>2009-07-05T13:46:52Z</time>
      </trkpt>
      <trkpt lat="45.9296240" lon="9.0662210">
        <ele>1101.0100000</ele>
        <time>2009-07-05T13:47:00Z</time>
      </trkpt>
      <trkpt lat="45.9295790" lon="9.0661710">
        <ele>1100.6300000</ele>
        <time>2009-07-05T13:47:04Z</time>
      </trkpt>
      <trkpt lat="45.9295230" lon="9.0661480">
        <ele>1100.0200000</ele>
        <time>2009-07-05T13:47:08Z</time>
      </trkpt>
      <trkpt lat="45.9294320" lon="9.0660920">
        <ele>1099.7800000</ele>
        <time>2009-07-05T13:47:15Z</time>
      </trkpt>
      <trkpt lat="45.9293650" lon="9.0660580">
        <ele>1099.5500000</ele>
        <time>2009-07-05T13:47:32Z</time>
      </trkpt>
      <trkpt lat="45.9291870" lon="9.0659720">
        <ele>1098.6400000</ele>
        <time>2009-07-05T13:47:40Z</time>
      </trkpt>
      <trkpt lat="45.9290120" lon="9.0659790">
        <ele>1098.5200000</ele>
        <time>2009-07-05T13:47:46Z</time>
      </trkpt>
      <trkpt lat="45.9288280" lon="9.0660420">
        <ele>1098.5500000</ele>
        <time>2009-07-05T13:47:53Z</time>
      </trkpt>
      <trkpt lat="45.9286350" lon="9.0660420">
        <ele>1097.2500000</ele>
        <time>2009-07-05T13:47:58Z</time>
      </trkpt>
      <trkpt lat="45.9285920" lon="9.0660390">
        <ele>1096.8400000</ele>
        <time>2009-07-05T13:47:59Z</time>
      </trkpt>
      <trkpt lat="45.9283270" lon="9.0660900">
        <ele>1094.0800000</ele>
        <time>2009-07-05T13:48:04Z</time>
      </trkpt>
      <trkpt lat="45.9280620" lon="9.0661380">
        <ele>1092.9500000</ele>
        <time>2009-07-05T13:48:08Z</time>
      </trkpt>
      <trkpt lat="45.9279230" lon="9.0661540">
        <ele>1091.0200000</ele>
        <time>2009-07-05T13:48:10Z</time>
      </trkpt>
      <trkpt lat="45.9277950" lon="9.0661420">
        <ele>1090.2600000</ele>
        <time>2009-07-05T13:48:12Z</time>
      </trkpt>
      <trkpt lat="45.9277380" lon="9.0661310">
        <ele>1090.2800000</ele>
        <time>2009-07-05T13:48:13Z</time>
      </trkpt>
      <trkpt lat="45.9276170" lon="9.0660970">
        <ele>1089.5000000</ele>
        <time>2009-07-05T13:48:15Z</time>
      </trkpt>
      <trkpt lat="45.9272710" lon="9.0658550">
        <ele>1085.7300000</ele>
        <time>2009-07-05T13:48:20Z</time>
      </trkpt>
      <trkpt lat="45.9268300" lon="9.0657840">
        <ele>1081.1700000</ele>
        <time>2009-07-05T13:48:25Z</time>
      </trkpt>
      <trkpt lat="45.9267540" lon="9.0657860">
        <ele>1080.5800000</ele>
        <time>2009-07-05T13:48:26Z</time>
      </trkpt>
      <trkpt lat="45.9265850" lon="9.0658480">
        <ele>1079.3100000</ele>
        <time>2009-07-05T13:48:29Z</time>
      </trkpt>
      <trkpt lat="45.9264340" lon="9.0659280">
        <ele>1080.0600000</ele>
        <time>2009-07-05T13:48:33Z</time>
      </trkpt>
      <trkpt lat="45.9262190" lon="9.0659140">
        <ele>1080.6400000</ele>
        <time>2009-07-05T13:48:39Z</time>
      </trkpt>
      <trkpt lat="45.9259940" lon="9.0659350">
        <ele>1080.8300000</ele>
        <time>2009-07-05T13:48:46Z</time>
      </trkpt>
      <trkpt lat="45.9257690" lon="9.0659870">
        <ele>1081.4200000</ele>
        <time>2009-07-05T13:48:54Z</time>
      </trkpt>
      <trkpt lat="45.9256510" lon="9.0660660">
        <ele>1082.6100000</ele>
        <time>2009-07-05T13:49:01Z</time>
      </trkpt>
      <trkpt lat="45.9255770" lon="9.0661780">
        <ele>1083.5900000</ele>
        <time>2009-07-05T13:49:08Z</time>
      </trkpt>
      <trkpt lat="45.9255000" lon="9.0662880">
        <ele>1084.3200000</ele>
        <time>2009-07-05T13:49:15Z</time>
      </trkpt>
      <trkpt lat="45.9254110" lon="9.0664170">
        <ele>1084.9000000</ele>
        <time>2009-07-05T13:49:23Z</time>
      </trkpt>
      <trkpt lat="45.9253700" lon="9.0665210">
        <ele>1085.6600000</ele>
        <time>2009-07-05T13:49:30Z</time>
      </trkpt>
      <trkpt lat="45.9252810" lon="9.0666750">
        <ele>1086.2000000</ele>
        <time>2009-07-05T13:49:38Z</time>
      </trkpt>
      <trkpt lat="45.9252250" lon="9.0667970">
        <ele>1086.3600000</ele>
        <time>2009-07-05T13:49:43Z</time>
      </trkpt>
      <trkpt lat="45.9251930" lon="9.0669130">
        <ele>1086.5700000</ele>
        <time>2009-07-05T13:49:49Z</time>
      </trkpt>
      <trkpt lat="45.9251670" lon="9.0669700">
        <ele>1086.6400000</ele>
        <time>2009-07-05T13:49:52Z</time>
      </trkpt>
      <trkpt lat="45.9250940" lon="9.0671380">
        <ele>1086.8800000</ele>
        <time>2009-07-05T13:50:00Z</time>
      </trkpt>
      <trkpt lat="45.9250720" lon="9.0671730">
        <ele>1087.2000000</ele>
        <time>2009-07-05T13:50:02Z</time>
      </trkpt>
      <trkpt lat="45.9250150" lon="9.0672480">
        <ele>1087.5900000</ele>
        <time>2009-07-05T13:50:07Z</time>
      </trkpt>
      <trkpt lat="45.9249410" lon="9.0673260">
        <ele>1087.8500000</ele>
        <time>2009-07-05T13:50:12Z</time>
      </trkpt>
      <trkpt lat="45.9248720" lon="9.0673790">
        <ele>1087.9500000</ele>
        <time>2009-07-05T13:50:19Z</time>
      </trkpt>
      <trkpt lat="45.9248640" lon="9.0673840">
        <ele>1088.2800000</ele>
        <time>2009-07-05T13:50:26Z</time>
      </trkpt>
      <trkpt lat="45.9248110" lon="9.0674290">
        <ele>1088.4400000</ele>
        <time>2009-07-05T13:50:54Z</time>
      </trkpt>
      <trkpt lat="45.9247690" lon="9.0674990">
        <ele>1088.0100000</ele>
        <time>2009-07-05T13:51:00Z</time>
      </trkpt>
      <trkpt lat="45.9247580" lon="9.0675210">
        <ele>1087.8800000</ele>
        <time>2009-07-05T13:51:05Z</time>
      </trkpt>
      <trkpt lat="45.9247150" lon="9.0676470">
        <ele>1087.6800000</ele>
        <time>2009-07-05T13:51:43Z</time>
      </trkpt>
      <trkpt lat="45.9246660" lon="9.0677710">
        <ele>1086.6700000</ele>
        <time>2009-07-05T13:51:46Z</time>
      </trkpt>
      <trkpt lat="45.9245080" lon="9.0679060">
        <ele>1085.4300000</ele>
        <time>2009-07-05T13:51:50Z</time>
      </trkpt>
      <trkpt lat="45.9243350" lon="9.0679210">
        <ele>1084.2100000</ele>
        <time>2009-07-05T13:51:53Z</time>
      </trkpt>
      <trkpt lat="45.9240050" lon="9.0676120">
        <ele>1078.7300000</ele>
        <time>2009-07-05T13:51:59Z</time>
      </trkpt>
      <trkpt lat="45.9238690" lon="9.0670690">
        <ele>1076.7600000</ele>
        <time>2009-07-05T13:52:05Z</time>
      </trkpt>
      <trkpt lat="45.9238570" lon="9.0667970">
        <ele>1074.9700000</ele>
        <time>2009-07-05T13:52:08Z</time>
      </trkpt>
      <trkpt lat="45.9238280" lon="9.0663320">
        <ele>1074.5700000</ele>
        <time>2009-07-05T13:52:13Z</time>
      </trkpt>
      <trkpt lat="45.9237960" lon="9.0662070">
        <ele>1074.1900000</ele>
        <time>2009-07-05T13:52:15Z</time>
      </trkpt>
      <trkpt lat="45.9237150" lon="9.0659750">
        <ele>1073.6500000</ele>
        <time>2009-07-05T13:52:19Z</time>
      </trkpt>
      <trkpt lat="45.9236230" lon="9.0658480">
        <ele>1073.5500000</ele>
        <time>2009-07-05T13:52:22Z</time>
      </trkpt>
      <trkpt lat="45.9235240" lon="9.0656010">
        <ele>1071.2400000</ele>
        <time>2009-07-05T13:52:26Z</time>
      </trkpt>
      <trkpt lat="45.9234840" lon="9.0654240">
        <ele>1070.4500000</ele>
        <time>2009-07-05T13:52:28Z</time>
      </trkpt>
      <trkpt lat="45.9234170" lon="9.0650970">
        <ele>1068.5700000</ele>
        <time>2009-07-05T13:52:31Z</time>
      </trkpt>
      <trkpt lat="45.9233480" lon="9.0645660">
        <ele>1065.9900000</ele>
        <time>2009-07-05T13:52:36Z</time>
      </trkpt>
      <trkpt lat="45.9233420" lon="9.0643700">
        <ele>1064.3800000</ele>
        <time>2009-07-05T13:52:38Z</time>
      </trkpt>
      <trkpt lat="45.9233530" lon="9.0638760">
        <ele>1060.1900000</ele>
        <time>2009-07-05T13:52:43Z</time>
      </trkpt>
      <trkpt lat="45.9233330" lon="9.0638550">
        <ele>1059.7700000</ele>
        <time>2009-07-05T13:52:46Z</time>
      </trkpt>
      <trkpt lat="45.9233230" lon="9.0639190">
        <ele>1059.3100000</ele>
        <time>2009-07-05T13:52:53Z</time>
      </trkpt>
      <trkpt lat="45.9232860" lon="9.0639690">
        <ele>1058.8700000</ele>
        <time>2009-07-05T13:52:59Z</time>
      </trkpt>
      <trkpt lat="45.9232750" lon="9.0639770">
        <ele>1058.8500000</ele>
        <time>2009-07-05T13:53:01Z</time>
      </trkpt>
      <trkpt lat="45.9232360" lon="9.0640940">
        <ele>1058.0600000</ele>
        <time>2009-07-05T13:53:06Z</time>
      </trkpt>
      <trkpt lat="45.9231740" lon="9.0642470">
        <ele>1058.0100000</ele>
        <time>2009-07-05T13:53:11Z</time>
      </trkpt>
      <trkpt lat="45.9231720" lon="9.0642890">
        <ele>1057.9200000</ele>
        <time>2009-07-05T13:53:12Z</time>
      </trkpt>
      <trkpt lat="45.9231740" lon="9.0643860">
        <ele>1057.0500000</ele>
        <time>2009-07-05T13:53:14Z</time>
      </trkpt>
      <trkpt lat="45.9231210" lon="9.0645650">
        <ele>1055.4500000</ele>
        <time>2009-07-05T13:53:17Z</time>
      </trkpt>
      <trkpt lat="45.9230970" lon="9.0646350">
        <ele>1054.5700000</ele>
        <time>2009-07-05T13:53:18Z</time>
      </trkpt>
      <trkpt lat="45.9230500" lon="9.0649890">
        <ele>1052.3100000</ele>
        <time>2009-07-05T13:53:22Z</time>
      </trkpt>
      <trkpt lat="45.9230500" lon="9.0650810">
        <ele>1051.9600000</ele>
        <time>2009-07-05T13:53:23Z</time>
      </trkpt>
      <trkpt lat="45.9231250" lon="9.0655700">
        <ele>1050.7900000</ele>
        <time>2009-07-05T13:53:29Z</time>
      </trkpt>
      <trkpt lat="45.9231410" lon="9.0656550">
        <ele>1050.4300000</ele>
        <time>2009-07-05T13:53:30Z</time>
      </trkpt>
      <trkpt lat="45.9232410" lon="9.0662330">
        <ele>1047.2200000</ele>
        <time>2009-07-05T13:53:37Z</time>
      </trkpt>
      <trkpt lat="45.9232470" lon="9.0663180">
        <ele>1046.9300000</ele>
        <time>2009-07-05T13:53:38Z</time>
      </trkpt>
      <trkpt lat="45.9232680" lon="9.0664730">
        <ele>1046.6900000</ele>
        <time>2009-07-05T13:53:40Z</time>
      </trkpt>
      <trkpt lat="45.9232750" lon="9.0670070">
        <ele>1045.6200000</ele>
        <time>2009-07-05T13:53:46Z</time>
      </trkpt>
      <trkpt lat="45.9232210" lon="9.0672810">
        <ele>1044.8000000</ele>
        <time>2009-07-05T13:53:50Z</time>
      </trkpt>
      <trkpt lat="45.9231530" lon="9.0675860">
        <ele>1043.2100000</ele>
        <time>2009-07-05T13:53:55Z</time>
      </trkpt>
      <trkpt lat="45.9230790" lon="9.0677740">
        <ele>1042.5200000</ele>
        <time>2009-07-05T13:53:58Z</time>
      </trkpt>
      <trkpt lat="45.9229290" lon="9.0679960">
        <ele>1041.9000000</ele>
        <time>2009-07-05T13:54:03Z</time>
      </trkpt>
      <trkpt lat="45.9228220" lon="9.0680490">
        <ele>1041.7300000</ele>
        <time>2009-07-05T13:54:06Z</time>
      </trkpt>
      <trkpt lat="45.9226230" lon="9.0679380">
        <ele>1041.7600000</ele>
        <time>2009-07-05T13:54:12Z</time>
      </trkpt>
      <trkpt lat="45.9224850" lon="9.0678490">
        <ele>1041.5700000</ele>
        <time>2009-07-05T13:54:16Z</time>
      </trkpt>
      <trkpt lat="45.9222970" lon="9.0676650">
        <ele>1041.5800000</ele>
        <time>2009-07-05T13:54:22Z</time>
      </trkpt>
      <trkpt lat="45.9221940" lon="9.0674400">
        <ele>1041.3900000</ele>
        <time>2009-07-05T13:54:27Z</time>
      </trkpt>
      <trkpt lat="45.9220770" lon="9.0672870">
        <ele>1040.2200000</ele>
        <time>2009-07-05T13:54:31Z</time>
      </trkpt>
      <trkpt lat="45.9220360" lon="9.0672640">
        <ele>1039.8500000</ele>
        <time>2009-07-05T13:54:32Z</time>
      </trkpt>
      <trkpt lat="45.9218250" lon="9.0672510">
        <ele>1036.2000000</ele>
        <time>2009-07-05T13:54:36Z</time>
      </trkpt>
      <trkpt lat="45.9215850" lon="9.0672460">
        <ele>1030.4400000</ele>
        <time>2009-07-05T13:54:41Z</time>
      </trkpt>
      <trkpt lat="45.9215090" lon="9.0673740">
        <ele>1029.4000000</ele>
        <time>2009-07-05T13:54:43Z</time>
      </trkpt>
      <trkpt lat="45.9214530" lon="9.0675200">
        <ele>1028.2200000</ele>
        <time>2009-07-05T13:54:45Z</time>
      </trkpt>
      <trkpt lat="45.9213690" lon="9.0678150">
        <ele>1026.2700000</ele>
        <time>2009-07-05T13:54:48Z</time>
      </trkpt>
      <trkpt lat="45.9213170" lon="9.0679000">
        <ele>1025.9100000</ele>
        <time>2009-07-05T13:54:49Z</time>
      </trkpt>
      <trkpt lat="45.9210670" lon="9.0683800">
        <ele>1024.0000000</ele>
        <time>2009-07-05T13:54:54Z</time>
      </trkpt>
      <trkpt lat="45.9209970" lon="9.0686670">
        <ele>1021.4500000</ele>
        <time>2009-07-05T13:54:58Z</time>
      </trkpt>
      <trkpt lat="45.9210320" lon="9.0688460">
        <ele>1019.8300000</ele>
        <time>2009-07-05T13:55:01Z</time>
      </trkpt>
      <trkpt lat="45.9210610" lon="9.0688990">
        <ele>1019.0100000</ele>
        <time>2009-07-05T13:55:02Z</time>
      </trkpt>
      <trkpt lat="45.9211260" lon="9.0689880">
        <ele>1017.1400000</ele>
        <time>2009-07-05T13:55:04Z</time>
      </trkpt>
      <trkpt lat="45.9213280" lon="9.0692870">
        <ele>1012.0500000</ele>
        <time>2009-07-05T13:55:09Z</time>
      </trkpt>
      <trkpt lat="45.9214200" lon="9.0694360">
        <ele>1009.7500000</ele>
        <time>2009-07-05T13:55:11Z</time>
      </trkpt>
      <trkpt lat="45.9216050" lon="9.0696530">
        <ele>1007.6600000</ele>
        <time>2009-07-05T13:55:14Z</time>
      </trkpt>
      <trkpt lat="45.9217580" lon="9.0699230">
        <ele>1006.2700000</ele>
        <time>2009-07-05T13:55:17Z</time>
      </trkpt>
      <trkpt lat="45.9218270" lon="9.0700910">
        <ele>1004.5500000</ele>
        <time>2009-07-05T13:55:19Z</time>
      </trkpt>
      <trkpt lat="45.9219420" lon="9.0702740">
        <ele>1000.7100000</ele>
        <time>2009-07-05T13:55:22Z</time>
      </trkpt>
      <trkpt lat="45.9220830" lon="9.0704130">
        <ele>997.5600000</ele>
        <time>2009-07-05T13:55:25Z</time>
      </trkpt>
      <trkpt lat="45.9223410" lon="9.0706700">
        <ele>990.8400000</ele>
        <time>2009-07-05T13:55:30Z</time>
      </trkpt>
      <trkpt lat="45.9224970" lon="9.0709650">
        <ele>987.1100000</ele>
        <time>2009-07-05T13:55:34Z</time>
      </trkpt>
      <trkpt lat="45.9224860" lon="9.0709960">
        <ele>986.3400000</ele>
        <time>2009-07-05T13:55:36Z</time>
      </trkpt>
      <trkpt lat="45.9224610" lon="9.0710550">
        <ele>985.7600000</ele>
        <time>2009-07-05T13:56:07Z</time>
      </trkpt>
      <trkpt lat="45.9224520" lon="9.0711250">
        <ele>984.6300000</ele>
        <time>2009-07-05T13:56:31Z</time>
      </trkpt>
      <trkpt lat="45.9224610" lon="9.0711180">
        <ele>985.2200000</ele>
        <time>2009-07-05T14:02:31Z</time>
      </trkpt>
      <trkpt lat="45.9224530" lon="9.0711220">
        <ele>985.2600000</ele>
        <time>2009-07-05T14:02:48Z</time>
      </trkpt>
      <trkpt lat="45.9223570" lon="9.0711310">
        <ele>985.5600000</ele>
        <time>2009-07-05T14:02:54Z</time>
      </trkpt>
      <trkpt lat="45.9222940" lon="9.0710670">
        <ele>985.6500000</ele>
        <time>2009-07-05T14:03:00Z</time>
      </trkpt>
      <trkpt lat="45.9222720" lon="9.0710480">
        <ele>984.8800000</ele>
        <time>2009-07-05T14:03:06Z</time>
      </trkpt>
      <trkpt lat="45.9222690" lon="9.0710390">
        <ele>985.1200000</ele>
        <time>2009-07-05T14:03:28Z</time>
      </trkpt>
      <trkpt lat="45.9221740" lon="9.0710590">
        <ele>984.8500000</ele>
        <time>2009-07-05T14:03:34Z</time>
      </trkpt>
      <trkpt lat="45.9219610" lon="9.0711900">
        <ele>983.7000000</ele>
        <time>2009-07-05T14:03:39Z</time>
      </trkpt>
      <trkpt lat="45.9217020" lon="9.0713200">
        <ele>981.3500000</ele>
        <time>2009-07-05T14:03:44Z</time>
      </trkpt>
      <trkpt lat="45.9215790" lon="9.0713510">
        <ele>979.7300000</ele>
        <time>2009-07-05T14:03:46Z</time>
      </trkpt>
      <trkpt lat="45.9211730" lon="9.0714960">
        <ele>978.0100000</ele>
        <time>2009-07-05T14:03:53Z</time>
      </trkpt>
      <trkpt lat="45.9209880" lon="9.0715140">
        <ele>976.4800000</ele>
        <time>2009-07-05T14:03:58Z</time>
      </trkpt>
      <trkpt lat="45.9209790" lon="9.0715040">
        <ele>975.7400000</ele>
        <time>2009-07-05T14:04:02Z</time>
      </trkpt>
      <trkpt lat="45.9209790" lon="9.0715030">
        <ele>975.7800000</ele>
        <time>2009-07-05T14:04:04Z</time>
      </trkpt>
      <trkpt lat="45.9208940" lon="9.0715230">
        <ele>975.3800000</ele>
        <time>2009-07-05T14:04:08Z</time>
      </trkpt>
      <trkpt lat="45.9208830" lon="9.0715870">
        <ele>974.9000000</ele>
        <time>2009-07-05T14:04:10Z</time>
      </trkpt>
      <trkpt lat="45.9209200" lon="9.0716910">
        <ele>974.6900000</ele>
        <time>2009-07-05T14:04:13Z</time>
      </trkpt>
      <trkpt lat="45.9208410" lon="9.0717730">
        <ele>972.0200000</ele>
        <time>2009-07-05T14:04:17Z</time>
      </trkpt>
      <trkpt lat="45.9206830" lon="9.0716860">
        <ele>971.3400000</ele>
        <time>2009-07-05T14:04:22Z</time>
      </trkpt>
      <trkpt lat="45.9201670" lon="9.0712190">
        <ele>971.2500000</ele>
        <time>2009-07-05T14:05:51Z</time>
      </trkpt>
      <trkpt lat="45.9200120" lon="9.0710040">
        <ele>971.4800000</ele>
        <time>2009-07-05T14:05:58Z</time>
      </trkpt>
      <trkpt lat="45.9198680" lon="9.0707870">
        <ele>971.9000000</ele>
        <time>2009-07-05T14:06:04Z</time>
      </trkpt>
      <trkpt lat="45.9197640" lon="9.0705400">
        <ele>970.9800000</ele>
        <time>2009-07-05T14:06:10Z</time>
      </trkpt>
      <trkpt lat="45.9197510" lon="9.0704800">
        <ele>971.0200000</ele>
        <time>2009-07-05T14:06:12Z</time>
      </trkpt>
      <trkpt lat="45.9196470" lon="9.0703790">
        <ele>970.7700000</ele>
        <time>2009-07-05T14:06:17Z</time>
      </trkpt>
      <trkpt lat="45.9194490" lon="9.0702750">
        <ele>969.9600000</ele>
        <time>2009-07-05T14:06:24Z</time>
      </trkpt>
      <trkpt lat="45.9192950" lon="9.0702320">
        <ele>970.4300000</ele>
        <time>2009-07-05T14:06:29Z</time>
      </trkpt>
      <trkpt lat="45.9191580" lon="9.0701970">
        <ele>971.1100000</ele>
        <time>2009-07-05T14:06:34Z</time>
      </trkpt>
      <trkpt lat="45.9189740" lon="9.0701640">
        <ele>972.1900000</ele>
        <time>2009-07-05T14:06:42Z</time>
      </trkpt>
      <trkpt lat="45.9187480" lon="9.0700960">
        <ele>973.6500000</ele>
        <time>2009-07-05T14:06:52Z</time>
      </trkpt>
      <trkpt lat="45.9186420" lon="9.0700330">
        <ele>975.3900000</ele>
        <time>2009-07-05T14:06:57Z</time>
      </trkpt>
      <trkpt lat="45.9185620" lon="9.0699420">
        <ele>976.0400000</ele>
        <time>2009-07-05T14:07:02Z</time>
      </trkpt>
      <trkpt lat="45.9184640" lon="9.0698140">
        <ele>977.0200000</ele>
        <time>2009-07-05T14:07:08Z</time>
      </trkpt>
      <trkpt lat="45.9183860" lon="9.0696510">
        <ele>977.8200000</ele>
        <time>2009-07-05T14:07:15Z</time>
      </trkpt>
      <trkpt lat="45.9183330" lon="9.0695030">
        <ele>979.0200000</ele>
        <time>2009-07-05T14:07:21Z</time>
      </trkpt>
      <trkpt lat="45.9182850" lon="9.0693040">
        <ele>980.7300000</ele>
        <time>2009-07-05T14:07:29Z</time>
      </trkpt>
      <trkpt lat="45.9182440" lon="9.0691120">
        <ele>982.2800000</ele>
        <time>2009-07-05T14:07:36Z</time>
      </trkpt>
      <trkpt lat="45.9181950" lon="9.0689320">
        <ele>983.4400000</ele>
        <time>2009-07-05T14:07:43Z</time>
      </trkpt>
      <trkpt lat="45.9181260" lon="9.0686960">
        <ele>985.3000000</ele>
        <time>2009-07-05T14:07:52Z</time>
      </trkpt>
      <trkpt lat="45.9180800" lon="9.0685250">
        <ele>987.0300000</ele>
        <time>2009-07-05T14:07:59Z</time>
      </trkpt>
      <trkpt lat="45.9180250" lon="9.0683830">
        <ele>987.9000000</ele>
        <time>2009-07-05T14:08:06Z</time>
      </trkpt>
      <trkpt lat="45.9179440" lon="9.0682690">
        <ele>988.9300000</ele>
        <time>2009-07-05T14:08:12Z</time>
      </trkpt>
      <trkpt lat="45.9178860" lon="9.0681240">
        <ele>990.2500000</ele>
        <time>2009-07-05T14:08:18Z</time>
      </trkpt>
      <trkpt lat="45.9178530" lon="9.0679430">
        <ele>991.3500000</ele>
        <time>2009-07-05T14:08:25Z</time>
      </trkpt>
      <trkpt lat="45.9178150" lon="9.0677550">
        <ele>992.6300000</ele>
        <time>2009-07-05T14:08:33Z</time>
      </trkpt>
      <trkpt lat="45.9177820" lon="9.0675790">
        <ele>994.1000000</ele>
        <time>2009-07-05T14:08:40Z</time>
      </trkpt>
      <trkpt lat="45.9177560" lon="9.0673880">
        <ele>995.4400000</ele>
        <time>2009-07-05T14:08:47Z</time>
      </trkpt>
      <trkpt lat="45.9177910" lon="9.0672180">
        <ele>997.1200000</ele>
        <time>2009-07-05T14:08:54Z</time>
      </trkpt>
      <trkpt lat="45.9178280" lon="9.0670070">
        <ele>998.8100000</ele>
        <time>2009-07-05T14:09:02Z</time>
      </trkpt>
      <trkpt lat="45.9178330" lon="9.0668370">
        <ele>1000.0700000</ele>
        <time>2009-07-05T14:09:08Z</time>
      </trkpt>
      <trkpt lat="45.9178510" lon="9.0666970">
        <ele>1000.9100000</ele>
        <time>2009-07-05T14:09:14Z</time>
      </trkpt>
      <trkpt lat="45.9178500" lon="9.0665040">
        <ele>1002.1000000</ele>
        <time>2009-07-05T14:09:21Z</time>
      </trkpt>
      <trkpt lat="45.9178580" lon="9.0663440">
        <ele>1003.1200000</ele>
        <time>2009-07-05T14:09:27Z</time>
      </trkpt>
      <trkpt lat="45.9178660" lon="9.0661570">
        <ele>1004.2000000</ele>
        <time>2009-07-05T14:09:34Z</time>
      </trkpt>
      <trkpt lat="45.9178580" lon="9.0659970">
        <ele>1005.1900000</ele>
        <time>2009-07-05T14:09:40Z</time>
      </trkpt>
      <trkpt lat="45.9178870" lon="9.0658250">
        <ele>1006.8500000</ele>
        <time>2009-07-05T14:09:47Z</time>
      </trkpt>
      <trkpt lat="45.9178530" lon="9.0656020">
        <ele>1008.2800000</ele>
        <time>2009-07-05T14:09:56Z</time>
      </trkpt>
      <trkpt lat="45.9177970" lon="9.0654590">
        <ele>1009.5100000</ele>
        <time>2009-07-05T14:10:03Z</time>
      </trkpt>
      <trkpt lat="45.9177140" lon="9.0653430">
        <ele>1010.5300000</ele>
        <time>2009-07-05T14:10:10Z</time>
      </trkpt>
      <trkpt lat="45.9176390" lon="9.0652340">
        <ele>1011.8600000</ele>
        <time>2009-07-05T14:10:16Z</time>
      </trkpt>
      <trkpt lat="45.9175650" lon="9.0650570">
        <ele>1013.2600000</ele>
        <time>2009-07-05T14:10:24Z</time>
      </trkpt>
      <trkpt lat="45.9175050" lon="9.0648640">
        <ele>1014.9400000</ele>
        <time>2009-07-05T14:10:32Z</time>
      </trkpt>
      <trkpt lat="45.9175050" lon="9.0646690">
        <ele>1016.1500000</ele>
        <time>2009-07-05T14:10:39Z</time>
      </trkpt>
      <trkpt lat="45.9175070" lon="9.0645090">
        <ele>1017.1300000</ele>
        <time>2009-07-05T14:10:46Z</time>
      </trkpt>
      <trkpt lat="45.9174930" lon="9.0644160">
        <ele>1017.3600000</ele>
        <time>2009-07-05T14:10:51Z</time>
      </trkpt>
      <trkpt lat="45.9174660" lon="9.0643190">
        <ele>1018.4000000</ele>
        <time>2009-07-05T14:10:57Z</time>
      </trkpt>
      <trkpt lat="45.9174580" lon="9.0643070">
        <ele>1018.4900000</ele>
        <time>2009-07-05T14:10:58Z</time>
      </trkpt>
      <trkpt lat="45.9174100" lon="9.0642590">
        <ele>1018.9700000</ele>
        <time>2009-07-05T14:11:03Z</time>
      </trkpt>
      <trkpt lat="45.9173030" lon="9.0642420">
        <ele>1019.6000000</ele>
        <time>2009-07-05T14:11:11Z</time>
      </trkpt>
      <trkpt lat="45.9172880" lon="9.0643690">
        <ele>1020.0900000</ele>
        <time>2009-07-05T14:11:17Z</time>
      </trkpt>
      <trkpt lat="45.9173100" lon="9.0644960">
        <ele>1020.7300000</ele>
        <time>2009-07-05T14:11:23Z</time>
      </trkpt>
      <trkpt lat="45.9173530" lon="9.0646210">
        <ele>1021.9900000</ele>
        <time>2009-07-05T14:11:31Z</time>
      </trkpt>
      <trkpt lat="45.9173670" lon="9.0646320">
        <ele>1022.0800000</ele>
        <time>2009-07-05T14:11:32Z</time>
      </trkpt>
      <trkpt lat="45.9173940" lon="9.0647290">
        <ele>1023.0000000</ele>
        <time>2009-07-05T14:11:39Z</time>
      </trkpt>
      <trkpt lat="45.9173900" lon="9.0647470">
        <ele>1023.0100000</ele>
        <time>2009-07-05T14:11:40Z</time>
      </trkpt>
      <trkpt lat="45.9173810" lon="9.0648950">
        <ele>1024.2800000</ele>
        <time>2009-07-05T14:11:49Z</time>
      </trkpt>
      <trkpt lat="45.9174040" lon="9.0650030">
        <ele>1024.7300000</ele>
        <time>2009-07-05T14:11:56Z</time>
      </trkpt>
      <trkpt lat="45.9174010" lon="9.0651100">
        <ele>1025.5800000</ele>
        <time>2009-07-05T14:12:03Z</time>
      </trkpt>
      <trkpt lat="45.9174080" lon="9.0652380">
        <ele>1026.3700000</ele>
        <time>2009-07-05T14:12:10Z</time>
      </trkpt>
      <trkpt lat="45.9174020" lon="9.0653030">
        <ele>1026.3000000</ele>
        <time>2009-07-05T14:12:14Z</time>
      </trkpt>
      <trkpt lat="45.9174280" lon="9.0653690">
        <ele>1026.8400000</ele>
        <time>2009-07-05T14:12:18Z</time>
      </trkpt>
      <trkpt lat="45.9174370" lon="9.0653970">
        <ele>1027.3700000</ele>
        <time>2009-07-05T14:12:20Z</time>
      </trkpt>
      <trkpt lat="45.9174440" lon="9.0654690">
        <ele>1027.6400000</ele>
        <time>2009-07-05T14:12:25Z</time>
      </trkpt>
      <trkpt lat="45.9174460" lon="9.0655100">
        <ele>1028.2200000</ele>
        <time>2009-07-05T14:12:28Z</time>
      </trkpt>
      <trkpt lat="45.9174520" lon="9.0656040">
        <ele>1029.0100000</ele>
        <time>2009-07-05T14:12:34Z</time>
      </trkpt>
      <trkpt lat="45.9174430" lon="9.0657260">
        <ele>1029.5300000</ele>
        <time>2009-07-05T14:12:42Z</time>
      </trkpt>
      <trkpt lat="45.9174450" lon="9.0658540">
        <ele>1030.9300000</ele>
        <time>2009-07-05T14:12:51Z</time>
      </trkpt>
      <trkpt lat="45.9174230" lon="9.0659570">
        <ele>1031.6700000</ele>
        <time>2009-07-05T14:12:59Z</time>
      </trkpt>
      <trkpt lat="45.9174050" lon="9.0660740">
        <ele>1032.3300000</ele>
        <time>2009-07-05T14:13:07Z</time>
      </trkpt>
      <trkpt lat="45.9173630" lon="9.0661990">
        <ele>1033.7100000</ele>
        <time>2009-07-05T14:13:16Z</time>
      </trkpt>
      <trkpt lat="45.9173430" lon="9.0662990">
        <ele>1034.6800000</ele>
        <time>2009-07-05T14:13:24Z</time>
      </trkpt>
      <trkpt lat="45.9173340" lon="9.0664300">
        <ele>1036.0000000</ele>
        <time>2009-07-05T14:13:34Z</time>
      </trkpt>
      <trkpt lat="45.9173040" lon="9.0665420">
        <ele>1036.5800000</ele>
        <time>2009-07-05T14:13:42Z</time>
      </trkpt>
      <trkpt lat="45.9172780" lon="9.0665970">
        <ele>1037.1500000</ele>
        <time>2009-07-05T14:13:46Z</time>
      </trkpt>
      <trkpt lat="45.9172170" lon="9.0666430">
        <ele>1037.4100000</ele>
        <time>2009-07-05T14:13:52Z</time>
      </trkpt>
      <trkpt lat="45.9171450" lon="9.0665820">
        <ele>1038.4400000</ele>
        <time>2009-07-05T14:14:00Z</time>
      </trkpt>
      <trkpt lat="45.9171110" lon="9.0665200">
        <ele>1038.7000000</ele>
        <time>2009-07-05T14:14:05Z</time>
      </trkpt>
      <trkpt lat="45.9171340" lon="9.0663810">
        <ele>1040.1800000</ele>
        <time>2009-07-05T14:14:14Z</time>
      </trkpt>
      <trkpt lat="45.9171500" lon="9.0663570">
        <ele>1039.7300000</ele>
        <time>2009-07-05T14:14:16Z</time>
      </trkpt>
      <trkpt lat="45.9171640" lon="9.0663040">
        <ele>1040.8000000</ele>
        <time>2009-07-05T14:14:20Z</time>
      </trkpt>
      <trkpt lat="45.9172080" lon="9.0662280">
        <ele>1041.4700000</ele>
        <time>2009-07-05T14:14:25Z</time>
      </trkpt>
      <trkpt lat="45.9172170" lon="9.0661910">
        <ele>1041.9200000</ele>
        <time>2009-07-05T14:14:28Z</time>
      </trkpt>
      <trkpt lat="45.9172180" lon="9.0661150">
        <ele>1042.0700000</ele>
        <time>2009-07-05T14:14:33Z</time>
      </trkpt>
      <trkpt lat="45.9172020" lon="9.0659920">
        <ele>1042.9800000</ele>
        <time>2009-07-05T14:14:41Z</time>
      </trkpt>
      <trkpt lat="45.9171860" lon="9.0658670">
        <ele>1044.2500000</ele>
        <time>2009-07-05T14:14:49Z</time>
      </trkpt>
      <trkpt lat="45.9171830" lon="9.0658410">
        <ele>1044.4800000</ele>
        <time>2009-07-05T14:14:51Z</time>
      </trkpt>
      <trkpt lat="45.9171680" lon="9.0657690">
        <ele>1044.8800000</ele>
        <time>2009-07-05T14:14:56Z</time>
      </trkpt>
      <trkpt lat="45.9171680" lon="9.0657410">
        <ele>1045.1500000</ele>
        <time>2009-07-05T14:14:58Z</time>
      </trkpt>
      <trkpt lat="45.9171720" lon="9.0656730">
        <ele>1045.0500000</ele>
        <time>2009-07-05T14:15:06Z</time>
      </trkpt>
      <trkpt lat="45.9171370" lon="9.0656630">
        <ele>1046.0700000</ele>
        <time>2009-07-05T14:18:00Z</time>
      </trkpt>
      <trkpt lat="45.9171020" lon="9.0656130">
        <ele>1046.4700000</ele>
        <time>2009-07-05T14:18:05Z</time>
      </trkpt>
      <trkpt lat="45.9170670" lon="9.0654890">
        <ele>1047.4300000</ele>
        <time>2009-07-05T14:18:14Z</time>
      </trkpt>
      <trkpt lat="45.9170280" lon="9.0653910">
        <ele>1048.4300000</ele>
        <time>2009-07-05T14:18:22Z</time>
      </trkpt>
      <trkpt lat="45.9169980" lon="9.0653000">
        <ele>1049.4900000</ele>
        <time>2009-07-05T14:18:29Z</time>
      </trkpt>
      <trkpt lat="45.9169490" lon="9.0651950">
        <ele>1050.2500000</ele>
        <time>2009-07-05T14:18:38Z</time>
      </trkpt>
      <trkpt lat="45.9169040" lon="9.0650590">
        <ele>1051.3400000</ele>
        <time>2009-07-05T14:18:47Z</time>
      </trkpt>
      <trkpt lat="45.9168590" lon="9.0649230">
        <ele>1052.3500000</ele>
        <time>2009-07-05T14:18:56Z</time>
      </trkpt>
      <trkpt lat="45.9168170" lon="9.0647630">
        <ele>1053.4200000</ele>
        <time>2009-07-05T14:19:06Z</time>
      </trkpt>
      <trkpt lat="45.9167760" lon="9.0645900">
        <ele>1054.1800000</ele>
        <time>2009-07-05T14:19:15Z</time>
      </trkpt>
      <trkpt lat="45.9167190" lon="9.0644410">
        <ele>1054.9800000</ele>
        <time>2009-07-05T14:19:24Z</time>
      </trkpt>
      <trkpt lat="45.9167040" lon="9.0643380">
        <ele>1055.7200000</ele>
        <time>2009-07-05T14:19:31Z</time>
      </trkpt>
      <trkpt lat="45.9167150" lon="9.0642100">
        <ele>1056.3200000</ele>
        <time>2009-07-05T14:19:39Z</time>
      </trkpt>
      <trkpt lat="45.9167410" lon="9.0640970">
        <ele>1057.0000000</ele>
        <time>2009-07-05T14:19:45Z</time>
      </trkpt>
      <trkpt lat="45.9167130" lon="9.0639960">
        <ele>1058.2500000</ele>
        <time>2009-07-05T14:19:52Z</time>
      </trkpt>
      <trkpt lat="45.9167250" lon="9.0638580">
        <ele>1059.0900000</ele>
        <time>2009-07-05T14:19:59Z</time>
      </trkpt>
      <trkpt lat="45.9167440" lon="9.0637120">
        <ele>1060.1100000</ele>
        <time>2009-07-05T14:20:06Z</time>
      </trkpt>
      <trkpt lat="45.9167480" lon="9.0636940">
        <ele>1060.1200000</ele>
        <time>2009-07-05T14:20:07Z</time>
      </trkpt>
      <trkpt lat="45.9167610" lon="9.0636180">
        <ele>1060.8500000</ele>
        <time>2009-07-05T14:20:11Z</time>
      </trkpt>
      <trkpt lat="45.9167830" lon="9.0634650">
        <ele>1061.7100000</ele>
        <time>2009-07-05T14:20:19Z</time>
      </trkpt>
      <trkpt lat="45.9167790" lon="9.0633050">
        <ele>1062.9300000</ele>
        <time>2009-07-05T14:20:27Z</time>
      </trkpt>
      <trkpt lat="45.9168010" lon="9.0631810">
        <ele>1063.5900000</ele>
        <time>2009-07-05T14:20:33Z</time>
      </trkpt>
      <trkpt lat="45.9168240" lon="9.0630440">
        <ele>1064.3200000</ele>
        <time>2009-07-05T14:20:39Z</time>
      </trkpt>
      <trkpt lat="45.9168440" lon="9.0629010">
        <ele>1065.2100000</ele>
        <time>2009-07-05T14:20:46Z</time>
      </trkpt>
      <trkpt lat="45.9168270" lon="9.0627840">
        <ele>1065.7300000</ele>
        <time>2009-07-05T14:20:52Z</time>
      </trkpt>
      <trkpt lat="45.9167660" lon="9.0627360">
        <ele>1066.3600000</ele>
        <time>2009-07-05T14:20:59Z</time>
      </trkpt>
      <trkpt lat="45.9167330" lon="9.0627880">
        <ele>1066.7200000</ele>
        <time>2009-07-05T14:21:04Z</time>
      </trkpt>
      <trkpt lat="45.9167520" lon="9.0628570">
        <ele>1067.5700000</ele>
        <time>2009-07-05T14:21:09Z</time>
      </trkpt>
      <trkpt lat="45.9167380" lon="9.0629710">
        <ele>1068.4800000</ele>
        <time>2009-07-05T14:21:18Z</time>
      </trkpt>
      <trkpt lat="45.9167450" lon="9.0630740">
        <ele>1069.7100000</ele>
        <time>2009-07-05T14:21:25Z</time>
      </trkpt>
      <trkpt lat="45.9167240" lon="9.0631520">
        <ele>1070.3200000</ele>
        <time>2009-07-05T14:21:29Z</time>
      </trkpt>
      <trkpt lat="45.9167160" lon="9.0633040">
        <ele>1071.3200000</ele>
        <time>2009-07-05T14:21:37Z</time>
      </trkpt>
      <trkpt lat="45.9166860" lon="9.0634110">
        <ele>1071.8300000</ele>
        <time>2009-07-05T14:21:43Z</time>
      </trkpt>
      <trkpt lat="45.9166920" lon="9.0635780">
        <ele>1072.8900000</ele>
        <time>2009-07-05T14:21:52Z</time>
      </trkpt>
      <trkpt lat="45.9166850" lon="9.0636180">
        <ele>1072.9700000</ele>
        <time>2009-07-05T14:21:54Z</time>
      </trkpt>
      <trkpt lat="45.9166720" lon="9.0636640">
        <ele>1073.3500000</ele>
        <time>2009-07-05T14:21:56Z</time>
      </trkpt>
      <trkpt lat="45.9166440" lon="9.0638010">
        <ele>1074.1700000</ele>
        <time>2009-07-05T14:22:03Z</time>
      </trkpt>
      <trkpt lat="45.9165970" lon="9.0639680">
        <ele>1074.9000000</ele>
        <time>2009-07-05T14:22:12Z</time>
      </trkpt>
      <trkpt lat="45.9165500" lon="9.0640960">
        <ele>1076.0500000</ele>
        <time>2009-07-05T14:22:20Z</time>
      </trkpt>
      <trkpt lat="45.9164870" lon="9.0641740">
        <ele>1076.2800000</ele>
        <time>2009-07-05T14:22:27Z</time>
      </trkpt>
      <trkpt lat="45.9163850" lon="9.0641460">
        <ele>1076.6700000</ele>
        <time>2009-07-05T14:22:35Z</time>
      </trkpt>
      <trkpt lat="45.9163340" lon="9.0640150">
        <ele>1077.5800000</ele>
        <time>2009-07-05T14:22:43Z</time>
      </trkpt>
      <trkpt lat="45.9163620" lon="9.0638770">
        <ele>1078.6400000</ele>
        <time>2009-07-05T14:22:52Z</time>
      </trkpt>
      <trkpt lat="45.9163790" lon="9.0637770">
        <ele>1079.1800000</ele>
        <time>2009-07-05T14:22:59Z</time>
      </trkpt>
      <trkpt lat="45.9163780" lon="9.0636470">
        <ele>1080.6200000</ele>
        <time>2009-07-05T14:23:08Z</time>
      </trkpt>
      <trkpt lat="45.9163790" lon="9.0636190">
        <ele>1080.7000000</ele>
        <time>2009-07-05T14:23:10Z</time>
      </trkpt>
      <trkpt lat="45.9163770" lon="9.0635630">
        <ele>1080.7500000</ele>
        <time>2009-07-05T14:23:14Z</time>
      </trkpt>
      <trkpt lat="45.9163810" lon="9.0634510">
        <ele>1081.8800000</ele>
        <time>2009-07-05T14:23:22Z</time>
      </trkpt>
      <trkpt lat="45.9163570" lon="9.0633530">
        <ele>1082.8500000</ele>
        <time>2009-07-05T14:23:30Z</time>
      </trkpt>
      <trkpt lat="45.9163440" lon="9.0632970">
        <ele>1083.3900000</ele>
        <time>2009-07-05T14:23:34Z</time>
      </trkpt>
      <trkpt lat="45.9162890" lon="9.0631520">
        <ele>1084.5500000</ele>
        <time>2009-07-05T14:23:45Z</time>
      </trkpt>
      <trkpt lat="45.9162430" lon="9.0630590">
        <ele>1084.9100000</ele>
        <time>2009-07-05T14:23:53Z</time>
      </trkpt>
      <trkpt lat="45.9162020" lon="9.0629360">
        <ele>1086.1200000</ele>
        <time>2009-07-05T14:24:02Z</time>
      </trkpt>
      <trkpt lat="45.9161960" lon="9.0629280">
        <ele>1086.0700000</ele>
        <time>2009-07-05T14:24:03Z</time>
      </trkpt>
      <trkpt lat="45.9161550" lon="9.0627780">
        <ele>1087.1600000</ele>
        <time>2009-07-05T14:24:13Z</time>
      </trkpt>
      <trkpt lat="45.9161440" lon="9.0627380">
        <ele>1087.3100000</ele>
        <time>2009-07-05T14:24:16Z</time>
      </trkpt>
      <trkpt lat="45.9161360" lon="9.0626780">
        <ele>1087.8700000</ele>
        <time>2009-07-05T14:24:20Z</time>
      </trkpt>
      <trkpt lat="45.9160930" lon="9.0625590">
        <ele>1088.7200000</ele>
        <time>2009-07-05T14:24:28Z</time>
      </trkpt>
      <trkpt lat="45.9160570" lon="9.0624320">
        <ele>1089.5000000</ele>
        <time>2009-07-05T14:24:36Z</time>
      </trkpt>
      <trkpt lat="45.9160190" lon="9.0623450">
        <ele>1090.1400000</ele>
        <time>2009-07-05T14:24:44Z</time>
      </trkpt>
      <trkpt lat="45.9159930" lon="9.0622400">
        <ele>1091.1800000</ele>
        <time>2009-07-05T14:24:52Z</time>
      </trkpt>
      <trkpt lat="45.9159680" lon="9.0621220">
        <ele>1092.0000000</ele>
        <time>2009-07-05T14:25:00Z</time>
      </trkpt>
      <trkpt lat="45.9159610" lon="9.0619740">
        <ele>1092.9800000</ele>
        <time>2009-07-05T14:25:09Z</time>
      </trkpt>
      <trkpt lat="45.9159260" lon="9.0618460">
        <ele>1093.8600000</ele>
        <time>2009-07-05T14:25:18Z</time>
      </trkpt>
      <trkpt lat="45.9159210" lon="9.0618330">
        <ele>1094.0900000</ele>
        <time>2009-07-05T14:25:19Z</time>
      </trkpt>
      <trkpt lat="45.9158990" lon="9.0617000">
        <ele>1095.2900000</ele>
        <time>2009-07-05T14:25:27Z</time>
      </trkpt>
      <trkpt lat="45.9158350" lon="9.0615380">
        <ele>1096.0500000</ele>
        <time>2009-07-05T14:25:36Z</time>
      </trkpt>
      <trkpt lat="45.9158080" lon="9.0614290">
        <ele>1096.9400000</ele>
        <time>2009-07-05T14:25:44Z</time>
      </trkpt>
      <trkpt lat="45.9157990" lon="9.0613550">
        <ele>1097.8100000</ele>
        <time>2009-07-05T14:25:50Z</time>
      </trkpt>
      <trkpt lat="45.9157760" lon="9.0612830">
        <ele>1098.2300000</ele>
        <time>2009-07-05T14:25:56Z</time>
      </trkpt>
      <trkpt lat="45.9157510" lon="9.0612040">
        <ele>1098.6000000</ele>
        <time>2009-07-05T14:26:04Z</time>
      </trkpt>
      <trkpt lat="45.9157570" lon="9.0611610">
        <ele>1098.6400000</ele>
        <time>2009-07-05T14:26:12Z</time>
      </trkpt>
      <trkpt lat="45.9157740" lon="9.0611210">
        <ele>1098.9100000</ele>
        <time>2009-07-05T14:27:27Z</time>
      </trkpt>
      <trkpt lat="45.9157720" lon="9.0610770">
        <ele>1099.4200000</ele>
        <time>2009-07-05T14:27:47Z</time>
      </trkpt>
      <trkpt lat="45.9157640" lon="9.0610800">
        <ele>1100.0700000</ele>
        <time>2009-07-05T14:27:57Z</time>
      </trkpt>
      <trkpt lat="45.9157420" lon="9.0610260">
        <ele>1101.1500000</ele>
        <time>2009-07-05T14:28:07Z</time>
      </trkpt>
      <trkpt lat="45.9157190" lon="9.0609720">
        <ele>1103.3000000</ele>
        <time>2009-07-05T14:28:15Z</time>
      </trkpt>
      <trkpt lat="45.9157020" lon="9.0609800">
        <ele>1103.2300000</ele>
        <time>2009-07-05T14:28:26Z</time>
      </trkpt>
      <trkpt lat="45.9156950" lon="9.0609820">
        <ele>1103.3800000</ele>
        <time>2009-07-05T14:28:31Z</time>
      </trkpt>
      <trkpt lat="45.9156440" lon="9.0609040">
        <ele>1103.3100000</ele>
        <time>2009-07-05T14:28:36Z</time>
      </trkpt>
      <trkpt lat="45.9156350" lon="9.0608630">
        <ele>1103.1000000</ele>
        <time>2009-07-05T14:28:38Z</time>
      </trkpt>
      <trkpt lat="45.9156430" lon="9.0607240">
        <ele>1102.8400000</ele>
        <time>2009-07-05T14:28:45Z</time>
      </trkpt>
      <trkpt lat="45.9156410" lon="9.0606960">
        <ele>1102.2900000</ele>
        <time>2009-07-05T14:28:46Z</time>
      </trkpt>
      <trkpt lat="45.9156190" lon="9.0605590">
        <ele>1100.2400000</ele>
        <time>2009-07-05T14:28:51Z</time>
      </trkpt>
      <trkpt lat="45.9156080" lon="9.0605460">
        <ele>1099.7300000</ele>
        <time>2009-07-05T14:28:57Z</time>
      </trkpt>
      <trkpt lat="45.9156000" lon="9.0605410">
        <ele>1100.1300000</ele>
        <time>2009-07-05T14:29:09Z</time>
      </trkpt>
      <trkpt lat="45.9155520" lon="9.0605150">
        <ele>1099.6900000</ele>
        <time>2009-07-05T14:29:17Z</time>
      </trkpt>
      <trkpt lat="45.9155580" lon="9.0605100">
        <ele>1099.6400000</ele>
        <time>2009-07-05T14:29:26Z</time>
      </trkpt>
      <trkpt lat="45.9155800" lon="9.0604860">
        <ele>1098.9700000</ele>
        <time>2009-07-05T14:30:09Z</time>
      </trkpt>
      <trkpt lat="45.9155320" lon="9.0603450">
        <ele>1098.0700000</ele>
        <time>2009-07-05T14:30:14Z</time>
      </trkpt>
      <trkpt lat="45.9153710" lon="9.0600430">
        <ele>1096.2100000</ele>
        <time>2009-07-05T14:30:19Z</time>
      </trkpt>
      <trkpt lat="45.9152910" lon="9.0597810">
        <ele>1095.3700000</ele>
        <time>2009-07-05T14:30:23Z</time>
      </trkpt>
      <trkpt lat="45.9152370" lon="9.0592290">
        <ele>1094.1800000</ele>
        <time>2009-07-05T14:30:31Z</time>
      </trkpt>
      <trkpt lat="45.9152200" lon="9.0590890">
        <ele>1093.5800000</ele>
        <time>2009-07-05T14:30:33Z</time>
      </trkpt>
      <trkpt lat="45.9151930" lon="9.0589630">
        <ele>1093.5700000</ele>
        <time>2009-07-05T14:30:35Z</time>
      </trkpt>
      <trkpt lat="45.9151020" lon="9.0586700">
        <ele>1091.5600000</ele>
        <time>2009-07-05T14:30:39Z</time>
      </trkpt>
      <trkpt lat="45.9150390" lon="9.0586740">
        <ele>1089.6400000</ele>
        <time>2009-07-05T14:30:42Z</time>
      </trkpt>
      <trkpt lat="45.9150350" lon="9.0587210">
        <ele>1089.2400000</ele>
        <time>2009-07-05T14:30:43Z</time>
      </trkpt>
      <trkpt lat="45.9150590" lon="9.0589890">
        <ele>1088.1900000</ele>
        <time>2009-07-05T14:30:47Z</time>
      </trkpt>
      <trkpt lat="45.9149920" lon="9.0590420">
        <ele>1086.3000000</ele>
        <time>2009-07-05T14:30:50Z</time>
      </trkpt>
      <trkpt lat="45.9149450" lon="9.0589070">
        <ele>1085.9500000</ele>
        <time>2009-07-05T14:30:53Z</time>
      </trkpt>
      <trkpt lat="45.9148440" lon="9.0586330">
        <ele>1084.0800000</ele>
        <time>2009-07-05T14:30:57Z</time>
      </trkpt>
      <trkpt lat="45.9145570" lon="9.0582450">
        <ele>1080.7100000</ele>
        <time>2009-07-05T14:31:02Z</time>
      </trkpt>
      <trkpt lat="45.9142490" lon="9.0579370">
        <ele>1076.2800000</ele>
        <time>2009-07-05T14:31:06Z</time>
      </trkpt>
      <trkpt lat="45.9140460" lon="9.0576490">
        <ele>1072.1800000</ele>
        <time>2009-07-05T14:31:09Z</time>
      </trkpt>
      <trkpt lat="45.9139490" lon="9.0575210">
        <ele>1070.7000000</ele>
        <time>2009-07-05T14:31:11Z</time>
      </trkpt>
      <trkpt lat="45.9137770" lon="9.0573950">
        <ele>1067.6900000</ele>
        <time>2009-07-05T14:31:14Z</time>
      </trkpt>
      <trkpt lat="45.9135600" lon="9.0572550">
        <ele>1065.1700000</ele>
        <time>2009-07-05T14:31:17Z</time>
      </trkpt>
      <trkpt lat="45.9131570" lon="9.0568610">
        <ele>1060.7400000</ele>
        <time>2009-07-05T14:31:22Z</time>
      </trkpt>
      <trkpt lat="45.9126150" lon="9.0563220">
        <ele>1054.3500000</ele>
        <time>2009-07-05T14:31:28Z</time>
      </trkpt>
      <trkpt lat="45.9121840" lon="9.0560670">
        <ele>1050.0400000</ele>
        <time>2009-07-05T14:31:32Z</time>
      </trkpt>
      <trkpt lat="45.9117610" lon="9.0558830">
        <ele>1044.9000000</ele>
        <time>2009-07-05T14:31:36Z</time>
      </trkpt>
      <trkpt lat="45.9116750" lon="9.0558380">
        <ele>1042.8800000</ele>
        <time>2009-07-05T14:31:37Z</time>
      </trkpt>
      <trkpt lat="45.9116650" lon="9.0559580">
        <ele>1040.3100000</ele>
        <time>2009-07-05T14:31:40Z</time>
      </trkpt>
      <trkpt lat="45.9117380" lon="9.0559540">
        <ele>1039.5200000</ele>
        <time>2009-07-05T14:31:43Z</time>
      </trkpt>
      <trkpt lat="45.9118230" lon="9.0559660">
        <ele>1038.8200000</ele>
        <time>2009-07-05T14:31:48Z</time>
      </trkpt>
      <trkpt lat="45.9118430" lon="9.0559830">
        <ele>1038.6000000</ele>
        <time>2009-07-05T14:31:49Z</time>
      </trkpt>
      <trkpt lat="45.9119790" lon="9.0561190">
        <ele>1037.0000000</ele>
        <time>2009-07-05T14:31:54Z</time>
      </trkpt>
      <trkpt lat="45.9120710" lon="9.0561900">
        <ele>1035.8000000</ele>
        <time>2009-07-05T14:31:56Z</time>
      </trkpt>
      <trkpt lat="45.9121680" lon="9.0562530">
        <ele>1034.8300000</ele>
        <time>2009-07-05T14:31:58Z</time>
      </trkpt>
      <trkpt lat="45.9122210" lon="9.0562970">
        <ele>1033.9800000</ele>
        <time>2009-07-05T14:31:59Z</time>
      </trkpt>
      <trkpt lat="45.9125360" lon="9.0566790">
        <ele>1029.5000000</ele>
        <time>2009-07-05T14:32:04Z</time>
      </trkpt>
      <trkpt lat="45.9127330" lon="9.0570700">
        <ele>1025.7800000</ele>
        <time>2009-07-05T14:32:08Z</time>
      </trkpt>
      <trkpt lat="45.9126850" lon="9.0573060">
        <ele>1023.1200000</ele>
        <time>2009-07-05T14:32:12Z</time>
      </trkpt>
      <trkpt lat="45.9122500" lon="9.0578380">
        <ele>1018.4900000</ele>
        <time>2009-07-05T14:32:20Z</time>
      </trkpt>
      <trkpt lat="45.9120010" lon="9.0580540">
        <ele>1015.0100000</ele>
        <time>2009-07-05T14:32:23Z</time>
      </trkpt>
      <trkpt lat="45.9119120" lon="9.0581400">
        <ele>1013.6700000</ele>
        <time>2009-07-05T14:32:24Z</time>
      </trkpt>
      <trkpt lat="45.9114510" lon="9.0587530">
        <ele>1006.5800000</ele>
        <time>2009-07-05T14:32:30Z</time>
      </trkpt>
      <trkpt lat="45.9113970" lon="9.0588390">
        <ele>1004.8200000</ele>
        <time>2009-07-05T14:32:31Z</time>
      </trkpt>
      <trkpt lat="45.9114110" lon="9.0592900">
        <ele>1000.8500000</ele>
        <time>2009-07-05T14:32:35Z</time>
      </trkpt>
      <trkpt lat="45.9115580" lon="9.0597570">
        <ele>998.3400000</ele>
        <time>2009-07-05T14:32:38Z</time>
      </trkpt>
      <trkpt lat="45.9118180" lon="9.0605380">
        <ele>992.7900000</ele>
        <time>2009-07-05T14:32:43Z</time>
      </trkpt>
      <trkpt lat="45.9119350" lon="9.0610050">
        <ele>987.3000000</ele>
        <time>2009-07-05T14:32:46Z</time>
      </trkpt>
      <trkpt lat="45.9119910" lon="9.0612650">
        <ele>983.6400000</ele>
        <time>2009-07-05T14:32:49Z</time>
      </trkpt>
      <trkpt lat="45.9119080" lon="9.0611520">
        <ele>981.7500000</ele>
        <time>2009-07-05T14:32:53Z</time>
      </trkpt>
      <trkpt lat="45.9118650" lon="9.0611090">
        <ele>981.4000000</ele>
        <time>2009-07-05T14:32:59Z</time>
      </trkpt>
      <trkpt lat="45.9117450" lon="9.0609370">
        <ele>980.8500000</ele>
        <time>2009-07-05T14:33:45Z</time>
      </trkpt>
      <trkpt lat="45.9116590" lon="9.0607260">
        <ele>979.6500000</ele>
        <time>2009-07-05T14:33:48Z</time>
      </trkpt>
      <trkpt lat="45.9114710" lon="9.0604250">
        <ele>976.8200000</ele>
        <time>2009-07-05T14:33:52Z</time>
      </trkpt>
      <trkpt lat="45.9111930" lon="9.0600150">
        <ele>973.3400000</ele>
        <time>2009-07-05T14:33:56Z</time>
      </trkpt>
      <trkpt lat="45.9108670" lon="9.0594050">
        <ele>965.8600000</ele>
        <time>2009-07-05T14:34:01Z</time>
      </trkpt>
      <trkpt lat="45.9106610" lon="9.0589430">
        <ele>960.1800000</ele>
        <time>2009-07-05T14:34:05Z</time>
      </trkpt>
      <trkpt lat="45.9106630" lon="9.0587670">
        <ele>958.8600000</ele>
        <time>2009-07-05T14:34:07Z</time>
      </trkpt>
      <trkpt lat="45.9107300" lon="9.0585770">
        <ele>957.7700000</ele>
        <time>2009-07-05T14:34:09Z</time>
      </trkpt>
      <trkpt lat="45.9108430" lon="9.0583080">
        <ele>955.3800000</ele>
        <time>2009-07-05T14:34:12Z</time>
      </trkpt>
      <trkpt lat="45.9109550" lon="9.0579560">
        <ele>951.1900000</ele>
        <time>2009-07-05T14:34:16Z</time>
      </trkpt>
      <trkpt lat="45.9110840" lon="9.0578180">
        <ele>949.0800000</ele>
        <time>2009-07-05T14:46:06Z</time>
      </trkpt>
      <trkpt lat="45.9109360" lon="9.0578180">
        <ele>949.2800000</ele>
        <time>2009-07-05T14:46:59Z</time>
      </trkpt>
      <trkpt lat="45.9108560" lon="9.0578220">
        <ele>950.5500000</ele>
        <time>2009-07-05T14:47:09Z</time>
      </trkpt>
      <trkpt lat="45.9108510" lon="9.0578440">
        <ele>948.7900000</ele>
        <time>2009-07-05T14:47:11Z</time>
      </trkpt>
      <trkpt lat="45.9108190" lon="9.0579260">
        <ele>953.9400000</ele>
        <time>2009-07-05T14:49:07Z</time>
      </trkpt>
      <trkpt lat="45.9107400" lon="9.0578940">
        <ele>953.2800000</ele>
        <time>2009-07-05T14:49:13Z</time>
      </trkpt>
      <trkpt lat="45.9106990" lon="9.0578010">
        <ele>952.1200000</ele>
        <time>2009-07-05T14:49:18Z</time>
      </trkpt>
      <trkpt lat="45.9106170" lon="9.0578700">
        <ele>951.5400000</ele>
        <time>2009-07-05T14:49:20Z</time>
      </trkpt>
      <trkpt lat="45.9104360" lon="9.0581720">
        <ele>948.9200000</ele>
        <time>2009-07-05T14:49:25Z</time>
      </trkpt>
      <trkpt lat="45.9103450" lon="9.0584720">
        <ele>944.9100000</ele>
        <time>2009-07-05T14:49:29Z</time>
      </trkpt>
      <trkpt lat="45.9102190" lon="9.0587650">
        <ele>941.5000000</ele>
        <time>2009-07-05T14:49:33Z</time>
      </trkpt>
      <trkpt lat="45.9100930" lon="9.0591310">
        <ele>938.4800000</ele>
        <time>2009-07-05T14:49:37Z</time>
      </trkpt>
      <trkpt lat="45.9101060" lon="9.0594220">
        <ele>936.6400000</ele>
        <time>2009-07-05T14:49:40Z</time>
      </trkpt>
      <trkpt lat="45.9102590" lon="9.0600050">
        <ele>931.4200000</ele>
        <time>2009-07-05T14:49:45Z</time>
      </trkpt>
      <trkpt lat="45.9102130" lon="9.0598860">
        <ele>928.7900000</ele>
        <time>2009-07-05T14:49:51Z</time>
      </trkpt>
      <trkpt lat="45.9101820" lon="9.0597230">
        <ele>927.2200000</ele>
        <time>2009-07-05T14:49:53Z</time>
      </trkpt>
      <trkpt lat="45.9100290" lon="9.0591810">
        <ele>923.7200000</ele>
        <time>2009-07-05T14:49:58Z</time>
      </trkpt>
      <trkpt lat="45.9099610" lon="9.0588670">
        <ele>921.7300000</ele>
        <time>2009-07-05T14:50:01Z</time>
      </trkpt>
      <trkpt lat="45.9100820" lon="9.0585110">
        <ele>919.1700000</ele>
        <time>2009-07-05T14:50:05Z</time>
      </trkpt>
      <trkpt lat="45.9101870" lon="9.0582550">
        <ele>916.6500000</ele>
        <time>2009-07-05T14:50:08Z</time>
      </trkpt>
      <trkpt lat="45.9100710" lon="9.0581870">
        <ele>916.6400000</ele>
        <time>2009-07-05T14:50:12Z</time>
      </trkpt>
      <trkpt lat="45.9098720" lon="9.0581750">
        <ele>916.4800000</ele>
        <time>2009-07-05T14:50:14Z</time>
      </trkpt>
      <trkpt lat="45.9096370" lon="9.0582070">
        <ele>915.1800000</ele>
        <time>2009-07-05T14:50:19Z</time>
      </trkpt>
      <trkpt lat="45.9095450" lon="9.0582420">
        <ele>914.0800000</ele>
        <time>2009-07-05T14:50:21Z</time>
      </trkpt>
      <trkpt lat="45.9094660" lon="9.0582650">
        <ele>913.4500000</ele>
        <time>2009-07-05T14:50:23Z</time>
      </trkpt>
      <trkpt lat="45.9092060" lon="9.0581380">
        <ele>911.4900000</ele>
        <time>2009-07-05T14:50:27Z</time>
      </trkpt>
      <trkpt lat="45.9090790" lon="9.0580040">
        <ele>909.5200000</ele>
        <time>2009-07-05T14:50:29Z</time>
      </trkpt>
      <trkpt lat="45.9089060" lon="9.0575000">
        <ele>905.9200000</ele>
        <time>2009-07-05T14:50:34Z</time>
      </trkpt>
      <trkpt lat="45.9088000" lon="9.0568780">
        <ele>902.4700000</ele>
        <time>2009-07-05T14:50:39Z</time>
      </trkpt>
      <trkpt lat="45.9087950" lon="9.0566630">
        <ele>900.9800000</ele>
        <time>2009-07-05T14:50:41Z</time>
      </trkpt>
      <trkpt lat="45.9086650" lon="9.0563480">
        <ele>898.0700000</ele>
        <time>2009-07-05T14:50:46Z</time>
      </trkpt>
      <trkpt lat="45.9084920" lon="9.0562640">
        <ele>896.7000000</ele>
        <time>2009-07-05T14:50:49Z</time>
      </trkpt>
      <trkpt lat="45.9083420" lon="9.0559940">
        <ele>895.1800000</ele>
        <time>2009-07-05T14:50:53Z</time>
      </trkpt>
      <trkpt lat="45.9082810" lon="9.0558590">
        <ele>894.1400000</ele>
        <time>2009-07-05T14:50:55Z</time>
      </trkpt>
      <trkpt lat="45.9081880" lon="9.0556050">
        <ele>891.8500000</ele>
        <time>2009-07-05T14:50:58Z</time>
      </trkpt>
      <trkpt lat="45.9079580" lon="9.0550590">
        <ele>887.5900000</ele>
        <time>2009-07-05T14:51:03Z</time>
      </trkpt>
      <trkpt lat="45.9078470" lon="9.0548740">
        <ele>885.7200000</ele>
        <time>2009-07-05T14:51:05Z</time>
      </trkpt>
      <trkpt lat="45.9077360" lon="9.0547140">
        <ele>882.6600000</ele>
        <time>2009-07-05T14:51:07Z</time>
      </trkpt>
      <trkpt lat="45.9076470" lon="9.0545400">
        <ele>881.5300000</ele>
        <time>2009-07-05T14:51:09Z</time>
      </trkpt>
      <trkpt lat="45.9076410" lon="9.0542160">
        <ele>878.3800000</ele>
        <time>2009-07-05T14:51:12Z</time>
      </trkpt>
      <trkpt lat="45.9076170" lon="9.0539860">
        <ele>874.9400000</ele>
        <time>2009-07-05T14:51:15Z</time>
      </trkpt>
      <trkpt lat="45.9075940" lon="9.0540100">
        <ele>875.0800000</ele>
        <time>2009-07-05T14:51:16Z</time>
      </trkpt>
      <trkpt lat="45.9075740" lon="9.0540370">
        <ele>874.6300000</ele>
        <time>2009-07-05T14:51:20Z</time>
      </trkpt>
      <trkpt lat="45.9074730" lon="9.0540900">
        <ele>874.3400000</ele>
        <time>2009-07-05T14:51:35Z</time>
      </trkpt>
      <trkpt lat="45.9074560" lon="9.0540770">
        <ele>874.6100000</ele>
        <time>2009-07-05T14:51:53Z</time>
      </trkpt>
      <trkpt lat="45.9074690" lon="9.0542030">
        <ele>874.0000000</ele>
        <time>2009-07-05T14:51:58Z</time>
      </trkpt>
      <trkpt lat="45.9074670" lon="9.0542580">
        <ele>873.5400000</ele>
        <time>2009-07-05T14:51:59Z</time>
      </trkpt>
      <trkpt lat="45.9074610" lon="9.0544030">
        <ele>872.6300000</ele>
        <time>2009-07-05T14:52:01Z</time>
      </trkpt>
      <trkpt lat="45.9074510" lon="9.0544810">
        <ele>871.3700000</ele>
        <time>2009-07-05T14:52:02Z</time>
      </trkpt>
      <trkpt lat="45.9074950" lon="9.0548320">
        <ele>868.6400000</ele>
        <time>2009-07-05T14:52:06Z</time>
      </trkpt>
      <trkpt lat="45.9075650" lon="9.0550400">
        <ele>866.6300000</ele>
        <time>2009-07-05T14:52:08Z</time>
      </trkpt>
      <trkpt lat="45.9077280" lon="9.0557140">
        <ele>862.0000000</ele>
        <time>2009-07-05T14:52:13Z</time>
      </trkpt>
      <trkpt lat="45.9078370" lon="9.0562530">
        <ele>859.3400000</ele>
        <time>2009-07-05T14:52:17Z</time>
      </trkpt>
      <trkpt lat="45.9079080" lon="9.0566260">
        <ele>857.5400000</ele>
        <time>2009-07-05T14:52:20Z</time>
      </trkpt>
      <trkpt lat="45.9079980" lon="9.0569870">
        <ele>856.2000000</ele>
        <time>2009-07-05T14:52:24Z</time>
      </trkpt>
      <trkpt lat="45.9080230" lon="9.0570540">
        <ele>855.3300000</ele>
        <time>2009-07-05T14:52:27Z</time>
      </trkpt>
      <trkpt lat="45.9080530" lon="9.0570440">
        <ele>854.9300000</ele>
        <time>2009-07-05T14:52:59Z</time>
      </trkpt>
      <trkpt lat="45.9080910" lon="9.0571460">
        <ele>854.6500000</ele>
        <time>2009-07-05T14:53:03Z</time>
      </trkpt>
      <trkpt lat="45.9081370" lon="9.0572470">
        <ele>853.8500000</ele>
        <time>2009-07-05T14:53:05Z</time>
      </trkpt>
      <trkpt lat="45.9081640" lon="9.0574040">
        <ele>853.2700000</ele>
        <time>2009-07-05T14:53:07Z</time>
      </trkpt>
      <trkpt lat="45.9081440" lon="9.0578270">
        <ele>848.1500000</ele>
        <time>2009-07-05T14:53:11Z</time>
      </trkpt>
      <trkpt lat="45.9079870" lon="9.0578500">
        <ele>847.0300000</ele>
        <time>2009-07-05T14:53:14Z</time>
      </trkpt>
      <trkpt lat="45.9079020" lon="9.0576030">
        <ele>847.3400000</ele>
        <time>2009-07-05T14:53:18Z</time>
      </trkpt>
      <trkpt lat="45.9078190" lon="9.0575210">
        <ele>847.4700000</ele>
        <time>2009-07-05T14:53:21Z</time>
      </trkpt>
      <trkpt lat="45.9076520" lon="9.0573670">
        <ele>846.6500000</ele>
        <time>2009-07-05T14:53:27Z</time>
      </trkpt>
      <trkpt lat="45.9075730" lon="9.0573470">
        <ele>846.6300000</ele>
        <time>2009-07-05T14:53:29Z</time>
      </trkpt>
      <trkpt lat="45.9074760" lon="9.0573590">
        <ele>846.4500000</ele>
        <time>2009-07-05T14:53:31Z</time>
      </trkpt>
      <trkpt lat="45.9074190" lon="9.0571290">
        <ele>843.8900000</ele>
        <time>2009-07-05T14:53:35Z</time>
      </trkpt>
      <trkpt lat="45.9074230" lon="9.0570410">
        <ele>843.5800000</ele>
        <time>2009-07-05T14:53:36Z</time>
      </trkpt>
      <trkpt lat="45.9072760" lon="9.0565340">
        <ele>839.4200000</ele>
        <time>2009-07-05T14:53:40Z</time>
      </trkpt>
      <trkpt lat="45.9071550" lon="9.0563320">
        <ele>837.9000000</ele>
        <time>2009-07-05T14:53:42Z</time>
      </trkpt>
      <trkpt lat="45.9070520" lon="9.0561890">
        <ele>836.5800000</ele>
        <time>2009-07-05T14:53:44Z</time>
      </trkpt>
      <trkpt lat="45.9067850" lon="9.0562710">
        <ele>834.1600000</ele>
        <time>2009-07-05T14:53:48Z</time>
      </trkpt>
      <trkpt lat="45.9066810" lon="9.0562060">
        <ele>832.3800000</ele>
        <time>2009-07-05T14:53:51Z</time>
      </trkpt>
      <trkpt lat="45.9066330" lon="9.0559710">
        <ele>830.6400000</ele>
        <time>2009-07-05T14:53:55Z</time>
      </trkpt>
      <trkpt lat="45.9065030" lon="9.0556990">
        <ele>827.0600000</ele>
        <time>2009-07-05T14:53:58Z</time>
      </trkpt>
      <trkpt lat="45.9062780" lon="9.0555400">
        <ele>824.3400000</ele>
        <time>2009-07-05T14:54:01Z</time>
      </trkpt>
      <trkpt lat="45.9061990" lon="9.0555460">
        <ele>824.0700000</ele>
        <time>2009-07-05T14:54:02Z</time>
      </trkpt>
      <trkpt lat="45.9059840" lon="9.0556640">
        <ele>823.7500000</ele>
        <time>2009-07-05T14:54:05Z</time>
      </trkpt>
      <trkpt lat="45.9058680" lon="9.0555790">
        <ele>823.4600000</ele>
        <time>2009-07-05T14:54:07Z</time>
      </trkpt>
      <trkpt lat="45.9059110" lon="9.0554620">
        <ele>823.4300000</ele>
        <time>2009-07-05T14:54:09Z</time>
      </trkpt>
      <trkpt lat="45.9058490" lon="9.0548700">
        <ele>818.4300000</ele>
        <time>2009-07-05T14:54:14Z</time>
      </trkpt>
      <trkpt lat="45.9057390" lon="9.0545840">
        <ele>815.2100000</ele>
        <time>2009-07-05T14:54:17Z</time>
      </trkpt>
      <trkpt lat="45.9056810" lon="9.0544960">
        <ele>815.1200000</ele>
        <time>2009-07-05T14:54:18Z</time>
      </trkpt>
      <trkpt lat="45.9053520" lon="9.0541050">
        <ele>808.2400000</ele>
        <time>2009-07-05T14:54:22Z</time>
      </trkpt>
      <trkpt lat="45.9050560" lon="9.0538720">
        <ele>806.0800000</ele>
        <time>2009-07-05T14:54:25Z</time>
      </trkpt>
      <trkpt lat="45.9048630" lon="9.0537890">
        <ele>805.2600000</ele>
        <time>2009-07-05T14:54:27Z</time>
      </trkpt>
      <trkpt lat="45.9047030" lon="9.0537260">
        <ele>801.1900000</ele>
        <time>2009-07-05T14:54:29Z</time>
      </trkpt>
      <trkpt lat="45.9046270" lon="9.0536270">
        <ele>799.6700000</ele>
        <time>2009-07-05T14:54:31Z</time>
      </trkpt>
      <trkpt lat="45.9045740" lon="9.0533790">
        <ele>795.9500000</ele>
        <time>2009-07-05T14:54:34Z</time>
      </trkpt>
      <trkpt lat="45.9044030" lon="9.0531030">
        <ele>791.2800000</ele>
        <time>2009-07-05T14:54:37Z</time>
      </trkpt>
      <trkpt lat="45.9041620" lon="9.0529440">
        <ele>786.5100000</ele>
        <time>2009-07-05T14:54:40Z</time>
      </trkpt>
      <trkpt lat="45.9040280" lon="9.0528100">
        <ele>783.6400000</ele>
        <time>2009-07-05T14:54:42Z</time>
      </trkpt>
      <trkpt lat="45.9038240" lon="9.0526220">
        <ele>782.9000000</ele>
        <time>2009-07-05T14:54:46Z</time>
      </trkpt>
      <trkpt lat="45.9035410" lon="9.0525310">
        <ele>779.5900000</ele>
        <time>2009-07-05T14:54:50Z</time>
      </trkpt>
      <trkpt lat="45.9033630" lon="9.0521930">
        <ele>776.7100000</ele>
        <time>2009-07-05T14:54:54Z</time>
      </trkpt>
      <trkpt lat="45.9032670" lon="9.0520730">
        <ele>774.9500000</ele>
        <time>2009-07-05T14:54:56Z</time>
      </trkpt>
      <trkpt lat="45.9031800" lon="9.0519810">
        <ele>773.8500000</ele>
        <time>2009-07-05T14:54:58Z</time>
      </trkpt>
      <trkpt lat="45.9028690" lon="9.0516980">
        <ele>771.2500000</ele>
        <time>2009-07-05T14:55:04Z</time>
      </trkpt>
      <trkpt lat="45.9027070" lon="9.0514470">
        <ele>769.0500000</ele>
        <time>2009-07-05T14:55:07Z</time>
      </trkpt>
      <trkpt lat="45.9026360" lon="9.0513440">
        <ele>768.3900000</ele>
        <time>2009-07-05T14:55:08Z</time>
      </trkpt>
      <trkpt lat="45.9023240" lon="9.0508370">
        <ele>763.3100000</ele>
        <time>2009-07-05T14:55:12Z</time>
      </trkpt>
      <trkpt lat="45.9021500" lon="9.0506840">
        <ele>762.3000000</ele>
        <time>2009-07-05T14:55:14Z</time>
      </trkpt>
      <trkpt lat="45.9018720" lon="9.0506480">
        <ele>760.7500000</ele>
        <time>2009-07-05T14:55:17Z</time>
      </trkpt>
      <trkpt lat="45.9017050" lon="9.0507160">
        <ele>758.9900000</ele>
        <time>2009-07-05T14:55:19Z</time>
      </trkpt>
      <trkpt lat="45.9015840" lon="9.0508300">
        <ele>757.9600000</ele>
        <time>2009-07-05T14:55:21Z</time>
      </trkpt>
      <trkpt lat="45.9014420" lon="9.0508070">
        <ele>757.1200000</ele>
        <time>2009-07-05T14:55:24Z</time>
      </trkpt>
      <trkpt lat="45.9013290" lon="9.0505750">
        <ele>756.9900000</ele>
        <time>2009-07-05T14:55:27Z</time>
      </trkpt>
      <trkpt lat="45.9011270" lon="9.0503520">
        <ele>753.9600000</ele>
        <time>2009-07-05T14:55:31Z</time>
      </trkpt>
      <trkpt lat="45.9009460" lon="9.0502990">
        <ele>751.1700000</ele>
        <time>2009-07-05T14:55:33Z</time>
      </trkpt>
      <trkpt lat="45.9007190" lon="9.0502420">
        <ele>748.5700000</ele>
        <time>2009-07-05T14:55:35Z</time>
      </trkpt>
      <trkpt lat="45.9002680" lon="9.0499530">
        <ele>744.6200000</ele>
        <time>2009-07-05T14:55:39Z</time>
      </trkpt>
      <trkpt lat="45.9000560" lon="9.0498390">
        <ele>741.9600000</ele>
        <time>2009-07-05T14:55:41Z</time>
      </trkpt>
      <trkpt lat="45.8996860" lon="9.0495200">
        <ele>733.8100000</ele>
        <time>2009-07-05T14:55:45Z</time>
      </trkpt>
      <trkpt lat="45.8995270" lon="9.0493250">
        <ele>730.4600000</ele>
        <time>2009-07-05T14:55:47Z</time>
      </trkpt>
      <trkpt lat="45.8991400" lon="9.0487480">
        <ele>721.7400000</ele>
        <time>2009-07-05T14:55:52Z</time>
      </trkpt>
      <trkpt lat="45.8990880" lon="9.0485830">
        <ele>720.6000000</ele>
        <time>2009-07-05T14:55:53Z</time>
      </trkpt>
      <trkpt lat="45.8989610" lon="9.0481050">
        <ele>712.2700000</ele>
        <time>2009-07-05T14:55:56Z</time>
      </trkpt>
      <trkpt lat="45.8989250" lon="9.0477750">
        <ele>706.5500000</ele>
        <time>2009-07-05T14:55:59Z</time>
      </trkpt>
      <trkpt lat="45.8987830" lon="9.0474100">
        <ele>702.6000000</ele>
        <time>2009-07-05T14:56:03Z</time>
      </trkpt>
      <trkpt lat="45.8985950" lon="9.0470220">
        <ele>697.1700000</ele>
        <time>2009-07-05T14:56:07Z</time>
      </trkpt>
      <trkpt lat="45.8982540" lon="9.0464920">
        <ele>693.2300000</ele>
        <time>2009-07-05T14:56:14Z</time>
      </trkpt>
      <trkpt lat="45.8981310" lon="9.0463180">
        <ele>691.7600000</ele>
        <time>2009-07-05T14:56:17Z</time>
      </trkpt>
      <trkpt lat="45.8979790" lon="9.0461660">
        <ele>690.6100000</ele>
        <time>2009-07-05T14:56:22Z</time>
      </trkpt>
      <trkpt lat="45.8979680" lon="9.0461920">
        <ele>690.3600000</ele>
        <time>2009-07-05T14:56:26Z</time>
      </trkpt>
      <trkpt lat="45.8980350" lon="9.0462080">
        <ele>690.1400000</ele>
        <time>2009-07-05T14:56:32Z</time>
      </trkpt>
      <trkpt lat="45.8980240" lon="9.0461790">
        <ele>689.9100000</ele>
        <time>2009-07-05T14:56:40Z</time>
      </trkpt>
      <trkpt lat="45.8980680" lon="9.0460830">
        <ele>689.4500000</ele>
        <time>2009-07-05T14:57:04Z</time>
      </trkpt>
      <trkpt lat="45.8980600" lon="9.0460670">
        <ele>689.3000000</ele>
        <time>2009-07-05T14:57:06Z</time>
      </trkpt>
      <trkpt lat="45.8979470" lon="9.0460310">
        <ele>687.9800000</ele>
        <time>2009-07-05T14:57:12Z</time>
      </trkpt>
      <trkpt lat="45.8977620" lon="9.0460690">
        <ele>686.6800000</ele>
        <time>2009-07-05T14:57:16Z</time>
      </trkpt>
      <trkpt lat="45.8975310" lon="9.0460640">
        <ele>685.3900000</ele>
        <time>2009-07-05T14:57:20Z</time>
      </trkpt>
      <trkpt lat="45.8974320" lon="9.0460380">
        <ele>684.8100000</ele>
        <time>2009-07-05T14:57:22Z</time>
      </trkpt>
      <trkpt lat="45.8971520" lon="9.0458810">
        <ele>680.2100000</ele>
        <time>2009-07-05T14:57:28Z</time>
      </trkpt>
      <trkpt lat="45.8969670" lon="9.0456220">
        <ele>676.6800000</ele>
        <time>2009-07-05T14:57:32Z</time>
      </trkpt>
      <trkpt lat="45.8968210" lon="9.0455450">
        <ele>674.1600000</ele>
        <time>2009-07-05T14:57:35Z</time>
      </trkpt>
      <trkpt lat="45.8966830" lon="9.0455840">
        <ele>672.5000000</ele>
        <time>2009-07-05T14:57:37Z</time>
      </trkpt>
      <trkpt lat="45.8964400" lon="9.0456500">
        <ele>669.9900000</ele>
        <time>2009-07-05T14:57:40Z</time>
      </trkpt>
      <trkpt lat="45.8961030" lon="9.0455550">
        <ele>664.7600000</ele>
        <time>2009-07-05T14:57:44Z</time>
      </trkpt>
      <trkpt lat="45.8960240" lon="9.0455250">
        <ele>663.4700000</ele>
        <time>2009-07-05T14:57:45Z</time>
      </trkpt>
      <trkpt lat="45.8957560" lon="9.0454510">
        <ele>660.9000000</ele>
        <time>2009-07-05T14:57:49Z</time>
      </trkpt>
      <trkpt lat="45.8956240" lon="9.0452230">
        <ele>659.1500000</ele>
        <time>2009-07-05T14:57:52Z</time>
      </trkpt>
      <trkpt lat="45.8954690" lon="9.0451770">
        <ele>658.5600000</ele>
        <time>2009-07-05T14:57:54Z</time>
      </trkpt>
      <trkpt lat="45.8953780" lon="9.0451910">
        <ele>657.1500000</ele>
        <time>2009-07-05T14:57:55Z</time>
      </trkpt>
      <trkpt lat="45.8951750" lon="9.0452110">
        <ele>655.2200000</ele>
        <time>2009-07-05T14:57:57Z</time>
      </trkpt>
      <trkpt lat="45.8945690" lon="9.0450850">
        <ele>648.5700000</ele>
        <time>2009-07-05T14:58:02Z</time>
      </trkpt>
      <trkpt lat="45.8944600" lon="9.0450620">
        <ele>644.9200000</ele>
        <time>2009-07-05T14:58:03Z</time>
      </trkpt>
      <trkpt lat="45.8942550" lon="9.0449230">
        <ele>643.4600000</ele>
        <time>2009-07-05T14:58:05Z</time>
      </trkpt>
      <trkpt lat="45.8939720" lon="9.0446880">
        <ele>637.3000000</ele>
        <time>2009-07-05T14:58:08Z</time>
      </trkpt>
      <trkpt lat="45.8938950" lon="9.0446190">
        <ele>637.3000000</ele>
        <time>2009-07-05T14:58:09Z</time>
      </trkpt>
      <trkpt lat="45.8937900" lon="9.0444690">
        <ele>634.0500000</ele>
        <time>2009-07-05T14:58:11Z</time>
      </trkpt>
      <trkpt lat="45.8937470" lon="9.0443170">
        <ele>632.2500000</ele>
        <time>2009-07-05T14:58:13Z</time>
      </trkpt>
      <trkpt lat="45.8936610" lon="9.0441570">
        <ele>631.0800000</ele>
        <time>2009-07-05T14:58:16Z</time>
      </trkpt>
      <trkpt lat="45.8935550" lon="9.0440250">
        <ele>630.2200000</ele>
        <time>2009-07-05T14:58:19Z</time>
      </trkpt>
      <trkpt lat="45.8932350" lon="9.0437430">
        <ele>627.3700000</ele>
        <time>2009-07-05T14:58:25Z</time>
      </trkpt>
      <trkpt lat="45.8928780" lon="9.0435370">
        <ele>624.7500000</ele>
        <time>2009-07-05T14:58:30Z</time>
      </trkpt>
      <trkpt lat="45.8924060" lon="9.0433900">
        <ele>622.2500000</ele>
        <time>2009-07-05T14:58:36Z</time>
      </trkpt>
      <trkpt lat="45.8919960" lon="9.0432420">
        <ele>619.6900000</ele>
        <time>2009-07-05T14:58:40Z</time>
      </trkpt>
      <trkpt lat="45.8914100" lon="9.0429400">
        <ele>616.0500000</ele>
        <time>2009-07-05T14:58:45Z</time>
      </trkpt>
      <trkpt lat="45.8911670" lon="9.0428090">
        <ele>613.6300000</ele>
        <time>2009-07-05T14:58:47Z</time>
      </trkpt>
      <trkpt lat="45.8906340" lon="9.0427890">
        <ele>610.3100000</ele>
        <time>2009-07-05T14:58:51Z</time>
      </trkpt>
      <trkpt lat="45.8903680" lon="9.0426970">
        <ele>607.8900000</ele>
        <time>2009-07-05T14:58:53Z</time>
      </trkpt>
      <trkpt lat="45.8902490" lon="9.0425910">
        <ele>607.5400000</ele>
        <time>2009-07-05T14:58:54Z</time>
      </trkpt>
      <trkpt lat="45.8900210" lon="9.0423650">
        <ele>606.0300000</ele>
        <time>2009-07-05T14:58:56Z</time>
      </trkpt>
      <trkpt lat="45.8897190" lon="9.0422390">
        <ele>601.5900000</ele>
        <time>2009-07-05T14:58:59Z</time>
      </trkpt>
      <trkpt lat="45.8895600" lon="9.0423570">
        <ele>600.3400000</ele>
        <time>2009-07-05T14:59:01Z</time>
      </trkpt>
      <trkpt lat="45.8894200" lon="9.0425500">
        <ele>599.3100000</ele>
        <time>2009-07-05T14:59:03Z</time>
      </trkpt>
      <trkpt lat="45.8892350" lon="9.0426560">
        <ele>598.1900000</ele>
        <time>2009-07-05T14:59:05Z</time>
      </trkpt>
      <trkpt lat="45.8891330" lon="9.0426580">
        <ele>597.6000000</ele>
        <time>2009-07-05T14:59:06Z</time>
      </trkpt>
      <trkpt lat="45.8885900" lon="9.0427060">
        <ele>594.4800000</ele>
        <time>2009-07-05T14:59:11Z</time>
      </trkpt>
      <trkpt lat="45.8879210" lon="9.0429210">
        <ele>590.2900000</ele>
        <time>2009-07-05T14:59:17Z</time>
      </trkpt>
      <trkpt lat="45.8875270" lon="9.0430700">
        <ele>588.8000000</ele>
        <time>2009-07-05T14:59:21Z</time>
      </trkpt>
      <trkpt lat="45.8872450" lon="9.0431700">
        <ele>588.2800000</ele>
        <time>2009-07-05T14:59:24Z</time>
      </trkpt>
      <trkpt lat="45.8869940" lon="9.0430630">
        <ele>586.3300000</ele>
        <time>2009-07-05T14:59:27Z</time>
      </trkpt>
      <trkpt lat="45.8869510" lon="9.0429500">
        <ele>586.0800000</ele>
        <time>2009-07-05T14:59:28Z</time>
      </trkpt>
      <trkpt lat="45.8869310" lon="9.0428140">
        <ele>586.6400000</ele>
        <time>2009-07-05T14:59:29Z</time>
      </trkpt>
      <trkpt lat="45.8868630" lon="9.0423950">
        <ele>587.1400000</ele>
        <time>2009-07-05T14:59:32Z</time>
      </trkpt>
      <trkpt lat="45.8868860" lon="9.0416620">
        <ele>588.3500000</ele>
        <time>2009-07-05T14:59:37Z</time>
      </trkpt>
      <trkpt lat="45.8871310" lon="9.0412110">
        <ele>589.7100000</ele>
        <time>2009-07-05T14:59:41Z</time>
      </trkpt>
      <trkpt lat="45.8872370" lon="9.0411380">
        <ele>589.6800000</ele>
        <time>2009-07-05T14:59:42Z</time>
      </trkpt>
      <trkpt lat="45.8877040" lon="9.0407350">
        <ele>590.9000000</ele>
        <time>2009-07-05T14:59:47Z</time>
      </trkpt>
      <trkpt lat="45.8878030" lon="9.0403980">
        <ele>591.7200000</ele>
        <time>2009-07-05T14:59:50Z</time>
      </trkpt>
      <trkpt lat="45.8878090" lon="9.0402850">
        <ele>591.4500000</ele>
        <time>2009-07-05T14:59:51Z</time>
      </trkpt>
      <trkpt lat="45.8877620" lon="9.0396890">
        <ele>591.9000000</ele>
        <time>2009-07-05T14:59:57Z</time>
      </trkpt>
      <trkpt lat="45.8877280" lon="9.0395250">
        <ele>592.2700000</ele>
        <time>2009-07-05T14:59:59Z</time>
      </trkpt>
      <trkpt lat="45.8875580" lon="9.0392420">
        <ele>592.9200000</ele>
        <time>2009-07-05T15:00:04Z</time>
      </trkpt>
      <trkpt lat="45.8872160" lon="9.0389810">
        <ele>594.0200000</ele>
        <time>2009-07-05T15:00:12Z</time>
      </trkpt>
      <trkpt lat="45.8869480" lon="9.0387180">
        <ele>594.7500000</ele>
        <time>2009-07-05T15:00:19Z</time>
      </trkpt>
      <trkpt lat="45.8868870" lon="9.0386210">
        <ele>594.9400000</ele>
        <time>2009-07-05T15:00:21Z</time>
      </trkpt>
      <trkpt lat="45.8868100" lon="9.0384640">
        <ele>595.4600000</ele>
        <time>2009-07-05T15:00:24Z</time>
      </trkpt>
      <trkpt lat="45.8867060" lon="9.0379440">
        <ele>595.4200000</ele>
        <time>2009-07-05T15:00:33Z</time>
      </trkpt>
      <trkpt lat="45.8866030" lon="9.0376490">
        <ele>596.7100000</ele>
        <time>2009-07-05T15:00:39Z</time>
      </trkpt>
      <trkpt lat="45.8865670" lon="9.0376240">
        <ele>597.1700000</ele>
        <time>2009-07-05T15:00:40Z</time>
      </trkpt>
      <trkpt lat="45.8864070" lon="9.0375850">
        <ele>597.4000000</ele>
        <time>2009-07-05T15:00:44Z</time>
      </trkpt>
      <trkpt lat="45.8862410" lon="9.0375280">
        <ele>598.1400000</ele>
        <time>2009-07-05T15:00:48Z</time>
      </trkpt>
      <trkpt lat="45.8860920" lon="9.0374370">
        <ele>598.6900000</ele>
        <time>2009-07-05T15:00:52Z</time>
      </trkpt>
      <trkpt lat="45.8859600" lon="9.0374050">
        <ele>598.7800000</ele>
        <time>2009-07-05T15:00:55Z</time>
      </trkpt>
      <trkpt lat="45.8857090" lon="9.0374530">
        <ele>599.0400000</ele>
        <time>2009-07-05T15:01:01Z</time>
      </trkpt>
      <trkpt lat="45.8856710" lon="9.0374690">
        <ele>598.5800000</ele>
        <time>2009-07-05T15:01:04Z</time>
      </trkpt>
      <trkpt lat="45.8856100" lon="9.0375110">
        <ele>599.1900000</ele>
        <time>2009-07-05T15:01:12Z</time>
      </trkpt>
      <trkpt lat="45.8854180" lon="9.0376440">
        <ele>599.8600000</ele>
        <time>2009-07-05T15:01:18Z</time>
      </trkpt>
      <trkpt lat="45.8851830" lon="9.0377650">
        <ele>600.2800000</ele>
        <time>2009-07-05T15:01:25Z</time>
      </trkpt>
      <trkpt lat="45.8849510" lon="9.0377490">
        <ele>601.0700000</ele>
        <time>2009-07-05T15:01:31Z</time>
      </trkpt>
      <trkpt lat="45.8846480" lon="9.0376870">
        <ele>601.6400000</ele>
        <time>2009-07-05T15:01:39Z</time>
      </trkpt>
      <trkpt lat="45.8844530" lon="9.0377300">
        <ele>602.6800000</ele>
        <time>2009-07-05T15:01:44Z</time>
      </trkpt>
      <trkpt lat="45.8843380" lon="9.0378070">
        <ele>602.7600000</ele>
        <time>2009-07-05T15:01:47Z</time>
      </trkpt>
      <trkpt lat="45.8841960" lon="9.0379720">
        <ele>603.2400000</ele>
        <time>2009-07-05T15:01:52Z</time>
      </trkpt>
      <trkpt lat="45.8841660" lon="9.0379880">
        <ele>603.3100000</ele>
        <time>2009-07-05T15:01:53Z</time>
      </trkpt>
      <trkpt lat="45.8839830" lon="9.0379830">
        <ele>604.1000000</ele>
        <time>2009-07-05T15:01:59Z</time>
      </trkpt>
      <trkpt lat="45.8838560" lon="9.0377500">
        <ele>604.5100000</ele>
        <time>2009-07-05T15:02:05Z</time>
      </trkpt>
      <trkpt lat="45.8836920" lon="9.0374320">
        <ele>605.2800000</ele>
        <time>2009-07-05T15:02:12Z</time>
      </trkpt>
      <trkpt lat="45.8836040" lon="9.0371500">
        <ele>605.6600000</ele>
        <time>2009-07-05T15:02:18Z</time>
      </trkpt>
      <trkpt lat="45.8835860" lon="9.0368320">
        <ele>606.0600000</ele>
        <time>2009-07-05T15:02:24Z</time>
      </trkpt>
      <trkpt lat="45.8834600" lon="9.0365960">
        <ele>606.3700000</ele>
        <time>2009-07-05T15:02:29Z</time>
      </trkpt>
      <trkpt lat="45.8833830" lon="9.0365340">
        <ele>606.4300000</ele>
        <time>2009-07-05T15:02:31Z</time>
      </trkpt>
      <trkpt lat="45.8828740" lon="9.0362760">
        <ele>607.9800000</ele>
        <time>2009-07-05T15:02:43Z</time>
      </trkpt>
      <trkpt lat="45.8826150" lon="9.0361240">
        <ele>608.3300000</ele>
        <time>2009-07-05T15:02:50Z</time>
      </trkpt>
      <trkpt lat="45.8823090" lon="9.0358560">
        <ele>609.2200000</ele>
        <time>2009-07-05T15:02:59Z</time>
      </trkpt>
      <trkpt lat="45.8820360" lon="9.0356030">
        <ele>611.0900000</ele>
        <time>2009-07-05T15:03:07Z</time>
      </trkpt>
      <trkpt lat="45.8818060" lon="9.0353240">
        <ele>612.4800000</ele>
        <time>2009-07-05T15:03:14Z</time>
      </trkpt>
      <trkpt lat="45.8816430" lon="9.0350720">
        <ele>613.6500000</ele>
        <time>2009-07-05T15:03:20Z</time>
      </trkpt>
      <trkpt lat="45.8815510" lon="9.0349990">
        <ele>613.9500000</ele>
        <time>2009-07-05T15:03:24Z</time>
      </trkpt>
      <trkpt lat="45.8813710" lon="9.0349920">
        <ele>613.4100000</ele>
        <time>2009-07-05T15:03:29Z</time>
      </trkpt>
      <trkpt lat="45.8813340" lon="9.0350110">
        <ele>613.3800000</ele>
        <time>2009-07-05T15:03:30Z</time>
      </trkpt>
      <trkpt lat="45.8812190" lon="9.0351710">
        <ele>612.9700000</ele>
        <time>2009-07-05T15:03:34Z</time>
      </trkpt>
      <trkpt lat="45.8811830" lon="9.0352890">
        <ele>612.9900000</ele>
        <time>2009-07-05T15:03:36Z</time>
      </trkpt>
      <trkpt lat="45.8810980" lon="9.0357000">
        <ele>611.1100000</ele>
        <time>2009-07-05T15:03:41Z</time>
      </trkpt>
      <trkpt lat="45.8809160" lon="9.0360350">
        <ele>608.9500000</ele>
        <time>2009-07-05T15:03:45Z</time>
      </trkpt>
      <trkpt lat="45.8807390" lon="9.0360130">
        <ele>607.3600000</ele>
        <time>2009-07-05T15:03:47Z</time>
      </trkpt>
      <trkpt lat="45.8804510" lon="9.0359420">
        <ele>605.7100000</ele>
        <time>2009-07-05T15:03:50Z</time>
      </trkpt>
      <trkpt lat="45.8801540" lon="9.0360490">
        <ele>603.4100000</ele>
        <time>2009-07-05T15:03:53Z</time>
      </trkpt>
      <trkpt lat="45.8799550" lon="9.0363720">
        <ele>602.9200000</ele>
        <time>2009-07-05T15:03:56Z</time>
      </trkpt>
      <trkpt lat="45.8795780" lon="9.0374310">
        <ele>602.4700000</ele>
        <time>2009-07-05T15:04:05Z</time>
      </trkpt>
      <trkpt lat="45.8793560" lon="9.0380460">
        <ele>604.2400000</ele>
        <time>2009-07-05T15:04:11Z</time>
      </trkpt>
      <trkpt lat="45.8792040" lon="9.0384050">
        <ele>601.2700000</ele>
        <time>2009-07-05T15:04:15Z</time>
      </trkpt>
      <trkpt lat="45.8790290" lon="9.0385560">
        <ele>601.7900000</ele>
        <time>2009-07-05T15:04:18Z</time>
      </trkpt>
      <trkpt lat="45.8789500" lon="9.0383530">
        <ele>601.8200000</ele>
        <time>2009-07-05T15:04:20Z</time>
      </trkpt>
      <trkpt lat="45.8789500" lon="9.0382350">
        <ele>601.7200000</ele>
        <time>2009-07-05T15:04:21Z</time>
      </trkpt>
      <trkpt lat="45.8789040" lon="9.0372160">
        <ele>601.2100000</ele>
        <time>2009-07-05T15:04:29Z</time>
      </trkpt>
      <trkpt lat="45.8788570" lon="9.0362750">
        <ele>599.5900000</ele>
        <time>2009-07-05T15:04:36Z</time>
      </trkpt>
      <trkpt lat="45.8788340" lon="9.0359930">
        <ele>598.8200000</ele>
        <time>2009-07-05T15:04:38Z</time>
      </trkpt>
      <trkpt lat="45.8787060" lon="9.0356250">
        <ele>597.8400000</ele>
        <time>2009-07-05T15:04:41Z</time>
      </trkpt>
      <trkpt lat="45.8785300" lon="9.0355170">
        <ele>597.8100000</ele>
        <time>2009-07-05T15:04:43Z</time>
      </trkpt>
      <trkpt lat="45.8784320" lon="9.0354910">
        <ele>597.3900000</ele>
        <time>2009-07-05T15:04:44Z</time>
      </trkpt>
      <trkpt lat="45.8776490" lon="9.0353250">
        <ele>596.8800000</ele>
        <time>2009-07-05T15:04:52Z</time>
      </trkpt>
      <trkpt lat="45.8772000" lon="9.0350030">
        <ele>596.0400000</ele>
        <time>2009-07-05T15:04:57Z</time>
      </trkpt>
      <trkpt lat="45.8767620" lon="9.0346850">
        <ele>594.9700000</ele>
        <time>2009-07-05T15:05:02Z</time>
      </trkpt>
      <trkpt lat="45.8761500" lon="9.0343010">
        <ele>595.6800000</ele>
        <time>2009-07-05T15:05:09Z</time>
      </trkpt>
      <trkpt lat="45.8758790" lon="9.0342990">
        <ele>595.7200000</ele>
        <time>2009-07-05T15:05:12Z</time>
      </trkpt>
      <trkpt lat="45.8757940" lon="9.0343560">
        <ele>594.6500000</ele>
        <time>2009-07-05T15:05:13Z</time>
      </trkpt>
      <trkpt lat="45.8755340" lon="9.0343280">
        <ele>593.1600000</ele>
        <time>2009-07-05T15:05:17Z</time>
      </trkpt>
      <trkpt lat="45.8755290" lon="9.0342270">
        <ele>593.4100000</ele>
        <time>2009-07-05T15:05:18Z</time>
      </trkpt>
      <trkpt lat="45.8755300" lon="9.0339140">
        <ele>594.1400000</ele>
        <time>2009-07-05T15:05:21Z</time>
      </trkpt>
      <trkpt lat="45.8754730" lon="9.0332940">
        <ele>595.5200000</ele>
        <time>2009-07-05T15:05:27Z</time>
      </trkpt>
      <trkpt lat="45.8755860" lon="9.0329120">
        <ele>594.7500000</ele>
        <time>2009-07-05T15:05:31Z</time>
      </trkpt>
      <trkpt lat="45.8757870" lon="9.0322650">
        <ele>594.5000000</ele>
        <time>2009-07-05T15:05:37Z</time>
      </trkpt>
      <trkpt lat="45.8759130" lon="9.0314590">
        <ele>593.6300000</ele>
        <time>2009-07-05T15:05:44Z</time>
      </trkpt>
      <trkpt lat="45.8759450" lon="9.0309760">
        <ele>593.9800000</ele>
        <time>2009-07-05T15:05:48Z</time>
      </trkpt>
      <trkpt lat="45.8758440" lon="9.0305360">
        <ele>593.8800000</ele>
        <time>2009-07-05T15:05:52Z</time>
      </trkpt>
      <trkpt lat="45.8756910" lon="9.0304030">
        <ele>592.4700000</ele>
        <time>2009-07-05T15:05:54Z</time>
      </trkpt>
      <trkpt lat="45.8754220" lon="9.0301940">
        <ele>591.5600000</ele>
        <time>2009-07-05T15:05:57Z</time>
      </trkpt>
      <trkpt lat="45.8750810" lon="9.0297300">
        <ele>586.7400000</ele>
        <time>2009-07-05T15:06:01Z</time>
      </trkpt>
      <trkpt lat="45.8749710" lon="9.0296470">
        <ele>586.6900000</ele>
        <time>2009-07-05T15:06:02Z</time>
      </trkpt>
      <trkpt lat="45.8747200" lon="9.0296070">
        <ele>584.9200000</ele>
        <time>2009-07-05T15:06:04Z</time>
      </trkpt>
      <trkpt lat="45.8744700" lon="9.0296190">
        <ele>583.4800000</ele>
        <time>2009-07-05T15:06:06Z</time>
      </trkpt>
      <trkpt lat="45.8738370" lon="9.0297690">
        <ele>582.8600000</ele>
        <time>2009-07-05T15:06:11Z</time>
      </trkpt>
      <trkpt lat="45.8735890" lon="9.0297570">
        <ele>583.6000000</ele>
        <time>2009-07-05T15:06:13Z</time>
      </trkpt>
      <trkpt lat="45.8730240" lon="9.0295300">
        <ele>583.6200000</ele>
        <time>2009-07-05T15:06:18Z</time>
      </trkpt>
      <trkpt lat="45.8727230" lon="9.0293500">
        <ele>582.0600000</ele>
        <time>2009-07-05T15:06:21Z</time>
      </trkpt>
      <trkpt lat="45.8724280" lon="9.0293750">
        <ele>583.9700000</ele>
        <time>2009-07-05T15:06:24Z</time>
      </trkpt>
      <trkpt lat="45.8722990" lon="9.0295680">
        <ele>584.2300000</ele>
        <time>2009-07-05T15:06:26Z</time>
      </trkpt>
      <trkpt lat="45.8722330" lon="9.0298100">
        <ele>583.6300000</ele>
        <time>2009-07-05T15:06:28Z</time>
      </trkpt>
      <trkpt lat="45.8722750" lon="9.0303030">
        <ele>582.5800000</ele>
        <time>2009-07-05T15:06:32Z</time>
      </trkpt>
      <trkpt lat="45.8722980" lon="9.0305990">
        <ele>581.8700000</ele>
        <time>2009-07-05T15:06:34Z</time>
      </trkpt>
      <trkpt lat="45.8722660" lon="9.0314010">
        <ele>581.4900000</ele>
        <time>2009-07-05T15:06:40Z</time>
      </trkpt>
      <trkpt lat="45.8720070" lon="9.0318750">
        <ele>582.1700000</ele>
        <time>2009-07-05T15:06:45Z</time>
      </trkpt>
      <trkpt lat="45.8716950" lon="9.0324080">
        <ele>582.3300000</ele>
        <time>2009-07-05T15:06:52Z</time>
      </trkpt>
      <trkpt lat="45.8714420" lon="9.0328520">
        <ele>580.8100000</ele>
        <time>2009-07-05T15:06:57Z</time>
      </trkpt>
      <trkpt lat="45.8712010" lon="9.0329970">
        <ele>579.0700000</ele>
        <time>2009-07-05T15:07:00Z</time>
      </trkpt>
      <trkpt lat="45.8710320" lon="9.0328800">
        <ele>577.8200000</ele>
        <time>2009-07-05T15:07:02Z</time>
      </trkpt>
      <trkpt lat="45.8708370" lon="9.0325580">
        <ele>577.3900000</ele>
        <time>2009-07-05T15:07:05Z</time>
      </trkpt>
      <trkpt lat="45.8705910" lon="9.0323620">
        <ele>577.2000000</ele>
        <time>2009-07-05T15:07:08Z</time>
      </trkpt>
      <trkpt lat="45.8700890" lon="9.0320850">
        <ele>577.9000000</ele>
        <time>2009-07-05T15:07:14Z</time>
      </trkpt>
      <trkpt lat="45.8697640" lon="9.0319050">
        <ele>578.5500000</ele>
        <time>2009-07-05T15:07:18Z</time>
      </trkpt>
      <trkpt lat="45.8695110" lon="9.0319380">
        <ele>579.3300000</ele>
        <time>2009-07-05T15:07:21Z</time>
      </trkpt>
      <trkpt lat="45.8694140" lon="9.0321700">
        <ele>578.1400000</ele>
        <time>2009-07-05T15:07:23Z</time>
      </trkpt>
      <trkpt lat="45.8693800" lon="9.0323050">
        <ele>577.9900000</ele>
        <time>2009-07-05T15:07:24Z</time>
      </trkpt>
      <trkpt lat="45.8693570" lon="9.0327610">
        <ele>576.1200000</ele>
        <time>2009-07-05T15:07:27Z</time>
      </trkpt>
      <trkpt lat="45.8692820" lon="9.0330010">
        <ele>574.7400000</ele>
        <time>2009-07-05T15:07:29Z</time>
      </trkpt>
      <trkpt lat="45.8690990" lon="9.0329580">
        <ele>573.1900000</ele>
        <time>2009-07-05T15:07:31Z</time>
      </trkpt>
      <trkpt lat="45.8690350" lon="9.0328440">
        <ele>572.7900000</ele>
        <time>2009-07-05T15:07:32Z</time>
      </trkpt>
      <trkpt lat="45.8686390" lon="9.0324310">
        <ele>573.1300000</ele>
        <time>2009-07-05T15:07:37Z</time>
      </trkpt>
      <trkpt lat="45.8684380" lon="9.0324330">
        <ele>573.2500000</ele>
        <time>2009-07-05T15:07:39Z</time>
      </trkpt>
      <trkpt lat="45.8682360" lon="9.0324570">
        <ele>572.4700000</ele>
        <time>2009-07-05T15:07:41Z</time>
      </trkpt>
      <trkpt lat="45.8679600" lon="9.0322900">
        <ele>571.0200000</ele>
        <time>2009-07-05T15:07:44Z</time>
      </trkpt>
      <trkpt lat="45.8679330" lon="9.0321460">
        <ele>570.6000000</ele>
        <time>2009-07-05T15:07:45Z</time>
      </trkpt>
      <trkpt lat="45.8676680" lon="9.0315630">
        <ele>571.1700000</ele>
        <time>2009-07-05T15:07:50Z</time>
      </trkpt>
      <trkpt lat="45.8673410" lon="9.0313680">
        <ele>571.3400000</ele>
        <time>2009-07-05T15:07:54Z</time>
      </trkpt>
      <trkpt lat="45.8670880" lon="9.0313980">
        <ele>571.3100000</ele>
        <time>2009-07-05T15:07:57Z</time>
      </trkpt>
      <trkpt lat="45.8666320" lon="9.0314960">
        <ele>571.0400000</ele>
        <time>2009-07-05T15:08:03Z</time>
      </trkpt>
      <trkpt lat="45.8664510" lon="9.0313610">
        <ele>572.2100000</ele>
        <time>2009-07-05T15:08:07Z</time>
      </trkpt>
      <trkpt lat="45.8664230" lon="9.0312460">
        <ele>572.2100000</ele>
        <time>2009-07-05T15:08:10Z</time>
      </trkpt>
      <trkpt lat="45.8664190" lon="9.0312450">
        <ele>572.1300000</ele>
        <time>2009-07-05T15:08:14Z</time>
      </trkpt>
      <trkpt lat="45.8664140" lon="9.0312590">
        <ele>571.9900000</ele>
        <time>2009-07-05T15:08:19Z</time>
      </trkpt>
      <trkpt lat="45.8665190" lon="9.0313260">
        <ele>571.5500000</ele>
        <time>2009-07-05T15:08:48Z</time>
      </trkpt>
      <trkpt lat="45.8665640" lon="9.0313470">
        <ele>571.4700000</ele>
        <time>2009-07-05T15:08:52Z</time>
      </trkpt>
      <trkpt lat="45.8666090" lon="9.0312280">
        <ele>571.7300000</ele>
        <time>2009-07-05T15:08:55Z</time>
      </trkpt>
      <trkpt lat="45.8666430" lon="9.0311550">
        <ele>572.1200000</ele>
        <time>2009-07-05T15:08:57Z</time>
      </trkpt>
      <trkpt lat="45.8667220" lon="9.0309440">
        <ele>573.6200000</ele>
        <time>2009-07-05T15:09:02Z</time>
      </trkpt>
      <trkpt lat="45.8667770" lon="9.0305360">
        <ele>575.8700000</ele>
        <time>2009-07-05T15:09:09Z</time>
      </trkpt>
      <trkpt lat="45.8667940" lon="9.0304160">
        <ele>576.4700000</ele>
        <time>2009-07-05T15:09:11Z</time>
      </trkpt>
      <trkpt lat="45.8667710" lon="9.0300920">
        <ele>577.8500000</ele>
        <time>2009-07-05T15:09:16Z</time>
      </trkpt>
      <trkpt lat="45.8666290" lon="9.0297500">
        <ele>579.1700000</ele>
        <time>2009-07-05T15:09:21Z</time>
      </trkpt>
      <trkpt lat="45.8663350" lon="9.0295230">
        <ele>579.4600000</ele>
        <time>2009-07-05T15:09:26Z</time>
      </trkpt>
      <trkpt lat="45.8659340" lon="9.0294200">
        <ele>578.6700000</ele>
        <time>2009-07-05T15:09:32Z</time>
      </trkpt>
      <trkpt lat="45.8655000" lon="9.0294080">
        <ele>577.9900000</ele>
        <time>2009-07-05T15:09:39Z</time>
      </trkpt>
      <trkpt lat="45.8650050" lon="9.0293900">
        <ele>578.7200000</ele>
        <time>2009-07-05T15:09:47Z</time>
      </trkpt>
      <trkpt lat="45.8647280" lon="9.0293720">
        <ele>579.4100000</ele>
        <time>2009-07-05T15:09:51Z</time>
      </trkpt>
      <trkpt lat="45.8643880" lon="9.0291960">
        <ele>579.6400000</ele>
        <time>2009-07-05T15:09:56Z</time>
      </trkpt>
      <trkpt lat="45.8638440" lon="9.0286470">
        <ele>580.0600000</ele>
        <time>2009-07-05T15:10:05Z</time>
      </trkpt>
      <trkpt lat="45.8635410" lon="9.0283260">
        <ele>579.9100000</ele>
        <time>2009-07-05T15:10:10Z</time>
      </trkpt>
      <trkpt lat="45.8633170" lon="9.0278650">
        <ele>578.4800000</ele>
        <time>2009-07-05T15:10:15Z</time>
      </trkpt>
      <trkpt lat="45.8632710" lon="9.0276200">
        <ele>577.3800000</ele>
        <time>2009-07-05T15:10:17Z</time>
      </trkpt>
      <trkpt lat="45.8632220" lon="9.0270600">
        <ele>574.3900000</ele>
        <time>2009-07-05T15:10:21Z</time>
      </trkpt>
      <trkpt lat="45.8630560" lon="9.0264920">
        <ele>571.2600000</ele>
        <time>2009-07-05T15:10:25Z</time>
      </trkpt>
      <trkpt lat="45.8629510" lon="9.0258260">
        <ele>566.9300000</ele>
        <time>2009-07-05T15:10:29Z</time>
      </trkpt>
      <trkpt lat="45.8629760" lon="9.0254590">
        <ele>565.2800000</ele>
        <time>2009-07-05T15:10:31Z</time>
      </trkpt>
      <trkpt lat="45.8628670" lon="9.0247770">
        <ele>561.5900000</ele>
        <time>2009-07-05T15:10:35Z</time>
      </trkpt>
      <trkpt lat="45.8625480" lon="9.0247160">
        <ele>559.8100000</ele>
        <time>2009-07-05T15:10:37Z</time>
      </trkpt>
      <trkpt lat="45.8624220" lon="9.0247610">
        <ele>560.2500000</ele>
        <time>2009-07-05T15:10:38Z</time>
      </trkpt>
      <trkpt lat="45.8623010" lon="9.0248390">
        <ele>555.6000000</ele>
        <time>2009-07-05T15:10:39Z</time>
      </trkpt>
      <trkpt lat="45.8614280" lon="9.0254430">
        <ele>548.3200000</ele>
        <time>2009-07-05T15:10:46Z</time>
      </trkpt>
      <trkpt lat="45.8607100" lon="9.0257340">
        <ele>543.6200000</ele>
        <time>2009-07-05T15:10:51Z</time>
      </trkpt>
      <trkpt lat="45.8605610" lon="9.0257900">
        <ele>543.5200000</ele>
        <time>2009-07-05T15:10:52Z</time>
      </trkpt>
      <trkpt lat="45.8602580" lon="9.0258910">
        <ele>543.5900000</ele>
        <time>2009-07-05T15:10:54Z</time>
      </trkpt>
      <trkpt lat="45.8596390" lon="9.0258820">
        <ele>538.1400000</ele>
        <time>2009-07-05T15:10:58Z</time>
      </trkpt>
      <trkpt lat="45.8594690" lon="9.0256010">
        <ele>535.6000000</ele>
        <time>2009-07-05T15:11:01Z</time>
      </trkpt>
      <trkpt lat="45.8596210" lon="9.0255050">
        <ele>537.6900000</ele>
        <time>2009-07-05T15:11:03Z</time>
      </trkpt>
      <trkpt lat="45.8597100" lon="9.0255340">
        <ele>535.9900000</ele>
        <time>2009-07-05T15:11:04Z</time>
      </trkpt>
      <trkpt lat="45.8602130" lon="9.0255980">
        <ele>531.9700000</ele>
        <time>2009-07-05T15:11:09Z</time>
      </trkpt>
      <trkpt lat="45.8605060" lon="9.0253260">
        <ele>528.4800000</ele>
        <time>2009-07-05T15:11:12Z</time>
      </trkpt>
      <trkpt lat="45.8605900" lon="9.0252000">
        <ele>528.2000000</ele>
        <time>2009-07-05T15:11:13Z</time>
      </trkpt>
      <trkpt lat="45.8608400" lon="9.0248200">
        <ele>526.7400000</ele>
        <time>2009-07-05T15:11:16Z</time>
      </trkpt>
      <trkpt lat="45.8616510" lon="9.0235630">
        <ele>516.2400000</ele>
        <time>2009-07-05T15:11:26Z</time>
      </trkpt>
      <trkpt lat="45.8618920" lon="9.0231840">
        <ele>514.5300000</ele>
        <time>2009-07-05T15:11:29Z</time>
      </trkpt>
      <trkpt lat="45.8620530" lon="9.0229410">
        <ele>513.2100000</ele>
        <time>2009-07-05T15:11:31Z</time>
      </trkpt>
      <trkpt lat="45.8622840" lon="9.0225780">
        <ele>513.7000000</ele>
        <time>2009-07-05T15:11:34Z</time>
      </trkpt>
      <trkpt lat="45.8623530" lon="9.0221640">
        <ele>511.9200000</ele>
        <time>2009-07-05T15:11:37Z</time>
      </trkpt>
      <trkpt lat="45.8621360" lon="9.0221410">
        <ele>511.0600000</ele>
        <time>2009-07-05T15:11:39Z</time>
      </trkpt>
      <trkpt lat="45.8619870" lon="9.0223230">
        <ele>511.1800000</ele>
        <time>2009-07-05T15:11:41Z</time>
      </trkpt>
      <trkpt lat="45.8614800" lon="9.0230250">
        <ele>503.4700000</ele>
        <time>2009-07-05T15:11:47Z</time>
      </trkpt>
      <trkpt lat="45.8610250" lon="9.0234850">
        <ele>499.9400000</ele>
        <time>2009-07-05T15:11:51Z</time>
      </trkpt>
      <trkpt lat="45.8606350" lon="9.0238010">
        <ele>499.1000000</ele>
        <time>2009-07-05T15:11:54Z</time>
      </trkpt>
      <trkpt lat="45.8602020" lon="9.0239190">
        <ele>496.8600000</ele>
        <time>2009-07-05T15:11:57Z</time>
      </trkpt>
      <trkpt lat="45.8600550" lon="9.0238880">
        <ele>494.5900000</ele>
        <time>2009-07-05T15:11:58Z</time>
      </trkpt>
      <trkpt lat="45.8597670" lon="9.0238020">
        <ele>494.9400000</ele>
        <time>2009-07-05T15:12:00Z</time>
      </trkpt>
      <trkpt lat="45.8594010" lon="9.0234150">
        <ele>489.8100000</ele>
        <time>2009-07-05T15:12:03Z</time>
      </trkpt>
      <trkpt lat="45.8593350" lon="9.0232430">
        <ele>490.4200000</ele>
        <time>2009-07-05T15:12:04Z</time>
      </trkpt>
      <trkpt lat="45.8593120" lon="9.0229120">
        <ele>486.8800000</ele>
        <time>2009-07-05T15:12:06Z</time>
      </trkpt>
      <trkpt lat="45.8593550" lon="9.0226340">
        <ele>485.1900000</ele>
        <time>2009-07-05T15:12:08Z</time>
      </trkpt>
      <trkpt lat="45.8594340" lon="9.0225010">
        <ele>483.9100000</ele>
        <time>2009-07-05T15:12:10Z</time>
      </trkpt>
      <trkpt lat="45.8595400" lon="9.0224140">
        <ele>483.6000000</ele>
        <time>2009-07-05T15:12:12Z</time>
      </trkpt>
      <trkpt lat="45.8599100" lon="9.0220550">
        <ele>483.4400000</ele>
        <time>2009-07-05T15:12:19Z</time>
      </trkpt>
      <trkpt lat="45.8600720" lon="9.0218750">
        <ele>481.7900000</ele>
        <time>2009-07-05T15:12:22Z</time>
      </trkpt>
      <trkpt lat="45.8603800" lon="9.0215370">
        <ele>478.4100000</ele>
        <time>2009-07-05T15:12:27Z</time>
      </trkpt>
      <trkpt lat="45.8604820" lon="9.0214710">
        <ele>472.8300000</ele>
        <time>2009-07-05T15:19:47Z</time>
      </trkpt>
      <trkpt lat="45.8604850" lon="9.0213330">
        <ele>472.8100000</ele>
        <time>2009-07-05T15:19:51Z</time>
      </trkpt>
      <trkpt lat="45.8605240" lon="9.0210810">
        <ele>472.8200000</ele>
        <time>2009-07-05T15:19:58Z</time>
      </trkpt>
      <trkpt lat="45.8606660" lon="9.0208410">
        <ele>473.4900000</ele>
        <time>2009-07-05T15:20:06Z</time>
      </trkpt>
      <trkpt lat="45.8608060" lon="9.0206010">
        <ele>474.3700000</ele>
        <time>2009-07-05T15:20:14Z</time>
      </trkpt>
      <trkpt lat="45.8609770" lon="9.0203180">
        <ele>475.3700000</ele>
        <time>2009-07-05T15:20:23Z</time>
      </trkpt>
      <trkpt lat="45.8611200" lon="9.0200460">
        <ele>475.1800000</ele>
        <time>2009-07-05T15:20:30Z</time>
      </trkpt>
      <trkpt lat="45.8611640" lon="9.0197480">
        <ele>474.3400000</ele>
        <time>2009-07-05T15:20:34Z</time>
      </trkpt>
      <trkpt lat="45.8611680" lon="9.0195570">
        <ele>473.6200000</ele>
        <time>2009-07-05T15:20:36Z</time>
      </trkpt>
      <trkpt lat="45.8613050" lon="9.0191660">
        <ele>470.8700000</ele>
        <time>2009-07-05T15:20:40Z</time>
      </trkpt>
      <trkpt lat="45.8613770" lon="9.0190910">
        <ele>470.6900000</ele>
        <time>2009-07-05T15:20:41Z</time>
      </trkpt>
      <trkpt lat="45.8616220" lon="9.0188800">
        <ele>468.6300000</ele>
        <time>2009-07-05T15:20:44Z</time>
      </trkpt>
      <trkpt lat="45.8619360" lon="9.0187800">
        <ele>467.2700000</ele>
        <time>2009-07-05T15:20:47Z</time>
      </trkpt>
      <trkpt lat="45.8622590" lon="9.0189840">
        <ele>463.8500000</ele>
        <time>2009-07-05T15:20:50Z</time>
      </trkpt>
      <trkpt lat="45.8624140" lon="9.0188700">
        <ele>463.3500000</ele>
        <time>2009-07-05T15:20:52Z</time>
      </trkpt>
      <trkpt lat="45.8624510" lon="9.0187640">
        <ele>462.9900000</ele>
        <time>2009-07-05T15:20:53Z</time>
      </trkpt>
      <trkpt lat="45.8627420" lon="9.0177310">
        <ele>460.6800000</ele>
        <time>2009-07-05T15:21:03Z</time>
      </trkpt>
      <trkpt lat="45.8627700" lon="9.0176320">
        <ele>460.1700000</ele>
        <time>2009-07-05T15:21:04Z</time>
      </trkpt>
      <trkpt lat="45.8627940" lon="9.0172150">
        <ele>459.6900000</ele>
        <time>2009-07-05T15:21:08Z</time>
      </trkpt>
      <trkpt lat="45.8627700" lon="9.0171170">
        <ele>459.7900000</ele>
        <time>2009-07-05T15:21:09Z</time>
      </trkpt>
      <trkpt lat="45.8626160" lon="9.0165260">
        <ele>461.3000000</ele>
        <time>2009-07-05T15:21:16Z</time>
      </trkpt>
      <trkpt lat="45.8625710" lon="9.0163920">
        <ele>461.0700000</ele>
        <time>2009-07-05T15:21:18Z</time>
      </trkpt>
      <trkpt lat="45.8624150" lon="9.0161480">
        <ele>461.7500000</ele>
        <time>2009-07-05T15:21:23Z</time>
      </trkpt>
      <trkpt lat="45.8622870" lon="9.0160260">
        <ele>462.4400000</ele>
        <time>2009-07-05T15:21:26Z</time>
      </trkpt>
      <trkpt lat="45.8620550" lon="9.0156760">
        <ele>463.9000000</ele>
        <time>2009-07-05T15:21:33Z</time>
      </trkpt>
      <trkpt lat="45.8618360" lon="9.0154320">
        <ele>464.4900000</ele>
        <time>2009-07-05T15:21:39Z</time>
      </trkpt>
      <trkpt lat="45.8616850" lon="9.0151250">
        <ele>465.4300000</ele>
        <time>2009-07-05T15:21:45Z</time>
      </trkpt>
      <trkpt lat="45.8614710" lon="9.0146780">
        <ele>466.8700000</ele>
        <time>2009-07-05T15:21:54Z</time>
      </trkpt>
      <trkpt lat="45.8612830" lon="9.0143480">
        <ele>468.1600000</ele>
        <time>2009-07-05T15:22:01Z</time>
      </trkpt>
      <trkpt lat="45.8612400" lon="9.0142420">
        <ele>468.2700000</ele>
        <time>2009-07-05T15:22:03Z</time>
      </trkpt>
      <trkpt lat="45.8612270" lon="9.0138740">
        <ele>469.3600000</ele>
        <time>2009-07-05T15:22:09Z</time>
      </trkpt>
      <trkpt lat="45.8612600" lon="9.0137520">
        <ele>469.5900000</ele>
        <time>2009-07-05T15:22:11Z</time>
      </trkpt>
      <trkpt lat="45.8614650" lon="9.0132150">
        <ele>471.2700000</ele>
        <time>2009-07-05T15:22:20Z</time>
      </trkpt>
      <trkpt lat="45.8615660" lon="9.0128350">
        <ele>471.7100000</ele>
        <time>2009-07-05T15:22:27Z</time>
      </trkpt>
      <trkpt lat="45.8616220" lon="9.0123170">
        <ele>471.8500000</ele>
        <time>2009-07-05T15:22:36Z</time>
      </trkpt>
      <trkpt lat="45.8616770" lon="9.0117980">
        <ele>471.9200000</ele>
        <time>2009-07-05T15:22:45Z</time>
      </trkpt>
      <trkpt lat="45.8616420" lon="9.0115280">
        <ele>472.3500000</ele>
        <time>2009-07-05T15:22:50Z</time>
      </trkpt>
      <trkpt lat="45.8615400" lon="9.0111540">
        <ele>471.6400000</ele>
        <time>2009-07-05T15:22:58Z</time>
      </trkpt>
      <trkpt lat="45.8614390" lon="9.0108250">
        <ele>471.4900000</ele>
        <time>2009-07-05T15:23:05Z</time>
      </trkpt>
      <trkpt lat="45.8613620" lon="9.0104410">
        <ele>470.8400000</ele>
        <time>2009-07-05T15:23:11Z</time>
      </trkpt>
      <trkpt lat="45.8613560" lon="9.0103670">
        <ele>470.5500000</ele>
        <time>2009-07-05T15:23:12Z</time>
      </trkpt>
      <trkpt lat="45.8614000" lon="9.0099800">
        <ele>469.6000000</ele>
        <time>2009-07-05T15:23:17Z</time>
      </trkpt>
      <trkpt lat="45.8616000" lon="9.0094380">
        <ele>469.1800000</ele>
        <time>2009-07-05T15:23:25Z</time>
      </trkpt>
      <trkpt lat="45.8617140" lon="9.0091630">
        <ele>469.1300000</ele>
        <time>2009-07-05T15:23:30Z</time>
      </trkpt>
      <trkpt lat="45.8618590" lon="9.0088000">
        <ele>468.5700000</ele>
        <time>2009-07-05T15:23:37Z</time>
      </trkpt>
      <trkpt lat="45.8618900" lon="9.0086940">
        <ele>468.1500000</ele>
        <time>2009-07-05T15:23:41Z</time>
      </trkpt>
      <trkpt lat="45.8619100" lon="9.0086820">
        <ele>468.0500000</ele>
        <time>2009-07-05T15:23:51Z</time>
      </trkpt>
      <trkpt lat="45.8619000" lon="9.0086780">
        <ele>467.1900000</ele>
        <time>2009-07-05T15:24:24Z</time>
      </trkpt>
    </trkseg>
  </trk>

</gpx>
